<?xml version="1.0" encoding="UTF-8" standalone="no" ?>
<gpx xmlns="http://www.topografix.com/GPX/1/1" xmlns:xsi="http://www.w3.org/2001/XMLSchema-instance" xsi:schemaLocation="http://www.topografix.com/GPX/1/1 http://www.topografix.com/GPX/1/1/gpx.xsd" version="1.1" creator="VisuGPX - https://www.visugpx.com">
  <metadata>
    <name>AVRILLE- Dolmens et Menhirs</name>
    <desc><![CDATA[Randonnée pédestre en majorité sur des chemins plaisants d?Avrillé et du Bernard avec opportunité de visites et connaitre l'histoire de plusieurs dolmens et menhirs ainsi que de la fontaine St Gré.
Le passage a gué du ruisseau du Bois Renard sur de gros rochers est a considérer avec prudence ( possible suivant niveau eau du ruisseau,a défaut prendre pont sur D949 et route vers le Grand Boisseau avec poursuite de la randonnée)]]></desc>
  </metadata>
  <trk>
    <name><![CDATA[20190326213655-gkaVe]]></name>
    <trkseg>
      <trkpt lat="46.47052" lon="-1.49367">
        <ele>47</ele>
        <time>2019-03-26T14:29:26Z</time>
      </trkpt>
      <trkpt lat="46.47054" lon="-1.49365">
        <ele>47</ele>
        <time>2019-03-26T14:29:28Z</time>
      </trkpt>
      <trkpt lat="46.47057" lon="-1.4936">
        <ele>47</ele>
        <time>2019-03-26T14:29:30Z</time>
      </trkpt>
      <trkpt lat="46.47059" lon="-1.49356">
        <ele>47</ele>
        <time>2019-03-26T14:29:32Z</time>
      </trkpt>
      <trkpt lat="46.4706" lon="-1.49351">
        <ele>47</ele>
        <time>2019-03-26T14:29:35Z</time>
      </trkpt>
      <trkpt lat="46.4706" lon="-1.49349">
        <ele>47</ele>
        <time>2019-03-26T14:29:37Z</time>
      </trkpt>
      <trkpt lat="46.47058" lon="-1.49344">
        <ele>47</ele>
        <time>2019-03-26T14:29:40Z</time>
      </trkpt>
      <trkpt lat="46.47057" lon="-1.4934">
        <ele>47</ele>
        <time>2019-03-26T14:29:42Z</time>
      </trkpt>
      <trkpt lat="46.47055" lon="-1.49335">
        <ele>47</ele>
        <time>2019-03-26T14:29:45Z</time>
      </trkpt>
      <trkpt lat="46.47053" lon="-1.49331">
        <ele>47</ele>
        <time>2019-03-26T14:29:47Z</time>
      </trkpt>
      <trkpt lat="46.47053" lon="-1.49328">
        <ele>47</ele>
        <time>2019-03-26T14:29:50Z</time>
      </trkpt>
      <trkpt lat="46.47052" lon="-1.49323">
        <ele>47</ele>
        <time>2019-03-26T14:29:53Z</time>
      </trkpt>
      <trkpt lat="46.47051" lon="-1.4932">
        <ele>47</ele>
        <time>2019-03-26T14:29:55Z</time>
      </trkpt>
      <trkpt lat="46.47049" lon="-1.49316">
        <ele>46</ele>
        <time>2019-03-26T14:29:58Z</time>
      </trkpt>
      <trkpt lat="46.47048" lon="-1.49313">
        <ele>46</ele>
        <time>2019-03-26T14:30:00Z</time>
      </trkpt>
      <trkpt lat="46.47047" lon="-1.4931">
        <ele>46</ele>
        <time>2019-03-26T14:30:03Z</time>
      </trkpt>
      <trkpt lat="46.47045" lon="-1.49307">
        <ele>46</ele>
        <time>2019-03-26T14:30:05Z</time>
      </trkpt>
      <trkpt lat="46.47043" lon="-1.49303">
        <ele>46</ele>
        <time>2019-03-26T14:30:08Z</time>
      </trkpt>
      <trkpt lat="46.47042" lon="-1.49301">
        <ele>46</ele>
        <time>2019-03-26T14:30:10Z</time>
      </trkpt>
      <trkpt lat="46.4704" lon="-1.49299">
        <ele>46</ele>
        <time>2019-03-26T14:30:13Z</time>
      </trkpt>
      <trkpt lat="46.47039" lon="-1.49296">
        <ele>46</ele>
        <time>2019-03-26T14:30:15Z</time>
      </trkpt>
      <trkpt lat="46.47036" lon="-1.49291">
        <ele>45</ele>
        <time>2019-03-26T14:30:18Z</time>
      </trkpt>
      <trkpt lat="46.47035" lon="-1.49288">
        <ele>45</ele>
        <time>2019-03-26T14:30:20Z</time>
      </trkpt>
      <trkpt lat="46.47032" lon="-1.49286">
        <ele>45</ele>
        <time>2019-03-26T14:30:23Z</time>
      </trkpt>
      <trkpt lat="46.4703" lon="-1.49284">
        <ele>45</ele>
        <time>2019-03-26T14:30:25Z</time>
      </trkpt>
      <trkpt lat="46.47026" lon="-1.49283">
        <ele>45</ele>
        <time>2019-03-26T14:30:28Z</time>
      </trkpt>
      <trkpt lat="46.47024" lon="-1.49282">
        <ele>45</ele>
        <time>2019-03-26T14:30:30Z</time>
      </trkpt>
      <trkpt lat="46.4702" lon="-1.4928">
        <ele>45</ele>
        <time>2019-03-26T14:30:33Z</time>
      </trkpt>
      <trkpt lat="46.47017" lon="-1.49278">
        <ele>45</ele>
        <time>2019-03-26T14:30:35Z</time>
      </trkpt>
      <trkpt lat="46.47013" lon="-1.49274">
        <ele>45</ele>
        <time>2019-03-26T14:30:38Z</time>
      </trkpt>
      <trkpt lat="46.4701" lon="-1.4927">
        <ele>45</ele>
        <time>2019-03-26T14:30:40Z</time>
      </trkpt>
      <trkpt lat="46.47008" lon="-1.49268">
        <ele>44</ele>
        <time>2019-03-26T14:30:43Z</time>
      </trkpt>
      <trkpt lat="46.47008" lon="-1.49267">
        <ele>44</ele>
        <time>2019-03-26T14:30:46Z</time>
      </trkpt>
      <trkpt lat="46.47008" lon="-1.49264">
        <ele>44</ele>
        <time>2019-03-26T14:30:48Z</time>
      </trkpt>
      <trkpt lat="46.47006" lon="-1.49261">
        <ele>44</ele>
        <time>2019-03-26T14:30:51Z</time>
      </trkpt>
      <trkpt lat="46.47004" lon="-1.49258">
        <ele>44</ele>
        <time>2019-03-26T14:30:53Z</time>
      </trkpt>
      <trkpt lat="46.47001" lon="-1.49256">
        <ele>44</ele>
        <time>2019-03-26T14:30:56Z</time>
      </trkpt>
      <trkpt lat="46.47001" lon="-1.49255">
        <ele>44</ele>
        <time>2019-03-26T14:30:58Z</time>
      </trkpt>
      <trkpt lat="46.47" lon="-1.49255">
        <ele>44</ele>
        <time>2019-03-26T14:31:01Z</time>
      </trkpt>
      <trkpt lat="46.47" lon="-1.49254">
        <ele>44</ele>
        <time>2019-03-26T14:31:03Z</time>
      </trkpt>
      <trkpt lat="46.46999" lon="-1.49254">
        <ele>44</ele>
        <time>2019-03-26T14:31:06Z</time>
      </trkpt>
      <trkpt lat="46.46999" lon="-1.49254">
        <ele>44</ele>
        <time>2019-03-26T14:31:08Z</time>
      </trkpt>
      <trkpt lat="46.46999" lon="-1.49254">
        <ele>44</ele>
        <time>2019-03-26T14:31:11Z</time>
      </trkpt>
      <trkpt lat="46.47" lon="-1.49255">
        <ele>44</ele>
        <time>2019-03-26T14:31:13Z</time>
      </trkpt>
      <trkpt lat="46.47002" lon="-1.49257">
        <ele>44</ele>
        <time>2019-03-26T14:31:16Z</time>
      </trkpt>
      <trkpt lat="46.47004" lon="-1.49259">
        <ele>44</ele>
        <time>2019-03-26T14:31:18Z</time>
      </trkpt>
      <trkpt lat="46.47004" lon="-1.49261">
        <ele>44</ele>
        <time>2019-03-26T14:31:21Z</time>
      </trkpt>
      <trkpt lat="46.47005" lon="-1.49262">
        <ele>44</ele>
        <time>2019-03-26T14:31:23Z</time>
      </trkpt>
      <trkpt lat="46.47006" lon="-1.49263">
        <ele>44</ele>
        <time>2019-03-26T14:31:26Z</time>
      </trkpt>
      <trkpt lat="46.47007" lon="-1.49264">
        <ele>44</ele>
        <time>2019-03-26T14:31:28Z</time>
      </trkpt>
      <trkpt lat="46.47007" lon="-1.49263">
        <ele>44</ele>
        <time>2019-03-26T14:31:31Z</time>
      </trkpt>
      <trkpt lat="46.47006" lon="-1.49261">
        <ele>44</ele>
        <time>2019-03-26T14:31:33Z</time>
      </trkpt>
      <trkpt lat="46.47004" lon="-1.49258">
        <ele>44</ele>
        <time>2019-03-26T14:31:36Z</time>
      </trkpt>
      <trkpt lat="46.47001" lon="-1.49257">
        <ele>44</ele>
        <time>2019-03-26T14:31:38Z</time>
      </trkpt>
      <trkpt lat="46.46998" lon="-1.49255">
        <ele>44</ele>
        <time>2019-03-26T14:31:41Z</time>
      </trkpt>
      <trkpt lat="46.46995" lon="-1.49252">
        <ele>44</ele>
        <time>2019-03-26T14:31:44Z</time>
      </trkpt>
      <trkpt lat="46.46994" lon="-1.4925">
        <ele>44</ele>
        <time>2019-03-26T14:31:46Z</time>
      </trkpt>
      <trkpt lat="46.46994" lon="-1.49247">
        <ele>44</ele>
        <time>2019-03-26T14:31:49Z</time>
      </trkpt>
      <trkpt lat="46.46991" lon="-1.49244">
        <ele>44</ele>
        <time>2019-03-26T14:31:51Z</time>
      </trkpt>
      <trkpt lat="46.46988" lon="-1.4924">
        <ele>43</ele>
        <time>2019-03-26T14:31:54Z</time>
      </trkpt>
      <trkpt lat="46.46986" lon="-1.49237">
        <ele>43</ele>
        <time>2019-03-26T14:31:56Z</time>
      </trkpt>
      <trkpt lat="46.46982" lon="-1.49234">
        <ele>43</ele>
        <time>2019-03-26T14:31:59Z</time>
      </trkpt>
      <trkpt lat="46.4698" lon="-1.49232">
        <ele>43</ele>
        <time>2019-03-26T14:32:01Z</time>
      </trkpt>
      <trkpt lat="46.46977" lon="-1.49229">
        <ele>43</ele>
        <time>2019-03-26T14:32:04Z</time>
      </trkpt>
      <trkpt lat="46.46976" lon="-1.49227">
        <ele>43</ele>
        <time>2019-03-26T14:32:06Z</time>
      </trkpt>
      <trkpt lat="46.46977" lon="-1.49226">
        <ele>43</ele>
        <time>2019-03-26T14:32:09Z</time>
      </trkpt>
      <trkpt lat="46.46977" lon="-1.49226">
        <ele>43</ele>
        <time>2019-03-26T14:32:11Z</time>
      </trkpt>
      <trkpt lat="46.46977" lon="-1.49226">
        <ele>43</ele>
        <time>2019-03-26T14:32:14Z</time>
      </trkpt>
      <trkpt lat="46.46977" lon="-1.49226">
        <ele>43</ele>
        <time>2019-03-26T14:32:16Z</time>
      </trkpt>
      <trkpt lat="46.46974" lon="-1.49223">
        <ele>43</ele>
        <time>2019-03-26T14:32:19Z</time>
      </trkpt>
      <trkpt lat="46.46971" lon="-1.49221">
        <ele>43</ele>
        <time>2019-03-26T14:32:21Z</time>
      </trkpt>
      <trkpt lat="46.46968" lon="-1.49218">
        <ele>43</ele>
        <time>2019-03-26T14:32:24Z</time>
      </trkpt>
      <trkpt lat="46.46967" lon="-1.49216">
        <ele>43</ele>
        <time>2019-03-26T14:32:26Z</time>
      </trkpt>
      <trkpt lat="46.46965" lon="-1.49215">
        <ele>43</ele>
        <time>2019-03-26T14:32:29Z</time>
      </trkpt>
      <trkpt lat="46.46965" lon="-1.49216">
        <ele>43</ele>
        <time>2019-03-26T14:32:31Z</time>
      </trkpt>
      <trkpt lat="46.46964" lon="-1.49215">
        <ele>43</ele>
        <time>2019-03-26T14:32:34Z</time>
      </trkpt>
      <trkpt lat="46.46963" lon="-1.49215">
        <ele>43</ele>
        <time>2019-03-26T14:32:36Z</time>
      </trkpt>
      <trkpt lat="46.46963" lon="-1.49215">
        <ele>43</ele>
        <time>2019-03-26T14:32:39Z</time>
      </trkpt>
      <trkpt lat="46.46962" lon="-1.49215">
        <ele>43</ele>
        <time>2019-03-26T14:32:41Z</time>
      </trkpt>
      <trkpt lat="46.46962" lon="-1.49215">
        <ele>43</ele>
        <time>2019-03-26T14:32:44Z</time>
      </trkpt>
      <trkpt lat="46.46961" lon="-1.49215">
        <ele>43</ele>
        <time>2019-03-26T14:32:46Z</time>
      </trkpt>
      <trkpt lat="46.46961" lon="-1.49215">
        <ele>43</ele>
        <time>2019-03-26T14:32:48Z</time>
      </trkpt>
      <trkpt lat="46.46961" lon="-1.49215">
        <ele>43</ele>
        <time>2019-03-26T14:32:51Z</time>
      </trkpt>
      <trkpt lat="46.46961" lon="-1.49215">
        <ele>43</ele>
        <time>2019-03-26T14:32:53Z</time>
      </trkpt>
      <trkpt lat="46.4696" lon="-1.49214">
        <ele>43</ele>
        <time>2019-03-26T14:32:56Z</time>
      </trkpt>
      <trkpt lat="46.46958" lon="-1.49212">
        <ele>43</ele>
        <time>2019-03-26T14:32:58Z</time>
      </trkpt>
      <trkpt lat="46.46955" lon="-1.4921">
        <ele>42</ele>
        <time>2019-03-26T14:33:01Z</time>
      </trkpt>
      <trkpt lat="46.46953" lon="-1.49208">
        <ele>42</ele>
        <time>2019-03-26T14:33:03Z</time>
      </trkpt>
      <trkpt lat="46.46949" lon="-1.49206">
        <ele>42</ele>
        <time>2019-03-26T14:33:06Z</time>
      </trkpt>
      <trkpt lat="46.46947" lon="-1.49204">
        <ele>42</ele>
        <time>2019-03-26T14:33:08Z</time>
      </trkpt>
      <trkpt lat="46.46943" lon="-1.492">
        <ele>42</ele>
        <time>2019-03-26T14:33:11Z</time>
      </trkpt>
      <trkpt lat="46.46941" lon="-1.49198">
        <ele>42</ele>
        <time>2019-03-26T14:33:13Z</time>
      </trkpt>
      <trkpt lat="46.46938" lon="-1.49194">
        <ele>42</ele>
        <time>2019-03-26T14:33:16Z</time>
      </trkpt>
      <trkpt lat="46.46936" lon="-1.49193">
        <ele>42</ele>
        <time>2019-03-26T14:33:18Z</time>
      </trkpt>
      <trkpt lat="46.46935" lon="-1.49189">
        <ele>42</ele>
        <time>2019-03-26T14:33:21Z</time>
      </trkpt>
      <trkpt lat="46.46934" lon="-1.49186">
        <ele>42</ele>
        <time>2019-03-26T14:33:23Z</time>
      </trkpt>
      <trkpt lat="46.46931" lon="-1.49181">
        <ele>42</ele>
        <time>2019-03-26T14:33:26Z</time>
      </trkpt>
      <trkpt lat="46.4693" lon="-1.49178">
        <ele>42</ele>
        <time>2019-03-26T14:33:28Z</time>
      </trkpt>
      <trkpt lat="46.4693" lon="-1.49171">
        <ele>41</ele>
        <time>2019-03-26T14:33:31Z</time>
      </trkpt>
      <trkpt lat="46.46932" lon="-1.49168">
        <ele>41</ele>
        <time>2019-03-26T14:33:33Z</time>
      </trkpt>
      <trkpt lat="46.46932" lon="-1.49164">
        <ele>42</ele>
        <time>2019-03-26T14:33:36Z</time>
      </trkpt>
      <trkpt lat="46.46934" lon="-1.4916">
        <ele>42</ele>
        <time>2019-03-26T14:33:39Z</time>
      </trkpt>
      <trkpt lat="46.46934" lon="-1.49157">
        <ele>42</ele>
        <time>2019-03-26T14:33:41Z</time>
      </trkpt>
      <trkpt lat="46.46935" lon="-1.49152">
        <ele>41</ele>
        <time>2019-03-26T14:33:44Z</time>
      </trkpt>
      <trkpt lat="46.46935" lon="-1.49148">
        <ele>41</ele>
        <time>2019-03-26T14:33:46Z</time>
      </trkpt>
      <trkpt lat="46.46935" lon="-1.49143">
        <ele>41</ele>
        <time>2019-03-26T14:33:49Z</time>
      </trkpt>
      <trkpt lat="46.46936" lon="-1.4914">
        <ele>41</ele>
        <time>2019-03-26T14:33:51Z</time>
      </trkpt>
      <trkpt lat="46.46936" lon="-1.49135">
        <ele>41</ele>
        <time>2019-03-26T14:33:54Z</time>
      </trkpt>
      <trkpt lat="46.46936" lon="-1.4913">
        <ele>41</ele>
        <time>2019-03-26T14:33:56Z</time>
      </trkpt>
      <trkpt lat="46.46935" lon="-1.49126">
        <ele>41</ele>
        <time>2019-03-26T14:33:59Z</time>
      </trkpt>
      <trkpt lat="46.46934" lon="-1.4912">
        <ele>41</ele>
        <time>2019-03-26T14:34:02Z</time>
      </trkpt>
      <trkpt lat="46.46934" lon="-1.49114">
        <ele>41</ele>
        <time>2019-03-26T14:34:04Z</time>
      </trkpt>
      <trkpt lat="46.46933" lon="-1.4911">
        <ele>41</ele>
        <time>2019-03-26T14:34:07Z</time>
      </trkpt>
      <trkpt lat="46.46932" lon="-1.49103">
        <ele>41</ele>
        <time>2019-03-26T14:34:10Z</time>
      </trkpt>
      <trkpt lat="46.46931" lon="-1.49099">
        <ele>41</ele>
        <time>2019-03-26T14:34:12Z</time>
      </trkpt>
      <trkpt lat="46.46929" lon="-1.49093">
        <ele>41</ele>
        <time>2019-03-26T14:34:15Z</time>
      </trkpt>
      <trkpt lat="46.46928" lon="-1.49086">
        <ele>41</ele>
        <time>2019-03-26T14:34:17Z</time>
      </trkpt>
      <trkpt lat="46.46927" lon="-1.49082">
        <ele>41</ele>
        <time>2019-03-26T14:34:20Z</time>
      </trkpt>
      <trkpt lat="46.46926" lon="-1.49076">
        <ele>41</ele>
        <time>2019-03-26T14:34:23Z</time>
      </trkpt>
      <trkpt lat="46.46925" lon="-1.49072">
        <ele>41</ele>
        <time>2019-03-26T14:34:25Z</time>
      </trkpt>
      <trkpt lat="46.46924" lon="-1.49065">
        <ele>41</ele>
        <time>2019-03-26T14:34:28Z</time>
      </trkpt>
      <trkpt lat="46.46923" lon="-1.49061">
        <ele>41</ele>
        <time>2019-03-26T14:34:30Z</time>
      </trkpt>
      <trkpt lat="46.46923" lon="-1.49055">
        <ele>41</ele>
        <time>2019-03-26T14:34:33Z</time>
      </trkpt>
      <trkpt lat="46.46921" lon="-1.4905">
        <ele>41</ele>
        <time>2019-03-26T14:34:35Z</time>
      </trkpt>
      <trkpt lat="46.4692" lon="-1.49044">
        <ele>41</ele>
        <time>2019-03-26T14:34:38Z</time>
      </trkpt>
      <trkpt lat="46.46919" lon="-1.4904">
        <ele>41</ele>
        <time>2019-03-26T14:34:40Z</time>
      </trkpt>
      <trkpt lat="46.46918" lon="-1.49033">
        <ele>41</ele>
        <time>2019-03-26T14:34:43Z</time>
      </trkpt>
      <trkpt lat="46.46917" lon="-1.49027">
        <ele>41</ele>
        <time>2019-03-26T14:34:46Z</time>
      </trkpt>
      <trkpt lat="46.46916" lon="-1.49023">
        <ele>41</ele>
        <time>2019-03-26T14:34:48Z</time>
      </trkpt>
      <trkpt lat="46.46914" lon="-1.49018">
        <ele>41</ele>
        <time>2019-03-26T14:34:51Z</time>
      </trkpt>
      <trkpt lat="46.46914" lon="-1.49014">
        <ele>41</ele>
        <time>2019-03-26T14:34:53Z</time>
      </trkpt>
      <trkpt lat="46.46912" lon="-1.49009">
        <ele>41</ele>
        <time>2019-03-26T14:34:56Z</time>
      </trkpt>
      <trkpt lat="46.46912" lon="-1.49005">
        <ele>41</ele>
        <time>2019-03-26T14:34:58Z</time>
      </trkpt>
      <trkpt lat="46.4691" lon="-1.49">
        <ele>41</ele>
        <time>2019-03-26T14:35:01Z</time>
      </trkpt>
      <trkpt lat="46.4691" lon="-1.48995">
        <ele>41</ele>
        <time>2019-03-26T14:35:03Z</time>
      </trkpt>
      <trkpt lat="46.46908" lon="-1.4899">
        <ele>40</ele>
        <time>2019-03-26T14:35:06Z</time>
      </trkpt>
      <trkpt lat="46.46906" lon="-1.48984">
        <ele>40</ele>
        <time>2019-03-26T14:35:09Z</time>
      </trkpt>
      <trkpt lat="46.46905" lon="-1.4898">
        <ele>40</ele>
        <time>2019-03-26T14:35:11Z</time>
      </trkpt>
      <trkpt lat="46.46904" lon="-1.48977">
        <ele>40</ele>
        <time>2019-03-26T14:35:14Z</time>
      </trkpt>
      <trkpt lat="46.46903" lon="-1.48972">
        <ele>40</ele>
        <time>2019-03-26T14:35:16Z</time>
      </trkpt>
      <trkpt lat="46.46901" lon="-1.48967">
        <ele>40</ele>
        <time>2019-03-26T14:35:19Z</time>
      </trkpt>
      <trkpt lat="46.469" lon="-1.48963">
        <ele>40</ele>
        <time>2019-03-26T14:35:21Z</time>
      </trkpt>
      <trkpt lat="46.46899" lon="-1.48957">
        <ele>40</ele>
        <time>2019-03-26T14:35:24Z</time>
      </trkpt>
      <trkpt lat="46.46897" lon="-1.48954">
        <ele>40</ele>
        <time>2019-03-26T14:35:26Z</time>
      </trkpt>
      <trkpt lat="46.46895" lon="-1.4895">
        <ele>40</ele>
        <time>2019-03-26T14:35:29Z</time>
      </trkpt>
      <trkpt lat="46.46894" lon="-1.48946">
        <ele>40</ele>
        <time>2019-03-26T14:35:31Z</time>
      </trkpt>
      <trkpt lat="46.46892" lon="-1.4894">
        <ele>39</ele>
        <time>2019-03-26T14:35:34Z</time>
      </trkpt>
      <trkpt lat="46.46891" lon="-1.48936">
        <ele>39</ele>
        <time>2019-03-26T14:35:36Z</time>
      </trkpt>
      <trkpt lat="46.4689" lon="-1.4893">
        <ele>39</ele>
        <time>2019-03-26T14:35:39Z</time>
      </trkpt>
      <trkpt lat="46.46889" lon="-1.48926">
        <ele>39</ele>
        <time>2019-03-26T14:35:41Z</time>
      </trkpt>
      <trkpt lat="46.46889" lon="-1.4892">
        <ele>39</ele>
        <time>2019-03-26T14:35:44Z</time>
      </trkpt>
      <trkpt lat="46.46889" lon="-1.48916">
        <ele>39</ele>
        <time>2019-03-26T14:35:46Z</time>
      </trkpt>
      <trkpt lat="46.46888" lon="-1.48911">
        <ele>39</ele>
        <time>2019-03-26T14:35:49Z</time>
      </trkpt>
      <trkpt lat="46.46887" lon="-1.48907">
        <ele>39</ele>
        <time>2019-03-26T14:35:51Z</time>
      </trkpt>
      <trkpt lat="46.46887" lon="-1.489">
        <ele>39</ele>
        <time>2019-03-26T14:35:54Z</time>
      </trkpt>
      <trkpt lat="46.46886" lon="-1.48896">
        <ele>39</ele>
        <time>2019-03-26T14:35:56Z</time>
      </trkpt>
      <trkpt lat="46.46885" lon="-1.48889">
        <ele>38</ele>
        <time>2019-03-26T14:35:59Z</time>
      </trkpt>
      <trkpt lat="46.46884" lon="-1.48885">
        <ele>38</ele>
        <time>2019-03-26T14:36:01Z</time>
      </trkpt>
      <trkpt lat="46.46884" lon="-1.48879">
        <ele>38</ele>
        <time>2019-03-26T14:36:04Z</time>
      </trkpt>
      <trkpt lat="46.46883" lon="-1.48874">
        <ele>38</ele>
        <time>2019-03-26T14:36:06Z</time>
      </trkpt>
      <trkpt lat="46.46883" lon="-1.48869">
        <ele>38</ele>
        <time>2019-03-26T14:36:09Z</time>
      </trkpt>
      <trkpt lat="46.46883" lon="-1.48865">
        <ele>38</ele>
        <time>2019-03-26T14:36:11Z</time>
      </trkpt>
      <trkpt lat="46.46883" lon="-1.48859">
        <ele>38</ele>
        <time>2019-03-26T14:36:14Z</time>
      </trkpt>
      <trkpt lat="46.46883" lon="-1.48855">
        <ele>38</ele>
        <time>2019-03-26T14:36:16Z</time>
      </trkpt>
      <trkpt lat="46.46883" lon="-1.48847">
        <ele>38</ele>
        <time>2019-03-26T14:36:19Z</time>
      </trkpt>
      <trkpt lat="46.46882" lon="-1.48844">
        <ele>38</ele>
        <time>2019-03-26T14:36:21Z</time>
      </trkpt>
      <trkpt lat="46.46882" lon="-1.48838">
        <ele>37</ele>
        <time>2019-03-26T14:36:24Z</time>
      </trkpt>
      <trkpt lat="46.46882" lon="-1.48835">
        <ele>37</ele>
        <time>2019-03-26T14:36:26Z</time>
      </trkpt>
      <trkpt lat="46.46882" lon="-1.48829">
        <ele>37</ele>
        <time>2019-03-26T14:36:29Z</time>
      </trkpt>
      <trkpt lat="46.46882" lon="-1.48825">
        <ele>37</ele>
        <time>2019-03-26T14:36:31Z</time>
      </trkpt>
      <trkpt lat="46.46881" lon="-1.48819">
        <ele>37</ele>
        <time>2019-03-26T14:36:34Z</time>
      </trkpt>
      <trkpt lat="46.46881" lon="-1.48816">
        <ele>37</ele>
        <time>2019-03-26T14:36:36Z</time>
      </trkpt>
      <trkpt lat="46.46881" lon="-1.48812">
        <ele>37</ele>
        <time>2019-03-26T14:36:39Z</time>
      </trkpt>
      <trkpt lat="46.46881" lon="-1.48808">
        <ele>37</ele>
        <time>2019-03-26T14:36:42Z</time>
      </trkpt>
      <trkpt lat="46.46879" lon="-1.48803">
        <ele>37</ele>
        <time>2019-03-26T14:36:44Z</time>
      </trkpt>
      <trkpt lat="46.46878" lon="-1.48797">
        <ele>37</ele>
        <time>2019-03-26T14:36:46Z</time>
      </trkpt>
      <trkpt lat="46.46877" lon="-1.48794">
        <ele>37</ele>
        <time>2019-03-26T14:36:49Z</time>
      </trkpt>
      <trkpt lat="46.46876" lon="-1.48788">
        <ele>37</ele>
        <time>2019-03-26T14:36:52Z</time>
      </trkpt>
      <trkpt lat="46.46875" lon="-1.48785">
        <ele>37</ele>
        <time>2019-03-26T14:36:54Z</time>
      </trkpt>
      <trkpt lat="46.46874" lon="-1.48779">
        <ele>36</ele>
        <time>2019-03-26T14:36:57Z</time>
      </trkpt>
      <trkpt lat="46.46873" lon="-1.48775">
        <ele>36</ele>
        <time>2019-03-26T14:36:59Z</time>
      </trkpt>
      <trkpt lat="46.46872" lon="-1.4877">
        <ele>36</ele>
        <time>2019-03-26T14:37:02Z</time>
      </trkpt>
      <trkpt lat="46.46871" lon="-1.48766">
        <ele>36</ele>
        <time>2019-03-26T14:37:04Z</time>
      </trkpt>
      <trkpt lat="46.4687" lon="-1.48761">
        <ele>36</ele>
        <time>2019-03-26T14:37:07Z</time>
      </trkpt>
      <trkpt lat="46.46869" lon="-1.48757">
        <ele>36</ele>
        <time>2019-03-26T14:37:09Z</time>
      </trkpt>
      <trkpt lat="46.46868" lon="-1.48753">
        <ele>36</ele>
        <time>2019-03-26T14:37:12Z</time>
      </trkpt>
      <trkpt lat="46.46867" lon="-1.48747">
        <ele>36</ele>
        <time>2019-03-26T14:37:14Z</time>
      </trkpt>
      <trkpt lat="46.46866" lon="-1.48742">
        <ele>35</ele>
        <time>2019-03-26T14:37:16Z</time>
      </trkpt>
      <trkpt lat="46.46864" lon="-1.48736">
        <ele>35</ele>
        <time>2019-03-26T14:37:19Z</time>
      </trkpt>
      <trkpt lat="46.46863" lon="-1.48732">
        <ele>35</ele>
        <time>2019-03-26T14:37:21Z</time>
      </trkpt>
      <trkpt lat="46.46862" lon="-1.48727">
        <ele>35</ele>
        <time>2019-03-26T14:37:24Z</time>
      </trkpt>
      <trkpt lat="46.46861" lon="-1.48723">
        <ele>35</ele>
        <time>2019-03-26T14:37:26Z</time>
      </trkpt>
      <trkpt lat="46.4686" lon="-1.48718">
        <ele>35</ele>
        <time>2019-03-26T14:37:29Z</time>
      </trkpt>
      <trkpt lat="46.46858" lon="-1.48715">
        <ele>35</ele>
        <time>2019-03-26T14:37:31Z</time>
      </trkpt>
      <trkpt lat="46.46856" lon="-1.48709">
        <ele>34</ele>
        <time>2019-03-26T14:37:34Z</time>
      </trkpt>
      <trkpt lat="46.46855" lon="-1.48706">
        <ele>34</ele>
        <time>2019-03-26T14:37:36Z</time>
      </trkpt>
      <trkpt lat="46.46853" lon="-1.48701">
        <ele>34</ele>
        <time>2019-03-26T14:37:39Z</time>
      </trkpt>
      <trkpt lat="46.46851" lon="-1.48695">
        <ele>34</ele>
        <time>2019-03-26T14:37:42Z</time>
      </trkpt>
      <trkpt lat="46.46849" lon="-1.48692">
        <ele>34</ele>
        <time>2019-03-26T14:37:44Z</time>
      </trkpt>
      <trkpt lat="46.46847" lon="-1.48687">
        <ele>34</ele>
        <time>2019-03-26T14:37:47Z</time>
      </trkpt>
      <trkpt lat="46.46846" lon="-1.48684">
        <ele>34</ele>
        <time>2019-03-26T14:37:49Z</time>
      </trkpt>
      <trkpt lat="46.46843" lon="-1.4868">
        <ele>34</ele>
        <time>2019-03-26T14:37:52Z</time>
      </trkpt>
      <trkpt lat="46.46842" lon="-1.48677">
        <ele>34</ele>
        <time>2019-03-26T14:37:54Z</time>
      </trkpt>
      <trkpt lat="46.46839" lon="-1.48672">
        <ele>34</ele>
        <time>2019-03-26T14:37:57Z</time>
      </trkpt>
      <trkpt lat="46.46837" lon="-1.48669">
        <ele>34</ele>
        <time>2019-03-26T14:37:59Z</time>
      </trkpt>
      <trkpt lat="46.46834" lon="-1.48665">
        <ele>34</ele>
        <time>2019-03-26T14:38:02Z</time>
      </trkpt>
      <trkpt lat="46.46832" lon="-1.4866">
        <ele>34</ele>
        <time>2019-03-26T14:38:04Z</time>
      </trkpt>
      <trkpt lat="46.46831" lon="-1.48657">
        <ele>34</ele>
        <time>2019-03-26T14:38:07Z</time>
      </trkpt>
      <trkpt lat="46.46828" lon="-1.48653">
        <ele>34</ele>
        <time>2019-03-26T14:38:10Z</time>
      </trkpt>
      <trkpt lat="46.46825" lon="-1.4865">
        <ele>34</ele>
        <time>2019-03-26T14:38:12Z</time>
      </trkpt>
      <trkpt lat="46.46822" lon="-1.48645">
        <ele>33</ele>
        <time>2019-03-26T14:38:15Z</time>
      </trkpt>
      <trkpt lat="46.4682" lon="-1.48642">
        <ele>33</ele>
        <time>2019-03-26T14:38:17Z</time>
      </trkpt>
      <trkpt lat="46.46817" lon="-1.48638">
        <ele>33</ele>
        <time>2019-03-26T14:38:20Z</time>
      </trkpt>
      <trkpt lat="46.46815" lon="-1.48637">
        <ele>33</ele>
        <time>2019-03-26T14:38:22Z</time>
      </trkpt>
      <trkpt lat="46.46813" lon="-1.48639">
        <ele>33</ele>
        <time>2019-03-26T14:38:25Z</time>
      </trkpt>
      <trkpt lat="46.46812" lon="-1.48642">
        <ele>33</ele>
        <time>2019-03-26T14:38:27Z</time>
      </trkpt>
      <trkpt lat="46.46811" lon="-1.48643">
        <ele>33</ele>
        <time>2019-03-26T14:38:30Z</time>
      </trkpt>
      <trkpt lat="46.46809" lon="-1.48643">
        <ele>33</ele>
        <time>2019-03-26T14:38:32Z</time>
      </trkpt>
      <trkpt lat="46.46805" lon="-1.48643">
        <ele>33</ele>
        <time>2019-03-26T14:38:35Z</time>
      </trkpt>
      <trkpt lat="46.46801" lon="-1.48643">
        <ele>33</ele>
        <time>2019-03-26T14:38:38Z</time>
      </trkpt>
      <trkpt lat="46.46798" lon="-1.48643">
        <ele>33</ele>
        <time>2019-03-26T14:38:40Z</time>
      </trkpt>
      <trkpt lat="46.46794" lon="-1.48644">
        <ele>33</ele>
        <time>2019-03-26T14:38:43Z</time>
      </trkpt>
      <trkpt lat="46.46791" lon="-1.48644">
        <ele>33</ele>
        <time>2019-03-26T14:38:45Z</time>
      </trkpt>
      <trkpt lat="46.46788" lon="-1.48643">
        <ele>33</ele>
        <time>2019-03-26T14:38:48Z</time>
      </trkpt>
      <trkpt lat="46.46786" lon="-1.48642">
        <ele>33</ele>
        <time>2019-03-26T14:38:50Z</time>
      </trkpt>
      <trkpt lat="46.46783" lon="-1.4864">
        <ele>33</ele>
        <time>2019-03-26T14:38:53Z</time>
      </trkpt>
      <trkpt lat="46.46778" lon="-1.4864">
        <ele>33</ele>
        <time>2019-03-26T14:38:55Z</time>
      </trkpt>
      <trkpt lat="46.46776" lon="-1.48639">
        <ele>33</ele>
        <time>2019-03-26T14:38:58Z</time>
      </trkpt>
      <trkpt lat="46.46773" lon="-1.48637">
        <ele>33</ele>
        <time>2019-03-26T14:39:01Z</time>
      </trkpt>
      <trkpt lat="46.46771" lon="-1.48636">
        <ele>34</ele>
        <time>2019-03-26T14:39:03Z</time>
      </trkpt>
      <trkpt lat="46.46767" lon="-1.48634">
        <ele>34</ele>
        <time>2019-03-26T14:39:06Z</time>
      </trkpt>
      <trkpt lat="46.46766" lon="-1.48632">
        <ele>34</ele>
        <time>2019-03-26T14:39:08Z</time>
      </trkpt>
      <trkpt lat="46.46762" lon="-1.48629">
        <ele>34</ele>
        <time>2019-03-26T14:39:11Z</time>
      </trkpt>
      <trkpt lat="46.46758" lon="-1.48627">
        <ele>34</ele>
        <time>2019-03-26T14:39:14Z</time>
      </trkpt>
      <trkpt lat="46.46756" lon="-1.48624">
        <ele>34</ele>
        <time>2019-03-26T14:39:16Z</time>
      </trkpt>
      <trkpt lat="46.46753" lon="-1.48621">
        <ele>34</ele>
        <time>2019-03-26T14:39:19Z</time>
      </trkpt>
      <trkpt lat="46.4675" lon="-1.48618">
        <ele>34</ele>
        <time>2019-03-26T14:39:21Z</time>
      </trkpt>
      <trkpt lat="46.46746" lon="-1.48614">
        <ele>34</ele>
        <time>2019-03-26T14:39:24Z</time>
      </trkpt>
      <trkpt lat="46.46743" lon="-1.48609">
        <ele>34</ele>
        <time>2019-03-26T14:39:26Z</time>
      </trkpt>
      <trkpt lat="46.4674" lon="-1.48605">
        <ele>35</ele>
        <time>2019-03-26T14:39:29Z</time>
      </trkpt>
      <trkpt lat="46.46737" lon="-1.48602">
        <ele>35</ele>
        <time>2019-03-26T14:39:32Z</time>
      </trkpt>
      <trkpt lat="46.46734" lon="-1.48599">
        <ele>35</ele>
        <time>2019-03-26T14:39:34Z</time>
      </trkpt>
      <trkpt lat="46.4673" lon="-1.48595">
        <ele>35</ele>
        <time>2019-03-26T14:39:37Z</time>
      </trkpt>
      <trkpt lat="46.46728" lon="-1.48592">
        <ele>35</ele>
        <time>2019-03-26T14:39:39Z</time>
      </trkpt>
      <trkpt lat="46.46724" lon="-1.48587">
        <ele>35</ele>
        <time>2019-03-26T14:39:42Z</time>
      </trkpt>
      <trkpt lat="46.46721" lon="-1.48582">
        <ele>35</ele>
        <time>2019-03-26T14:39:45Z</time>
      </trkpt>
      <trkpt lat="46.46719" lon="-1.48579">
        <ele>36</ele>
        <time>2019-03-26T14:39:47Z</time>
      </trkpt>
      <trkpt lat="46.46716" lon="-1.48574">
        <ele>36</ele>
        <time>2019-03-26T14:39:50Z</time>
      </trkpt>
      <trkpt lat="46.46714" lon="-1.48571">
        <ele>36</ele>
        <time>2019-03-26T14:39:52Z</time>
      </trkpt>
      <trkpt lat="46.46711" lon="-1.48565">
        <ele>36</ele>
        <time>2019-03-26T14:39:55Z</time>
      </trkpt>
      <trkpt lat="46.46709" lon="-1.48561">
        <ele>36</ele>
        <time>2019-03-26T14:39:58Z</time>
      </trkpt>
      <trkpt lat="46.46708" lon="-1.48558">
        <ele>36</ele>
        <time>2019-03-26T14:40:00Z</time>
      </trkpt>
      <trkpt lat="46.46706" lon="-1.48553">
        <ele>36</ele>
        <time>2019-03-26T14:40:03Z</time>
      </trkpt>
      <trkpt lat="46.46704" lon="-1.4855">
        <ele>36</ele>
        <time>2019-03-26T14:40:05Z</time>
      </trkpt>
      <trkpt lat="46.46702" lon="-1.48545">
        <ele>37</ele>
        <time>2019-03-26T14:40:08Z</time>
      </trkpt>
      <trkpt lat="46.467" lon="-1.48542">
        <ele>37</ele>
        <time>2019-03-26T14:40:10Z</time>
      </trkpt>
      <trkpt lat="46.46697" lon="-1.48537">
        <ele>37</ele>
        <time>2019-03-26T14:40:13Z</time>
      </trkpt>
      <trkpt lat="46.46696" lon="-1.48534">
        <ele>37</ele>
        <time>2019-03-26T14:40:15Z</time>
      </trkpt>
      <trkpt lat="46.46694" lon="-1.4853">
        <ele>37</ele>
        <time>2019-03-26T14:40:18Z</time>
      </trkpt>
      <trkpt lat="46.46692" lon="-1.48525">
        <ele>37</ele>
        <time>2019-03-26T14:40:21Z</time>
      </trkpt>
      <trkpt lat="46.46691" lon="-1.48522">
        <ele>37</ele>
        <time>2019-03-26T14:40:23Z</time>
      </trkpt>
      <trkpt lat="46.46689" lon="-1.48517">
        <ele>37</ele>
        <time>2019-03-26T14:40:26Z</time>
      </trkpt>
      <trkpt lat="46.46688" lon="-1.48514">
        <ele>37</ele>
        <time>2019-03-26T14:40:28Z</time>
      </trkpt>
      <trkpt lat="46.46686" lon="-1.4851">
        <ele>38</ele>
        <time>2019-03-26T14:40:31Z</time>
      </trkpt>
      <trkpt lat="46.46685" lon="-1.48506">
        <ele>38</ele>
        <time>2019-03-26T14:40:33Z</time>
      </trkpt>
      <trkpt lat="46.46684" lon="-1.485">
        <ele>38</ele>
        <time>2019-03-26T14:40:36Z</time>
      </trkpt>
      <trkpt lat="46.46683" lon="-1.48497">
        <ele>38</ele>
        <time>2019-03-26T14:40:38Z</time>
      </trkpt>
      <trkpt lat="46.46681" lon="-1.48491">
        <ele>38</ele>
        <time>2019-03-26T14:40:41Z</time>
      </trkpt>
      <trkpt lat="46.4668" lon="-1.48489">
        <ele>38</ele>
        <time>2019-03-26T14:40:43Z</time>
      </trkpt>
      <trkpt lat="46.46679" lon="-1.48484">
        <ele>38</ele>
        <time>2019-03-26T14:40:46Z</time>
      </trkpt>
      <trkpt lat="46.46679" lon="-1.48481">
        <ele>38</ele>
        <time>2019-03-26T14:40:48Z</time>
      </trkpt>
      <trkpt lat="46.46678" lon="-1.48475">
        <ele>39</ele>
        <time>2019-03-26T14:40:51Z</time>
      </trkpt>
      <trkpt lat="46.46677" lon="-1.48471">
        <ele>39</ele>
        <time>2019-03-26T14:40:53Z</time>
      </trkpt>
      <trkpt lat="46.46675" lon="-1.48465">
        <ele>39</ele>
        <time>2019-03-26T14:40:56Z</time>
      </trkpt>
      <trkpt lat="46.46674" lon="-1.48461">
        <ele>39</ele>
        <time>2019-03-26T14:40:58Z</time>
      </trkpt>
      <trkpt lat="46.46672" lon="-1.48456">
        <ele>39</ele>
        <time>2019-03-26T14:41:01Z</time>
      </trkpt>
      <trkpt lat="46.4667" lon="-1.48453">
        <ele>39</ele>
        <time>2019-03-26T14:41:03Z</time>
      </trkpt>
      <trkpt lat="46.46668" lon="-1.48448">
        <ele>39</ele>
        <time>2019-03-26T14:41:06Z</time>
      </trkpt>
      <trkpt lat="46.46666" lon="-1.48444">
        <ele>40</ele>
        <time>2019-03-26T14:41:08Z</time>
      </trkpt>
      <trkpt lat="46.46663" lon="-1.48439">
        <ele>40</ele>
        <time>2019-03-26T14:41:11Z</time>
      </trkpt>
      <trkpt lat="46.46661" lon="-1.48435">
        <ele>40</ele>
        <time>2019-03-26T14:41:14Z</time>
      </trkpt>
      <trkpt lat="46.4666" lon="-1.48432">
        <ele>40</ele>
        <time>2019-03-26T14:41:16Z</time>
      </trkpt>
      <trkpt lat="46.46657" lon="-1.48428">
        <ele>40</ele>
        <time>2019-03-26T14:41:19Z</time>
      </trkpt>
      <trkpt lat="46.46655" lon="-1.48425">
        <ele>40</ele>
        <time>2019-03-26T14:41:21Z</time>
      </trkpt>
      <trkpt lat="46.46652" lon="-1.4842">
        <ele>40</ele>
        <time>2019-03-26T14:41:24Z</time>
      </trkpt>
      <trkpt lat="46.4665" lon="-1.48416">
        <ele>41</ele>
        <time>2019-03-26T14:41:26Z</time>
      </trkpt>
      <trkpt lat="46.46648" lon="-1.48412">
        <ele>41</ele>
        <time>2019-03-26T14:41:29Z</time>
      </trkpt>
      <trkpt lat="46.46647" lon="-1.48408">
        <ele>41</ele>
        <time>2019-03-26T14:41:31Z</time>
      </trkpt>
      <trkpt lat="46.46645" lon="-1.48401">
        <ele>41</ele>
        <time>2019-03-26T14:41:34Z</time>
      </trkpt>
      <trkpt lat="46.46644" lon="-1.48396">
        <ele>41</ele>
        <time>2019-03-26T14:41:36Z</time>
      </trkpt>
      <trkpt lat="46.46642" lon="-1.4839">
        <ele>41</ele>
        <time>2019-03-26T14:41:39Z</time>
      </trkpt>
      <trkpt lat="46.46641" lon="-1.48386">
        <ele>42</ele>
        <time>2019-03-26T14:41:41Z</time>
      </trkpt>
      <trkpt lat="46.4664" lon="-1.48382">
        <ele>42</ele>
        <time>2019-03-26T14:41:44Z</time>
      </trkpt>
      <trkpt lat="46.46639" lon="-1.48379">
        <ele>42</ele>
        <time>2019-03-26T14:41:46Z</time>
      </trkpt>
      <trkpt lat="46.46641" lon="-1.48378">
        <ele>42</ele>
        <time>2019-03-26T14:41:49Z</time>
      </trkpt>
      <trkpt lat="46.4664" lon="-1.48378">
        <ele>42</ele>
        <time>2019-03-26T14:41:51Z</time>
      </trkpt>
      <trkpt lat="46.46641" lon="-1.48376">
        <ele>42</ele>
        <time>2019-03-26T14:41:54Z</time>
      </trkpt>
      <trkpt lat="46.4664" lon="-1.48376">
        <ele>42</ele>
        <time>2019-03-26T14:41:56Z</time>
      </trkpt>
      <trkpt lat="46.46639" lon="-1.48376">
        <ele>42</ele>
        <time>2019-03-26T14:41:59Z</time>
      </trkpt>
      <trkpt lat="46.46639" lon="-1.48377">
        <ele>42</ele>
        <time>2019-03-26T14:42:01Z</time>
      </trkpt>
      <trkpt lat="46.46639" lon="-1.48376">
        <ele>42</ele>
        <time>2019-03-26T14:42:04Z</time>
      </trkpt>
      <trkpt lat="46.46639" lon="-1.48375">
        <ele>42</ele>
        <time>2019-03-26T14:42:06Z</time>
      </trkpt>
      <trkpt lat="46.46638" lon="-1.48376">
        <ele>42</ele>
        <time>2019-03-26T14:42:09Z</time>
      </trkpt>
      <trkpt lat="46.46637" lon="-1.48376">
        <ele>42</ele>
        <time>2019-03-26T14:42:11Z</time>
      </trkpt>
      <trkpt lat="46.46637" lon="-1.48376">
        <ele>42</ele>
        <time>2019-03-26T14:42:14Z</time>
      </trkpt>
      <trkpt lat="46.46637" lon="-1.48376">
        <ele>42</ele>
        <time>2019-03-26T14:42:16Z</time>
      </trkpt>
      <trkpt lat="46.46637" lon="-1.48376">
        <ele>42</ele>
        <time>2019-03-26T14:42:19Z</time>
      </trkpt>
      <trkpt lat="46.46637" lon="-1.48376">
        <ele>42</ele>
        <time>2019-03-26T14:42:21Z</time>
      </trkpt>
      <trkpt lat="46.46637" lon="-1.48375">
        <ele>42</ele>
        <time>2019-03-26T14:42:24Z</time>
      </trkpt>
      <trkpt lat="46.46638" lon="-1.48375">
        <ele>42</ele>
        <time>2019-03-26T14:42:27Z</time>
      </trkpt>
      <trkpt lat="46.46637" lon="-1.48373">
        <ele>42</ele>
        <time>2019-03-26T14:42:29Z</time>
      </trkpt>
      <trkpt lat="46.46638" lon="-1.48373">
        <ele>42</ele>
        <time>2019-03-26T14:42:31Z</time>
      </trkpt>
      <trkpt lat="46.46639" lon="-1.48373">
        <ele>42</ele>
        <time>2019-03-26T14:42:34Z</time>
      </trkpt>
      <trkpt lat="46.46639" lon="-1.48373">
        <ele>42</ele>
        <time>2019-03-26T14:42:36Z</time>
      </trkpt>
      <trkpt lat="46.46639" lon="-1.48373">
        <ele>42</ele>
        <time>2019-03-26T14:42:39Z</time>
      </trkpt>
      <trkpt lat="46.46639" lon="-1.48372">
        <ele>42</ele>
        <time>2019-03-26T14:42:41Z</time>
      </trkpt>
      <trkpt lat="46.46639" lon="-1.48373">
        <ele>42</ele>
        <time>2019-03-26T14:42:44Z</time>
      </trkpt>
      <trkpt lat="46.46639" lon="-1.48373">
        <ele>42</ele>
        <time>2019-03-26T14:42:46Z</time>
      </trkpt>
      <trkpt lat="46.4664" lon="-1.48374">
        <ele>42</ele>
        <time>2019-03-26T14:42:49Z</time>
      </trkpt>
      <trkpt lat="46.4664" lon="-1.48374">
        <ele>42</ele>
        <time>2019-03-26T14:42:51Z</time>
      </trkpt>
      <trkpt lat="46.46641" lon="-1.48373">
        <ele>42</ele>
        <time>2019-03-26T14:42:54Z</time>
      </trkpt>
      <trkpt lat="46.46641" lon="-1.48373">
        <ele>42</ele>
        <time>2019-03-26T14:42:56Z</time>
      </trkpt>
      <trkpt lat="46.46641" lon="-1.48373">
        <ele>42</ele>
        <time>2019-03-26T14:42:59Z</time>
      </trkpt>
      <trkpt lat="46.46642" lon="-1.48373">
        <ele>42</ele>
        <time>2019-03-26T14:43:01Z</time>
      </trkpt>
      <trkpt lat="46.46642" lon="-1.48373">
        <ele>42</ele>
        <time>2019-03-26T14:43:04Z</time>
      </trkpt>
      <trkpt lat="46.46642" lon="-1.48373">
        <ele>42</ele>
        <time>2019-03-26T14:43:06Z</time>
      </trkpt>
      <trkpt lat="46.46642" lon="-1.48372">
        <ele>42</ele>
        <time>2019-03-26T14:43:09Z</time>
      </trkpt>
      <trkpt lat="46.46642" lon="-1.48374">
        <ele>42</ele>
        <time>2019-03-26T14:43:11Z</time>
      </trkpt>
      <trkpt lat="46.46641" lon="-1.48374">
        <ele>42</ele>
        <time>2019-03-26T14:43:14Z</time>
      </trkpt>
      <trkpt lat="46.46641" lon="-1.48374">
        <ele>42</ele>
        <time>2019-03-26T14:43:16Z</time>
      </trkpt>
      <trkpt lat="46.46641" lon="-1.48375">
        <ele>42</ele>
        <time>2019-03-26T14:43:19Z</time>
      </trkpt>
      <trkpt lat="46.46641" lon="-1.48376">
        <ele>42</ele>
        <time>2019-03-26T14:43:21Z</time>
      </trkpt>
      <trkpt lat="46.4664" lon="-1.48378">
        <ele>42</ele>
        <time>2019-03-26T14:43:24Z</time>
      </trkpt>
      <trkpt lat="46.46641" lon="-1.48379">
        <ele>42</ele>
        <time>2019-03-26T14:43:26Z</time>
      </trkpt>
      <trkpt lat="46.46641" lon="-1.48381">
        <ele>42</ele>
        <time>2019-03-26T14:43:29Z</time>
      </trkpt>
      <trkpt lat="46.46641" lon="-1.48382">
        <ele>42</ele>
        <time>2019-03-26T14:43:31Z</time>
      </trkpt>
      <trkpt lat="46.4664" lon="-1.48383">
        <ele>42</ele>
        <time>2019-03-26T14:43:34Z</time>
      </trkpt>
      <trkpt lat="46.46641" lon="-1.48383">
        <ele>42</ele>
        <time>2019-03-26T14:43:36Z</time>
      </trkpt>
      <trkpt lat="46.46641" lon="-1.48384">
        <ele>42</ele>
        <time>2019-03-26T14:43:39Z</time>
      </trkpt>
      <trkpt lat="46.4664" lon="-1.48384">
        <ele>42</ele>
        <time>2019-03-26T14:43:41Z</time>
      </trkpt>
      <trkpt lat="46.46639" lon="-1.48384">
        <ele>42</ele>
        <time>2019-03-26T14:43:44Z</time>
      </trkpt>
      <trkpt lat="46.46639" lon="-1.48383">
        <ele>42</ele>
        <time>2019-03-26T14:43:47Z</time>
      </trkpt>
      <trkpt lat="46.46639" lon="-1.48383">
        <ele>42</ele>
        <time>2019-03-26T14:43:49Z</time>
      </trkpt>
      <trkpt lat="46.46639" lon="-1.48382">
        <ele>42</ele>
        <time>2019-03-26T14:43:52Z</time>
      </trkpt>
      <trkpt lat="46.46639" lon="-1.48382">
        <ele>42</ele>
        <time>2019-03-26T14:43:54Z</time>
      </trkpt>
      <trkpt lat="46.46639" lon="-1.48381">
        <ele>42</ele>
        <time>2019-03-26T14:43:57Z</time>
      </trkpt>
      <trkpt lat="46.46639" lon="-1.4838">
        <ele>42</ele>
        <time>2019-03-26T14:43:59Z</time>
      </trkpt>
      <trkpt lat="46.46638" lon="-1.48379">
        <ele>42</ele>
        <time>2019-03-26T14:44:02Z</time>
      </trkpt>
      <trkpt lat="46.46638" lon="-1.48379">
        <ele>42</ele>
        <time>2019-03-26T14:44:04Z</time>
      </trkpt>
      <trkpt lat="46.46638" lon="-1.48378">
        <ele>42</ele>
        <time>2019-03-26T14:44:07Z</time>
      </trkpt>
      <trkpt lat="46.46639" lon="-1.48377">
        <ele>42</ele>
        <time>2019-03-26T14:44:09Z</time>
      </trkpt>
      <trkpt lat="46.46639" lon="-1.48376">
        <ele>42</ele>
        <time>2019-03-26T14:44:12Z</time>
      </trkpt>
      <trkpt lat="46.46639" lon="-1.48376">
        <ele>42</ele>
        <time>2019-03-26T14:44:15Z</time>
      </trkpt>
      <trkpt lat="46.46639" lon="-1.48376">
        <ele>42</ele>
        <time>2019-03-26T14:44:17Z</time>
      </trkpt>
      <trkpt lat="46.46639" lon="-1.48375">
        <ele>42</ele>
        <time>2019-03-26T14:44:20Z</time>
      </trkpt>
      <trkpt lat="46.46639" lon="-1.48375">
        <ele>42</ele>
        <time>2019-03-26T14:44:22Z</time>
      </trkpt>
      <trkpt lat="46.46639" lon="-1.48375">
        <ele>42</ele>
        <time>2019-03-26T14:44:25Z</time>
      </trkpt>
      <trkpt lat="46.4664" lon="-1.48375">
        <ele>42</ele>
        <time>2019-03-26T14:44:27Z</time>
      </trkpt>
      <trkpt lat="46.4664" lon="-1.48375">
        <ele>42</ele>
        <time>2019-03-26T14:44:30Z</time>
      </trkpt>
      <trkpt lat="46.4664" lon="-1.48374">
        <ele>42</ele>
        <time>2019-03-26T14:44:32Z</time>
      </trkpt>
      <trkpt lat="46.46639" lon="-1.48374">
        <ele>42</ele>
        <time>2019-03-26T14:44:35Z</time>
      </trkpt>
      <trkpt lat="46.4664" lon="-1.48373">
        <ele>42</ele>
        <time>2019-03-26T14:44:38Z</time>
      </trkpt>
      <trkpt lat="46.4664" lon="-1.48373">
        <ele>42</ele>
        <time>2019-03-26T14:44:40Z</time>
      </trkpt>
      <trkpt lat="46.4664" lon="-1.48374">
        <ele>42</ele>
        <time>2019-03-26T14:44:43Z</time>
      </trkpt>
      <trkpt lat="46.46639" lon="-1.48374">
        <ele>42</ele>
        <time>2019-03-26T14:44:45Z</time>
      </trkpt>
      <trkpt lat="46.46639" lon="-1.48373">
        <ele>42</ele>
        <time>2019-03-26T14:44:48Z</time>
      </trkpt>
      <trkpt lat="46.46639" lon="-1.48372">
        <ele>42</ele>
        <time>2019-03-26T14:44:51Z</time>
      </trkpt>
      <trkpt lat="46.46639" lon="-1.48371">
        <ele>42</ele>
        <time>2019-03-26T14:44:53Z</time>
      </trkpt>
      <trkpt lat="46.46639" lon="-1.48369">
        <ele>42</ele>
        <time>2019-03-26T14:44:56Z</time>
      </trkpt>
      <trkpt lat="46.46639" lon="-1.48367">
        <ele>42</ele>
        <time>2019-03-26T14:44:58Z</time>
      </trkpt>
      <trkpt lat="46.46638" lon="-1.48365">
        <ele>42</ele>
        <time>2019-03-26T14:45:01Z</time>
      </trkpt>
      <trkpt lat="46.46637" lon="-1.48362">
        <ele>42</ele>
        <time>2019-03-26T14:45:03Z</time>
      </trkpt>
      <trkpt lat="46.46636" lon="-1.48359">
        <ele>42</ele>
        <time>2019-03-26T14:45:06Z</time>
      </trkpt>
      <trkpt lat="46.46635" lon="-1.48356">
        <ele>42</ele>
        <time>2019-03-26T14:45:09Z</time>
      </trkpt>
      <trkpt lat="46.46634" lon="-1.48353">
        <ele>42</ele>
        <time>2019-03-26T14:45:11Z</time>
      </trkpt>
      <trkpt lat="46.46633" lon="-1.48349">
        <ele>42</ele>
        <time>2019-03-26T14:45:14Z</time>
      </trkpt>
      <trkpt lat="46.46632" lon="-1.48344">
        <ele>42</ele>
        <time>2019-03-26T14:45:16Z</time>
      </trkpt>
      <trkpt lat="46.4663" lon="-1.48341">
        <ele>43</ele>
        <time>2019-03-26T14:45:19Z</time>
      </trkpt>
      <trkpt lat="46.46628" lon="-1.48335">
        <ele>43</ele>
        <time>2019-03-26T14:45:22Z</time>
      </trkpt>
      <trkpt lat="46.46628" lon="-1.48331">
        <ele>43</ele>
        <time>2019-03-26T14:45:24Z</time>
      </trkpt>
      <trkpt lat="46.46627" lon="-1.48326">
        <ele>43</ele>
        <time>2019-03-26T14:45:27Z</time>
      </trkpt>
      <trkpt lat="46.46625" lon="-1.48321">
        <ele>43</ele>
        <time>2019-03-26T14:45:30Z</time>
      </trkpt>
      <trkpt lat="46.46625" lon="-1.48318">
        <ele>43</ele>
        <time>2019-03-26T14:45:32Z</time>
      </trkpt>
      <trkpt lat="46.46624" lon="-1.48313">
        <ele>43</ele>
        <time>2019-03-26T14:45:35Z</time>
      </trkpt>
      <trkpt lat="46.46623" lon="-1.4831">
        <ele>43</ele>
        <time>2019-03-26T14:45:37Z</time>
      </trkpt>
      <trkpt lat="46.4662" lon="-1.48306">
        <ele>43</ele>
        <time>2019-03-26T14:45:40Z</time>
      </trkpt>
      <trkpt lat="46.46619" lon="-1.48301">
        <ele>43</ele>
        <time>2019-03-26T14:45:43Z</time>
      </trkpt>
      <trkpt lat="46.46617" lon="-1.48297">
        <ele>43</ele>
        <time>2019-03-26T14:45:45Z</time>
      </trkpt>
      <trkpt lat="46.46616" lon="-1.48291">
        <ele>43</ele>
        <time>2019-03-26T14:45:48Z</time>
      </trkpt>
      <trkpt lat="46.46614" lon="-1.48288">
        <ele>43</ele>
        <time>2019-03-26T14:45:50Z</time>
      </trkpt>
      <trkpt lat="46.46613" lon="-1.48283">
        <ele>43</ele>
        <time>2019-03-26T14:45:53Z</time>
      </trkpt>
      <trkpt lat="46.46612" lon="-1.48278">
        <ele>43</ele>
        <time>2019-03-26T14:45:55Z</time>
      </trkpt>
      <trkpt lat="46.46611" lon="-1.48274">
        <ele>43</ele>
        <time>2019-03-26T14:45:58Z</time>
      </trkpt>
      <trkpt lat="46.46609" lon="-1.48268">
        <ele>43</ele>
        <time>2019-03-26T14:46:01Z</time>
      </trkpt>
      <trkpt lat="46.46608" lon="-1.48263">
        <ele>43</ele>
        <time>2019-03-26T14:46:03Z</time>
      </trkpt>
      <trkpt lat="46.46607" lon="-1.48257">
        <ele>43</ele>
        <time>2019-03-26T14:46:06Z</time>
      </trkpt>
      <trkpt lat="46.46605" lon="-1.48253">
        <ele>43</ele>
        <time>2019-03-26T14:46:08Z</time>
      </trkpt>
      <trkpt lat="46.46602" lon="-1.48246">
        <ele>44</ele>
        <time>2019-03-26T14:46:11Z</time>
      </trkpt>
      <trkpt lat="46.46601" lon="-1.4824">
        <ele>44</ele>
        <time>2019-03-26T14:46:14Z</time>
      </trkpt>
      <trkpt lat="46.46599" lon="-1.48236">
        <ele>44</ele>
        <time>2019-03-26T14:46:16Z</time>
      </trkpt>
      <trkpt lat="46.46598" lon="-1.4823">
        <ele>44</ele>
        <time>2019-03-26T14:46:19Z</time>
      </trkpt>
      <trkpt lat="46.46597" lon="-1.48227">
        <ele>44</ele>
        <time>2019-03-26T14:46:21Z</time>
      </trkpt>
      <trkpt lat="46.46596" lon="-1.48221">
        <ele>44</ele>
        <time>2019-03-26T14:46:24Z</time>
      </trkpt>
      <trkpt lat="46.46594" lon="-1.48217">
        <ele>44</ele>
        <time>2019-03-26T14:46:26Z</time>
      </trkpt>
      <trkpt lat="46.46594" lon="-1.48211">
        <ele>44</ele>
        <time>2019-03-26T14:46:29Z</time>
      </trkpt>
      <trkpt lat="46.46591" lon="-1.48206">
        <ele>44</ele>
        <time>2019-03-26T14:46:32Z</time>
      </trkpt>
      <trkpt lat="46.4659" lon="-1.48202">
        <ele>44</ele>
        <time>2019-03-26T14:46:34Z</time>
      </trkpt>
      <trkpt lat="46.46589" lon="-1.48198">
        <ele>44</ele>
        <time>2019-03-26T14:46:37Z</time>
      </trkpt>
      <trkpt lat="46.46588" lon="-1.48196">
        <ele>44</ele>
        <time>2019-03-26T14:46:39Z</time>
      </trkpt>
      <trkpt lat="46.46587" lon="-1.48195">
        <ele>44</ele>
        <time>2019-03-26T14:46:42Z</time>
      </trkpt>
      <trkpt lat="46.46586" lon="-1.48195">
        <ele>44</ele>
        <time>2019-03-26T14:46:44Z</time>
      </trkpt>
      <trkpt lat="46.46586" lon="-1.48195">
        <ele>44</ele>
        <time>2019-03-26T14:46:47Z</time>
      </trkpt>
      <trkpt lat="46.46585" lon="-1.48195">
        <ele>44</ele>
        <time>2019-03-26T14:46:50Z</time>
      </trkpt>
      <trkpt lat="46.46585" lon="-1.48195">
        <ele>44</ele>
        <time>2019-03-26T14:46:52Z</time>
      </trkpt>
      <trkpt lat="46.46584" lon="-1.48195">
        <ele>44</ele>
        <time>2019-03-26T14:46:55Z</time>
      </trkpt>
      <trkpt lat="46.46583" lon="-1.48195">
        <ele>44</ele>
        <time>2019-03-26T14:46:57Z</time>
      </trkpt>
      <trkpt lat="46.46583" lon="-1.48196">
        <ele>44</ele>
        <time>2019-03-26T14:47:00Z</time>
      </trkpt>
      <trkpt lat="46.46582" lon="-1.48196">
        <ele>44</ele>
        <time>2019-03-26T14:47:02Z</time>
      </trkpt>
      <trkpt lat="46.46581" lon="-1.48196">
        <ele>44</ele>
        <time>2019-03-26T14:47:05Z</time>
      </trkpt>
      <trkpt lat="46.46579" lon="-1.48197">
        <ele>44</ele>
        <time>2019-03-26T14:47:08Z</time>
      </trkpt>
      <trkpt lat="46.46578" lon="-1.48197">
        <ele>44</ele>
        <time>2019-03-26T14:47:10Z</time>
      </trkpt>
      <trkpt lat="46.46577" lon="-1.48197">
        <ele>44</ele>
        <time>2019-03-26T14:47:13Z</time>
      </trkpt>
      <trkpt lat="46.46576" lon="-1.48198">
        <ele>44</ele>
        <time>2019-03-26T14:47:15Z</time>
      </trkpt>
      <trkpt lat="46.46576" lon="-1.48198">
        <ele>44</ele>
        <time>2019-03-26T14:47:18Z</time>
      </trkpt>
      <trkpt lat="46.46576" lon="-1.48199">
        <ele>44</ele>
        <time>2019-03-26T14:47:20Z</time>
      </trkpt>
      <trkpt lat="46.46575" lon="-1.48198">
        <ele>44</ele>
        <time>2019-03-26T14:47:23Z</time>
      </trkpt>
      <trkpt lat="46.46574" lon="-1.48194">
        <ele>44</ele>
        <time>2019-03-26T14:47:26Z</time>
      </trkpt>
      <trkpt lat="46.46574" lon="-1.48191">
        <ele>44</ele>
        <time>2019-03-26T14:47:28Z</time>
      </trkpt>
      <trkpt lat="46.46574" lon="-1.48185">
        <ele>44</ele>
        <time>2019-03-26T14:47:31Z</time>
      </trkpt>
      <trkpt lat="46.46573" lon="-1.48182">
        <ele>44</ele>
        <time>2019-03-26T14:47:33Z</time>
      </trkpt>
      <trkpt lat="46.46572" lon="-1.48176">
        <ele>44</ele>
        <time>2019-03-26T14:47:36Z</time>
      </trkpt>
      <trkpt lat="46.46571" lon="-1.48172">
        <ele>44</ele>
        <time>2019-03-26T14:47:38Z</time>
      </trkpt>
      <trkpt lat="46.4657" lon="-1.48167">
        <ele>44</ele>
        <time>2019-03-26T14:47:41Z</time>
      </trkpt>
      <trkpt lat="46.46569" lon="-1.48163">
        <ele>44</ele>
        <time>2019-03-26T14:47:43Z</time>
      </trkpt>
      <trkpt lat="46.46567" lon="-1.48157">
        <ele>44</ele>
        <time>2019-03-26T14:47:46Z</time>
      </trkpt>
      <trkpt lat="46.46566" lon="-1.4815">
        <ele>45</ele>
        <time>2019-03-26T14:47:48Z</time>
      </trkpt>
      <trkpt lat="46.46564" lon="-1.48146">
        <ele>44</ele>
        <time>2019-03-26T14:47:51Z</time>
      </trkpt>
      <trkpt lat="46.46562" lon="-1.4814">
        <ele>44</ele>
        <time>2019-03-26T14:47:54Z</time>
      </trkpt>
      <trkpt lat="46.46561" lon="-1.48137">
        <ele>44</ele>
        <time>2019-03-26T14:47:56Z</time>
      </trkpt>
      <trkpt lat="46.4656" lon="-1.48131">
        <ele>45</ele>
        <time>2019-03-26T14:47:59Z</time>
      </trkpt>
      <trkpt lat="46.46558" lon="-1.48127">
        <ele>44</ele>
        <time>2019-03-26T14:48:01Z</time>
      </trkpt>
      <trkpt lat="46.46556" lon="-1.48121">
        <ele>44</ele>
        <time>2019-03-26T14:48:04Z</time>
      </trkpt>
      <trkpt lat="46.46555" lon="-1.48118">
        <ele>45</ele>
        <time>2019-03-26T14:48:06Z</time>
      </trkpt>
      <trkpt lat="46.46553" lon="-1.48113">
        <ele>44</ele>
        <time>2019-03-26T14:48:09Z</time>
      </trkpt>
      <trkpt lat="46.46552" lon="-1.48109">
        <ele>44</ele>
        <time>2019-03-26T14:48:11Z</time>
      </trkpt>
      <trkpt lat="46.46549" lon="-1.48104">
        <ele>44</ele>
        <time>2019-03-26T14:48:14Z</time>
      </trkpt>
      <trkpt lat="46.46547" lon="-1.48098">
        <ele>44</ele>
        <time>2019-03-26T14:48:17Z</time>
      </trkpt>
      <trkpt lat="46.46545" lon="-1.48095">
        <ele>44</ele>
        <time>2019-03-26T14:48:19Z</time>
      </trkpt>
      <trkpt lat="46.46543" lon="-1.48089">
        <ele>44</ele>
        <time>2019-03-26T14:48:22Z</time>
      </trkpt>
      <trkpt lat="46.46542" lon="-1.48085">
        <ele>44</ele>
        <time>2019-03-26T14:48:24Z</time>
      </trkpt>
      <trkpt lat="46.4654" lon="-1.48081">
        <ele>44</ele>
        <time>2019-03-26T14:48:27Z</time>
      </trkpt>
      <trkpt lat="46.46538" lon="-1.48078">
        <ele>44</ele>
        <time>2019-03-26T14:48:29Z</time>
      </trkpt>
      <trkpt lat="46.46535" lon="-1.48072">
        <ele>44</ele>
        <time>2019-03-26T14:48:32Z</time>
      </trkpt>
      <trkpt lat="46.46533" lon="-1.48067">
        <ele>44</ele>
        <time>2019-03-26T14:48:35Z</time>
      </trkpt>
      <trkpt lat="46.46531" lon="-1.48064">
        <ele>44</ele>
        <time>2019-03-26T14:48:37Z</time>
      </trkpt>
      <trkpt lat="46.4653" lon="-1.48058">
        <ele>44</ele>
        <time>2019-03-26T14:48:40Z</time>
      </trkpt>
      <trkpt lat="46.46529" lon="-1.48055">
        <ele>44</ele>
        <time>2019-03-26T14:48:42Z</time>
      </trkpt>
      <trkpt lat="46.46526" lon="-1.48049">
        <ele>44</ele>
        <time>2019-03-26T14:48:45Z</time>
      </trkpt>
      <trkpt lat="46.46524" lon="-1.48042">
        <ele>44</ele>
        <time>2019-03-26T14:48:47Z</time>
      </trkpt>
      <trkpt lat="46.46524" lon="-1.48039">
        <ele>44</ele>
        <time>2019-03-26T14:48:50Z</time>
      </trkpt>
      <trkpt lat="46.46522" lon="-1.48032">
        <ele>44</ele>
        <time>2019-03-26T14:48:53Z</time>
      </trkpt>
      <trkpt lat="46.4652" lon="-1.48029">
        <ele>43</ele>
        <time>2019-03-26T14:48:55Z</time>
      </trkpt>
      <trkpt lat="46.46519" lon="-1.48022">
        <ele>43</ele>
        <time>2019-03-26T14:48:58Z</time>
      </trkpt>
      <trkpt lat="46.46518" lon="-1.48018">
        <ele>43</ele>
        <time>2019-03-26T14:49:00Z</time>
      </trkpt>
      <trkpt lat="46.46516" lon="-1.48012">
        <ele>43</ele>
        <time>2019-03-26T14:49:03Z</time>
      </trkpt>
      <trkpt lat="46.46515" lon="-1.48008">
        <ele>43</ele>
        <time>2019-03-26T14:49:05Z</time>
      </trkpt>
      <trkpt lat="46.46513" lon="-1.48002">
        <ele>43</ele>
        <time>2019-03-26T14:49:08Z</time>
      </trkpt>
      <trkpt lat="46.46511" lon="-1.47998">
        <ele>43</ele>
        <time>2019-03-26T14:49:10Z</time>
      </trkpt>
      <trkpt lat="46.46508" lon="-1.47992">
        <ele>43</ele>
        <time>2019-03-26T14:49:13Z</time>
      </trkpt>
      <trkpt lat="46.46504" lon="-1.47986">
        <ele>43</ele>
        <time>2019-03-26T14:49:16Z</time>
      </trkpt>
      <trkpt lat="46.46502" lon="-1.47982">
        <ele>43</ele>
        <time>2019-03-26T14:49:18Z</time>
      </trkpt>
      <trkpt lat="46.465" lon="-1.47978">
        <ele>43</ele>
        <time>2019-03-26T14:49:21Z</time>
      </trkpt>
      <trkpt lat="46.46498" lon="-1.47974">
        <ele>43</ele>
        <time>2019-03-26T14:49:23Z</time>
      </trkpt>
      <trkpt lat="46.46495" lon="-1.47968">
        <ele>43</ele>
        <time>2019-03-26T14:49:26Z</time>
      </trkpt>
      <trkpt lat="46.46493" lon="-1.47964">
        <ele>43</ele>
        <time>2019-03-26T14:49:28Z</time>
      </trkpt>
      <trkpt lat="46.46491" lon="-1.47959">
        <ele>43</ele>
        <time>2019-03-26T14:49:31Z</time>
      </trkpt>
      <trkpt lat="46.46489" lon="-1.47954">
        <ele>43</ele>
        <time>2019-03-26T14:49:34Z</time>
      </trkpt>
      <trkpt lat="46.46487" lon="-1.4795">
        <ele>42</ele>
        <time>2019-03-26T14:49:36Z</time>
      </trkpt>
      <trkpt lat="46.46486" lon="-1.47944">
        <ele>42</ele>
        <time>2019-03-26T14:49:39Z</time>
      </trkpt>
      <trkpt lat="46.46484" lon="-1.4794">
        <ele>42</ele>
        <time>2019-03-26T14:49:41Z</time>
      </trkpt>
      <trkpt lat="46.46482" lon="-1.47934">
        <ele>42</ele>
        <time>2019-03-26T14:49:44Z</time>
      </trkpt>
      <trkpt lat="46.4648" lon="-1.4793">
        <ele>42</ele>
        <time>2019-03-26T14:49:46Z</time>
      </trkpt>
      <trkpt lat="46.46478" lon="-1.47926">
        <ele>42</ele>
        <time>2019-03-26T14:49:49Z</time>
      </trkpt>
      <trkpt lat="46.46476" lon="-1.47922">
        <ele>42</ele>
        <time>2019-03-26T14:49:51Z</time>
      </trkpt>
      <trkpt lat="46.46474" lon="-1.47918">
        <ele>42</ele>
        <time>2019-03-26T14:49:54Z</time>
      </trkpt>
      <trkpt lat="46.46472" lon="-1.47912">
        <ele>42</ele>
        <time>2019-03-26T14:49:56Z</time>
      </trkpt>
      <trkpt lat="46.46472" lon="-1.47909">
        <ele>42</ele>
        <time>2019-03-26T14:49:59Z</time>
      </trkpt>
      <trkpt lat="46.46469" lon="-1.47904">
        <ele>41</ele>
        <time>2019-03-26T14:50:02Z</time>
      </trkpt>
      <trkpt lat="46.46467" lon="-1.479">
        <ele>41</ele>
        <time>2019-03-26T14:50:04Z</time>
      </trkpt>
      <trkpt lat="46.46465" lon="-1.47894">
        <ele>41</ele>
        <time>2019-03-26T14:50:07Z</time>
      </trkpt>
      <trkpt lat="46.46463" lon="-1.47891">
        <ele>41</ele>
        <time>2019-03-26T14:50:09Z</time>
      </trkpt>
      <trkpt lat="46.46462" lon="-1.47887">
        <ele>41</ele>
        <time>2019-03-26T14:50:12Z</time>
      </trkpt>
      <trkpt lat="46.46461" lon="-1.47883">
        <ele>41</ele>
        <time>2019-03-26T14:50:14Z</time>
      </trkpt>
      <trkpt lat="46.46459" lon="-1.47878">
        <ele>41</ele>
        <time>2019-03-26T14:50:17Z</time>
      </trkpt>
      <trkpt lat="46.46458" lon="-1.47873">
        <ele>41</ele>
        <time>2019-03-26T14:50:19Z</time>
      </trkpt>
      <trkpt lat="46.46456" lon="-1.47868">
        <ele>40</ele>
        <time>2019-03-26T14:50:22Z</time>
      </trkpt>
      <trkpt lat="46.46454" lon="-1.47863">
        <ele>40</ele>
        <time>2019-03-26T14:50:24Z</time>
      </trkpt>
      <trkpt lat="46.46452" lon="-1.4786">
        <ele>40</ele>
        <time>2019-03-26T14:50:27Z</time>
      </trkpt>
      <trkpt lat="46.46449" lon="-1.47856">
        <ele>40</ele>
        <time>2019-03-26T14:50:30Z</time>
      </trkpt>
      <trkpt lat="46.46448" lon="-1.47853">
        <ele>40</ele>
        <time>2019-03-26T14:50:32Z</time>
      </trkpt>
      <trkpt lat="46.46446" lon="-1.47847">
        <ele>40</ele>
        <time>2019-03-26T14:50:35Z</time>
      </trkpt>
      <trkpt lat="46.46444" lon="-1.47844">
        <ele>40</ele>
        <time>2019-03-26T14:50:37Z</time>
      </trkpt>
      <trkpt lat="46.46443" lon="-1.47838">
        <ele>40</ele>
        <time>2019-03-26T14:50:40Z</time>
      </trkpt>
      <trkpt lat="46.46443" lon="-1.47835">
        <ele>40</ele>
        <time>2019-03-26T14:50:42Z</time>
      </trkpt>
      <trkpt lat="46.46442" lon="-1.47829">
        <ele>40</ele>
        <time>2019-03-26T14:50:45Z</time>
      </trkpt>
      <trkpt lat="46.46441" lon="-1.47825">
        <ele>40</ele>
        <time>2019-03-26T14:50:47Z</time>
      </trkpt>
      <trkpt lat="46.46441" lon="-1.47819">
        <ele>39</ele>
        <time>2019-03-26T14:50:50Z</time>
      </trkpt>
      <trkpt lat="46.4644" lon="-1.47815">
        <ele>39</ele>
        <time>2019-03-26T14:50:52Z</time>
      </trkpt>
      <trkpt lat="46.46439" lon="-1.47811">
        <ele>39</ele>
        <time>2019-03-26T14:50:55Z</time>
      </trkpt>
      <trkpt lat="46.46437" lon="-1.47808">
        <ele>39</ele>
        <time>2019-03-26T14:50:58Z</time>
      </trkpt>
      <trkpt lat="46.46436" lon="-1.47806">
        <ele>39</ele>
        <time>2019-03-26T14:51:00Z</time>
      </trkpt>
      <trkpt lat="46.46435" lon="-1.47805">
        <ele>39</ele>
        <time>2019-03-26T14:51:03Z</time>
      </trkpt>
      <trkpt lat="46.46433" lon="-1.47804">
        <ele>39</ele>
        <time>2019-03-26T14:51:05Z</time>
      </trkpt>
      <trkpt lat="46.46432" lon="-1.47804">
        <ele>39</ele>
        <time>2019-03-26T14:51:08Z</time>
      </trkpt>
      <trkpt lat="46.46432" lon="-1.47804">
        <ele>39</ele>
        <time>2019-03-26T14:51:10Z</time>
      </trkpt>
      <trkpt lat="46.46431" lon="-1.47805">
        <ele>39</ele>
        <time>2019-03-26T14:51:13Z</time>
      </trkpt>
      <trkpt lat="46.46431" lon="-1.47802">
        <ele>39</ele>
        <time>2019-03-26T14:51:15Z</time>
      </trkpt>
      <trkpt lat="46.46428" lon="-1.47797">
        <ele>39</ele>
        <time>2019-03-26T14:51:18Z</time>
      </trkpt>
      <trkpt lat="46.46428" lon="-1.47794">
        <ele>39</ele>
        <time>2019-03-26T14:51:20Z</time>
      </trkpt>
      <trkpt lat="46.46426" lon="-1.47791">
        <ele>39</ele>
        <time>2019-03-26T14:51:23Z</time>
      </trkpt>
      <trkpt lat="46.46425" lon="-1.47788">
        <ele>39</ele>
        <time>2019-03-26T14:51:25Z</time>
      </trkpt>
      <trkpt lat="46.46422" lon="-1.47781">
        <ele>38</ele>
        <time>2019-03-26T14:51:28Z</time>
      </trkpt>
      <trkpt lat="46.46422" lon="-1.47777">
        <ele>38</ele>
        <time>2019-03-26T14:51:30Z</time>
      </trkpt>
      <trkpt lat="46.46421" lon="-1.47771">
        <ele>38</ele>
        <time>2019-03-26T14:51:33Z</time>
      </trkpt>
      <trkpt lat="46.4642" lon="-1.47768">
        <ele>38</ele>
        <time>2019-03-26T14:51:35Z</time>
      </trkpt>
      <trkpt lat="46.46417" lon="-1.47762">
        <ele>38</ele>
        <time>2019-03-26T14:51:38Z</time>
      </trkpt>
      <trkpt lat="46.46417" lon="-1.47758">
        <ele>38</ele>
        <time>2019-03-26T14:51:40Z</time>
      </trkpt>
      <trkpt lat="46.46415" lon="-1.47754">
        <ele>38</ele>
        <time>2019-03-26T14:51:43Z</time>
      </trkpt>
      <trkpt lat="46.46415" lon="-1.47751">
        <ele>38</ele>
        <time>2019-03-26T14:51:45Z</time>
      </trkpt>
      <trkpt lat="46.46415" lon="-1.47747">
        <ele>38</ele>
        <time>2019-03-26T14:51:48Z</time>
      </trkpt>
      <trkpt lat="46.46413" lon="-1.47741">
        <ele>38</ele>
        <time>2019-03-26T14:51:50Z</time>
      </trkpt>
      <trkpt lat="46.46413" lon="-1.47737">
        <ele>37</ele>
        <time>2019-03-26T14:51:53Z</time>
      </trkpt>
      <trkpt lat="46.46413" lon="-1.47733">
        <ele>37</ele>
        <time>2019-03-26T14:51:56Z</time>
      </trkpt>
      <trkpt lat="46.46412" lon="-1.4773">
        <ele>37</ele>
        <time>2019-03-26T14:51:58Z</time>
      </trkpt>
      <trkpt lat="46.46409" lon="-1.47725">
        <ele>37</ele>
        <time>2019-03-26T14:52:01Z</time>
      </trkpt>
      <trkpt lat="46.46406" lon="-1.47722">
        <ele>37</ele>
        <time>2019-03-26T14:52:03Z</time>
      </trkpt>
      <trkpt lat="46.46405" lon="-1.47717">
        <ele>36</ele>
        <time>2019-03-26T14:52:06Z</time>
      </trkpt>
      <trkpt lat="46.46404" lon="-1.47713">
        <ele>36</ele>
        <time>2019-03-26T14:52:08Z</time>
      </trkpt>
      <trkpt lat="46.46403" lon="-1.47707">
        <ele>36</ele>
        <time>2019-03-26T14:52:11Z</time>
      </trkpt>
      <trkpt lat="46.46403" lon="-1.47703">
        <ele>36</ele>
        <time>2019-03-26T14:52:13Z</time>
      </trkpt>
      <trkpt lat="46.46401" lon="-1.47697">
        <ele>36</ele>
        <time>2019-03-26T14:52:16Z</time>
      </trkpt>
      <trkpt lat="46.46401" lon="-1.47693">
        <ele>36</ele>
        <time>2019-03-26T14:52:18Z</time>
      </trkpt>
      <trkpt lat="46.46399" lon="-1.47687">
        <ele>35</ele>
        <time>2019-03-26T14:52:21Z</time>
      </trkpt>
      <trkpt lat="46.46397" lon="-1.47682">
        <ele>35</ele>
        <time>2019-03-26T14:52:24Z</time>
      </trkpt>
      <trkpt lat="46.46395" lon="-1.47679">
        <ele>35</ele>
        <time>2019-03-26T14:52:26Z</time>
      </trkpt>
      <trkpt lat="46.46393" lon="-1.47671">
        <ele>35</ele>
        <time>2019-03-26T14:52:29Z</time>
      </trkpt>
      <trkpt lat="46.46392" lon="-1.47668">
        <ele>35</ele>
        <time>2019-03-26T14:52:31Z</time>
      </trkpt>
      <trkpt lat="46.4639" lon="-1.47662">
        <ele>35</ele>
        <time>2019-03-26T14:52:34Z</time>
      </trkpt>
      <trkpt lat="46.46388" lon="-1.47655">
        <ele>35</ele>
        <time>2019-03-26T14:52:36Z</time>
      </trkpt>
      <trkpt lat="46.46386" lon="-1.47651">
        <ele>35</ele>
        <time>2019-03-26T14:52:39Z</time>
      </trkpt>
      <trkpt lat="46.46384" lon="-1.47646">
        <ele>35</ele>
        <time>2019-03-26T14:52:42Z</time>
      </trkpt>
      <trkpt lat="46.46383" lon="-1.47642">
        <ele>35</ele>
        <time>2019-03-26T14:52:44Z</time>
      </trkpt>
      <trkpt lat="46.46381" lon="-1.47636">
        <ele>34</ele>
        <time>2019-03-26T14:52:47Z</time>
      </trkpt>
      <trkpt lat="46.46379" lon="-1.47629">
        <ele>34</ele>
        <time>2019-03-26T14:52:49Z</time>
      </trkpt>
      <trkpt lat="46.46378" lon="-1.47625">
        <ele>34</ele>
        <time>2019-03-26T14:52:52Z</time>
      </trkpt>
      <trkpt lat="46.46376" lon="-1.47619">
        <ele>34</ele>
        <time>2019-03-26T14:52:55Z</time>
      </trkpt>
      <trkpt lat="46.46375" lon="-1.47616">
        <ele>34</ele>
        <time>2019-03-26T14:52:57Z</time>
      </trkpt>
      <trkpt lat="46.46375" lon="-1.47614">
        <ele>34</ele>
        <time>2019-03-26T14:53:00Z</time>
      </trkpt>
      <trkpt lat="46.46374" lon="-1.47608">
        <ele>34</ele>
        <time>2019-03-26T14:53:03Z</time>
      </trkpt>
      <trkpt lat="46.46372" lon="-1.47601">
        <ele>34</ele>
        <time>2019-03-26T14:53:05Z</time>
      </trkpt>
      <trkpt lat="46.46371" lon="-1.47596">
        <ele>34</ele>
        <time>2019-03-26T14:53:08Z</time>
      </trkpt>
      <trkpt lat="46.46368" lon="-1.4759">
        <ele>34</ele>
        <time>2019-03-26T14:53:11Z</time>
      </trkpt>
      <trkpt lat="46.46366" lon="-1.47585">
        <ele>34</ele>
        <time>2019-03-26T14:53:13Z</time>
      </trkpt>
      <trkpt lat="46.46365" lon="-1.47581">
        <ele>34</ele>
        <time>2019-03-26T14:53:16Z</time>
      </trkpt>
      <trkpt lat="46.46363" lon="-1.47574">
        <ele>34</ele>
        <time>2019-03-26T14:53:19Z</time>
      </trkpt>
      <trkpt lat="46.46361" lon="-1.47568">
        <ele>34</ele>
        <time>2019-03-26T14:53:21Z</time>
      </trkpt>
      <trkpt lat="46.4636" lon="-1.47564">
        <ele>34</ele>
        <time>2019-03-26T14:53:24Z</time>
      </trkpt>
      <trkpt lat="46.46357" lon="-1.47559">
        <ele>34</ele>
        <time>2019-03-26T14:53:27Z</time>
      </trkpt>
      <trkpt lat="46.46355" lon="-1.47556">
        <ele>34</ele>
        <time>2019-03-26T14:53:29Z</time>
      </trkpt>
      <trkpt lat="46.46352" lon="-1.47551">
        <ele>34</ele>
        <time>2019-03-26T14:53:32Z</time>
      </trkpt>
      <trkpt lat="46.46348" lon="-1.47548">
        <ele>33</ele>
        <time>2019-03-26T14:53:34Z</time>
      </trkpt>
      <trkpt lat="46.46346" lon="-1.47546">
        <ele>33</ele>
        <time>2019-03-26T14:53:37Z</time>
      </trkpt>
      <trkpt lat="46.46342" lon="-1.47542">
        <ele>33</ele>
        <time>2019-03-26T14:53:40Z</time>
      </trkpt>
      <trkpt lat="46.46341" lon="-1.47539">
        <ele>33</ele>
        <time>2019-03-26T14:53:42Z</time>
      </trkpt>
      <trkpt lat="46.46337" lon="-1.47536">
        <ele>33</ele>
        <time>2019-03-26T14:53:45Z</time>
      </trkpt>
      <trkpt lat="46.46335" lon="-1.47534">
        <ele>33</ele>
        <time>2019-03-26T14:53:47Z</time>
      </trkpt>
      <trkpt lat="46.46332" lon="-1.47531">
        <ele>33</ele>
        <time>2019-03-26T14:53:50Z</time>
      </trkpt>
      <trkpt lat="46.46328" lon="-1.4753">
        <ele>33</ele>
        <time>2019-03-26T14:53:53Z</time>
      </trkpt>
      <trkpt lat="46.46325" lon="-1.47528">
        <ele>33</ele>
        <time>2019-03-26T14:53:55Z</time>
      </trkpt>
      <trkpt lat="46.4632" lon="-1.47525">
        <ele>33</ele>
        <time>2019-03-26T14:53:58Z</time>
      </trkpt>
      <trkpt lat="46.46317" lon="-1.47525">
        <ele>33</ele>
        <time>2019-03-26T14:54:00Z</time>
      </trkpt>
      <trkpt lat="46.46312" lon="-1.47523">
        <ele>33</ele>
        <time>2019-03-26T14:54:03Z</time>
      </trkpt>
      <trkpt lat="46.46308" lon="-1.47521">
        <ele>33</ele>
        <time>2019-03-26T14:54:06Z</time>
      </trkpt>
      <trkpt lat="46.46305" lon="-1.4752">
        <ele>33</ele>
        <time>2019-03-26T14:54:08Z</time>
      </trkpt>
      <trkpt lat="46.46301" lon="-1.47517">
        <ele>33</ele>
        <time>2019-03-26T14:54:11Z</time>
      </trkpt>
      <trkpt lat="46.46296" lon="-1.47516">
        <ele>33</ele>
        <time>2019-03-26T14:54:13Z</time>
      </trkpt>
      <trkpt lat="46.46294" lon="-1.47516">
        <ele>33</ele>
        <time>2019-03-26T14:54:16Z</time>
      </trkpt>
      <trkpt lat="46.46288" lon="-1.47514">
        <ele>32</ele>
        <time>2019-03-26T14:54:19Z</time>
      </trkpt>
      <trkpt lat="46.46285" lon="-1.47513">
        <ele>32</ele>
        <time>2019-03-26T14:54:21Z</time>
      </trkpt>
      <trkpt lat="46.46281" lon="-1.47511">
        <ele>32</ele>
        <time>2019-03-26T14:54:24Z</time>
      </trkpt>
      <trkpt lat="46.46278" lon="-1.47509">
        <ele>32</ele>
        <time>2019-03-26T14:54:26Z</time>
      </trkpt>
      <trkpt lat="46.46275" lon="-1.47509">
        <ele>32</ele>
        <time>2019-03-26T14:54:29Z</time>
      </trkpt>
      <trkpt lat="46.46271" lon="-1.47508">
        <ele>32</ele>
        <time>2019-03-26T14:54:32Z</time>
      </trkpt>
      <trkpt lat="46.46268" lon="-1.47506">
        <ele>32</ele>
        <time>2019-03-26T14:54:34Z</time>
      </trkpt>
      <trkpt lat="46.46264" lon="-1.47505">
        <ele>32</ele>
        <time>2019-03-26T14:54:37Z</time>
      </trkpt>
      <trkpt lat="46.4626" lon="-1.47504">
        <ele>32</ele>
        <time>2019-03-26T14:54:40Z</time>
      </trkpt>
      <trkpt lat="46.46257" lon="-1.47503">
        <ele>32</ele>
        <time>2019-03-26T14:54:42Z</time>
      </trkpt>
      <trkpt lat="46.46253" lon="-1.475">
        <ele>32</ele>
        <time>2019-03-26T14:54:45Z</time>
      </trkpt>
      <trkpt lat="46.4625" lon="-1.47499">
        <ele>32</ele>
        <time>2019-03-26T14:54:47Z</time>
      </trkpt>
      <trkpt lat="46.46246" lon="-1.47499">
        <ele>32</ele>
        <time>2019-03-26T14:54:50Z</time>
      </trkpt>
      <trkpt lat="46.46242" lon="-1.47498">
        <ele>32</ele>
        <time>2019-03-26T14:54:53Z</time>
      </trkpt>
      <trkpt lat="46.46239" lon="-1.47497">
        <ele>32</ele>
        <time>2019-03-26T14:54:55Z</time>
      </trkpt>
      <trkpt lat="46.46235" lon="-1.47494">
        <ele>32</ele>
        <time>2019-03-26T14:54:58Z</time>
      </trkpt>
      <trkpt lat="46.46231" lon="-1.47491">
        <ele>32</ele>
        <time>2019-03-26T14:55:00Z</time>
      </trkpt>
      <trkpt lat="46.46229" lon="-1.47489">
        <ele>32</ele>
        <time>2019-03-26T14:55:03Z</time>
      </trkpt>
      <trkpt lat="46.46225" lon="-1.47486">
        <ele>32</ele>
        <time>2019-03-26T14:55:06Z</time>
      </trkpt>
      <trkpt lat="46.46223" lon="-1.47485">
        <ele>32</ele>
        <time>2019-03-26T14:55:08Z</time>
      </trkpt>
      <trkpt lat="46.4622" lon="-1.47482">
        <ele>32</ele>
        <time>2019-03-26T14:55:11Z</time>
      </trkpt>
      <trkpt lat="46.46216" lon="-1.4748">
        <ele>31</ele>
        <time>2019-03-26T14:55:13Z</time>
      </trkpt>
      <trkpt lat="46.46213" lon="-1.47477">
        <ele>31</ele>
        <time>2019-03-26T14:55:16Z</time>
      </trkpt>
      <trkpt lat="46.46209" lon="-1.47474">
        <ele>31</ele>
        <time>2019-03-26T14:55:19Z</time>
      </trkpt>
      <trkpt lat="46.46207" lon="-1.47472">
        <ele>31</ele>
        <time>2019-03-26T14:55:21Z</time>
      </trkpt>
      <trkpt lat="46.46205" lon="-1.47468">
        <ele>31</ele>
        <time>2019-03-26T14:55:24Z</time>
      </trkpt>
      <trkpt lat="46.46202" lon="-1.47465">
        <ele>31</ele>
        <time>2019-03-26T14:55:26Z</time>
      </trkpt>
      <trkpt lat="46.46199" lon="-1.4746">
        <ele>31</ele>
        <time>2019-03-26T14:55:29Z</time>
      </trkpt>
      <trkpt lat="46.46196" lon="-1.47456">
        <ele>31</ele>
        <time>2019-03-26T14:55:32Z</time>
      </trkpt>
      <trkpt lat="46.46193" lon="-1.47453">
        <ele>31</ele>
        <time>2019-03-26T14:55:34Z</time>
      </trkpt>
      <trkpt lat="46.46189" lon="-1.47447">
        <ele>30</ele>
        <time>2019-03-26T14:55:37Z</time>
      </trkpt>
      <trkpt lat="46.46186" lon="-1.47442">
        <ele>30</ele>
        <time>2019-03-26T14:55:40Z</time>
      </trkpt>
      <trkpt lat="46.46183" lon="-1.47439">
        <ele>30</ele>
        <time>2019-03-26T14:55:42Z</time>
      </trkpt>
      <trkpt lat="46.4618" lon="-1.47434">
        <ele>30</ele>
        <time>2019-03-26T14:55:45Z</time>
      </trkpt>
      <trkpt lat="46.46178" lon="-1.47431">
        <ele>30</ele>
        <time>2019-03-26T14:55:47Z</time>
      </trkpt>
      <trkpt lat="46.46174" lon="-1.47427">
        <ele>30</ele>
        <time>2019-03-26T14:55:50Z</time>
      </trkpt>
      <trkpt lat="46.46171" lon="-1.47422">
        <ele>30</ele>
        <time>2019-03-26T14:55:53Z</time>
      </trkpt>
      <trkpt lat="46.46168" lon="-1.47418">
        <ele>30</ele>
        <time>2019-03-26T14:55:55Z</time>
      </trkpt>
      <trkpt lat="46.46164" lon="-1.47415">
        <ele>30</ele>
        <time>2019-03-26T14:55:58Z</time>
      </trkpt>
      <trkpt lat="46.46161" lon="-1.47413">
        <ele>30</ele>
        <time>2019-03-26T14:56:00Z</time>
      </trkpt>
      <trkpt lat="46.46158" lon="-1.4741">
        <ele>30</ele>
        <time>2019-03-26T14:56:03Z</time>
      </trkpt>
      <trkpt lat="46.46154" lon="-1.47408">
        <ele>29</ele>
        <time>2019-03-26T14:56:06Z</time>
      </trkpt>
      <trkpt lat="46.46151" lon="-1.47406">
        <ele>29</ele>
        <time>2019-03-26T14:56:08Z</time>
      </trkpt>
      <trkpt lat="46.46148" lon="-1.47403">
        <ele>30</ele>
        <time>2019-03-26T14:56:11Z</time>
      </trkpt>
      <trkpt lat="46.46146" lon="-1.47402">
        <ele>30</ele>
        <time>2019-03-26T14:56:13Z</time>
      </trkpt>
      <trkpt lat="46.46142" lon="-1.47399">
        <ele>29</ele>
        <time>2019-03-26T14:56:16Z</time>
      </trkpt>
      <trkpt lat="46.46139" lon="-1.47398">
        <ele>29</ele>
        <time>2019-03-26T14:56:18Z</time>
      </trkpt>
      <trkpt lat="46.46136" lon="-1.47397">
        <ele>29</ele>
        <time>2019-03-26T14:56:21Z</time>
      </trkpt>
      <trkpt lat="46.46133" lon="-1.47395">
        <ele>29</ele>
        <time>2019-03-26T14:56:24Z</time>
      </trkpt>
      <trkpt lat="46.4613" lon="-1.47393">
        <ele>29</ele>
        <time>2019-03-26T14:56:26Z</time>
      </trkpt>
      <trkpt lat="46.46126" lon="-1.4739">
        <ele>29</ele>
        <time>2019-03-26T14:56:29Z</time>
      </trkpt>
      <trkpt lat="46.46123" lon="-1.47387">
        <ele>30</ele>
        <time>2019-03-26T14:56:31Z</time>
      </trkpt>
      <trkpt lat="46.46119" lon="-1.47383">
        <ele>30</ele>
        <time>2019-03-26T14:56:34Z</time>
      </trkpt>
      <trkpt lat="46.46117" lon="-1.4738">
        <ele>30</ele>
        <time>2019-03-26T14:56:36Z</time>
      </trkpt>
      <trkpt lat="46.46113" lon="-1.47376">
        <ele>30</ele>
        <time>2019-03-26T14:56:39Z</time>
      </trkpt>
      <trkpt lat="46.4611" lon="-1.47373">
        <ele>30</ele>
        <time>2019-03-26T14:56:41Z</time>
      </trkpt>
      <trkpt lat="46.46108" lon="-1.47368">
        <ele>30</ele>
        <time>2019-03-26T14:56:44Z</time>
      </trkpt>
      <trkpt lat="46.46106" lon="-1.47364">
        <ele>30</ele>
        <time>2019-03-26T14:56:46Z</time>
      </trkpt>
      <trkpt lat="46.46103" lon="-1.47359">
        <ele>30</ele>
        <time>2019-03-26T14:56:49Z</time>
      </trkpt>
      <trkpt lat="46.46101" lon="-1.47357">
        <ele>30</ele>
        <time>2019-03-26T14:56:51Z</time>
      </trkpt>
      <trkpt lat="46.46098" lon="-1.47352">
        <ele>30</ele>
        <time>2019-03-26T14:56:54Z</time>
      </trkpt>
      <trkpt lat="46.46095" lon="-1.47347">
        <ele>30</ele>
        <time>2019-03-26T14:56:57Z</time>
      </trkpt>
      <trkpt lat="46.46093" lon="-1.47343">
        <ele>30</ele>
        <time>2019-03-26T14:56:59Z</time>
      </trkpt>
      <trkpt lat="46.4609" lon="-1.47339">
        <ele>30</ele>
        <time>2019-03-26T14:57:02Z</time>
      </trkpt>
      <trkpt lat="46.46088" lon="-1.47336">
        <ele>30</ele>
        <time>2019-03-26T14:57:04Z</time>
      </trkpt>
      <trkpt lat="46.46083" lon="-1.47331">
        <ele>30</ele>
        <time>2019-03-26T14:57:07Z</time>
      </trkpt>
      <trkpt lat="46.46082" lon="-1.47327">
        <ele>30</ele>
        <time>2019-03-26T14:57:09Z</time>
      </trkpt>
      <trkpt lat="46.46079" lon="-1.47322">
        <ele>30</ele>
        <time>2019-03-26T14:57:12Z</time>
      </trkpt>
      <trkpt lat="46.46075" lon="-1.47317">
        <ele>30</ele>
        <time>2019-03-26T14:57:14Z</time>
      </trkpt>
      <trkpt lat="46.46073" lon="-1.47314">
        <ele>30</ele>
        <time>2019-03-26T14:57:17Z</time>
      </trkpt>
      <trkpt lat="46.4607" lon="-1.47309">
        <ele>31</ele>
        <time>2019-03-26T14:57:20Z</time>
      </trkpt>
      <trkpt lat="46.46069" lon="-1.47306">
        <ele>31</ele>
        <time>2019-03-26T14:57:22Z</time>
      </trkpt>
      <trkpt lat="46.46066" lon="-1.47299">
        <ele>31</ele>
        <time>2019-03-26T14:57:25Z</time>
      </trkpt>
      <trkpt lat="46.46065" lon="-1.47296">
        <ele>31</ele>
        <time>2019-03-26T14:57:27Z</time>
      </trkpt>
      <trkpt lat="46.46062" lon="-1.47291">
        <ele>31</ele>
        <time>2019-03-26T14:57:30Z</time>
      </trkpt>
      <trkpt lat="46.46061" lon="-1.47287">
        <ele>31</ele>
        <time>2019-03-26T14:57:32Z</time>
      </trkpt>
      <trkpt lat="46.46059" lon="-1.47283">
        <ele>31</ele>
        <time>2019-03-26T14:57:35Z</time>
      </trkpt>
      <trkpt lat="46.46057" lon="-1.4728">
        <ele>31</ele>
        <time>2019-03-26T14:57:37Z</time>
      </trkpt>
      <trkpt lat="46.46054" lon="-1.47275">
        <ele>31</ele>
        <time>2019-03-26T14:57:40Z</time>
      </trkpt>
      <trkpt lat="46.4605" lon="-1.4727">
        <ele>31</ele>
        <time>2019-03-26T14:57:43Z</time>
      </trkpt>
      <trkpt lat="46.46048" lon="-1.47267">
        <ele>31</ele>
        <time>2019-03-26T14:57:45Z</time>
      </trkpt>
      <trkpt lat="46.46046" lon="-1.47263">
        <ele>31</ele>
        <time>2019-03-26T14:57:48Z</time>
      </trkpt>
      <trkpt lat="46.46044" lon="-1.4726">
        <ele>32</ele>
        <time>2019-03-26T14:57:50Z</time>
      </trkpt>
      <trkpt lat="46.46041" lon="-1.47254">
        <ele>32</ele>
        <time>2019-03-26T14:57:53Z</time>
      </trkpt>
      <trkpt lat="46.46039" lon="-1.47252">
        <ele>32</ele>
        <time>2019-03-26T14:57:55Z</time>
      </trkpt>
      <trkpt lat="46.46036" lon="-1.47248">
        <ele>32</ele>
        <time>2019-03-26T14:57:58Z</time>
      </trkpt>
      <trkpt lat="46.46034" lon="-1.47245">
        <ele>32</ele>
        <time>2019-03-26T14:58:00Z</time>
      </trkpt>
      <trkpt lat="46.46032" lon="-1.4724">
        <ele>32</ele>
        <time>2019-03-26T14:58:03Z</time>
      </trkpt>
      <trkpt lat="46.46029" lon="-1.47238">
        <ele>32</ele>
        <time>2019-03-26T14:58:05Z</time>
      </trkpt>
      <trkpt lat="46.46027" lon="-1.47233">
        <ele>32</ele>
        <time>2019-03-26T14:58:08Z</time>
      </trkpt>
      <trkpt lat="46.46023" lon="-1.47229">
        <ele>32</ele>
        <time>2019-03-26T14:58:11Z</time>
      </trkpt>
      <trkpt lat="46.4602" lon="-1.47226">
        <ele>33</ele>
        <time>2019-03-26T14:58:13Z</time>
      </trkpt>
      <trkpt lat="46.46016" lon="-1.47224">
        <ele>33</ele>
        <time>2019-03-26T14:58:16Z</time>
      </trkpt>
      <trkpt lat="46.46014" lon="-1.47222">
        <ele>33</ele>
        <time>2019-03-26T14:58:18Z</time>
      </trkpt>
      <trkpt lat="46.46011" lon="-1.47219">
        <ele>33</ele>
        <time>2019-03-26T14:58:21Z</time>
      </trkpt>
      <trkpt lat="46.4601" lon="-1.47217">
        <ele>33</ele>
        <time>2019-03-26T14:58:23Z</time>
      </trkpt>
      <trkpt lat="46.46007" lon="-1.47215">
        <ele>33</ele>
        <time>2019-03-26T14:58:26Z</time>
      </trkpt>
      <trkpt lat="46.46005" lon="-1.47212">
        <ele>33</ele>
        <time>2019-03-26T14:58:28Z</time>
      </trkpt>
      <trkpt lat="46.46001" lon="-1.47209">
        <ele>33</ele>
        <time>2019-03-26T14:58:31Z</time>
      </trkpt>
      <trkpt lat="46.45998" lon="-1.47204">
        <ele>34</ele>
        <time>2019-03-26T14:58:34Z</time>
      </trkpt>
      <trkpt lat="46.45995" lon="-1.472">
        <ele>34</ele>
        <time>2019-03-26T14:58:36Z</time>
      </trkpt>
      <trkpt lat="46.45991" lon="-1.47195">
        <ele>34</ele>
        <time>2019-03-26T14:58:39Z</time>
      </trkpt>
      <trkpt lat="46.45989" lon="-1.47191">
        <ele>34</ele>
        <time>2019-03-26T14:58:41Z</time>
      </trkpt>
      <trkpt lat="46.45986" lon="-1.47186">
        <ele>34</ele>
        <time>2019-03-26T14:58:44Z</time>
      </trkpt>
      <trkpt lat="46.45984" lon="-1.47183">
        <ele>34</ele>
        <time>2019-03-26T14:58:46Z</time>
      </trkpt>
      <trkpt lat="46.4598" lon="-1.47179">
        <ele>35</ele>
        <time>2019-03-26T14:58:49Z</time>
      </trkpt>
      <trkpt lat="46.45978" lon="-1.47176">
        <ele>35</ele>
        <time>2019-03-26T14:58:51Z</time>
      </trkpt>
      <trkpt lat="46.45975" lon="-1.47172">
        <ele>35</ele>
        <time>2019-03-26T14:58:54Z</time>
      </trkpt>
      <trkpt lat="46.45972" lon="-1.47167">
        <ele>35</ele>
        <time>2019-03-26T14:58:56Z</time>
      </trkpt>
      <trkpt lat="46.4597" lon="-1.47163">
        <ele>35</ele>
        <time>2019-03-26T14:58:59Z</time>
      </trkpt>
      <trkpt lat="46.45967" lon="-1.47159">
        <ele>35</ele>
        <time>2019-03-26T14:59:02Z</time>
      </trkpt>
      <trkpt lat="46.45965" lon="-1.47156">
        <ele>36</ele>
        <time>2019-03-26T14:59:04Z</time>
      </trkpt>
      <trkpt lat="46.45961" lon="-1.47151">
        <ele>36</ele>
        <time>2019-03-26T14:59:07Z</time>
      </trkpt>
      <trkpt lat="46.45959" lon="-1.47149">
        <ele>36</ele>
        <time>2019-03-26T14:59:09Z</time>
      </trkpt>
      <trkpt lat="46.45956" lon="-1.47145">
        <ele>36</ele>
        <time>2019-03-26T14:59:12Z</time>
      </trkpt>
      <trkpt lat="46.45954" lon="-1.47143">
        <ele>36</ele>
        <time>2019-03-26T14:59:14Z</time>
      </trkpt>
      <trkpt lat="46.4595" lon="-1.47141">
        <ele>36</ele>
        <time>2019-03-26T14:59:17Z</time>
      </trkpt>
      <trkpt lat="46.45948" lon="-1.47141">
        <ele>36</ele>
        <time>2019-03-26T14:59:19Z</time>
      </trkpt>
      <trkpt lat="46.45943" lon="-1.4714">
        <ele>36</ele>
        <time>2019-03-26T14:59:22Z</time>
      </trkpt>
      <trkpt lat="46.45941" lon="-1.4714">
        <ele>36</ele>
        <time>2019-03-26T14:59:24Z</time>
      </trkpt>
      <trkpt lat="46.45937" lon="-1.47141">
        <ele>36</ele>
        <time>2019-03-26T14:59:27Z</time>
      </trkpt>
      <trkpt lat="46.45934" lon="-1.47141">
        <ele>36</ele>
        <time>2019-03-26T14:59:29Z</time>
      </trkpt>
      <trkpt lat="46.4593" lon="-1.47142">
        <ele>36</ele>
        <time>2019-03-26T14:59:32Z</time>
      </trkpt>
      <trkpt lat="46.45928" lon="-1.47142">
        <ele>36</ele>
        <time>2019-03-26T14:59:34Z</time>
      </trkpt>
      <trkpt lat="46.45925" lon="-1.47142">
        <ele>36</ele>
        <time>2019-03-26T14:59:36Z</time>
      </trkpt>
      <trkpt lat="46.45922" lon="-1.47143">
        <ele>36</ele>
        <time>2019-03-26T14:59:39Z</time>
      </trkpt>
      <trkpt lat="46.45922" lon="-1.47143">
        <ele>36</ele>
        <time>2019-03-26T14:59:41Z</time>
      </trkpt>
      <trkpt lat="46.45921" lon="-1.47143">
        <ele>36</ele>
        <time>2019-03-26T14:59:44Z</time>
      </trkpt>
      <trkpt lat="46.45921" lon="-1.47143">
        <ele>36</ele>
        <time>2019-03-26T14:59:46Z</time>
      </trkpt>
      <trkpt lat="46.4592" lon="-1.47143">
        <ele>36</ele>
        <time>2019-03-26T14:59:49Z</time>
      </trkpt>
      <trkpt lat="46.4592" lon="-1.47144">
        <ele>36</ele>
        <time>2019-03-26T14:59:51Z</time>
      </trkpt>
      <trkpt lat="46.4592" lon="-1.47144">
        <ele>36</ele>
        <time>2019-03-26T14:59:54Z</time>
      </trkpt>
      <trkpt lat="46.4592" lon="-1.47144">
        <ele>36</ele>
        <time>2019-03-26T14:59:56Z</time>
      </trkpt>
      <trkpt lat="46.4592" lon="-1.47144">
        <ele>36</ele>
        <time>2019-03-26T14:59:59Z</time>
      </trkpt>
      <trkpt lat="46.45919" lon="-1.47145">
        <ele>36</ele>
        <time>2019-03-26T15:00:01Z</time>
      </trkpt>
      <trkpt lat="46.45916" lon="-1.47147">
        <ele>36</ele>
        <time>2019-03-26T15:00:04Z</time>
      </trkpt>
      <trkpt lat="46.45913" lon="-1.47147">
        <ele>36</ele>
        <time>2019-03-26T15:00:06Z</time>
      </trkpt>
      <trkpt lat="46.45908" lon="-1.47148">
        <ele>35</ele>
        <time>2019-03-26T15:00:09Z</time>
      </trkpt>
      <trkpt lat="46.45905" lon="-1.47149">
        <ele>35</ele>
        <time>2019-03-26T15:00:11Z</time>
      </trkpt>
      <trkpt lat="46.45902" lon="-1.47151">
        <ele>35</ele>
        <time>2019-03-26T15:00:14Z</time>
      </trkpt>
      <trkpt lat="46.459" lon="-1.47152">
        <ele>35</ele>
        <time>2019-03-26T15:00:16Z</time>
      </trkpt>
      <trkpt lat="46.45897" lon="-1.47154">
        <ele>35</ele>
        <time>2019-03-26T15:00:19Z</time>
      </trkpt>
      <trkpt lat="46.45896" lon="-1.47155">
        <ele>35</ele>
        <time>2019-03-26T15:00:21Z</time>
      </trkpt>
      <trkpt lat="46.45892" lon="-1.47157">
        <ele>35</ele>
        <time>2019-03-26T15:00:24Z</time>
      </trkpt>
      <trkpt lat="46.45889" lon="-1.47158">
        <ele>35</ele>
        <time>2019-03-26T15:00:26Z</time>
      </trkpt>
      <trkpt lat="46.45886" lon="-1.47159">
        <ele>35</ele>
        <time>2019-03-26T15:00:29Z</time>
      </trkpt>
      <trkpt lat="46.45884" lon="-1.47161">
        <ele>35</ele>
        <time>2019-03-26T15:00:31Z</time>
      </trkpt>
      <trkpt lat="46.4588" lon="-1.47163">
        <ele>35</ele>
        <time>2019-03-26T15:00:34Z</time>
      </trkpt>
      <trkpt lat="46.45878" lon="-1.47165">
        <ele>35</ele>
        <time>2019-03-26T15:00:36Z</time>
      </trkpt>
      <trkpt lat="46.45875" lon="-1.47167">
        <ele>35</ele>
        <time>2019-03-26T15:00:39Z</time>
      </trkpt>
      <trkpt lat="46.45872" lon="-1.47169">
        <ele>34</ele>
        <time>2019-03-26T15:00:42Z</time>
      </trkpt>
      <trkpt lat="46.4587" lon="-1.4717">
        <ele>34</ele>
        <time>2019-03-26T15:00:44Z</time>
      </trkpt>
      <trkpt lat="46.45866" lon="-1.47172">
        <ele>34</ele>
        <time>2019-03-26T15:00:47Z</time>
      </trkpt>
      <trkpt lat="46.45864" lon="-1.47175">
        <ele>34</ele>
        <time>2019-03-26T15:00:49Z</time>
      </trkpt>
      <trkpt lat="46.45861" lon="-1.47178">
        <ele>34</ele>
        <time>2019-03-26T15:00:52Z</time>
      </trkpt>
      <trkpt lat="46.45859" lon="-1.4718">
        <ele>34</ele>
        <time>2019-03-26T15:00:54Z</time>
      </trkpt>
      <trkpt lat="46.45856" lon="-1.47183">
        <ele>34</ele>
        <time>2019-03-26T15:00:57Z</time>
      </trkpt>
      <trkpt lat="46.45853" lon="-1.47185">
        <ele>34</ele>
        <time>2019-03-26T15:00:59Z</time>
      </trkpt>
      <trkpt lat="46.45849" lon="-1.47189">
        <ele>34</ele>
        <time>2019-03-26T15:01:02Z</time>
      </trkpt>
      <trkpt lat="46.45847" lon="-1.47192">
        <ele>34</ele>
        <time>2019-03-26T15:01:04Z</time>
      </trkpt>
      <trkpt lat="46.45843" lon="-1.47195">
        <ele>34</ele>
        <time>2019-03-26T15:01:07Z</time>
      </trkpt>
      <trkpt lat="46.45841" lon="-1.47197">
        <ele>34</ele>
        <time>2019-03-26T15:01:09Z</time>
      </trkpt>
      <trkpt lat="46.45838" lon="-1.47201">
        <ele>33</ele>
        <time>2019-03-26T15:01:12Z</time>
      </trkpt>
      <trkpt lat="46.45835" lon="-1.47205">
        <ele>33</ele>
        <time>2019-03-26T15:01:14Z</time>
      </trkpt>
      <trkpt lat="46.45833" lon="-1.47206">
        <ele>33</ele>
        <time>2019-03-26T15:01:17Z</time>
      </trkpt>
      <trkpt lat="46.45829" lon="-1.47209">
        <ele>33</ele>
        <time>2019-03-26T15:01:20Z</time>
      </trkpt>
      <trkpt lat="46.45827" lon="-1.47211">
        <ele>33</ele>
        <time>2019-03-26T15:01:22Z</time>
      </trkpt>
      <trkpt lat="46.45823" lon="-1.47214">
        <ele>33</ele>
        <time>2019-03-26T15:01:25Z</time>
      </trkpt>
      <trkpt lat="46.45821" lon="-1.47217">
        <ele>33</ele>
        <time>2019-03-26T15:01:27Z</time>
      </trkpt>
      <trkpt lat="46.45817" lon="-1.47221">
        <ele>33</ele>
        <time>2019-03-26T15:01:30Z</time>
      </trkpt>
      <trkpt lat="46.45814" lon="-1.47222">
        <ele>33</ele>
        <time>2019-03-26T15:01:32Z</time>
      </trkpt>
      <trkpt lat="46.45811" lon="-1.47226">
        <ele>33</ele>
        <time>2019-03-26T15:01:35Z</time>
      </trkpt>
      <trkpt lat="46.45808" lon="-1.47228">
        <ele>33</ele>
        <time>2019-03-26T15:01:37Z</time>
      </trkpt>
      <trkpt lat="46.45805" lon="-1.47232">
        <ele>32</ele>
        <time>2019-03-26T15:01:40Z</time>
      </trkpt>
      <trkpt lat="46.45802" lon="-1.47234">
        <ele>32</ele>
        <time>2019-03-26T15:01:42Z</time>
      </trkpt>
      <trkpt lat="46.45798" lon="-1.47237">
        <ele>32</ele>
        <time>2019-03-26T15:01:45Z</time>
      </trkpt>
      <trkpt lat="46.45795" lon="-1.47239">
        <ele>32</ele>
        <time>2019-03-26T15:01:47Z</time>
      </trkpt>
      <trkpt lat="46.45791" lon="-1.47242">
        <ele>32</ele>
        <time>2019-03-26T15:01:50Z</time>
      </trkpt>
      <trkpt lat="46.45789" lon="-1.47246">
        <ele>32</ele>
        <time>2019-03-26T15:01:52Z</time>
      </trkpt>
      <trkpt lat="46.45786" lon="-1.47251">
        <ele>32</ele>
        <time>2019-03-26T15:01:55Z</time>
      </trkpt>
      <trkpt lat="46.45784" lon="-1.47254">
        <ele>32</ele>
        <time>2019-03-26T15:01:57Z</time>
      </trkpt>
      <trkpt lat="46.45781" lon="-1.47261">
        <ele>32</ele>
        <time>2019-03-26T15:02:00Z</time>
      </trkpt>
      <trkpt lat="46.4578" lon="-1.47264">
        <ele>32</ele>
        <time>2019-03-26T15:02:02Z</time>
      </trkpt>
      <trkpt lat="46.45778" lon="-1.4727">
        <ele>32</ele>
        <time>2019-03-26T15:02:05Z</time>
      </trkpt>
      <trkpt lat="46.45777" lon="-1.47274">
        <ele>32</ele>
        <time>2019-03-26T15:02:07Z</time>
      </trkpt>
      <trkpt lat="46.45776" lon="-1.47281">
        <ele>32</ele>
        <time>2019-03-26T15:02:10Z</time>
      </trkpt>
      <trkpt lat="46.45775" lon="-1.47288">
        <ele>32</ele>
        <time>2019-03-26T15:02:12Z</time>
      </trkpt>
      <trkpt lat="46.45774" lon="-1.47292">
        <ele>32</ele>
        <time>2019-03-26T15:02:15Z</time>
      </trkpt>
      <trkpt lat="46.45773" lon="-1.47298">
        <ele>32</ele>
        <time>2019-03-26T15:02:18Z</time>
      </trkpt>
      <trkpt lat="46.45772" lon="-1.47302">
        <ele>32</ele>
        <time>2019-03-26T15:02:20Z</time>
      </trkpt>
      <trkpt lat="46.45772" lon="-1.47307">
        <ele>32</ele>
        <time>2019-03-26T15:02:23Z</time>
      </trkpt>
      <trkpt lat="46.45771" lon="-1.47311">
        <ele>32</ele>
        <time>2019-03-26T15:02:25Z</time>
      </trkpt>
      <trkpt lat="46.45771" lon="-1.47317">
        <ele>32</ele>
        <time>2019-03-26T15:02:28Z</time>
      </trkpt>
      <trkpt lat="46.4577" lon="-1.47321">
        <ele>32</ele>
        <time>2019-03-26T15:02:30Z</time>
      </trkpt>
      <trkpt lat="46.45771" lon="-1.47328">
        <ele>32</ele>
        <time>2019-03-26T15:02:33Z</time>
      </trkpt>
      <trkpt lat="46.45772" lon="-1.47331">
        <ele>32</ele>
        <time>2019-03-26T15:02:35Z</time>
      </trkpt>
      <trkpt lat="46.45772" lon="-1.47336">
        <ele>32</ele>
        <time>2019-03-26T15:02:38Z</time>
      </trkpt>
      <trkpt lat="46.45771" lon="-1.4734">
        <ele>32</ele>
        <time>2019-03-26T15:02:40Z</time>
      </trkpt>
      <trkpt lat="46.45771" lon="-1.47348">
        <ele>31</ele>
        <time>2019-03-26T15:02:43Z</time>
      </trkpt>
      <trkpt lat="46.45771" lon="-1.47352">
        <ele>31</ele>
        <time>2019-03-26T15:02:45Z</time>
      </trkpt>
      <trkpt lat="46.4577" lon="-1.47358">
        <ele>31</ele>
        <time>2019-03-26T15:02:48Z</time>
      </trkpt>
      <trkpt lat="46.45769" lon="-1.47362">
        <ele>31</ele>
        <time>2019-03-26T15:02:50Z</time>
      </trkpt>
      <trkpt lat="46.45768" lon="-1.47369">
        <ele>31</ele>
        <time>2019-03-26T15:02:53Z</time>
      </trkpt>
      <trkpt lat="46.45767" lon="-1.47375">
        <ele>31</ele>
        <time>2019-03-26T15:02:55Z</time>
      </trkpt>
      <trkpt lat="46.45767" lon="-1.4738">
        <ele>31</ele>
        <time>2019-03-26T15:02:58Z</time>
      </trkpt>
      <trkpt lat="46.45766" lon="-1.47387">
        <ele>31</ele>
        <time>2019-03-26T15:03:01Z</time>
      </trkpt>
      <trkpt lat="46.45766" lon="-1.47391">
        <ele>31</ele>
        <time>2019-03-26T15:03:03Z</time>
      </trkpt>
      <trkpt lat="46.45765" lon="-1.47398">
        <ele>31</ele>
        <time>2019-03-26T15:03:06Z</time>
      </trkpt>
      <trkpt lat="46.45764" lon="-1.47402">
        <ele>31</ele>
        <time>2019-03-26T15:03:08Z</time>
      </trkpt>
      <trkpt lat="46.45763" lon="-1.47409">
        <ele>31</ele>
        <time>2019-03-26T15:03:11Z</time>
      </trkpt>
      <trkpt lat="46.45762" lon="-1.47412">
        <ele>31</ele>
        <time>2019-03-26T15:03:13Z</time>
      </trkpt>
      <trkpt lat="46.45761" lon="-1.47418">
        <ele>31</ele>
        <time>2019-03-26T15:03:16Z</time>
      </trkpt>
      <trkpt lat="46.4576" lon="-1.47423">
        <ele>30</ele>
        <time>2019-03-26T15:03:18Z</time>
      </trkpt>
      <trkpt lat="46.45759" lon="-1.47429">
        <ele>30</ele>
        <time>2019-03-26T15:03:21Z</time>
      </trkpt>
      <trkpt lat="46.45758" lon="-1.47433">
        <ele>30</ele>
        <time>2019-03-26T15:03:23Z</time>
      </trkpt>
      <trkpt lat="46.45756" lon="-1.47439">
        <ele>30</ele>
        <time>2019-03-26T15:03:26Z</time>
      </trkpt>
      <trkpt lat="46.45755" lon="-1.47445">
        <ele>30</ele>
        <time>2019-03-26T15:03:29Z</time>
      </trkpt>
      <trkpt lat="46.45754" lon="-1.47448">
        <ele>30</ele>
        <time>2019-03-26T15:03:31Z</time>
      </trkpt>
      <trkpt lat="46.45752" lon="-1.47454">
        <ele>30</ele>
        <time>2019-03-26T15:03:34Z</time>
      </trkpt>
      <trkpt lat="46.4575" lon="-1.47457">
        <ele>30</ele>
        <time>2019-03-26T15:03:36Z</time>
      </trkpt>
      <trkpt lat="46.45747" lon="-1.47462">
        <ele>30</ele>
        <time>2019-03-26T15:03:39Z</time>
      </trkpt>
      <trkpt lat="46.45745" lon="-1.47466">
        <ele>29</ele>
        <time>2019-03-26T15:03:41Z</time>
      </trkpt>
      <trkpt lat="46.45743" lon="-1.4747">
        <ele>29</ele>
        <time>2019-03-26T15:03:44Z</time>
      </trkpt>
      <trkpt lat="46.45739" lon="-1.47474">
        <ele>29</ele>
        <time>2019-03-26T15:03:47Z</time>
      </trkpt>
      <trkpt lat="46.45737" lon="-1.47477">
        <ele>29</ele>
        <time>2019-03-26T15:03:49Z</time>
      </trkpt>
      <trkpt lat="46.45734" lon="-1.4748">
        <ele>29</ele>
        <time>2019-03-26T15:03:52Z</time>
      </trkpt>
      <trkpt lat="46.45732" lon="-1.47482">
        <ele>29</ele>
        <time>2019-03-26T15:03:54Z</time>
      </trkpt>
      <trkpt lat="46.45729" lon="-1.47485">
        <ele>29</ele>
        <time>2019-03-26T15:03:57Z</time>
      </trkpt>
      <trkpt lat="46.45727" lon="-1.47487">
        <ele>29</ele>
        <time>2019-03-26T15:03:59Z</time>
      </trkpt>
      <trkpt lat="46.45723" lon="-1.47489">
        <ele>29</ele>
        <time>2019-03-26T15:04:02Z</time>
      </trkpt>
      <trkpt lat="46.45721" lon="-1.47489">
        <ele>29</ele>
        <time>2019-03-26T15:04:04Z</time>
      </trkpt>
      <trkpt lat="46.45716" lon="-1.47491">
        <ele>29</ele>
        <time>2019-03-26T15:04:07Z</time>
      </trkpt>
      <trkpt lat="46.45713" lon="-1.47491">
        <ele>29</ele>
        <time>2019-03-26T15:04:10Z</time>
      </trkpt>
      <trkpt lat="46.4571" lon="-1.47492">
        <ele>29</ele>
        <time>2019-03-26T15:04:12Z</time>
      </trkpt>
      <trkpt lat="46.45707" lon="-1.47493">
        <ele>29</ele>
        <time>2019-03-26T15:04:15Z</time>
      </trkpt>
      <trkpt lat="46.45704" lon="-1.47494">
        <ele>29</ele>
        <time>2019-03-26T15:04:17Z</time>
      </trkpt>
      <trkpt lat="46.457" lon="-1.47494">
        <ele>29</ele>
        <time>2019-03-26T15:04:20Z</time>
      </trkpt>
      <trkpt lat="46.45697" lon="-1.47495">
        <ele>29</ele>
        <time>2019-03-26T15:04:22Z</time>
      </trkpt>
      <trkpt lat="46.45693" lon="-1.47496">
        <ele>29</ele>
        <time>2019-03-26T15:04:25Z</time>
      </trkpt>
      <trkpt lat="46.45691" lon="-1.47497">
        <ele>29</ele>
        <time>2019-03-26T15:04:27Z</time>
      </trkpt>
      <trkpt lat="46.45687" lon="-1.47497">
        <ele>28</ele>
        <time>2019-03-26T15:04:30Z</time>
      </trkpt>
      <trkpt lat="46.45684" lon="-1.47497">
        <ele>28</ele>
        <time>2019-03-26T15:04:32Z</time>
      </trkpt>
      <trkpt lat="46.45679" lon="-1.47498">
        <ele>28</ele>
        <time>2019-03-26T15:04:35Z</time>
      </trkpt>
      <trkpt lat="46.45677" lon="-1.47498">
        <ele>28</ele>
        <time>2019-03-26T15:04:37Z</time>
      </trkpt>
      <trkpt lat="46.45672" lon="-1.47499">
        <ele>28</ele>
        <time>2019-03-26T15:04:40Z</time>
      </trkpt>
      <trkpt lat="46.45669" lon="-1.47499">
        <ele>28</ele>
        <time>2019-03-26T15:04:42Z</time>
      </trkpt>
      <trkpt lat="46.45665" lon="-1.475">
        <ele>28</ele>
        <time>2019-03-26T15:04:45Z</time>
      </trkpt>
      <trkpt lat="46.45662" lon="-1.475">
        <ele>28</ele>
        <time>2019-03-26T15:04:47Z</time>
      </trkpt>
      <trkpt lat="46.45658" lon="-1.47501">
        <ele>28</ele>
        <time>2019-03-26T15:04:50Z</time>
      </trkpt>
      <trkpt lat="46.45655" lon="-1.47501">
        <ele>28</ele>
        <time>2019-03-26T15:04:52Z</time>
      </trkpt>
      <trkpt lat="46.4565" lon="-1.47501">
        <ele>28</ele>
        <time>2019-03-26T15:04:55Z</time>
      </trkpt>
      <trkpt lat="46.45647" lon="-1.47502">
        <ele>28</ele>
        <time>2019-03-26T15:04:57Z</time>
      </trkpt>
      <trkpt lat="46.45643" lon="-1.47503">
        <ele>28</ele>
        <time>2019-03-26T15:05:00Z</time>
      </trkpt>
      <trkpt lat="46.4564" lon="-1.47503">
        <ele>28</ele>
        <time>2019-03-26T15:05:02Z</time>
      </trkpt>
      <trkpt lat="46.45636" lon="-1.47504">
        <ele>28</ele>
        <time>2019-03-26T15:05:05Z</time>
      </trkpt>
      <trkpt lat="46.45633" lon="-1.47504">
        <ele>28</ele>
        <time>2019-03-26T15:05:07Z</time>
      </trkpt>
      <trkpt lat="46.45629" lon="-1.47505">
        <ele>28</ele>
        <time>2019-03-26T15:05:10Z</time>
      </trkpt>
      <trkpt lat="46.45626" lon="-1.47505">
        <ele>28</ele>
        <time>2019-03-26T15:05:12Z</time>
      </trkpt>
      <trkpt lat="46.45622" lon="-1.47506">
        <ele>28</ele>
        <time>2019-03-26T15:05:15Z</time>
      </trkpt>
      <trkpt lat="46.45618" lon="-1.47507">
        <ele>28</ele>
        <time>2019-03-26T15:05:17Z</time>
      </trkpt>
      <trkpt lat="46.45615" lon="-1.47509">
        <ele>28</ele>
        <time>2019-03-26T15:05:20Z</time>
      </trkpt>
      <trkpt lat="46.4561" lon="-1.47511">
        <ele>28</ele>
        <time>2019-03-26T15:05:22Z</time>
      </trkpt>
      <trkpt lat="46.45608" lon="-1.47512">
        <ele>28</ele>
        <time>2019-03-26T15:05:25Z</time>
      </trkpt>
      <trkpt lat="46.45605" lon="-1.47513">
        <ele>28</ele>
        <time>2019-03-26T15:05:28Z</time>
      </trkpt>
      <trkpt lat="46.45602" lon="-1.47514">
        <ele>28</ele>
        <time>2019-03-26T15:05:30Z</time>
      </trkpt>
      <trkpt lat="46.45599" lon="-1.47515">
        <ele>28</ele>
        <time>2019-03-26T15:05:33Z</time>
      </trkpt>
      <trkpt lat="46.45597" lon="-1.47515">
        <ele>28</ele>
        <time>2019-03-26T15:05:35Z</time>
      </trkpt>
      <trkpt lat="46.45592" lon="-1.47517">
        <ele>28</ele>
        <time>2019-03-26T15:05:38Z</time>
      </trkpt>
      <trkpt lat="46.45589" lon="-1.47519">
        <ele>28</ele>
        <time>2019-03-26T15:05:40Z</time>
      </trkpt>
      <trkpt lat="46.45585" lon="-1.47521">
        <ele>28</ele>
        <time>2019-03-26T15:05:43Z</time>
      </trkpt>
      <trkpt lat="46.45582" lon="-1.47522">
        <ele>27</ele>
        <time>2019-03-26T15:05:45Z</time>
      </trkpt>
      <trkpt lat="46.45578" lon="-1.47524">
        <ele>27</ele>
        <time>2019-03-26T15:05:48Z</time>
      </trkpt>
      <trkpt lat="46.45575" lon="-1.47525">
        <ele>27</ele>
        <time>2019-03-26T15:05:50Z</time>
      </trkpt>
      <trkpt lat="46.45571" lon="-1.47527">
        <ele>27</ele>
        <time>2019-03-26T15:05:53Z</time>
      </trkpt>
      <trkpt lat="46.45568" lon="-1.47528">
        <ele>27</ele>
        <time>2019-03-26T15:05:55Z</time>
      </trkpt>
      <trkpt lat="46.45564" lon="-1.4753">
        <ele>27</ele>
        <time>2019-03-26T15:05:58Z</time>
      </trkpt>
      <trkpt lat="46.45561" lon="-1.47532">
        <ele>27</ele>
        <time>2019-03-26T15:06:00Z</time>
      </trkpt>
      <trkpt lat="46.45556" lon="-1.47534">
        <ele>26</ele>
        <time>2019-03-26T15:06:03Z</time>
      </trkpt>
      <trkpt lat="46.45553" lon="-1.47535">
        <ele>26</ele>
        <time>2019-03-26T15:06:05Z</time>
      </trkpt>
      <trkpt lat="46.4555" lon="-1.47536">
        <ele>26</ele>
        <time>2019-03-26T15:06:08Z</time>
      </trkpt>
      <trkpt lat="46.45547" lon="-1.47536">
        <ele>26</ele>
        <time>2019-03-26T15:06:10Z</time>
      </trkpt>
      <trkpt lat="46.45542" lon="-1.47538">
        <ele>26</ele>
        <time>2019-03-26T15:06:13Z</time>
      </trkpt>
      <trkpt lat="46.45539" lon="-1.47539">
        <ele>26</ele>
        <time>2019-03-26T15:06:15Z</time>
      </trkpt>
      <trkpt lat="46.45535" lon="-1.4754">
        <ele>25</ele>
        <time>2019-03-26T15:06:18Z</time>
      </trkpt>
      <trkpt lat="46.4553" lon="-1.47541">
        <ele>25</ele>
        <time>2019-03-26T15:06:21Z</time>
      </trkpt>
      <trkpt lat="46.45527" lon="-1.4754">
        <ele>25</ele>
        <time>2019-03-26T15:06:23Z</time>
      </trkpt>
      <trkpt lat="46.45522" lon="-1.47541">
        <ele>25</ele>
        <time>2019-03-26T15:06:26Z</time>
      </trkpt>
      <trkpt lat="46.4552" lon="-1.47541">
        <ele>25</ele>
        <time>2019-03-26T15:06:28Z</time>
      </trkpt>
      <trkpt lat="46.45516" lon="-1.47541">
        <ele>24</ele>
        <time>2019-03-26T15:06:31Z</time>
      </trkpt>
      <trkpt lat="46.45513" lon="-1.47541">
        <ele>24</ele>
        <time>2019-03-26T15:06:33Z</time>
      </trkpt>
      <trkpt lat="46.45509" lon="-1.47543">
        <ele>24</ele>
        <time>2019-03-26T15:06:36Z</time>
      </trkpt>
      <trkpt lat="46.45506" lon="-1.47544">
        <ele>24</ele>
        <time>2019-03-26T15:06:38Z</time>
      </trkpt>
      <trkpt lat="46.45503" lon="-1.47545">
        <ele>24</ele>
        <time>2019-03-26T15:06:41Z</time>
      </trkpt>
      <trkpt lat="46.45502" lon="-1.47547">
        <ele>24</ele>
        <time>2019-03-26T15:06:44Z</time>
      </trkpt>
      <trkpt lat="46.45502" lon="-1.47547">
        <ele>24</ele>
        <time>2019-03-26T15:06:46Z</time>
      </trkpt>
      <trkpt lat="46.45501" lon="-1.47548">
        <ele>24</ele>
        <time>2019-03-26T15:06:49Z</time>
      </trkpt>
      <trkpt lat="46.45499" lon="-1.47547">
        <ele>23</ele>
        <time>2019-03-26T15:06:51Z</time>
      </trkpt>
      <trkpt lat="46.45496" lon="-1.47547">
        <ele>23</ele>
        <time>2019-03-26T15:06:54Z</time>
      </trkpt>
      <trkpt lat="46.45495" lon="-1.47545">
        <ele>23</ele>
        <time>2019-03-26T15:06:56Z</time>
      </trkpt>
      <trkpt lat="46.45493" lon="-1.47541">
        <ele>23</ele>
        <time>2019-03-26T15:06:59Z</time>
      </trkpt>
      <trkpt lat="46.45491" lon="-1.47538">
        <ele>23</ele>
        <time>2019-03-26T15:07:01Z</time>
      </trkpt>
      <trkpt lat="46.45491" lon="-1.47536">
        <ele>23</ele>
        <time>2019-03-26T15:07:04Z</time>
      </trkpt>
      <trkpt lat="46.4549" lon="-1.47531">
        <ele>23</ele>
        <time>2019-03-26T15:07:07Z</time>
      </trkpt>
      <trkpt lat="46.45491" lon="-1.47527">
        <ele>23</ele>
        <time>2019-03-26T15:07:09Z</time>
      </trkpt>
      <trkpt lat="46.45491" lon="-1.47523">
        <ele>23</ele>
        <time>2019-03-26T15:07:12Z</time>
      </trkpt>
      <trkpt lat="46.4549" lon="-1.4752">
        <ele>23</ele>
        <time>2019-03-26T15:07:14Z</time>
      </trkpt>
      <trkpt lat="46.4549" lon="-1.4752">
        <ele>23</ele>
        <time>2019-03-26T15:07:17Z</time>
      </trkpt>
      <trkpt lat="46.4549" lon="-1.47515">
        <ele>23</ele>
        <time>2019-03-26T15:07:20Z</time>
      </trkpt>
      <trkpt lat="46.4549" lon="-1.47511">
        <ele>23</ele>
        <time>2019-03-26T15:07:22Z</time>
      </trkpt>
      <trkpt lat="46.45491" lon="-1.47506">
        <ele>23</ele>
        <time>2019-03-26T15:07:25Z</time>
      </trkpt>
      <trkpt lat="46.4549" lon="-1.47502">
        <ele>23</ele>
        <time>2019-03-26T15:07:27Z</time>
      </trkpt>
      <trkpt lat="46.45491" lon="-1.47496">
        <ele>23</ele>
        <time>2019-03-26T15:07:30Z</time>
      </trkpt>
      <trkpt lat="46.4549" lon="-1.4749">
        <ele>23</ele>
        <time>2019-03-26T15:07:33Z</time>
      </trkpt>
      <trkpt lat="46.45491" lon="-1.47486">
        <ele>23</ele>
        <time>2019-03-26T15:07:35Z</time>
      </trkpt>
      <trkpt lat="46.45491" lon="-1.4748">
        <ele>23</ele>
        <time>2019-03-26T15:07:38Z</time>
      </trkpt>
      <trkpt lat="46.4549" lon="-1.47476">
        <ele>23</ele>
        <time>2019-03-26T15:07:40Z</time>
      </trkpt>
      <trkpt lat="46.45491" lon="-1.47471">
        <ele>23</ele>
        <time>2019-03-26T15:07:43Z</time>
      </trkpt>
      <trkpt lat="46.45491" lon="-1.47465">
        <ele>23</ele>
        <time>2019-03-26T15:07:46Z</time>
      </trkpt>
      <trkpt lat="46.45489" lon="-1.47462">
        <ele>23</ele>
        <time>2019-03-26T15:07:48Z</time>
      </trkpt>
      <trkpt lat="46.45488" lon="-1.47459">
        <ele>23</ele>
        <time>2019-03-26T15:07:51Z</time>
      </trkpt>
      <trkpt lat="46.45487" lon="-1.47452">
        <ele>23</ele>
        <time>2019-03-26T15:07:53Z</time>
      </trkpt>
      <trkpt lat="46.45486" lon="-1.47448">
        <ele>23</ele>
        <time>2019-03-26T15:07:56Z</time>
      </trkpt>
      <trkpt lat="46.45485" lon="-1.47442">
        <ele>23</ele>
        <time>2019-03-26T15:07:59Z</time>
      </trkpt>
      <trkpt lat="46.45486" lon="-1.47437">
        <ele>23</ele>
        <time>2019-03-26T15:08:01Z</time>
      </trkpt>
      <trkpt lat="46.45485" lon="-1.4743">
        <ele>23</ele>
        <time>2019-03-26T15:08:04Z</time>
      </trkpt>
      <trkpt lat="46.45485" lon="-1.47423">
        <ele>23</ele>
        <time>2019-03-26T15:08:06Z</time>
      </trkpt>
      <trkpt lat="46.45485" lon="-1.47419">
        <ele>23</ele>
        <time>2019-03-26T15:08:09Z</time>
      </trkpt>
      <trkpt lat="46.45484" lon="-1.47412">
        <ele>23</ele>
        <time>2019-03-26T15:08:12Z</time>
      </trkpt>
      <trkpt lat="46.45483" lon="-1.47408">
        <ele>23</ele>
        <time>2019-03-26T15:08:14Z</time>
      </trkpt>
      <trkpt lat="46.45482" lon="-1.47402">
        <ele>23</ele>
        <time>2019-03-26T15:08:17Z</time>
      </trkpt>
      <trkpt lat="46.45481" lon="-1.47398">
        <ele>23</ele>
        <time>2019-03-26T15:08:19Z</time>
      </trkpt>
      <trkpt lat="46.4548" lon="-1.47391">
        <ele>23</ele>
        <time>2019-03-26T15:08:22Z</time>
      </trkpt>
      <trkpt lat="46.45479" lon="-1.47385">
        <ele>23</ele>
        <time>2019-03-26T15:08:25Z</time>
      </trkpt>
      <trkpt lat="46.45478" lon="-1.47381">
        <ele>23</ele>
        <time>2019-03-26T15:08:27Z</time>
      </trkpt>
      <trkpt lat="46.45478" lon="-1.47373">
        <ele>23</ele>
        <time>2019-03-26T15:08:30Z</time>
      </trkpt>
      <trkpt lat="46.45477" lon="-1.47369">
        <ele>23</ele>
        <time>2019-03-26T15:08:32Z</time>
      </trkpt>
      <trkpt lat="46.45476" lon="-1.47363">
        <ele>23</ele>
        <time>2019-03-26T15:08:35Z</time>
      </trkpt>
      <trkpt lat="46.45475" lon="-1.47356">
        <ele>23</ele>
        <time>2019-03-26T15:08:37Z</time>
      </trkpt>
      <trkpt lat="46.45475" lon="-1.47352">
        <ele>23</ele>
        <time>2019-03-26T15:08:40Z</time>
      </trkpt>
      <trkpt lat="46.45474" lon="-1.47345">
        <ele>23</ele>
        <time>2019-03-26T15:08:43Z</time>
      </trkpt>
      <trkpt lat="46.45474" lon="-1.4734">
        <ele>23</ele>
        <time>2019-03-26T15:08:45Z</time>
      </trkpt>
      <trkpt lat="46.45472" lon="-1.47333">
        <ele>23</ele>
        <time>2019-03-26T15:08:48Z</time>
      </trkpt>
      <trkpt lat="46.45472" lon="-1.47328">
        <ele>23</ele>
        <time>2019-03-26T15:08:50Z</time>
      </trkpt>
      <trkpt lat="46.4547" lon="-1.47321">
        <ele>23</ele>
        <time>2019-03-26T15:08:53Z</time>
      </trkpt>
      <trkpt lat="46.45469" lon="-1.47314">
        <ele>23</ele>
        <time>2019-03-26T15:08:56Z</time>
      </trkpt>
      <trkpt lat="46.45468" lon="-1.4731">
        <ele>23</ele>
        <time>2019-03-26T15:08:58Z</time>
      </trkpt>
      <trkpt lat="46.45466" lon="-1.47303">
        <ele>23</ele>
        <time>2019-03-26T15:09:01Z</time>
      </trkpt>
      <trkpt lat="46.45464" lon="-1.47298">
        <ele>23</ele>
        <time>2019-03-26T15:09:03Z</time>
      </trkpt>
      <trkpt lat="46.45463" lon="-1.47292">
        <ele>23</ele>
        <time>2019-03-26T15:09:06Z</time>
      </trkpt>
      <trkpt lat="46.45462" lon="-1.47288">
        <ele>23</ele>
        <time>2019-03-26T15:09:08Z</time>
      </trkpt>
      <trkpt lat="46.45462" lon="-1.47282">
        <ele>23</ele>
        <time>2019-03-26T15:09:11Z</time>
      </trkpt>
      <trkpt lat="46.45461" lon="-1.47277">
        <ele>23</ele>
        <time>2019-03-26T15:09:14Z</time>
      </trkpt>
      <trkpt lat="46.45461" lon="-1.47273">
        <ele>23</ele>
        <time>2019-03-26T15:09:16Z</time>
      </trkpt>
      <trkpt lat="46.45461" lon="-1.47266">
        <ele>23</ele>
        <time>2019-03-26T15:09:19Z</time>
      </trkpt>
      <trkpt lat="46.45461" lon="-1.47261">
        <ele>23</ele>
        <time>2019-03-26T15:09:21Z</time>
      </trkpt>
      <trkpt lat="46.4546" lon="-1.47255">
        <ele>23</ele>
        <time>2019-03-26T15:09:24Z</time>
      </trkpt>
      <trkpt lat="46.4546" lon="-1.4725">
        <ele>23</ele>
        <time>2019-03-26T15:09:26Z</time>
      </trkpt>
      <trkpt lat="46.45459" lon="-1.47243">
        <ele>23</ele>
        <time>2019-03-26T15:09:29Z</time>
      </trkpt>
      <trkpt lat="46.45459" lon="-1.47237">
        <ele>23</ele>
        <time>2019-03-26T15:09:32Z</time>
      </trkpt>
      <trkpt lat="46.45458" lon="-1.47233">
        <ele>23</ele>
        <time>2019-03-26T15:09:34Z</time>
      </trkpt>
      <trkpt lat="46.45457" lon="-1.47227">
        <ele>23</ele>
        <time>2019-03-26T15:09:37Z</time>
      </trkpt>
      <trkpt lat="46.45457" lon="-1.47223">
        <ele>23</ele>
        <time>2019-03-26T15:09:39Z</time>
      </trkpt>
      <trkpt lat="46.45456" lon="-1.47216">
        <ele>23</ele>
        <time>2019-03-26T15:09:42Z</time>
      </trkpt>
      <trkpt lat="46.45455" lon="-1.47212">
        <ele>23</ele>
        <time>2019-03-26T15:09:44Z</time>
      </trkpt>
      <trkpt lat="46.45454" lon="-1.47206">
        <ele>23</ele>
        <time>2019-03-26T15:09:47Z</time>
      </trkpt>
      <trkpt lat="46.45453" lon="-1.472">
        <ele>23</ele>
        <time>2019-03-26T15:09:50Z</time>
      </trkpt>
      <trkpt lat="46.45452" lon="-1.47195">
        <ele>23</ele>
        <time>2019-03-26T15:09:52Z</time>
      </trkpt>
      <trkpt lat="46.45451" lon="-1.47189">
        <ele>23</ele>
        <time>2019-03-26T15:09:55Z</time>
      </trkpt>
      <trkpt lat="46.45451" lon="-1.47185">
        <ele>23</ele>
        <time>2019-03-26T15:09:57Z</time>
      </trkpt>
      <trkpt lat="46.4545" lon="-1.47179">
        <ele>23</ele>
        <time>2019-03-26T15:10:00Z</time>
      </trkpt>
      <trkpt lat="46.4545" lon="-1.47175">
        <ele>23</ele>
        <time>2019-03-26T15:10:02Z</time>
      </trkpt>
      <trkpt lat="46.45448" lon="-1.47169">
        <ele>23</ele>
        <time>2019-03-26T15:10:05Z</time>
      </trkpt>
      <trkpt lat="46.45446" lon="-1.47164">
        <ele>23</ele>
        <time>2019-03-26T15:10:07Z</time>
      </trkpt>
      <trkpt lat="46.45444" lon="-1.47157">
        <ele>23</ele>
        <time>2019-03-26T15:10:10Z</time>
      </trkpt>
      <trkpt lat="46.45442" lon="-1.47153">
        <ele>23</ele>
        <time>2019-03-26T15:10:12Z</time>
      </trkpt>
      <trkpt lat="46.45441" lon="-1.47147">
        <ele>23</ele>
        <time>2019-03-26T15:10:15Z</time>
      </trkpt>
      <trkpt lat="46.45439" lon="-1.47143">
        <ele>23</ele>
        <time>2019-03-26T15:10:17Z</time>
      </trkpt>
      <trkpt lat="46.45438" lon="-1.47136">
        <ele>23</ele>
        <time>2019-03-26T15:10:20Z</time>
      </trkpt>
      <trkpt lat="46.45437" lon="-1.47131">
        <ele>23</ele>
        <time>2019-03-26T15:10:22Z</time>
      </trkpt>
      <trkpt lat="46.45437" lon="-1.47124">
        <ele>23</ele>
        <time>2019-03-26T15:10:25Z</time>
      </trkpt>
      <trkpt lat="46.45436" lon="-1.47117">
        <ele>23</ele>
        <time>2019-03-26T15:10:27Z</time>
      </trkpt>
      <trkpt lat="46.45436" lon="-1.47113">
        <ele>23</ele>
        <time>2019-03-26T15:10:30Z</time>
      </trkpt>
      <trkpt lat="46.45435" lon="-1.47107">
        <ele>23</ele>
        <time>2019-03-26T15:10:33Z</time>
      </trkpt>
      <trkpt lat="46.45433" lon="-1.47103">
        <ele>23</ele>
        <time>2019-03-26T15:10:35Z</time>
      </trkpt>
      <trkpt lat="46.45432" lon="-1.47097">
        <ele>23</ele>
        <time>2019-03-26T15:10:38Z</time>
      </trkpt>
      <trkpt lat="46.45432" lon="-1.47093">
        <ele>23</ele>
        <time>2019-03-26T15:10:40Z</time>
      </trkpt>
      <trkpt lat="46.4543" lon="-1.47086">
        <ele>23</ele>
        <time>2019-03-26T15:10:43Z</time>
      </trkpt>
      <trkpt lat="46.45429" lon="-1.47081">
        <ele>22</ele>
        <time>2019-03-26T15:10:45Z</time>
      </trkpt>
      <trkpt lat="46.45428" lon="-1.47075">
        <ele>22</ele>
        <time>2019-03-26T15:10:48Z</time>
      </trkpt>
      <trkpt lat="46.45426" lon="-1.4707">
        <ele>23</ele>
        <time>2019-03-26T15:10:50Z</time>
      </trkpt>
      <trkpt lat="46.45425" lon="-1.47063">
        <ele>23</ele>
        <time>2019-03-26T15:10:53Z</time>
      </trkpt>
      <trkpt lat="46.45423" lon="-1.4706">
        <ele>22</ele>
        <time>2019-03-26T15:10:55Z</time>
      </trkpt>
      <trkpt lat="46.45422" lon="-1.47053">
        <ele>22</ele>
        <time>2019-03-26T15:10:58Z</time>
      </trkpt>
      <trkpt lat="46.45421" lon="-1.47048">
        <ele>22</ele>
        <time>2019-03-26T15:11:00Z</time>
      </trkpt>
      <trkpt lat="46.4542" lon="-1.47042">
        <ele>22</ele>
        <time>2019-03-26T15:11:03Z</time>
      </trkpt>
      <trkpt lat="46.45419" lon="-1.47037">
        <ele>22</ele>
        <time>2019-03-26T15:11:05Z</time>
      </trkpt>
      <trkpt lat="46.45417" lon="-1.4703">
        <ele>22</ele>
        <time>2019-03-26T15:11:08Z</time>
      </trkpt>
      <trkpt lat="46.45417" lon="-1.47026">
        <ele>22</ele>
        <time>2019-03-26T15:11:10Z</time>
      </trkpt>
      <trkpt lat="46.45415" lon="-1.4702">
        <ele>22</ele>
        <time>2019-03-26T15:11:13Z</time>
      </trkpt>
      <trkpt lat="46.45414" lon="-1.47015">
        <ele>22</ele>
        <time>2019-03-26T15:11:15Z</time>
      </trkpt>
      <trkpt lat="46.45412" lon="-1.47009">
        <ele>23</ele>
        <time>2019-03-26T15:11:18Z</time>
      </trkpt>
      <trkpt lat="46.45412" lon="-1.47002">
        <ele>22</ele>
        <time>2019-03-26T15:11:20Z</time>
      </trkpt>
      <trkpt lat="46.4541" lon="-1.46997">
        <ele>22</ele>
        <time>2019-03-26T15:11:23Z</time>
      </trkpt>
      <trkpt lat="46.4541" lon="-1.46993">
        <ele>23</ele>
        <time>2019-03-26T15:11:26Z</time>
      </trkpt>
      <trkpt lat="46.45408" lon="-1.46987">
        <ele>23</ele>
        <time>2019-03-26T15:11:28Z</time>
      </trkpt>
      <trkpt lat="46.45407" lon="-1.46981">
        <ele>23</ele>
        <time>2019-03-26T15:11:31Z</time>
      </trkpt>
      <trkpt lat="46.45406" lon="-1.46976">
        <ele>23</ele>
        <time>2019-03-26T15:11:33Z</time>
      </trkpt>
      <trkpt lat="46.45404" lon="-1.46971">
        <ele>23</ele>
        <time>2019-03-26T15:11:36Z</time>
      </trkpt>
      <trkpt lat="46.45404" lon="-1.46966">
        <ele>23</ele>
        <time>2019-03-26T15:11:38Z</time>
      </trkpt>
      <trkpt lat="46.45403" lon="-1.4696">
        <ele>23</ele>
        <time>2019-03-26T15:11:41Z</time>
      </trkpt>
      <trkpt lat="46.45403" lon="-1.46956">
        <ele>23</ele>
        <time>2019-03-26T15:11:43Z</time>
      </trkpt>
      <trkpt lat="46.45402" lon="-1.46949">
        <ele>23</ele>
        <time>2019-03-26T15:11:46Z</time>
      </trkpt>
      <trkpt lat="46.454" lon="-1.46942">
        <ele>23</ele>
        <time>2019-03-26T15:11:48Z</time>
      </trkpt>
      <trkpt lat="46.454" lon="-1.46938">
        <ele>23</ele>
        <time>2019-03-26T15:11:51Z</time>
      </trkpt>
      <trkpt lat="46.454" lon="-1.46931">
        <ele>23</ele>
        <time>2019-03-26T15:11:54Z</time>
      </trkpt>
      <trkpt lat="46.45399" lon="-1.46927">
        <ele>23</ele>
        <time>2019-03-26T15:11:56Z</time>
      </trkpt>
      <trkpt lat="46.45398" lon="-1.4692">
        <ele>23</ele>
        <time>2019-03-26T15:11:59Z</time>
      </trkpt>
      <trkpt lat="46.45397" lon="-1.46915">
        <ele>23</ele>
        <time>2019-03-26T15:12:01Z</time>
      </trkpt>
      <trkpt lat="46.45397" lon="-1.46909">
        <ele>23</ele>
        <time>2019-03-26T15:12:04Z</time>
      </trkpt>
      <trkpt lat="46.45397" lon="-1.46904">
        <ele>23</ele>
        <time>2019-03-26T15:12:06Z</time>
      </trkpt>
      <trkpt lat="46.45397" lon="-1.46898">
        <ele>23</ele>
        <time>2019-03-26T15:12:09Z</time>
      </trkpt>
      <trkpt lat="46.45396" lon="-1.46892">
        <ele>23</ele>
        <time>2019-03-26T15:12:12Z</time>
      </trkpt>
      <trkpt lat="46.45396" lon="-1.46888">
        <ele>23</ele>
        <time>2019-03-26T15:12:14Z</time>
      </trkpt>
      <trkpt lat="46.45394" lon="-1.46882">
        <ele>23</ele>
        <time>2019-03-26T15:12:17Z</time>
      </trkpt>
      <trkpt lat="46.45394" lon="-1.46879">
        <ele>23</ele>
        <time>2019-03-26T15:12:19Z</time>
      </trkpt>
      <trkpt lat="46.45393" lon="-1.46872">
        <ele>23</ele>
        <time>2019-03-26T15:12:22Z</time>
      </trkpt>
      <trkpt lat="46.45392" lon="-1.46868">
        <ele>23</ele>
        <time>2019-03-26T15:12:24Z</time>
      </trkpt>
      <trkpt lat="46.45392" lon="-1.4686">
        <ele>23</ele>
        <time>2019-03-26T15:12:27Z</time>
      </trkpt>
      <trkpt lat="46.45391" lon="-1.46857">
        <ele>23</ele>
        <time>2019-03-26T15:12:29Z</time>
      </trkpt>
      <trkpt lat="46.4539" lon="-1.46852">
        <ele>23</ele>
        <time>2019-03-26T15:12:32Z</time>
      </trkpt>
      <trkpt lat="46.4539" lon="-1.46847">
        <ele>23</ele>
        <time>2019-03-26T15:12:34Z</time>
      </trkpt>
      <trkpt lat="46.45389" lon="-1.46842">
        <ele>23</ele>
        <time>2019-03-26T15:12:37Z</time>
      </trkpt>
      <trkpt lat="46.45388" lon="-1.46837">
        <ele>22</ele>
        <time>2019-03-26T15:12:39Z</time>
      </trkpt>
      <trkpt lat="46.45387" lon="-1.46832">
        <ele>22</ele>
        <time>2019-03-26T15:12:42Z</time>
      </trkpt>
      <trkpt lat="46.45387" lon="-1.46827">
        <ele>22</ele>
        <time>2019-03-26T15:12:44Z</time>
      </trkpt>
      <trkpt lat="46.45385" lon="-1.46821">
        <ele>21</ele>
        <time>2019-03-26T15:12:47Z</time>
      </trkpt>
      <trkpt lat="46.45384" lon="-1.46817">
        <ele>21</ele>
        <time>2019-03-26T15:12:49Z</time>
      </trkpt>
      <trkpt lat="46.45383" lon="-1.4681">
        <ele>21</ele>
        <time>2019-03-26T15:12:52Z</time>
      </trkpt>
      <trkpt lat="46.45382" lon="-1.46806">
        <ele>20</ele>
        <time>2019-03-26T15:12:54Z</time>
      </trkpt>
      <trkpt lat="46.4538" lon="-1.468">
        <ele>19</ele>
        <time>2019-03-26T15:12:57Z</time>
      </trkpt>
      <trkpt lat="46.45379" lon="-1.46796">
        <ele>19</ele>
        <time>2019-03-26T15:12:59Z</time>
      </trkpt>
      <trkpt lat="46.45375" lon="-1.46792">
        <ele>17</ele>
        <time>2019-03-26T15:13:02Z</time>
      </trkpt>
      <trkpt lat="46.45372" lon="-1.46787">
        <ele>16</ele>
        <time>2019-03-26T15:13:04Z</time>
      </trkpt>
      <trkpt lat="46.45369" lon="-1.46785">
        <ele>15</ele>
        <time>2019-03-26T15:13:07Z</time>
      </trkpt>
      <trkpt lat="46.45365" lon="-1.46785">
        <ele>15</ele>
        <time>2019-03-26T15:13:10Z</time>
      </trkpt>
      <trkpt lat="46.45362" lon="-1.46785">
        <ele>15</ele>
        <time>2019-03-26T15:13:12Z</time>
      </trkpt>
      <trkpt lat="46.45358" lon="-1.46786">
        <ele>15</ele>
        <time>2019-03-26T15:13:15Z</time>
      </trkpt>
      <trkpt lat="46.45356" lon="-1.46787">
        <ele>15</ele>
        <time>2019-03-26T15:13:17Z</time>
      </trkpt>
      <trkpt lat="46.45352" lon="-1.46792">
        <ele>15</ele>
        <time>2019-03-26T15:13:20Z</time>
      </trkpt>
      <trkpt lat="46.45349" lon="-1.46794">
        <ele>15</ele>
        <time>2019-03-26T15:13:22Z</time>
      </trkpt>
      <trkpt lat="46.45345" lon="-1.46796">
        <ele>15</ele>
        <time>2019-03-26T15:13:25Z</time>
      </trkpt>
      <trkpt lat="46.45343" lon="-1.46799">
        <ele>15</ele>
        <time>2019-03-26T15:13:27Z</time>
      </trkpt>
      <trkpt lat="46.45339" lon="-1.46803">
        <ele>15</ele>
        <time>2019-03-26T15:13:30Z</time>
      </trkpt>
      <trkpt lat="46.45337" lon="-1.46806">
        <ele>15</ele>
        <time>2019-03-26T15:13:32Z</time>
      </trkpt>
      <trkpt lat="46.45333" lon="-1.4681">
        <ele>15</ele>
        <time>2019-03-26T15:13:35Z</time>
      </trkpt>
      <trkpt lat="46.45332" lon="-1.46813">
        <ele>15</ele>
        <time>2019-03-26T15:13:37Z</time>
      </trkpt>
      <trkpt lat="46.45329" lon="-1.46817">
        <ele>15</ele>
        <time>2019-03-26T15:13:40Z</time>
      </trkpt>
      <trkpt lat="46.45326" lon="-1.46821">
        <ele>15</ele>
        <time>2019-03-26T15:13:42Z</time>
      </trkpt>
      <trkpt lat="46.45322" lon="-1.46827">
        <ele>15</ele>
        <time>2019-03-26T15:13:45Z</time>
      </trkpt>
      <trkpt lat="46.4532" lon="-1.46831">
        <ele>15</ele>
        <time>2019-03-26T15:13:47Z</time>
      </trkpt>
      <trkpt lat="46.45316" lon="-1.46836">
        <ele>15</ele>
        <time>2019-03-26T15:13:50Z</time>
      </trkpt>
      <trkpt lat="46.45314" lon="-1.46839">
        <ele>15</ele>
        <time>2019-03-26T15:13:52Z</time>
      </trkpt>
      <trkpt lat="46.4531" lon="-1.46844">
        <ele>15</ele>
        <time>2019-03-26T15:13:55Z</time>
      </trkpt>
      <trkpt lat="46.45307" lon="-1.46848">
        <ele>15</ele>
        <time>2019-03-26T15:13:57Z</time>
      </trkpt>
      <trkpt lat="46.45305" lon="-1.46851">
        <ele>15</ele>
        <time>2019-03-26T15:14:00Z</time>
      </trkpt>
      <trkpt lat="46.45302" lon="-1.46855">
        <ele>15</ele>
        <time>2019-03-26T15:14:03Z</time>
      </trkpt>
      <trkpt lat="46.453" lon="-1.46858">
        <ele>15</ele>
        <time>2019-03-26T15:14:05Z</time>
      </trkpt>
      <trkpt lat="46.45297" lon="-1.46862">
        <ele>15</ele>
        <time>2019-03-26T15:14:08Z</time>
      </trkpt>
      <trkpt lat="46.45295" lon="-1.46864">
        <ele>15</ele>
        <time>2019-03-26T15:14:10Z</time>
      </trkpt>
      <trkpt lat="46.45291" lon="-1.4687">
        <ele>15</ele>
        <time>2019-03-26T15:14:13Z</time>
      </trkpt>
      <trkpt lat="46.45289" lon="-1.46873">
        <ele>15</ele>
        <time>2019-03-26T15:14:15Z</time>
      </trkpt>
      <trkpt lat="46.45286" lon="-1.46878">
        <ele>15</ele>
        <time>2019-03-26T15:14:18Z</time>
      </trkpt>
      <trkpt lat="46.45282" lon="-1.46883">
        <ele>15</ele>
        <time>2019-03-26T15:14:20Z</time>
      </trkpt>
      <trkpt lat="46.4528" lon="-1.46886">
        <ele>15</ele>
        <time>2019-03-26T15:14:23Z</time>
      </trkpt>
      <trkpt lat="46.45276" lon="-1.46892">
        <ele>15</ele>
        <time>2019-03-26T15:14:26Z</time>
      </trkpt>
      <trkpt lat="46.45274" lon="-1.46896">
        <ele>15</ele>
        <time>2019-03-26T15:14:28Z</time>
      </trkpt>
      <trkpt lat="46.45271" lon="-1.469">
        <ele>15</ele>
        <time>2019-03-26T15:14:31Z</time>
      </trkpt>
      <trkpt lat="46.45268" lon="-1.46903">
        <ele>15</ele>
        <time>2019-03-26T15:14:33Z</time>
      </trkpt>
      <trkpt lat="46.45265" lon="-1.46907">
        <ele>15</ele>
        <time>2019-03-26T15:14:36Z</time>
      </trkpt>
      <trkpt lat="46.45263" lon="-1.4691">
        <ele>15</ele>
        <time>2019-03-26T15:14:38Z</time>
      </trkpt>
      <trkpt lat="46.4526" lon="-1.46914">
        <ele>15</ele>
        <time>2019-03-26T15:14:41Z</time>
      </trkpt>
      <trkpt lat="46.45258" lon="-1.46917">
        <ele>15</ele>
        <time>2019-03-26T15:14:43Z</time>
      </trkpt>
      <trkpt lat="46.45255" lon="-1.46921">
        <ele>15</ele>
        <time>2019-03-26T15:14:46Z</time>
      </trkpt>
      <trkpt lat="46.45252" lon="-1.46925">
        <ele>15</ele>
        <time>2019-03-26T15:14:48Z</time>
      </trkpt>
      <trkpt lat="46.4525" lon="-1.46928">
        <ele>15</ele>
        <time>2019-03-26T15:14:51Z</time>
      </trkpt>
      <trkpt lat="46.45246" lon="-1.46931">
        <ele>15</ele>
        <time>2019-03-26T15:14:54Z</time>
      </trkpt>
      <trkpt lat="46.45244" lon="-1.46934">
        <ele>15</ele>
        <time>2019-03-26T15:14:56Z</time>
      </trkpt>
      <trkpt lat="46.4524" lon="-1.46938">
        <ele>15</ele>
        <time>2019-03-26T15:14:59Z</time>
      </trkpt>
      <trkpt lat="46.45238" lon="-1.4694">
        <ele>15</ele>
        <time>2019-03-26T15:15:01Z</time>
      </trkpt>
      <trkpt lat="46.45234" lon="-1.46944">
        <ele>15</ele>
        <time>2019-03-26T15:15:04Z</time>
      </trkpt>
      <trkpt lat="46.45232" lon="-1.46947">
        <ele>15</ele>
        <time>2019-03-26T15:15:06Z</time>
      </trkpt>
      <trkpt lat="46.45228" lon="-1.4695">
        <ele>15</ele>
        <time>2019-03-26T15:15:09Z</time>
      </trkpt>
      <trkpt lat="46.45226" lon="-1.46952">
        <ele>16</ele>
        <time>2019-03-26T15:15:11Z</time>
      </trkpt>
      <trkpt lat="46.45222" lon="-1.46956">
        <ele>16</ele>
        <time>2019-03-26T15:15:14Z</time>
      </trkpt>
      <trkpt lat="46.4522" lon="-1.46958">
        <ele>16</ele>
        <time>2019-03-26T15:15:16Z</time>
      </trkpt>
      <trkpt lat="46.45216" lon="-1.46961">
        <ele>16</ele>
        <time>2019-03-26T15:15:19Z</time>
      </trkpt>
      <trkpt lat="46.45213" lon="-1.46962">
        <ele>16</ele>
        <time>2019-03-26T15:15:21Z</time>
      </trkpt>
      <trkpt lat="46.45209" lon="-1.46966">
        <ele>16</ele>
        <time>2019-03-26T15:15:24Z</time>
      </trkpt>
      <trkpt lat="46.45206" lon="-1.46968">
        <ele>16</ele>
        <time>2019-03-26T15:15:26Z</time>
      </trkpt>
      <trkpt lat="46.45202" lon="-1.46971">
        <ele>16</ele>
        <time>2019-03-26T15:15:29Z</time>
      </trkpt>
      <trkpt lat="46.45199" lon="-1.46973">
        <ele>16</ele>
        <time>2019-03-26T15:15:31Z</time>
      </trkpt>
      <trkpt lat="46.45194" lon="-1.46976">
        <ele>16</ele>
        <time>2019-03-26T15:15:34Z</time>
      </trkpt>
      <trkpt lat="46.45191" lon="-1.46977">
        <ele>16</ele>
        <time>2019-03-26T15:15:36Z</time>
      </trkpt>
      <trkpt lat="46.45187" lon="-1.4698">
        <ele>16</ele>
        <time>2019-03-26T15:15:39Z</time>
      </trkpt>
      <trkpt lat="46.45184" lon="-1.46982">
        <ele>16</ele>
        <time>2019-03-26T15:15:41Z</time>
      </trkpt>
      <trkpt lat="46.4518" lon="-1.46985">
        <ele>15</ele>
        <time>2019-03-26T15:15:44Z</time>
      </trkpt>
      <trkpt lat="46.45178" lon="-1.46987">
        <ele>15</ele>
        <time>2019-03-26T15:15:46Z</time>
      </trkpt>
      <trkpt lat="46.45173" lon="-1.4699">
        <ele>15</ele>
        <time>2019-03-26T15:15:49Z</time>
      </trkpt>
      <trkpt lat="46.45171" lon="-1.46992">
        <ele>15</ele>
        <time>2019-03-26T15:15:51Z</time>
      </trkpt>
      <trkpt lat="46.45167" lon="-1.46994">
        <ele>15</ele>
        <time>2019-03-26T15:15:54Z</time>
      </trkpt>
      <trkpt lat="46.45165" lon="-1.46995">
        <ele>15</ele>
        <time>2019-03-26T15:15:56Z</time>
      </trkpt>
      <trkpt lat="46.45166" lon="-1.46997">
        <ele>15</ele>
        <time>2019-03-26T15:15:59Z</time>
      </trkpt>
      <trkpt lat="46.45167" lon="-1.46997">
        <ele>15</ele>
        <time>2019-03-26T15:16:01Z</time>
      </trkpt>
      <trkpt lat="46.45171" lon="-1.46996">
        <ele>15</ele>
        <time>2019-03-26T15:16:04Z</time>
      </trkpt>
      <trkpt lat="46.45173" lon="-1.46996">
        <ele>15</ele>
        <time>2019-03-26T15:16:06Z</time>
      </trkpt>
      <trkpt lat="46.45175" lon="-1.46995">
        <ele>15</ele>
        <time>2019-03-26T15:16:09Z</time>
      </trkpt>
      <trkpt lat="46.45178" lon="-1.46994">
        <ele>15</ele>
        <time>2019-03-26T15:16:11Z</time>
      </trkpt>
      <trkpt lat="46.4518" lon="-1.46994">
        <ele>15</ele>
        <time>2019-03-26T15:16:14Z</time>
      </trkpt>
      <trkpt lat="46.4518" lon="-1.46994">
        <ele>15</ele>
        <time>2019-03-26T15:16:16Z</time>
      </trkpt>
      <trkpt lat="46.4518" lon="-1.46995">
        <ele>15</ele>
        <time>2019-03-26T15:16:19Z</time>
      </trkpt>
      <trkpt lat="46.45182" lon="-1.46995">
        <ele>16</ele>
        <time>2019-03-26T15:16:22Z</time>
      </trkpt>
      <trkpt lat="46.45183" lon="-1.46995">
        <ele>16</ele>
        <time>2019-03-26T15:16:24Z</time>
      </trkpt>
      <trkpt lat="46.45184" lon="-1.46993">
        <ele>16</ele>
        <time>2019-03-26T15:16:27Z</time>
      </trkpt>
      <trkpt lat="46.45184" lon="-1.46993">
        <ele>16</ele>
        <time>2019-03-26T15:16:29Z</time>
      </trkpt>
      <trkpt lat="46.45184" lon="-1.46993">
        <ele>16</ele>
        <time>2019-03-26T15:16:32Z</time>
      </trkpt>
      <trkpt lat="46.45184" lon="-1.46993">
        <ele>16</ele>
        <time>2019-03-26T15:16:34Z</time>
      </trkpt>
      <trkpt lat="46.45184" lon="-1.46993">
        <ele>16</ele>
        <time>2019-03-26T15:16:37Z</time>
      </trkpt>
      <trkpt lat="46.45184" lon="-1.46993">
        <ele>16</ele>
        <time>2019-03-26T15:16:39Z</time>
      </trkpt>
      <trkpt lat="46.45184" lon="-1.46993">
        <ele>16</ele>
        <time>2019-03-26T15:16:42Z</time>
      </trkpt>
      <trkpt lat="46.45184" lon="-1.46993">
        <ele>16</ele>
        <time>2019-03-26T15:16:44Z</time>
      </trkpt>
      <trkpt lat="46.45184" lon="-1.46994">
        <ele>16</ele>
        <time>2019-03-26T15:16:47Z</time>
      </trkpt>
      <trkpt lat="46.45184" lon="-1.46994">
        <ele>16</ele>
        <time>2019-03-26T15:16:49Z</time>
      </trkpt>
      <trkpt lat="46.45184" lon="-1.46994">
        <ele>16</ele>
        <time>2019-03-26T15:16:52Z</time>
      </trkpt>
      <trkpt lat="46.45184" lon="-1.46994">
        <ele>16</ele>
        <time>2019-03-26T15:16:54Z</time>
      </trkpt>
      <trkpt lat="46.45184" lon="-1.46994">
        <ele>16</ele>
        <time>2019-03-26T15:16:57Z</time>
      </trkpt>
      <trkpt lat="46.45184" lon="-1.46994">
        <ele>16</ele>
        <time>2019-03-26T15:16:59Z</time>
      </trkpt>
      <trkpt lat="46.45184" lon="-1.46994">
        <ele>16</ele>
        <time>2019-03-26T15:17:02Z</time>
      </trkpt>
      <trkpt lat="46.45184" lon="-1.46994">
        <ele>16</ele>
        <time>2019-03-26T15:17:04Z</time>
      </trkpt>
      <trkpt lat="46.45184" lon="-1.46994">
        <ele>16</ele>
        <time>2019-03-26T15:17:07Z</time>
      </trkpt>
      <trkpt lat="46.45183" lon="-1.46994">
        <ele>16</ele>
        <time>2019-03-26T15:17:09Z</time>
      </trkpt>
      <trkpt lat="46.45182" lon="-1.46995">
        <ele>16</ele>
        <time>2019-03-26T15:17:12Z</time>
      </trkpt>
      <trkpt lat="46.45182" lon="-1.46995">
        <ele>16</ele>
        <time>2019-03-26T15:17:14Z</time>
      </trkpt>
      <trkpt lat="46.45182" lon="-1.46995">
        <ele>16</ele>
        <time>2019-03-26T15:17:17Z</time>
      </trkpt>
      <trkpt lat="46.45182" lon="-1.46994">
        <ele>16</ele>
        <time>2019-03-26T15:17:19Z</time>
      </trkpt>
      <trkpt lat="46.45182" lon="-1.46993">
        <ele>16</ele>
        <time>2019-03-26T15:17:22Z</time>
      </trkpt>
      <trkpt lat="46.45182" lon="-1.46993">
        <ele>16</ele>
        <time>2019-03-26T15:17:24Z</time>
      </trkpt>
      <trkpt lat="46.45181" lon="-1.46993">
        <ele>15</ele>
        <time>2019-03-26T15:17:27Z</time>
      </trkpt>
      <trkpt lat="46.45181" lon="-1.46993">
        <ele>15</ele>
        <time>2019-03-26T15:17:29Z</time>
      </trkpt>
      <trkpt lat="46.45182" lon="-1.46994">
        <ele>16</ele>
        <time>2019-03-26T15:17:32Z</time>
      </trkpt>
      <trkpt lat="46.45182" lon="-1.46994">
        <ele>16</ele>
        <time>2019-03-26T15:17:34Z</time>
      </trkpt>
      <trkpt lat="46.45182" lon="-1.46994">
        <ele>16</ele>
        <time>2019-03-26T15:17:37Z</time>
      </trkpt>
      <trkpt lat="46.45182" lon="-1.46994">
        <ele>16</ele>
        <time>2019-03-26T15:17:39Z</time>
      </trkpt>
      <trkpt lat="46.45182" lon="-1.46994">
        <ele>16</ele>
        <time>2019-03-26T15:17:42Z</time>
      </trkpt>
      <trkpt lat="46.45181" lon="-1.46994">
        <ele>15</ele>
        <time>2019-03-26T15:17:44Z</time>
      </trkpt>
      <trkpt lat="46.45182" lon="-1.46994">
        <ele>16</ele>
        <time>2019-03-26T15:17:46Z</time>
      </trkpt>
      <trkpt lat="46.45182" lon="-1.46994">
        <ele>16</ele>
        <time>2019-03-26T15:17:49Z</time>
      </trkpt>
      <trkpt lat="46.45182" lon="-1.46994">
        <ele>16</ele>
        <time>2019-03-26T15:17:51Z</time>
      </trkpt>
      <trkpt lat="46.45182" lon="-1.46995">
        <ele>16</ele>
        <time>2019-03-26T15:17:54Z</time>
      </trkpt>
      <trkpt lat="46.45182" lon="-1.46995">
        <ele>16</ele>
        <time>2019-03-26T15:17:56Z</time>
      </trkpt>
      <trkpt lat="46.45182" lon="-1.46994">
        <ele>16</ele>
        <time>2019-03-26T15:17:59Z</time>
      </trkpt>
      <trkpt lat="46.45182" lon="-1.46995">
        <ele>16</ele>
        <time>2019-03-26T15:18:01Z</time>
      </trkpt>
      <trkpt lat="46.45182" lon="-1.46997">
        <ele>16</ele>
        <time>2019-03-26T15:18:04Z</time>
      </trkpt>
      <trkpt lat="46.45182" lon="-1.46998">
        <ele>16</ele>
        <time>2019-03-26T15:18:06Z</time>
      </trkpt>
      <trkpt lat="46.45182" lon="-1.47002">
        <ele>16</ele>
        <time>2019-03-26T15:18:09Z</time>
      </trkpt>
      <trkpt lat="46.45181" lon="-1.47003">
        <ele>15</ele>
        <time>2019-03-26T15:18:11Z</time>
      </trkpt>
      <trkpt lat="46.45177" lon="-1.47004">
        <ele>15</ele>
        <time>2019-03-26T15:18:14Z</time>
      </trkpt>
      <trkpt lat="46.45175" lon="-1.47006">
        <ele>15</ele>
        <time>2019-03-26T15:18:16Z</time>
      </trkpt>
      <trkpt lat="46.45172" lon="-1.47007">
        <ele>15</ele>
        <time>2019-03-26T15:18:19Z</time>
      </trkpt>
      <trkpt lat="46.4517" lon="-1.47008">
        <ele>15</ele>
        <time>2019-03-26T15:18:21Z</time>
      </trkpt>
      <trkpt lat="46.45166" lon="-1.4701">
        <ele>15</ele>
        <time>2019-03-26T15:18:24Z</time>
      </trkpt>
      <trkpt lat="46.45164" lon="-1.47011">
        <ele>15</ele>
        <time>2019-03-26T15:18:26Z</time>
      </trkpt>
      <trkpt lat="46.4516" lon="-1.47014">
        <ele>15</ele>
        <time>2019-03-26T15:18:29Z</time>
      </trkpt>
      <trkpt lat="46.45158" lon="-1.47014">
        <ele>15</ele>
        <time>2019-03-26T15:18:31Z</time>
      </trkpt>
      <trkpt lat="46.45154" lon="-1.47017">
        <ele>15</ele>
        <time>2019-03-26T15:18:34Z</time>
      </trkpt>
      <trkpt lat="46.45151" lon="-1.47019">
        <ele>15</ele>
        <time>2019-03-26T15:18:36Z</time>
      </trkpt>
      <trkpt lat="46.45147" lon="-1.47022">
        <ele>15</ele>
        <time>2019-03-26T15:18:39Z</time>
      </trkpt>
      <trkpt lat="46.45144" lon="-1.47023">
        <ele>15</ele>
        <time>2019-03-26T15:18:41Z</time>
      </trkpt>
      <trkpt lat="46.45141" lon="-1.47025">
        <ele>15</ele>
        <time>2019-03-26T15:18:44Z</time>
      </trkpt>
      <trkpt lat="46.45139" lon="-1.47026">
        <ele>15</ele>
        <time>2019-03-26T15:18:46Z</time>
      </trkpt>
      <trkpt lat="46.45135" lon="-1.47028">
        <ele>15</ele>
        <time>2019-03-26T15:18:49Z</time>
      </trkpt>
      <trkpt lat="46.45132" lon="-1.47029">
        <ele>15</ele>
        <time>2019-03-26T15:18:51Z</time>
      </trkpt>
      <trkpt lat="46.45129" lon="-1.47033">
        <ele>15</ele>
        <time>2019-03-26T15:18:54Z</time>
      </trkpt>
      <trkpt lat="46.45127" lon="-1.47036">
        <ele>15</ele>
        <time>2019-03-26T15:18:56Z</time>
      </trkpt>
      <trkpt lat="46.45124" lon="-1.47039">
        <ele>15</ele>
        <time>2019-03-26T15:18:59Z</time>
      </trkpt>
      <trkpt lat="46.45121" lon="-1.4704">
        <ele>15</ele>
        <time>2019-03-26T15:19:01Z</time>
      </trkpt>
      <trkpt lat="46.45118" lon="-1.47042">
        <ele>15</ele>
        <time>2019-03-26T15:19:04Z</time>
      </trkpt>
      <trkpt lat="46.45115" lon="-1.47043">
        <ele>15</ele>
        <time>2019-03-26T15:19:06Z</time>
      </trkpt>
      <trkpt lat="46.45112" lon="-1.47046">
        <ele>15</ele>
        <time>2019-03-26T15:19:09Z</time>
      </trkpt>
      <trkpt lat="46.45109" lon="-1.47047">
        <ele>15</ele>
        <time>2019-03-26T15:19:11Z</time>
      </trkpt>
      <trkpt lat="46.45105" lon="-1.4705">
        <ele>15</ele>
        <time>2019-03-26T15:19:14Z</time>
      </trkpt>
      <trkpt lat="46.45103" lon="-1.47052">
        <ele>15</ele>
        <time>2019-03-26T15:19:16Z</time>
      </trkpt>
      <trkpt lat="46.451" lon="-1.47055">
        <ele>15</ele>
        <time>2019-03-26T15:19:19Z</time>
      </trkpt>
      <trkpt lat="46.45097" lon="-1.47057">
        <ele>15</ele>
        <time>2019-03-26T15:19:21Z</time>
      </trkpt>
      <trkpt lat="46.45093" lon="-1.4706">
        <ele>15</ele>
        <time>2019-03-26T15:19:24Z</time>
      </trkpt>
      <trkpt lat="46.45091" lon="-1.47061">
        <ele>15</ele>
        <time>2019-03-26T15:19:26Z</time>
      </trkpt>
      <trkpt lat="46.45089" lon="-1.47064">
        <ele>15</ele>
        <time>2019-03-26T15:19:29Z</time>
      </trkpt>
      <trkpt lat="46.45086" lon="-1.47066">
        <ele>15</ele>
        <time>2019-03-26T15:19:31Z</time>
      </trkpt>
      <trkpt lat="46.45083" lon="-1.47069">
        <ele>15</ele>
        <time>2019-03-26T15:19:34Z</time>
      </trkpt>
      <trkpt lat="46.4508" lon="-1.4707">
        <ele>15</ele>
        <time>2019-03-26T15:19:36Z</time>
      </trkpt>
      <trkpt lat="46.45076" lon="-1.47073">
        <ele>15</ele>
        <time>2019-03-26T15:19:39Z</time>
      </trkpt>
      <trkpt lat="46.45074" lon="-1.47075">
        <ele>15</ele>
        <time>2019-03-26T15:19:41Z</time>
      </trkpt>
      <trkpt lat="46.4507" lon="-1.47077">
        <ele>15</ele>
        <time>2019-03-26T15:19:44Z</time>
      </trkpt>
      <trkpt lat="46.45067" lon="-1.47079">
        <ele>15</ele>
        <time>2019-03-26T15:19:46Z</time>
      </trkpt>
      <trkpt lat="46.45063" lon="-1.47081">
        <ele>15</ele>
        <time>2019-03-26T15:19:49Z</time>
      </trkpt>
      <trkpt lat="46.45061" lon="-1.47083">
        <ele>15</ele>
        <time>2019-03-26T15:19:51Z</time>
      </trkpt>
      <trkpt lat="46.45057" lon="-1.47085">
        <ele>15</ele>
        <time>2019-03-26T15:19:54Z</time>
      </trkpt>
      <trkpt lat="46.45054" lon="-1.47087">
        <ele>15</ele>
        <time>2019-03-26T15:19:56Z</time>
      </trkpt>
      <trkpt lat="46.4505" lon="-1.47089">
        <ele>15</ele>
        <time>2019-03-26T15:19:59Z</time>
      </trkpt>
      <trkpt lat="46.45047" lon="-1.47092">
        <ele>15</ele>
        <time>2019-03-26T15:20:02Z</time>
      </trkpt>
      <trkpt lat="46.45043" lon="-1.47094">
        <ele>15</ele>
        <time>2019-03-26T15:20:04Z</time>
      </trkpt>
      <trkpt lat="46.45039" lon="-1.47096">
        <ele>15</ele>
        <time>2019-03-26T15:20:07Z</time>
      </trkpt>
      <trkpt lat="46.45036" lon="-1.47097">
        <ele>15</ele>
        <time>2019-03-26T15:20:09Z</time>
      </trkpt>
      <trkpt lat="46.45032" lon="-1.47099">
        <ele>15</ele>
        <time>2019-03-26T15:20:12Z</time>
      </trkpt>
      <trkpt lat="46.45029" lon="-1.471">
        <ele>15</ele>
        <time>2019-03-26T15:20:14Z</time>
      </trkpt>
      <trkpt lat="46.45025" lon="-1.47104">
        <ele>15</ele>
        <time>2019-03-26T15:20:17Z</time>
      </trkpt>
      <trkpt lat="46.45022" lon="-1.47106">
        <ele>15</ele>
        <time>2019-03-26T15:20:19Z</time>
      </trkpt>
      <trkpt lat="46.45018" lon="-1.47108">
        <ele>14</ele>
        <time>2019-03-26T15:20:22Z</time>
      </trkpt>
      <trkpt lat="46.45015" lon="-1.47109">
        <ele>14</ele>
        <time>2019-03-26T15:20:24Z</time>
      </trkpt>
      <trkpt lat="46.45009" lon="-1.47112">
        <ele>14</ele>
        <time>2019-03-26T15:20:27Z</time>
      </trkpt>
      <trkpt lat="46.45007" lon="-1.47113">
        <ele>14</ele>
        <time>2019-03-26T15:20:29Z</time>
      </trkpt>
      <trkpt lat="46.45003" lon="-1.47114">
        <ele>14</ele>
        <time>2019-03-26T15:20:32Z</time>
      </trkpt>
      <trkpt lat="46.45" lon="-1.47116">
        <ele>14</ele>
        <time>2019-03-26T15:20:34Z</time>
      </trkpt>
      <trkpt lat="46.44996" lon="-1.47118">
        <ele>14</ele>
        <time>2019-03-26T15:20:37Z</time>
      </trkpt>
      <trkpt lat="46.44994" lon="-1.4712">
        <ele>14</ele>
        <time>2019-03-26T15:20:39Z</time>
      </trkpt>
      <trkpt lat="46.44991" lon="-1.47121">
        <ele>14</ele>
        <time>2019-03-26T15:20:42Z</time>
      </trkpt>
      <trkpt lat="46.44987" lon="-1.47123">
        <ele>14</ele>
        <time>2019-03-26T15:20:44Z</time>
      </trkpt>
      <trkpt lat="46.44985" lon="-1.47124">
        <ele>14</ele>
        <time>2019-03-26T15:20:47Z</time>
      </trkpt>
      <trkpt lat="46.4498" lon="-1.47124">
        <ele>14</ele>
        <time>2019-03-26T15:20:50Z</time>
      </trkpt>
      <trkpt lat="46.44977" lon="-1.47125">
        <ele>14</ele>
        <time>2019-03-26T15:20:52Z</time>
      </trkpt>
      <trkpt lat="46.44973" lon="-1.47127">
        <ele>14</ele>
        <time>2019-03-26T15:20:55Z</time>
      </trkpt>
      <trkpt lat="46.4497" lon="-1.47127">
        <ele>14</ele>
        <time>2019-03-26T15:20:57Z</time>
      </trkpt>
      <trkpt lat="46.44965" lon="-1.47128">
        <ele>13</ele>
        <time>2019-03-26T15:21:00Z</time>
      </trkpt>
      <trkpt lat="46.4496" lon="-1.47129">
        <ele>13</ele>
        <time>2019-03-26T15:21:02Z</time>
      </trkpt>
      <trkpt lat="46.44957" lon="-1.47129">
        <ele>13</ele>
        <time>2019-03-26T15:21:05Z</time>
      </trkpt>
      <trkpt lat="46.44953" lon="-1.47131">
        <ele>13</ele>
        <time>2019-03-26T15:21:08Z</time>
      </trkpt>
      <trkpt lat="46.44949" lon="-1.47131">
        <ele>13</ele>
        <time>2019-03-26T15:21:10Z</time>
      </trkpt>
      <trkpt lat="46.44945" lon="-1.47131">
        <ele>13</ele>
        <time>2019-03-26T15:21:13Z</time>
      </trkpt>
      <trkpt lat="46.44942" lon="-1.4713">
        <ele>13</ele>
        <time>2019-03-26T15:21:15Z</time>
      </trkpt>
      <trkpt lat="46.44938" lon="-1.4713">
        <ele>13</ele>
        <time>2019-03-26T15:21:18Z</time>
      </trkpt>
      <trkpt lat="46.44933" lon="-1.47131">
        <ele>13</ele>
        <time>2019-03-26T15:21:20Z</time>
      </trkpt>
      <trkpt lat="46.44931" lon="-1.47131">
        <ele>13</ele>
        <time>2019-03-26T15:21:23Z</time>
      </trkpt>
      <trkpt lat="46.44926" lon="-1.47132">
        <ele>13</ele>
        <time>2019-03-26T15:21:26Z</time>
      </trkpt>
      <trkpt lat="46.44922" lon="-1.47133">
        <ele>13</ele>
        <time>2019-03-26T15:21:28Z</time>
      </trkpt>
      <trkpt lat="46.44918" lon="-1.47133">
        <ele>13</ele>
        <time>2019-03-26T15:21:31Z</time>
      </trkpt>
      <trkpt lat="46.44915" lon="-1.47134">
        <ele>13</ele>
        <time>2019-03-26T15:21:33Z</time>
      </trkpt>
      <trkpt lat="46.44911" lon="-1.47133">
        <ele>13</ele>
        <time>2019-03-26T15:21:36Z</time>
      </trkpt>
      <trkpt lat="46.44907" lon="-1.47133">
        <ele>13</ele>
        <time>2019-03-26T15:21:38Z</time>
      </trkpt>
      <trkpt lat="46.44902" lon="-1.47134">
        <ele>12</ele>
        <time>2019-03-26T15:21:41Z</time>
      </trkpt>
      <trkpt lat="46.44899" lon="-1.47135">
        <ele>12</ele>
        <time>2019-03-26T15:21:43Z</time>
      </trkpt>
      <trkpt lat="46.44895" lon="-1.47137">
        <ele>12</ele>
        <time>2019-03-26T15:21:46Z</time>
      </trkpt>
      <trkpt lat="46.4489" lon="-1.47139">
        <ele>12</ele>
        <time>2019-03-26T15:21:48Z</time>
      </trkpt>
      <trkpt lat="46.44887" lon="-1.4714">
        <ele>12</ele>
        <time>2019-03-26T15:21:51Z</time>
      </trkpt>
      <trkpt lat="46.44883" lon="-1.47141">
        <ele>12</ele>
        <time>2019-03-26T15:21:54Z</time>
      </trkpt>
      <trkpt lat="46.44879" lon="-1.47142">
        <ele>12</ele>
        <time>2019-03-26T15:21:56Z</time>
      </trkpt>
      <trkpt lat="46.44875" lon="-1.47144">
        <ele>12</ele>
        <time>2019-03-26T15:21:59Z</time>
      </trkpt>
      <trkpt lat="46.44872" lon="-1.47146">
        <ele>12</ele>
        <time>2019-03-26T15:22:01Z</time>
      </trkpt>
      <trkpt lat="46.44867" lon="-1.47149">
        <ele>12</ele>
        <time>2019-03-26T15:22:04Z</time>
      </trkpt>
      <trkpt lat="46.44864" lon="-1.4715">
        <ele>12</ele>
        <time>2019-03-26T15:22:06Z</time>
      </trkpt>
      <trkpt lat="46.44859" lon="-1.47154">
        <ele>12</ele>
        <time>2019-03-26T15:22:09Z</time>
      </trkpt>
      <trkpt lat="46.44857" lon="-1.47156">
        <ele>12</ele>
        <time>2019-03-26T15:22:11Z</time>
      </trkpt>
      <trkpt lat="46.44852" lon="-1.47158">
        <ele>12</ele>
        <time>2019-03-26T15:22:14Z</time>
      </trkpt>
      <trkpt lat="46.4485" lon="-1.47159">
        <ele>12</ele>
        <time>2019-03-26T15:22:16Z</time>
      </trkpt>
      <trkpt lat="46.44845" lon="-1.47161">
        <ele>12</ele>
        <time>2019-03-26T15:22:19Z</time>
      </trkpt>
      <trkpt lat="46.44841" lon="-1.47162">
        <ele>12</ele>
        <time>2019-03-26T15:22:21Z</time>
      </trkpt>
      <trkpt lat="46.44837" lon="-1.47165">
        <ele>12</ele>
        <time>2019-03-26T15:22:24Z</time>
      </trkpt>
      <trkpt lat="46.44833" lon="-1.47166">
        <ele>12</ele>
        <time>2019-03-26T15:22:26Z</time>
      </trkpt>
      <trkpt lat="46.44828" lon="-1.47168">
        <ele>12</ele>
        <time>2019-03-26T15:22:29Z</time>
      </trkpt>
      <trkpt lat="46.44824" lon="-1.47171">
        <ele>12</ele>
        <time>2019-03-26T15:22:31Z</time>
      </trkpt>
      <trkpt lat="46.44821" lon="-1.47172">
        <ele>12</ele>
        <time>2019-03-26T15:22:34Z</time>
      </trkpt>
      <trkpt lat="46.44816" lon="-1.47175">
        <ele>12</ele>
        <time>2019-03-26T15:22:37Z</time>
      </trkpt>
      <trkpt lat="46.44813" lon="-1.47177">
        <ele>12</ele>
        <time>2019-03-26T15:22:39Z</time>
      </trkpt>
      <trkpt lat="46.44809" lon="-1.4718">
        <ele>12</ele>
        <time>2019-03-26T15:22:42Z</time>
      </trkpt>
      <trkpt lat="46.44806" lon="-1.47182">
        <ele>12</ele>
        <time>2019-03-26T15:22:44Z</time>
      </trkpt>
      <trkpt lat="46.44803" lon="-1.47184">
        <ele>12</ele>
        <time>2019-03-26T15:22:46Z</time>
      </trkpt>
      <trkpt lat="46.44799" lon="-1.47187">
        <ele>12</ele>
        <time>2019-03-26T15:22:49Z</time>
      </trkpt>
      <trkpt lat="46.44796" lon="-1.47189">
        <ele>12</ele>
        <time>2019-03-26T15:22:51Z</time>
      </trkpt>
      <trkpt lat="46.44791" lon="-1.47192">
        <ele>11</ele>
        <time>2019-03-26T15:22:54Z</time>
      </trkpt>
      <trkpt lat="46.44788" lon="-1.47194">
        <ele>11</ele>
        <time>2019-03-26T15:22:56Z</time>
      </trkpt>
      <trkpt lat="46.44784" lon="-1.47196">
        <ele>11</ele>
        <time>2019-03-26T15:22:59Z</time>
      </trkpt>
      <trkpt lat="46.44781" lon="-1.47198">
        <ele>11</ele>
        <time>2019-03-26T15:23:01Z</time>
      </trkpt>
      <trkpt lat="46.44777" lon="-1.47201">
        <ele>11</ele>
        <time>2019-03-26T15:23:04Z</time>
      </trkpt>
      <trkpt lat="46.44774" lon="-1.47203">
        <ele>11</ele>
        <time>2019-03-26T15:23:06Z</time>
      </trkpt>
      <trkpt lat="46.44769" lon="-1.47208">
        <ele>11</ele>
        <time>2019-03-26T15:23:09Z</time>
      </trkpt>
      <trkpt lat="46.44767" lon="-1.4721">
        <ele>11</ele>
        <time>2019-03-26T15:23:11Z</time>
      </trkpt>
      <trkpt lat="46.44767" lon="-1.47212">
        <ele>11</ele>
        <time>2019-03-26T15:23:14Z</time>
      </trkpt>
      <trkpt lat="46.44767" lon="-1.47215">
        <ele>11</ele>
        <time>2019-03-26T15:23:16Z</time>
      </trkpt>
      <trkpt lat="46.44765" lon="-1.47218">
        <ele>11</ele>
        <time>2019-03-26T15:23:19Z</time>
      </trkpt>
      <trkpt lat="46.44763" lon="-1.47219">
        <ele>11</ele>
        <time>2019-03-26T15:23:21Z</time>
      </trkpt>
      <trkpt lat="46.44759" lon="-1.47222">
        <ele>11</ele>
        <time>2019-03-26T15:23:24Z</time>
      </trkpt>
      <trkpt lat="46.44757" lon="-1.47223">
        <ele>11</ele>
        <time>2019-03-26T15:23:26Z</time>
      </trkpt>
      <trkpt lat="46.44754" lon="-1.47226">
        <ele>12</ele>
        <time>2019-03-26T15:23:29Z</time>
      </trkpt>
      <trkpt lat="46.44751" lon="-1.47229">
        <ele>12</ele>
        <time>2019-03-26T15:23:31Z</time>
      </trkpt>
      <trkpt lat="46.44748" lon="-1.47232">
        <ele>12</ele>
        <time>2019-03-26T15:23:34Z</time>
      </trkpt>
      <trkpt lat="46.44744" lon="-1.47235">
        <ele>12</ele>
        <time>2019-03-26T15:23:36Z</time>
      </trkpt>
      <trkpt lat="46.44742" lon="-1.47237">
        <ele>12</ele>
        <time>2019-03-26T15:23:39Z</time>
      </trkpt>
      <trkpt lat="46.44738" lon="-1.4724">
        <ele>12</ele>
        <time>2019-03-26T15:23:42Z</time>
      </trkpt>
      <trkpt lat="46.44736" lon="-1.47243">
        <ele>12</ele>
        <time>2019-03-26T15:23:44Z</time>
      </trkpt>
      <trkpt lat="46.44733" lon="-1.47245">
        <ele>12</ele>
        <time>2019-03-26T15:23:47Z</time>
      </trkpt>
      <trkpt lat="46.44733" lon="-1.47246">
        <ele>12</ele>
        <time>2019-03-26T15:23:49Z</time>
      </trkpt>
      <trkpt lat="46.44733" lon="-1.47247">
        <ele>12</ele>
        <time>2019-03-26T15:23:52Z</time>
      </trkpt>
      <trkpt lat="46.44733" lon="-1.47248">
        <ele>12</ele>
        <time>2019-03-26T15:23:54Z</time>
      </trkpt>
      <trkpt lat="46.44733" lon="-1.4725">
        <ele>12</ele>
        <time>2019-03-26T15:23:57Z</time>
      </trkpt>
      <trkpt lat="46.44734" lon="-1.4725">
        <ele>12</ele>
        <time>2019-03-26T15:23:59Z</time>
      </trkpt>
      <trkpt lat="46.44735" lon="-1.4725">
        <ele>12</ele>
        <time>2019-03-26T15:24:02Z</time>
      </trkpt>
      <trkpt lat="46.44735" lon="-1.47251">
        <ele>12</ele>
        <time>2019-03-26T15:24:04Z</time>
      </trkpt>
      <trkpt lat="46.44735" lon="-1.47252">
        <ele>12</ele>
        <time>2019-03-26T15:24:07Z</time>
      </trkpt>
      <trkpt lat="46.44735" lon="-1.47253">
        <ele>12</ele>
        <time>2019-03-26T15:24:09Z</time>
      </trkpt>
      <trkpt lat="46.44734" lon="-1.47253">
        <ele>12</ele>
        <time>2019-03-26T15:24:12Z</time>
      </trkpt>
      <trkpt lat="46.44733" lon="-1.47254">
        <ele>12</ele>
        <time>2019-03-26T15:24:14Z</time>
      </trkpt>
      <trkpt lat="46.44732" lon="-1.47257">
        <ele>12</ele>
        <time>2019-03-26T15:24:17Z</time>
      </trkpt>
      <trkpt lat="46.44731" lon="-1.47258">
        <ele>12</ele>
        <time>2019-03-26T15:24:19Z</time>
      </trkpt>
      <trkpt lat="46.44731" lon="-1.47259">
        <ele>12</ele>
        <time>2019-03-26T15:24:22Z</time>
      </trkpt>
      <trkpt lat="46.44732" lon="-1.47258">
        <ele>12</ele>
        <time>2019-03-26T15:24:24Z</time>
      </trkpt>
      <trkpt lat="46.44732" lon="-1.47258">
        <ele>12</ele>
        <time>2019-03-26T15:24:27Z</time>
      </trkpt>
      <trkpt lat="46.44732" lon="-1.47258">
        <ele>12</ele>
        <time>2019-03-26T15:24:29Z</time>
      </trkpt>
      <trkpt lat="46.44731" lon="-1.47258">
        <ele>12</ele>
        <time>2019-03-26T15:24:32Z</time>
      </trkpt>
      <trkpt lat="46.44731" lon="-1.47257">
        <ele>12</ele>
        <time>2019-03-26T15:24:34Z</time>
      </trkpt>
      <trkpt lat="46.4473" lon="-1.47258">
        <ele>12</ele>
        <time>2019-03-26T15:24:37Z</time>
      </trkpt>
      <trkpt lat="46.44731" lon="-1.47258">
        <ele>12</ele>
        <time>2019-03-26T15:24:39Z</time>
      </trkpt>
      <trkpt lat="46.44731" lon="-1.47257">
        <ele>12</ele>
        <time>2019-03-26T15:24:42Z</time>
      </trkpt>
      <trkpt lat="46.44732" lon="-1.47257">
        <ele>12</ele>
        <time>2019-03-26T15:24:44Z</time>
      </trkpt>
      <trkpt lat="46.44732" lon="-1.47257">
        <ele>12</ele>
        <time>2019-03-26T15:24:47Z</time>
      </trkpt>
      <trkpt lat="46.44732" lon="-1.47257">
        <ele>12</ele>
        <time>2019-03-26T15:24:50Z</time>
      </trkpt>
      <trkpt lat="46.44731" lon="-1.47257">
        <ele>12</ele>
        <time>2019-03-26T15:24:52Z</time>
      </trkpt>
      <trkpt lat="46.44731" lon="-1.47257">
        <ele>12</ele>
        <time>2019-03-26T15:24:55Z</time>
      </trkpt>
      <trkpt lat="46.44732" lon="-1.47257">
        <ele>12</ele>
        <time>2019-03-26T15:24:57Z</time>
      </trkpt>
      <trkpt lat="46.44731" lon="-1.47257">
        <ele>12</ele>
        <time>2019-03-26T15:25:00Z</time>
      </trkpt>
      <trkpt lat="46.44731" lon="-1.47256">
        <ele>12</ele>
        <time>2019-03-26T15:25:02Z</time>
      </trkpt>
      <trkpt lat="46.44732" lon="-1.47256">
        <ele>12</ele>
        <time>2019-03-26T15:25:05Z</time>
      </trkpt>
      <trkpt lat="46.44732" lon="-1.47256">
        <ele>12</ele>
        <time>2019-03-26T15:25:07Z</time>
      </trkpt>
      <trkpt lat="46.44732" lon="-1.47256">
        <ele>12</ele>
        <time>2019-03-26T15:25:10Z</time>
      </trkpt>
      <trkpt lat="46.44732" lon="-1.47256">
        <ele>12</ele>
        <time>2019-03-26T15:25:12Z</time>
      </trkpt>
      <trkpt lat="46.44732" lon="-1.47256">
        <ele>12</ele>
        <time>2019-03-26T15:25:15Z</time>
      </trkpt>
      <trkpt lat="46.44732" lon="-1.47256">
        <ele>12</ele>
        <time>2019-03-26T15:25:18Z</time>
      </trkpt>
      <trkpt lat="46.44732" lon="-1.47256">
        <ele>12</ele>
        <time>2019-03-26T15:25:20Z</time>
      </trkpt>
      <trkpt lat="46.44732" lon="-1.47257">
        <ele>12</ele>
        <time>2019-03-26T15:25:23Z</time>
      </trkpt>
      <trkpt lat="46.44734" lon="-1.47256">
        <ele>12</ele>
        <time>2019-03-26T15:25:25Z</time>
      </trkpt>
      <trkpt lat="46.44737" lon="-1.47253">
        <ele>12</ele>
        <time>2019-03-26T15:25:28Z</time>
      </trkpt>
      <trkpt lat="46.44739" lon="-1.4725">
        <ele>12</ele>
        <time>2019-03-26T15:25:30Z</time>
      </trkpt>
      <trkpt lat="46.44742" lon="-1.4725">
        <ele>12</ele>
        <time>2019-03-26T15:25:33Z</time>
      </trkpt>
      <trkpt lat="46.44746" lon="-1.47251">
        <ele>12</ele>
        <time>2019-03-26T15:25:36Z</time>
      </trkpt>
      <trkpt lat="46.44747" lon="-1.47251">
        <ele>12</ele>
        <time>2019-03-26T15:25:38Z</time>
      </trkpt>
      <trkpt lat="46.44747" lon="-1.47251">
        <ele>12</ele>
        <time>2019-03-26T15:25:41Z</time>
      </trkpt>
      <trkpt lat="46.44748" lon="-1.47251">
        <ele>12</ele>
        <time>2019-03-26T15:25:43Z</time>
      </trkpt>
      <trkpt lat="46.44748" lon="-1.47251">
        <ele>12</ele>
        <time>2019-03-26T15:25:46Z</time>
      </trkpt>
      <trkpt lat="46.44747" lon="-1.47251">
        <ele>12</ele>
        <time>2019-03-26T15:25:48Z</time>
      </trkpt>
      <trkpt lat="46.44746" lon="-1.4725">
        <ele>12</ele>
        <time>2019-03-26T15:25:51Z</time>
      </trkpt>
      <trkpt lat="46.44746" lon="-1.4725">
        <ele>12</ele>
        <time>2019-03-26T15:25:54Z</time>
      </trkpt>
      <trkpt lat="46.44746" lon="-1.4725">
        <ele>12</ele>
        <time>2019-03-26T15:25:56Z</time>
      </trkpt>
      <trkpt lat="46.44746" lon="-1.4725">
        <ele>12</ele>
        <time>2019-03-26T15:25:59Z</time>
      </trkpt>
      <trkpt lat="46.44746" lon="-1.4725">
        <ele>12</ele>
        <time>2019-03-26T15:26:01Z</time>
      </trkpt>
      <trkpt lat="46.44746" lon="-1.4725">
        <ele>12</ele>
        <time>2019-03-26T15:26:04Z</time>
      </trkpt>
      <trkpt lat="46.44746" lon="-1.4725">
        <ele>12</ele>
        <time>2019-03-26T15:26:06Z</time>
      </trkpt>
      <trkpt lat="46.44746" lon="-1.4725">
        <ele>12</ele>
        <time>2019-03-26T15:26:09Z</time>
      </trkpt>
      <trkpt lat="46.44746" lon="-1.4725">
        <ele>12</ele>
        <time>2019-03-26T15:26:11Z</time>
      </trkpt>
      <trkpt lat="46.44746" lon="-1.4725">
        <ele>12</ele>
        <time>2019-03-26T15:26:14Z</time>
      </trkpt>
      <trkpt lat="46.44746" lon="-1.4725">
        <ele>12</ele>
        <time>2019-03-26T15:26:17Z</time>
      </trkpt>
      <trkpt lat="46.44746" lon="-1.4725">
        <ele>12</ele>
        <time>2019-03-26T15:26:19Z</time>
      </trkpt>
      <trkpt lat="46.44743" lon="-1.4725">
        <ele>12</ele>
        <time>2019-03-26T15:26:22Z</time>
      </trkpt>
      <trkpt lat="46.44741" lon="-1.47249">
        <ele>12</ele>
        <time>2019-03-26T15:26:24Z</time>
      </trkpt>
      <trkpt lat="46.44738" lon="-1.47249">
        <ele>12</ele>
        <time>2019-03-26T15:26:27Z</time>
      </trkpt>
      <trkpt lat="46.44736" lon="-1.47251">
        <ele>12</ele>
        <time>2019-03-26T15:26:29Z</time>
      </trkpt>
      <trkpt lat="46.44734" lon="-1.47253">
        <ele>12</ele>
        <time>2019-03-26T15:26:32Z</time>
      </trkpt>
      <trkpt lat="46.44733" lon="-1.47254">
        <ele>12</ele>
        <time>2019-03-26T15:26:34Z</time>
      </trkpt>
      <trkpt lat="46.44732" lon="-1.47254">
        <ele>12</ele>
        <time>2019-03-26T15:26:37Z</time>
      </trkpt>
      <trkpt lat="46.44732" lon="-1.47254">
        <ele>12</ele>
        <time>2019-03-26T15:26:39Z</time>
      </trkpt>
      <trkpt lat="46.44732" lon="-1.47255">
        <ele>12</ele>
        <time>2019-03-26T15:26:42Z</time>
      </trkpt>
      <trkpt lat="46.44731" lon="-1.47255">
        <ele>12</ele>
        <time>2019-03-26T15:26:44Z</time>
      </trkpt>
      <trkpt lat="46.44731" lon="-1.47255">
        <ele>12</ele>
        <time>2019-03-26T15:26:47Z</time>
      </trkpt>
      <trkpt lat="46.44731" lon="-1.47255">
        <ele>12</ele>
        <time>2019-03-26T15:26:50Z</time>
      </trkpt>
      <trkpt lat="46.44731" lon="-1.47255">
        <ele>12</ele>
        <time>2019-03-26T15:26:52Z</time>
      </trkpt>
      <trkpt lat="46.44732" lon="-1.47256">
        <ele>12</ele>
        <time>2019-03-26T15:26:55Z</time>
      </trkpt>
      <trkpt lat="46.44731" lon="-1.47256">
        <ele>12</ele>
        <time>2019-03-26T15:26:57Z</time>
      </trkpt>
      <trkpt lat="46.4473" lon="-1.47256">
        <ele>12</ele>
        <time>2019-03-26T15:27:00Z</time>
      </trkpt>
      <trkpt lat="46.44731" lon="-1.47256">
        <ele>12</ele>
        <time>2019-03-26T15:27:02Z</time>
      </trkpt>
      <trkpt lat="46.4473" lon="-1.47257">
        <ele>12</ele>
        <time>2019-03-26T15:27:05Z</time>
      </trkpt>
      <trkpt lat="46.44729" lon="-1.47259">
        <ele>12</ele>
        <time>2019-03-26T15:27:07Z</time>
      </trkpt>
      <trkpt lat="46.44727" lon="-1.47261">
        <ele>12</ele>
        <time>2019-03-26T15:27:10Z</time>
      </trkpt>
      <trkpt lat="46.44725" lon="-1.47263">
        <ele>12</ele>
        <time>2019-03-26T15:27:12Z</time>
      </trkpt>
      <trkpt lat="46.44722" lon="-1.47266">
        <ele>12</ele>
        <time>2019-03-26T15:27:15Z</time>
      </trkpt>
      <trkpt lat="46.44719" lon="-1.47268">
        <ele>11</ele>
        <time>2019-03-26T15:27:17Z</time>
      </trkpt>
      <trkpt lat="46.44717" lon="-1.47269">
        <ele>11</ele>
        <time>2019-03-26T15:27:20Z</time>
      </trkpt>
      <trkpt lat="46.44713" lon="-1.47271">
        <ele>11</ele>
        <time>2019-03-26T15:27:23Z</time>
      </trkpt>
      <trkpt lat="46.44711" lon="-1.47273">
        <ele>11</ele>
        <time>2019-03-26T15:27:25Z</time>
      </trkpt>
      <trkpt lat="46.44707" lon="-1.47275">
        <ele>11</ele>
        <time>2019-03-26T15:27:28Z</time>
      </trkpt>
      <trkpt lat="46.44704" lon="-1.47277">
        <ele>11</ele>
        <time>2019-03-26T15:27:30Z</time>
      </trkpt>
      <trkpt lat="46.44701" lon="-1.4728">
        <ele>11</ele>
        <time>2019-03-26T15:27:33Z</time>
      </trkpt>
      <trkpt lat="46.44698" lon="-1.47282">
        <ele>11</ele>
        <time>2019-03-26T15:27:35Z</time>
      </trkpt>
      <trkpt lat="46.44695" lon="-1.47284">
        <ele>11</ele>
        <time>2019-03-26T15:27:38Z</time>
      </trkpt>
      <trkpt lat="46.44693" lon="-1.47285">
        <ele>11</ele>
        <time>2019-03-26T15:27:40Z</time>
      </trkpt>
      <trkpt lat="46.44689" lon="-1.47287">
        <ele>11</ele>
        <time>2019-03-26T15:27:43Z</time>
      </trkpt>
      <trkpt lat="46.44687" lon="-1.47289">
        <ele>11</ele>
        <time>2019-03-26T15:27:45Z</time>
      </trkpt>
      <trkpt lat="46.44684" lon="-1.47291">
        <ele>11</ele>
        <time>2019-03-26T15:27:48Z</time>
      </trkpt>
      <trkpt lat="46.44681" lon="-1.47293">
        <ele>11</ele>
        <time>2019-03-26T15:27:50Z</time>
      </trkpt>
      <trkpt lat="46.44677" lon="-1.47296">
        <ele>11</ele>
        <time>2019-03-26T15:27:53Z</time>
      </trkpt>
      <trkpt lat="46.44674" lon="-1.47297">
        <ele>11</ele>
        <time>2019-03-26T15:27:55Z</time>
      </trkpt>
      <trkpt lat="46.4467" lon="-1.473">
        <ele>11</ele>
        <time>2019-03-26T15:27:58Z</time>
      </trkpt>
      <trkpt lat="46.44667" lon="-1.47302">
        <ele>11</ele>
        <time>2019-03-26T15:28:00Z</time>
      </trkpt>
      <trkpt lat="46.44664" lon="-1.47304">
        <ele>11</ele>
        <time>2019-03-26T15:28:03Z</time>
      </trkpt>
      <trkpt lat="46.4466" lon="-1.47306">
        <ele>11</ele>
        <time>2019-03-26T15:28:05Z</time>
      </trkpt>
      <trkpt lat="46.44658" lon="-1.47308">
        <ele>11</ele>
        <time>2019-03-26T15:28:08Z</time>
      </trkpt>
      <trkpt lat="46.44655" lon="-1.4731">
        <ele>11</ele>
        <time>2019-03-26T15:28:11Z</time>
      </trkpt>
      <trkpt lat="46.44653" lon="-1.47311">
        <ele>11</ele>
        <time>2019-03-26T15:28:13Z</time>
      </trkpt>
      <trkpt lat="46.44649" lon="-1.47312">
        <ele>11</ele>
        <time>2019-03-26T15:28:16Z</time>
      </trkpt>
      <trkpt lat="46.44647" lon="-1.47313">
        <ele>11</ele>
        <time>2019-03-26T15:28:18Z</time>
      </trkpt>
      <trkpt lat="46.44643" lon="-1.47317">
        <ele>11</ele>
        <time>2019-03-26T15:28:21Z</time>
      </trkpt>
      <trkpt lat="46.4464" lon="-1.47319">
        <ele>11</ele>
        <time>2019-03-26T15:28:23Z</time>
      </trkpt>
      <trkpt lat="46.44636" lon="-1.47322">
        <ele>11</ele>
        <time>2019-03-26T15:28:26Z</time>
      </trkpt>
      <trkpt lat="46.44633" lon="-1.47324">
        <ele>11</ele>
        <time>2019-03-26T15:28:28Z</time>
      </trkpt>
      <trkpt lat="46.44628" lon="-1.47327">
        <ele>10</ele>
        <time>2019-03-26T15:28:31Z</time>
      </trkpt>
      <trkpt lat="46.44624" lon="-1.47329">
        <ele>10</ele>
        <time>2019-03-26T15:28:33Z</time>
      </trkpt>
      <trkpt lat="46.4462" lon="-1.47332">
        <ele>10</ele>
        <time>2019-03-26T15:28:36Z</time>
      </trkpt>
      <trkpt lat="46.44617" lon="-1.47334">
        <ele>10</ele>
        <time>2019-03-26T15:28:38Z</time>
      </trkpt>
      <trkpt lat="46.44613" lon="-1.47337">
        <ele>10</ele>
        <time>2019-03-26T15:28:41Z</time>
      </trkpt>
      <trkpt lat="46.4461" lon="-1.47338">
        <ele>10</ele>
        <time>2019-03-26T15:28:43Z</time>
      </trkpt>
      <trkpt lat="46.44605" lon="-1.47341">
        <ele>10</ele>
        <time>2019-03-26T15:28:46Z</time>
      </trkpt>
      <trkpt lat="46.446" lon="-1.47343">
        <ele>10</ele>
        <time>2019-03-26T15:28:49Z</time>
      </trkpt>
      <trkpt lat="46.44597" lon="-1.47344">
        <ele>10</ele>
        <time>2019-03-26T15:28:51Z</time>
      </trkpt>
      <trkpt lat="46.44593" lon="-1.47345">
        <ele>10</ele>
        <time>2019-03-26T15:28:54Z</time>
      </trkpt>
      <trkpt lat="46.4459" lon="-1.47346">
        <ele>10</ele>
        <time>2019-03-26T15:28:56Z</time>
      </trkpt>
      <trkpt lat="46.44586" lon="-1.47347">
        <ele>10</ele>
        <time>2019-03-26T15:28:59Z</time>
      </trkpt>
      <trkpt lat="46.44583" lon="-1.47348">
        <ele>10</ele>
        <time>2019-03-26T15:29:01Z</time>
      </trkpt>
      <trkpt lat="46.44579" lon="-1.4735">
        <ele>10</ele>
        <time>2019-03-26T15:29:04Z</time>
      </trkpt>
      <trkpt lat="46.44575" lon="-1.47351">
        <ele>10</ele>
        <time>2019-03-26T15:29:06Z</time>
      </trkpt>
      <trkpt lat="46.44573" lon="-1.47353">
        <ele>10</ele>
        <time>2019-03-26T15:29:09Z</time>
      </trkpt>
      <trkpt lat="46.44569" lon="-1.47355">
        <ele>10</ele>
        <time>2019-03-26T15:29:12Z</time>
      </trkpt>
      <trkpt lat="46.44567" lon="-1.47356">
        <ele>10</ele>
        <time>2019-03-26T15:29:14Z</time>
      </trkpt>
      <trkpt lat="46.44563" lon="-1.47357">
        <ele>10</ele>
        <time>2019-03-26T15:29:17Z</time>
      </trkpt>
      <trkpt lat="46.44561" lon="-1.47357">
        <ele>10</ele>
        <time>2019-03-26T15:29:19Z</time>
      </trkpt>
      <trkpt lat="46.44558" lon="-1.47358">
        <ele>10</ele>
        <time>2019-03-26T15:29:22Z</time>
      </trkpt>
      <trkpt lat="46.44556" lon="-1.47358">
        <ele>10</ele>
        <time>2019-03-26T15:29:24Z</time>
      </trkpt>
      <trkpt lat="46.44553" lon="-1.47358">
        <ele>10</ele>
        <time>2019-03-26T15:29:27Z</time>
      </trkpt>
      <trkpt lat="46.4455" lon="-1.47359">
        <ele>10</ele>
        <time>2019-03-26T15:29:29Z</time>
      </trkpt>
      <trkpt lat="46.44548" lon="-1.47359">
        <ele>10</ele>
        <time>2019-03-26T15:29:32Z</time>
      </trkpt>
      <trkpt lat="46.44544" lon="-1.47361">
        <ele>10</ele>
        <time>2019-03-26T15:29:35Z</time>
      </trkpt>
      <trkpt lat="46.44541" lon="-1.47361">
        <ele>10</ele>
        <time>2019-03-26T15:29:37Z</time>
      </trkpt>
      <trkpt lat="46.44537" lon="-1.47361">
        <ele>10</ele>
        <time>2019-03-26T15:29:40Z</time>
      </trkpt>
      <trkpt lat="46.44535" lon="-1.47361">
        <ele>10</ele>
        <time>2019-03-26T15:29:42Z</time>
      </trkpt>
      <trkpt lat="46.4453" lon="-1.47361">
        <ele>10</ele>
        <time>2019-03-26T15:29:45Z</time>
      </trkpt>
      <trkpt lat="46.44527" lon="-1.47362">
        <ele>10</ele>
        <time>2019-03-26T15:29:47Z</time>
      </trkpt>
      <trkpt lat="46.44523" lon="-1.47363">
        <ele>10</ele>
        <time>2019-03-26T15:29:50Z</time>
      </trkpt>
      <trkpt lat="46.4452" lon="-1.47363">
        <ele>10</ele>
        <time>2019-03-26T15:29:52Z</time>
      </trkpt>
      <trkpt lat="46.44516" lon="-1.47362">
        <ele>10</ele>
        <time>2019-03-26T15:29:55Z</time>
      </trkpt>
      <trkpt lat="46.44512" lon="-1.47361">
        <ele>10</ele>
        <time>2019-03-26T15:29:57Z</time>
      </trkpt>
      <trkpt lat="46.44509" lon="-1.47359">
        <ele>10</ele>
        <time>2019-03-26T15:30:00Z</time>
      </trkpt>
      <trkpt lat="46.44506" lon="-1.47357">
        <ele>10</ele>
        <time>2019-03-26T15:30:02Z</time>
      </trkpt>
      <trkpt lat="46.44502" lon="-1.47354">
        <ele>10</ele>
        <time>2019-03-26T15:30:05Z</time>
      </trkpt>
      <trkpt lat="46.44499" lon="-1.47351">
        <ele>10</ele>
        <time>2019-03-26T15:30:07Z</time>
      </trkpt>
      <trkpt lat="46.44496" lon="-1.47349">
        <ele>10</ele>
        <time>2019-03-26T15:30:10Z</time>
      </trkpt>
      <trkpt lat="46.44492" lon="-1.47344">
        <ele>10</ele>
        <time>2019-03-26T15:30:13Z</time>
      </trkpt>
      <trkpt lat="46.4449" lon="-1.47342">
        <ele>10</ele>
        <time>2019-03-26T15:30:15Z</time>
      </trkpt>
      <trkpt lat="46.44486" lon="-1.47338">
        <ele>10</ele>
        <time>2019-03-26T15:30:18Z</time>
      </trkpt>
      <trkpt lat="46.44484" lon="-1.47334">
        <ele>11</ele>
        <time>2019-03-26T15:30:20Z</time>
      </trkpt>
      <trkpt lat="46.44479" lon="-1.47329">
        <ele>11</ele>
        <time>2019-03-26T15:30:23Z</time>
      </trkpt>
      <trkpt lat="46.44477" lon="-1.47327">
        <ele>11</ele>
        <time>2019-03-26T15:30:25Z</time>
      </trkpt>
      <trkpt lat="46.44472" lon="-1.47324">
        <ele>11</ele>
        <time>2019-03-26T15:30:28Z</time>
      </trkpt>
      <trkpt lat="46.44469" lon="-1.47321">
        <ele>11</ele>
        <time>2019-03-26T15:30:30Z</time>
      </trkpt>
      <trkpt lat="46.44467" lon="-1.4732">
        <ele>11</ele>
        <time>2019-03-26T15:30:33Z</time>
      </trkpt>
      <trkpt lat="46.44462" lon="-1.47318">
        <ele>12</ele>
        <time>2019-03-26T15:30:36Z</time>
      </trkpt>
      <trkpt lat="46.44459" lon="-1.47316">
        <ele>12</ele>
        <time>2019-03-26T15:30:38Z</time>
      </trkpt>
      <trkpt lat="46.44456" lon="-1.47314">
        <ele>12</ele>
        <time>2019-03-26T15:30:41Z</time>
      </trkpt>
      <trkpt lat="46.44453" lon="-1.47313">
        <ele>12</ele>
        <time>2019-03-26T15:30:43Z</time>
      </trkpt>
      <trkpt lat="46.44449" lon="-1.47311">
        <ele>12</ele>
        <time>2019-03-26T15:30:46Z</time>
      </trkpt>
      <trkpt lat="46.44445" lon="-1.47311">
        <ele>13</ele>
        <time>2019-03-26T15:30:48Z</time>
      </trkpt>
      <trkpt lat="46.44442" lon="-1.47309">
        <ele>13</ele>
        <time>2019-03-26T15:30:51Z</time>
      </trkpt>
      <trkpt lat="46.44438" lon="-1.47308">
        <ele>13</ele>
        <time>2019-03-26T15:30:54Z</time>
      </trkpt>
      <trkpt lat="46.44435" lon="-1.47307">
        <ele>13</ele>
        <time>2019-03-26T15:30:56Z</time>
      </trkpt>
      <trkpt lat="46.4443" lon="-1.47308">
        <ele>13</ele>
        <time>2019-03-26T15:30:59Z</time>
      </trkpt>
      <trkpt lat="46.44427" lon="-1.47308">
        <ele>13</ele>
        <time>2019-03-26T15:31:01Z</time>
      </trkpt>
      <trkpt lat="46.44423" lon="-1.47309">
        <ele>14</ele>
        <time>2019-03-26T15:31:04Z</time>
      </trkpt>
      <trkpt lat="46.44419" lon="-1.47311">
        <ele>14</ele>
        <time>2019-03-26T15:31:06Z</time>
      </trkpt>
      <trkpt lat="46.44416" lon="-1.47311">
        <ele>14</ele>
        <time>2019-03-26T15:31:09Z</time>
      </trkpt>
      <trkpt lat="46.44412" lon="-1.47313">
        <ele>14</ele>
        <time>2019-03-26T15:31:12Z</time>
      </trkpt>
      <trkpt lat="46.44409" lon="-1.47314">
        <ele>14</ele>
        <time>2019-03-26T15:31:14Z</time>
      </trkpt>
      <trkpt lat="46.44404" lon="-1.47317">
        <ele>15</ele>
        <time>2019-03-26T15:31:17Z</time>
      </trkpt>
      <trkpt lat="46.44401" lon="-1.47317">
        <ele>15</ele>
        <time>2019-03-26T15:31:19Z</time>
      </trkpt>
      <trkpt lat="46.44397" lon="-1.47319">
        <ele>15</ele>
        <time>2019-03-26T15:31:22Z</time>
      </trkpt>
      <trkpt lat="46.44392" lon="-1.4732">
        <ele>15</ele>
        <time>2019-03-26T15:31:25Z</time>
      </trkpt>
      <trkpt lat="46.44389" lon="-1.47321">
        <ele>15</ele>
        <time>2019-03-26T15:31:27Z</time>
      </trkpt>
      <trkpt lat="46.44385" lon="-1.47321">
        <ele>16</ele>
        <time>2019-03-26T15:31:30Z</time>
      </trkpt>
      <trkpt lat="46.4438" lon="-1.47323">
        <ele>16</ele>
        <time>2019-03-26T15:31:32Z</time>
      </trkpt>
      <trkpt lat="46.44378" lon="-1.47324">
        <ele>16</ele>
        <time>2019-03-26T15:31:35Z</time>
      </trkpt>
      <trkpt lat="46.44373" lon="-1.47325">
        <ele>17</ele>
        <time>2019-03-26T15:31:38Z</time>
      </trkpt>
      <trkpt lat="46.4437" lon="-1.47327">
        <ele>17</ele>
        <time>2019-03-26T15:31:40Z</time>
      </trkpt>
      <trkpt lat="46.44366" lon="-1.47329">
        <ele>17</ele>
        <time>2019-03-26T15:31:43Z</time>
      </trkpt>
      <trkpt lat="46.44362" lon="-1.4733">
        <ele>17</ele>
        <time>2019-03-26T15:31:45Z</time>
      </trkpt>
      <trkpt lat="46.44358" lon="-1.47331">
        <ele>18</ele>
        <time>2019-03-26T15:31:48Z</time>
      </trkpt>
      <trkpt lat="46.44354" lon="-1.47332">
        <ele>18</ele>
        <time>2019-03-26T15:31:50Z</time>
      </trkpt>
      <trkpt lat="46.44351" lon="-1.47333">
        <ele>18</ele>
        <time>2019-03-26T15:31:53Z</time>
      </trkpt>
      <trkpt lat="46.44347" lon="-1.47335">
        <ele>19</ele>
        <time>2019-03-26T15:31:56Z</time>
      </trkpt>
      <trkpt lat="46.44344" lon="-1.47335">
        <ele>19</ele>
        <time>2019-03-26T15:31:58Z</time>
      </trkpt>
      <trkpt lat="46.4434" lon="-1.47336">
        <ele>19</ele>
        <time>2019-03-26T15:32:01Z</time>
      </trkpt>
      <trkpt lat="46.44338" lon="-1.47337">
        <ele>19</ele>
        <time>2019-03-26T15:32:03Z</time>
      </trkpt>
      <trkpt lat="46.44333" lon="-1.47337">
        <ele>19</ele>
        <time>2019-03-26T15:32:06Z</time>
      </trkpt>
      <trkpt lat="46.44329" lon="-1.47338">
        <ele>20</ele>
        <time>2019-03-26T15:32:09Z</time>
      </trkpt>
      <trkpt lat="46.44326" lon="-1.47338">
        <ele>20</ele>
        <time>2019-03-26T15:32:11Z</time>
      </trkpt>
      <trkpt lat="46.44322" lon="-1.47339">
        <ele>20</ele>
        <time>2019-03-26T15:32:14Z</time>
      </trkpt>
      <trkpt lat="46.44319" lon="-1.47339">
        <ele>20</ele>
        <time>2019-03-26T15:32:16Z</time>
      </trkpt>
      <trkpt lat="46.44315" lon="-1.4734">
        <ele>20</ele>
        <time>2019-03-26T15:32:19Z</time>
      </trkpt>
      <trkpt lat="46.44311" lon="-1.4734">
        <ele>21</ele>
        <time>2019-03-26T15:32:21Z</time>
      </trkpt>
      <trkpt lat="46.44308" lon="-1.4734">
        <ele>21</ele>
        <time>2019-03-26T15:32:24Z</time>
      </trkpt>
      <trkpt lat="46.44304" lon="-1.4734">
        <ele>21</ele>
        <time>2019-03-26T15:32:27Z</time>
      </trkpt>
      <trkpt lat="46.44302" lon="-1.4734">
        <ele>21</ele>
        <time>2019-03-26T15:32:29Z</time>
      </trkpt>
      <trkpt lat="46.44299" lon="-1.47338">
        <ele>21</ele>
        <time>2019-03-26T15:32:32Z</time>
      </trkpt>
      <trkpt lat="46.44298" lon="-1.47337">
        <ele>21</ele>
        <time>2019-03-26T15:32:34Z</time>
      </trkpt>
      <trkpt lat="46.44297" lon="-1.47337">
        <ele>21</ele>
        <time>2019-03-26T15:32:37Z</time>
      </trkpt>
      <trkpt lat="46.44296" lon="-1.47338">
        <ele>21</ele>
        <time>2019-03-26T15:32:40Z</time>
      </trkpt>
      <trkpt lat="46.44295" lon="-1.47338">
        <ele>21</ele>
        <time>2019-03-26T15:32:42Z</time>
      </trkpt>
      <trkpt lat="46.44294" lon="-1.4734">
        <ele>21</ele>
        <time>2019-03-26T15:32:45Z</time>
      </trkpt>
      <trkpt lat="46.44293" lon="-1.47341">
        <ele>21</ele>
        <time>2019-03-26T15:32:47Z</time>
      </trkpt>
      <trkpt lat="46.44293" lon="-1.47342">
        <ele>21</ele>
        <time>2019-03-26T15:32:50Z</time>
      </trkpt>
      <trkpt lat="46.44293" lon="-1.47341">
        <ele>21</ele>
        <time>2019-03-26T15:32:52Z</time>
      </trkpt>
      <trkpt lat="46.44293" lon="-1.4734">
        <ele>21</ele>
        <time>2019-03-26T15:32:55Z</time>
      </trkpt>
      <trkpt lat="46.44293" lon="-1.4734">
        <ele>21</ele>
        <time>2019-03-26T15:32:57Z</time>
      </trkpt>
      <trkpt lat="46.44293" lon="-1.4734">
        <ele>21</ele>
        <time>2019-03-26T15:33:00Z</time>
      </trkpt>
      <trkpt lat="46.44292" lon="-1.4734">
        <ele>21</ele>
        <time>2019-03-26T15:33:03Z</time>
      </trkpt>
      <trkpt lat="46.44292" lon="-1.47341">
        <ele>21</ele>
        <time>2019-03-26T15:33:05Z</time>
      </trkpt>
      <trkpt lat="46.44292" lon="-1.47341">
        <ele>21</ele>
        <time>2019-03-26T15:33:08Z</time>
      </trkpt>
      <trkpt lat="46.44292" lon="-1.47341">
        <ele>21</ele>
        <time>2019-03-26T15:33:10Z</time>
      </trkpt>
      <trkpt lat="46.44292" lon="-1.47341">
        <ele>21</ele>
        <time>2019-03-26T15:33:13Z</time>
      </trkpt>
      <trkpt lat="46.44293" lon="-1.47341">
        <ele>21</ele>
        <time>2019-03-26T15:33:16Z</time>
      </trkpt>
      <trkpt lat="46.44293" lon="-1.47338">
        <ele>21</ele>
        <time>2019-03-26T15:33:18Z</time>
      </trkpt>
      <trkpt lat="46.44294" lon="-1.47335">
        <ele>21</ele>
        <time>2019-03-26T15:33:21Z</time>
      </trkpt>
      <trkpt lat="46.44296" lon="-1.47332">
        <ele>21</ele>
        <time>2019-03-26T15:33:23Z</time>
      </trkpt>
      <trkpt lat="46.44297" lon="-1.47329">
        <ele>21</ele>
        <time>2019-03-26T15:33:26Z</time>
      </trkpt>
      <trkpt lat="46.44298" lon="-1.47325">
        <ele>21</ele>
        <time>2019-03-26T15:33:28Z</time>
      </trkpt>
      <trkpt lat="46.443" lon="-1.47323">
        <ele>21</ele>
        <time>2019-03-26T15:33:31Z</time>
      </trkpt>
      <trkpt lat="46.44301" lon="-1.4732">
        <ele>21</ele>
        <time>2019-03-26T15:33:34Z</time>
      </trkpt>
      <trkpt lat="46.44302" lon="-1.47317">
        <ele>21</ele>
        <time>2019-03-26T15:33:36Z</time>
      </trkpt>
      <trkpt lat="46.44304" lon="-1.47311">
        <ele>21</ele>
        <time>2019-03-26T15:33:39Z</time>
      </trkpt>
      <trkpt lat="46.44306" lon="-1.47308">
        <ele>22</ele>
        <time>2019-03-26T15:33:41Z</time>
      </trkpt>
      <trkpt lat="46.44308" lon="-1.47302">
        <ele>22</ele>
        <time>2019-03-26T15:33:44Z</time>
      </trkpt>
      <trkpt lat="46.44309" lon="-1.47299">
        <ele>22</ele>
        <time>2019-03-26T15:33:46Z</time>
      </trkpt>
      <trkpt lat="46.44312" lon="-1.47293">
        <ele>22</ele>
        <time>2019-03-26T15:33:49Z</time>
      </trkpt>
      <trkpt lat="46.44314" lon="-1.47288">
        <ele>22</ele>
        <time>2019-03-26T15:33:51Z</time>
      </trkpt>
      <trkpt lat="46.44315" lon="-1.47284">
        <ele>22</ele>
        <time>2019-03-26T15:33:54Z</time>
      </trkpt>
      <trkpt lat="46.44318" lon="-1.47279">
        <ele>22</ele>
        <time>2019-03-26T15:33:57Z</time>
      </trkpt>
      <trkpt lat="46.4432" lon="-1.47275">
        <ele>22</ele>
        <time>2019-03-26T15:33:59Z</time>
      </trkpt>
      <trkpt lat="46.44322" lon="-1.47268">
        <ele>22</ele>
        <time>2019-03-26T15:34:02Z</time>
      </trkpt>
      <trkpt lat="46.44323" lon="-1.47263">
        <ele>22</ele>
        <time>2019-03-26T15:34:04Z</time>
      </trkpt>
      <trkpt lat="46.44324" lon="-1.47257">
        <ele>22</ele>
        <time>2019-03-26T15:34:07Z</time>
      </trkpt>
      <trkpt lat="46.44325" lon="-1.47253">
        <ele>22</ele>
        <time>2019-03-26T15:34:09Z</time>
      </trkpt>
      <trkpt lat="46.44328" lon="-1.47246">
        <ele>22</ele>
        <time>2019-03-26T15:34:12Z</time>
      </trkpt>
      <trkpt lat="46.4433" lon="-1.47243">
        <ele>22</ele>
        <time>2019-03-26T15:34:14Z</time>
      </trkpt>
      <trkpt lat="46.44331" lon="-1.47237">
        <ele>23</ele>
        <time>2019-03-26T15:34:17Z</time>
      </trkpt>
      <trkpt lat="46.44333" lon="-1.47233">
        <ele>23</ele>
        <time>2019-03-26T15:34:19Z</time>
      </trkpt>
      <trkpt lat="46.44335" lon="-1.47228">
        <ele>23</ele>
        <time>2019-03-26T15:34:22Z</time>
      </trkpt>
      <trkpt lat="46.44336" lon="-1.47221">
        <ele>23</ele>
        <time>2019-03-26T15:34:25Z</time>
      </trkpt>
      <trkpt lat="46.44337" lon="-1.47217">
        <ele>23</ele>
        <time>2019-03-26T15:34:27Z</time>
      </trkpt>
      <trkpt lat="46.44339" lon="-1.47211">
        <ele>23</ele>
        <time>2019-03-26T15:34:30Z</time>
      </trkpt>
      <trkpt lat="46.44339" lon="-1.47207">
        <ele>23</ele>
        <time>2019-03-26T15:34:32Z</time>
      </trkpt>
      <trkpt lat="46.44341" lon="-1.47202">
        <ele>23</ele>
        <time>2019-03-26T15:34:35Z</time>
      </trkpt>
      <trkpt lat="46.44342" lon="-1.47198">
        <ele>23</ele>
        <time>2019-03-26T15:34:37Z</time>
      </trkpt>
      <trkpt lat="46.44343" lon="-1.47191">
        <ele>23</ele>
        <time>2019-03-26T15:34:40Z</time>
      </trkpt>
      <trkpt lat="46.44345" lon="-1.47185">
        <ele>23</ele>
        <time>2019-03-26T15:34:43Z</time>
      </trkpt>
      <trkpt lat="46.44347" lon="-1.47181">
        <ele>23</ele>
        <time>2019-03-26T15:34:45Z</time>
      </trkpt>
      <trkpt lat="46.44348" lon="-1.47174">
        <ele>23</ele>
        <time>2019-03-26T15:34:48Z</time>
      </trkpt>
      <trkpt lat="46.44349" lon="-1.47169">
        <ele>23</ele>
        <time>2019-03-26T15:34:50Z</time>
      </trkpt>
      <trkpt lat="46.4435" lon="-1.47164">
        <ele>23</ele>
        <time>2019-03-26T15:34:53Z</time>
      </trkpt>
      <trkpt lat="46.44351" lon="-1.4716">
        <ele>23</ele>
        <time>2019-03-26T15:34:55Z</time>
      </trkpt>
      <trkpt lat="46.44352" lon="-1.47154">
        <ele>23</ele>
        <time>2019-03-26T15:34:58Z</time>
      </trkpt>
      <trkpt lat="46.44352" lon="-1.47147">
        <ele>23</ele>
        <time>2019-03-26T15:35:00Z</time>
      </trkpt>
      <trkpt lat="46.44352" lon="-1.47143">
        <ele>23</ele>
        <time>2019-03-26T15:35:03Z</time>
      </trkpt>
      <trkpt lat="46.44353" lon="-1.47136">
        <ele>23</ele>
        <time>2019-03-26T15:35:06Z</time>
      </trkpt>
      <trkpt lat="46.44354" lon="-1.47131">
        <ele>23</ele>
        <time>2019-03-26T15:35:08Z</time>
      </trkpt>
      <trkpt lat="46.44356" lon="-1.47125">
        <ele>23</ele>
        <time>2019-03-26T15:35:11Z</time>
      </trkpt>
      <trkpt lat="46.44358" lon="-1.47118">
        <ele>23</ele>
        <time>2019-03-26T15:35:13Z</time>
      </trkpt>
      <trkpt lat="46.44358" lon="-1.47114">
        <ele>23</ele>
        <time>2019-03-26T15:35:16Z</time>
      </trkpt>
      <trkpt lat="46.4436" lon="-1.4711">
        <ele>23</ele>
        <time>2019-03-26T15:35:19Z</time>
      </trkpt>
      <trkpt lat="46.4436" lon="-1.47106">
        <ele>23</ele>
        <time>2019-03-26T15:35:21Z</time>
      </trkpt>
      <trkpt lat="46.44362" lon="-1.471">
        <ele>23</ele>
        <time>2019-03-26T15:35:24Z</time>
      </trkpt>
      <trkpt lat="46.44362" lon="-1.47093">
        <ele>23</ele>
        <time>2019-03-26T15:35:27Z</time>
      </trkpt>
      <trkpt lat="46.44363" lon="-1.47088">
        <ele>23</ele>
        <time>2019-03-26T15:35:29Z</time>
      </trkpt>
      <trkpt lat="46.44364" lon="-1.47082">
        <ele>23</ele>
        <time>2019-03-26T15:35:32Z</time>
      </trkpt>
      <trkpt lat="46.44364" lon="-1.47077">
        <ele>23</ele>
        <time>2019-03-26T15:35:34Z</time>
      </trkpt>
      <trkpt lat="46.44364" lon="-1.4707">
        <ele>23</ele>
        <time>2019-03-26T15:35:37Z</time>
      </trkpt>
      <trkpt lat="46.44365" lon="-1.47062">
        <ele>23</ele>
        <time>2019-03-26T15:35:39Z</time>
      </trkpt>
      <trkpt lat="46.44365" lon="-1.47057">
        <ele>23</ele>
        <time>2019-03-26T15:35:42Z</time>
      </trkpt>
      <trkpt lat="46.44366" lon="-1.4705">
        <ele>23</ele>
        <time>2019-03-26T15:35:45Z</time>
      </trkpt>
      <trkpt lat="46.44367" lon="-1.47046">
        <ele>23</ele>
        <time>2019-03-26T15:35:47Z</time>
      </trkpt>
      <trkpt lat="46.44367" lon="-1.47039">
        <ele>23</ele>
        <time>2019-03-26T15:35:50Z</time>
      </trkpt>
      <trkpt lat="46.44367" lon="-1.47033">
        <ele>24</ele>
        <time>2019-03-26T15:35:52Z</time>
      </trkpt>
      <trkpt lat="46.44368" lon="-1.47029">
        <ele>24</ele>
        <time>2019-03-26T15:35:55Z</time>
      </trkpt>
      <trkpt lat="46.44369" lon="-1.47022">
        <ele>24</ele>
        <time>2019-03-26T15:35:58Z</time>
      </trkpt>
      <trkpt lat="46.44369" lon="-1.47018">
        <ele>24</ele>
        <time>2019-03-26T15:36:00Z</time>
      </trkpt>
      <trkpt lat="46.44369" lon="-1.47012">
        <ele>24</ele>
        <time>2019-03-26T15:36:03Z</time>
      </trkpt>
      <trkpt lat="46.44371" lon="-1.47006">
        <ele>24</ele>
        <time>2019-03-26T15:36:06Z</time>
      </trkpt>
      <trkpt lat="46.44371" lon="-1.47003">
        <ele>24</ele>
        <time>2019-03-26T15:36:08Z</time>
      </trkpt>
      <trkpt lat="46.44372" lon="-1.46996">
        <ele>24</ele>
        <time>2019-03-26T15:36:11Z</time>
      </trkpt>
      <trkpt lat="46.44373" lon="-1.4699">
        <ele>24</ele>
        <time>2019-03-26T15:36:13Z</time>
      </trkpt>
      <trkpt lat="46.44373" lon="-1.46986">
        <ele>24</ele>
        <time>2019-03-26T15:36:16Z</time>
      </trkpt>
      <trkpt lat="46.44374" lon="-1.4698">
        <ele>24</ele>
        <time>2019-03-26T15:36:19Z</time>
      </trkpt>
      <trkpt lat="46.44376" lon="-1.46975">
        <ele>24</ele>
        <time>2019-03-26T15:36:21Z</time>
      </trkpt>
      <trkpt lat="46.44376" lon="-1.46969">
        <ele>24</ele>
        <time>2019-03-26T15:36:24Z</time>
      </trkpt>
      <trkpt lat="46.44378" lon="-1.46963">
        <ele>24</ele>
        <time>2019-03-26T15:36:27Z</time>
      </trkpt>
      <trkpt lat="46.44378" lon="-1.46958">
        <ele>24</ele>
        <time>2019-03-26T15:36:29Z</time>
      </trkpt>
      <trkpt lat="46.4438" lon="-1.46952">
        <ele>24</ele>
        <time>2019-03-26T15:36:32Z</time>
      </trkpt>
      <trkpt lat="46.4438" lon="-1.46945">
        <ele>24</ele>
        <time>2019-03-26T15:36:34Z</time>
      </trkpt>
      <trkpt lat="46.4438" lon="-1.4694">
        <ele>24</ele>
        <time>2019-03-26T15:36:37Z</time>
      </trkpt>
      <trkpt lat="46.44382" lon="-1.46934">
        <ele>24</ele>
        <time>2019-03-26T15:36:40Z</time>
      </trkpt>
      <trkpt lat="46.44382" lon="-1.4693">
        <ele>24</ele>
        <time>2019-03-26T15:36:42Z</time>
      </trkpt>
      <trkpt lat="46.44383" lon="-1.46923">
        <ele>24</ele>
        <time>2019-03-26T15:36:45Z</time>
      </trkpt>
      <trkpt lat="46.44385" lon="-1.46918">
        <ele>24</ele>
        <time>2019-03-26T15:36:48Z</time>
      </trkpt>
      <trkpt lat="46.44385" lon="-1.46914">
        <ele>24</ele>
        <time>2019-03-26T15:36:50Z</time>
      </trkpt>
      <trkpt lat="46.44386" lon="-1.46907">
        <ele>24</ele>
        <time>2019-03-26T15:36:53Z</time>
      </trkpt>
      <trkpt lat="46.44387" lon="-1.46903">
        <ele>24</ele>
        <time>2019-03-26T15:36:55Z</time>
      </trkpt>
      <trkpt lat="46.44387" lon="-1.46896">
        <ele>24</ele>
        <time>2019-03-26T15:36:58Z</time>
      </trkpt>
      <trkpt lat="46.44387" lon="-1.4689">
        <ele>24</ele>
        <time>2019-03-26T15:37:01Z</time>
      </trkpt>
      <trkpt lat="46.44388" lon="-1.46885">
        <ele>24</ele>
        <time>2019-03-26T15:37:03Z</time>
      </trkpt>
      <trkpt lat="46.44389" lon="-1.46878">
        <ele>24</ele>
        <time>2019-03-26T15:37:06Z</time>
      </trkpt>
      <trkpt lat="46.44389" lon="-1.46873">
        <ele>23</ele>
        <time>2019-03-26T15:37:08Z</time>
      </trkpt>
      <trkpt lat="46.4439" lon="-1.46867">
        <ele>23</ele>
        <time>2019-03-26T15:37:11Z</time>
      </trkpt>
      <trkpt lat="46.4439" lon="-1.4686">
        <ele>23</ele>
        <time>2019-03-26T15:37:14Z</time>
      </trkpt>
      <trkpt lat="46.44391" lon="-1.46855">
        <ele>23</ele>
        <time>2019-03-26T15:37:16Z</time>
      </trkpt>
      <trkpt lat="46.44391" lon="-1.46848">
        <ele>23</ele>
        <time>2019-03-26T15:37:19Z</time>
      </trkpt>
      <trkpt lat="46.44391" lon="-1.46843">
        <ele>23</ele>
        <time>2019-03-26T15:37:21Z</time>
      </trkpt>
      <trkpt lat="46.44391" lon="-1.46838">
        <ele>23</ele>
        <time>2019-03-26T15:37:24Z</time>
      </trkpt>
      <trkpt lat="46.44392" lon="-1.46831">
        <ele>23</ele>
        <time>2019-03-26T15:37:27Z</time>
      </trkpt>
      <trkpt lat="46.44393" lon="-1.46827">
        <ele>23</ele>
        <time>2019-03-26T15:37:29Z</time>
      </trkpt>
      <trkpt lat="46.44393" lon="-1.4682">
        <ele>23</ele>
        <time>2019-03-26T15:37:32Z</time>
      </trkpt>
      <trkpt lat="46.44392" lon="-1.46813">
        <ele>23</ele>
        <time>2019-03-26T15:37:35Z</time>
      </trkpt>
      <trkpt lat="46.44393" lon="-1.4681">
        <ele>23</ele>
        <time>2019-03-26T15:37:37Z</time>
      </trkpt>
      <trkpt lat="46.44393" lon="-1.46803">
        <ele>23</ele>
        <time>2019-03-26T15:37:40Z</time>
      </trkpt>
      <trkpt lat="46.44393" lon="-1.46796">
        <ele>24</ele>
        <time>2019-03-26T15:37:43Z</time>
      </trkpt>
      <trkpt lat="46.44393" lon="-1.46791">
        <ele>24</ele>
        <time>2019-03-26T15:37:45Z</time>
      </trkpt>
      <trkpt lat="46.44393" lon="-1.46784">
        <ele>24</ele>
        <time>2019-03-26T15:37:48Z</time>
      </trkpt>
      <trkpt lat="46.44393" lon="-1.46778">
        <ele>24</ele>
        <time>2019-03-26T15:37:50Z</time>
      </trkpt>
      <trkpt lat="46.44394" lon="-1.46774">
        <ele>24</ele>
        <time>2019-03-26T15:37:53Z</time>
      </trkpt>
      <trkpt lat="46.44395" lon="-1.4677">
        <ele>24</ele>
        <time>2019-03-26T15:37:56Z</time>
      </trkpt>
      <trkpt lat="46.44395" lon="-1.46767">
        <ele>24</ele>
        <time>2019-03-26T15:37:58Z</time>
      </trkpt>
      <trkpt lat="46.44394" lon="-1.46766">
        <ele>24</ele>
        <time>2019-03-26T15:38:01Z</time>
      </trkpt>
      <trkpt lat="46.44394" lon="-1.46765">
        <ele>24</ele>
        <time>2019-03-26T15:38:04Z</time>
      </trkpt>
      <trkpt lat="46.44393" lon="-1.46765">
        <ele>24</ele>
        <time>2019-03-26T15:38:06Z</time>
      </trkpt>
      <trkpt lat="46.44391" lon="-1.46763">
        <ele>24</ele>
        <time>2019-03-26T15:38:09Z</time>
      </trkpt>
      <trkpt lat="46.4439" lon="-1.46761">
        <ele>24</ele>
        <time>2019-03-26T15:38:11Z</time>
      </trkpt>
      <trkpt lat="46.44388" lon="-1.46757">
        <ele>24</ele>
        <time>2019-03-26T15:38:14Z</time>
      </trkpt>
      <trkpt lat="46.44387" lon="-1.46752">
        <ele>24</ele>
        <time>2019-03-26T15:38:17Z</time>
      </trkpt>
      <trkpt lat="46.44386" lon="-1.46748">
        <ele>24</ele>
        <time>2019-03-26T15:38:19Z</time>
      </trkpt>
      <trkpt lat="46.44384" lon="-1.46742">
        <ele>24</ele>
        <time>2019-03-26T15:38:22Z</time>
      </trkpt>
      <trkpt lat="46.44383" lon="-1.46738">
        <ele>24</ele>
        <time>2019-03-26T15:38:24Z</time>
      </trkpt>
      <trkpt lat="46.44382" lon="-1.46733">
        <ele>24</ele>
        <time>2019-03-26T15:38:27Z</time>
      </trkpt>
      <trkpt lat="46.44381" lon="-1.46727">
        <ele>24</ele>
        <time>2019-03-26T15:38:29Z</time>
      </trkpt>
      <trkpt lat="46.4438" lon="-1.46723">
        <ele>24</ele>
        <time>2019-03-26T15:38:32Z</time>
      </trkpt>
      <trkpt lat="46.44378" lon="-1.46717">
        <ele>24</ele>
        <time>2019-03-26T15:38:35Z</time>
      </trkpt>
      <trkpt lat="46.44378" lon="-1.46713">
        <ele>24</ele>
        <time>2019-03-26T15:38:37Z</time>
      </trkpt>
      <trkpt lat="46.44376" lon="-1.46707">
        <ele>25</ele>
        <time>2019-03-26T15:38:40Z</time>
      </trkpt>
      <trkpt lat="46.44376" lon="-1.46704">
        <ele>25</ele>
        <time>2019-03-26T15:38:42Z</time>
      </trkpt>
      <trkpt lat="46.44375" lon="-1.46699">
        <ele>25</ele>
        <time>2019-03-26T15:38:45Z</time>
      </trkpt>
      <trkpt lat="46.44373" lon="-1.46692">
        <ele>25</ele>
        <time>2019-03-26T15:38:48Z</time>
      </trkpt>
      <trkpt lat="46.44371" lon="-1.46688">
        <ele>25</ele>
        <time>2019-03-26T15:38:50Z</time>
      </trkpt>
      <trkpt lat="46.44369" lon="-1.46682">
        <ele>25</ele>
        <time>2019-03-26T15:38:53Z</time>
      </trkpt>
      <trkpt lat="46.44368" lon="-1.46678">
        <ele>25</ele>
        <time>2019-03-26T15:38:55Z</time>
      </trkpt>
      <trkpt lat="46.44367" lon="-1.46672">
        <ele>25</ele>
        <time>2019-03-26T15:38:58Z</time>
      </trkpt>
      <trkpt lat="46.44366" lon="-1.46665">
        <ele>25</ele>
        <time>2019-03-26T15:39:01Z</time>
      </trkpt>
      <trkpt lat="46.44365" lon="-1.46661">
        <ele>25</ele>
        <time>2019-03-26T15:39:03Z</time>
      </trkpt>
      <trkpt lat="46.44363" lon="-1.46654">
        <ele>25</ele>
        <time>2019-03-26T15:39:06Z</time>
      </trkpt>
      <trkpt lat="46.44362" lon="-1.46648">
        <ele>25</ele>
        <time>2019-03-26T15:39:08Z</time>
      </trkpt>
      <trkpt lat="46.44362" lon="-1.46644">
        <ele>25</ele>
        <time>2019-03-26T15:39:11Z</time>
      </trkpt>
      <trkpt lat="46.44361" lon="-1.46638">
        <ele>25</ele>
        <time>2019-03-26T15:39:14Z</time>
      </trkpt>
      <trkpt lat="46.44361" lon="-1.46635">
        <ele>25</ele>
        <time>2019-03-26T15:39:16Z</time>
      </trkpt>
      <trkpt lat="46.4436" lon="-1.4663">
        <ele>25</ele>
        <time>2019-03-26T15:39:19Z</time>
      </trkpt>
      <trkpt lat="46.44359" lon="-1.46624">
        <ele>26</ele>
        <time>2019-03-26T15:39:21Z</time>
      </trkpt>
      <trkpt lat="46.44358" lon="-1.4662">
        <ele>26</ele>
        <time>2019-03-26T15:39:24Z</time>
      </trkpt>
      <trkpt lat="46.44357" lon="-1.46614">
        <ele>26</ele>
        <time>2019-03-26T15:39:27Z</time>
      </trkpt>
      <trkpt lat="46.44356" lon="-1.4661">
        <ele>26</ele>
        <time>2019-03-26T15:39:29Z</time>
      </trkpt>
      <trkpt lat="46.44355" lon="-1.46603">
        <ele>26</ele>
        <time>2019-03-26T15:39:32Z</time>
      </trkpt>
      <trkpt lat="46.44355" lon="-1.46598">
        <ele>26</ele>
        <time>2019-03-26T15:39:35Z</time>
      </trkpt>
      <trkpt lat="46.44354" lon="-1.46595">
        <ele>26</ele>
        <time>2019-03-26T15:39:37Z</time>
      </trkpt>
      <trkpt lat="46.44353" lon="-1.46591">
        <ele>26</ele>
        <time>2019-03-26T15:39:40Z</time>
      </trkpt>
      <trkpt lat="46.44354" lon="-1.46588">
        <ele>26</ele>
        <time>2019-03-26T15:39:42Z</time>
      </trkpt>
      <trkpt lat="46.44354" lon="-1.46585">
        <ele>26</ele>
        <time>2019-03-26T15:39:45Z</time>
      </trkpt>
      <trkpt lat="46.44355" lon="-1.46584">
        <ele>26</ele>
        <time>2019-03-26T15:39:47Z</time>
      </trkpt>
      <trkpt lat="46.44353" lon="-1.46583">
        <ele>26</ele>
        <time>2019-03-26T15:39:50Z</time>
      </trkpt>
      <trkpt lat="46.44352" lon="-1.46583">
        <ele>26</ele>
        <time>2019-03-26T15:39:52Z</time>
      </trkpt>
      <trkpt lat="46.44351" lon="-1.46582">
        <ele>26</ele>
        <time>2019-03-26T15:39:55Z</time>
      </trkpt>
      <trkpt lat="46.44351" lon="-1.46582">
        <ele>26</ele>
        <time>2019-03-26T15:39:57Z</time>
      </trkpt>
      <trkpt lat="46.44351" lon="-1.46582">
        <ele>26</ele>
        <time>2019-03-26T15:40:00Z</time>
      </trkpt>
      <trkpt lat="46.44352" lon="-1.46582">
        <ele>26</ele>
        <time>2019-03-26T15:40:02Z</time>
      </trkpt>
      <trkpt lat="46.44351" lon="-1.46582">
        <ele>26</ele>
        <time>2019-03-26T15:40:05Z</time>
      </trkpt>
      <trkpt lat="46.44351" lon="-1.46581">
        <ele>26</ele>
        <time>2019-03-26T15:40:07Z</time>
      </trkpt>
      <trkpt lat="46.44351" lon="-1.4658">
        <ele>26</ele>
        <time>2019-03-26T15:40:10Z</time>
      </trkpt>
      <trkpt lat="46.4435" lon="-1.4658">
        <ele>26</ele>
        <time>2019-03-26T15:40:13Z</time>
      </trkpt>
      <trkpt lat="46.4435" lon="-1.4658">
        <ele>26</ele>
        <time>2019-03-26T15:40:15Z</time>
      </trkpt>
      <trkpt lat="46.4435" lon="-1.4658">
        <ele>26</ele>
        <time>2019-03-26T15:40:18Z</time>
      </trkpt>
      <trkpt lat="46.4435" lon="-1.46579">
        <ele>26</ele>
        <time>2019-03-26T15:40:20Z</time>
      </trkpt>
      <trkpt lat="46.4435" lon="-1.46579">
        <ele>26</ele>
        <time>2019-03-26T15:40:23Z</time>
      </trkpt>
      <trkpt lat="46.4435" lon="-1.4658">
        <ele>26</ele>
        <time>2019-03-26T15:40:25Z</time>
      </trkpt>
      <trkpt lat="46.44349" lon="-1.4658">
        <ele>26</ele>
        <time>2019-03-26T15:40:28Z</time>
      </trkpt>
      <trkpt lat="46.4435" lon="-1.4658">
        <ele>26</ele>
        <time>2019-03-26T15:40:31Z</time>
      </trkpt>
      <trkpt lat="46.4435" lon="-1.4658">
        <ele>26</ele>
        <time>2019-03-26T15:40:33Z</time>
      </trkpt>
      <trkpt lat="46.44349" lon="-1.46578">
        <ele>26</ele>
        <time>2019-03-26T15:40:36Z</time>
      </trkpt>
      <trkpt lat="46.44349" lon="-1.46578">
        <ele>26</ele>
        <time>2019-03-26T15:40:38Z</time>
      </trkpt>
      <trkpt lat="46.4435" lon="-1.46578">
        <ele>26</ele>
        <time>2019-03-26T15:40:41Z</time>
      </trkpt>
      <trkpt lat="46.4435" lon="-1.46578">
        <ele>26</ele>
        <time>2019-03-26T15:40:43Z</time>
      </trkpt>
      <trkpt lat="46.4435" lon="-1.46575">
        <ele>26</ele>
        <time>2019-03-26T15:40:46Z</time>
      </trkpt>
      <trkpt lat="46.4435" lon="-1.46572">
        <ele>26</ele>
        <time>2019-03-26T15:40:48Z</time>
      </trkpt>
      <trkpt lat="46.44349" lon="-1.46568">
        <ele>26</ele>
        <time>2019-03-26T15:40:51Z</time>
      </trkpt>
      <trkpt lat="46.44349" lon="-1.46565">
        <ele>26</ele>
        <time>2019-03-26T15:40:53Z</time>
      </trkpt>
      <trkpt lat="46.4435" lon="-1.4656">
        <ele>26</ele>
        <time>2019-03-26T15:40:56Z</time>
      </trkpt>
      <trkpt lat="46.4435" lon="-1.46557">
        <ele>26</ele>
        <time>2019-03-26T15:40:58Z</time>
      </trkpt>
      <trkpt lat="46.4435" lon="-1.46552">
        <ele>26</ele>
        <time>2019-03-26T15:41:01Z</time>
      </trkpt>
      <trkpt lat="46.4435" lon="-1.46549">
        <ele>26</ele>
        <time>2019-03-26T15:41:03Z</time>
      </trkpt>
      <trkpt lat="46.4435" lon="-1.46543">
        <ele>26</ele>
        <time>2019-03-26T15:41:06Z</time>
      </trkpt>
      <trkpt lat="46.44349" lon="-1.46539">
        <ele>26</ele>
        <time>2019-03-26T15:41:08Z</time>
      </trkpt>
      <trkpt lat="46.44349" lon="-1.46533">
        <ele>26</ele>
        <time>2019-03-26T15:41:11Z</time>
      </trkpt>
      <trkpt lat="46.44349" lon="-1.46529">
        <ele>26</ele>
        <time>2019-03-26T15:41:13Z</time>
      </trkpt>
      <trkpt lat="46.44349" lon="-1.46523">
        <ele>26</ele>
        <time>2019-03-26T15:41:16Z</time>
      </trkpt>
      <trkpt lat="46.44349" lon="-1.46519">
        <ele>26</ele>
        <time>2019-03-26T15:41:18Z</time>
      </trkpt>
      <trkpt lat="46.44349" lon="-1.46513">
        <ele>26</ele>
        <time>2019-03-26T15:41:21Z</time>
      </trkpt>
      <trkpt lat="46.44347" lon="-1.46508">
        <ele>26</ele>
        <time>2019-03-26T15:41:24Z</time>
      </trkpt>
      <trkpt lat="46.44347" lon="-1.46506">
        <ele>26</ele>
        <time>2019-03-26T15:41:26Z</time>
      </trkpt>
      <trkpt lat="46.44347" lon="-1.46505">
        <ele>26</ele>
        <time>2019-03-26T15:41:29Z</time>
      </trkpt>
      <trkpt lat="46.44346" lon="-1.46504">
        <ele>26</ele>
        <time>2019-03-26T15:41:31Z</time>
      </trkpt>
      <trkpt lat="46.44346" lon="-1.46503">
        <ele>26</ele>
        <time>2019-03-26T15:41:34Z</time>
      </trkpt>
      <trkpt lat="46.44346" lon="-1.46503">
        <ele>26</ele>
        <time>2019-03-26T15:41:36Z</time>
      </trkpt>
      <trkpt lat="46.44346" lon="-1.46502">
        <ele>26</ele>
        <time>2019-03-26T15:41:39Z</time>
      </trkpt>
      <trkpt lat="46.44345" lon="-1.46502">
        <ele>26</ele>
        <time>2019-03-26T15:41:41Z</time>
      </trkpt>
      <trkpt lat="46.44345" lon="-1.46502">
        <ele>26</ele>
        <time>2019-03-26T15:41:44Z</time>
      </trkpt>
      <trkpt lat="46.44345" lon="-1.46501">
        <ele>26</ele>
        <time>2019-03-26T15:41:46Z</time>
      </trkpt>
      <trkpt lat="46.44345" lon="-1.46501">
        <ele>26</ele>
        <time>2019-03-26T15:41:49Z</time>
      </trkpt>
      <trkpt lat="46.44345" lon="-1.46501">
        <ele>26</ele>
        <time>2019-03-26T15:41:51Z</time>
      </trkpt>
      <trkpt lat="46.44345" lon="-1.465">
        <ele>26</ele>
        <time>2019-03-26T15:41:54Z</time>
      </trkpt>
      <trkpt lat="46.44345" lon="-1.465">
        <ele>26</ele>
        <time>2019-03-26T15:41:56Z</time>
      </trkpt>
      <trkpt lat="46.44345" lon="-1.465">
        <ele>26</ele>
        <time>2019-03-26T15:41:59Z</time>
      </trkpt>
      <trkpt lat="46.44345" lon="-1.465">
        <ele>26</ele>
        <time>2019-03-26T15:42:01Z</time>
      </trkpt>
      <trkpt lat="46.44344" lon="-1.465">
        <ele>26</ele>
        <time>2019-03-26T15:42:04Z</time>
      </trkpt>
      <trkpt lat="46.44344" lon="-1.465">
        <ele>26</ele>
        <time>2019-03-26T15:42:06Z</time>
      </trkpt>
      <trkpt lat="46.44344" lon="-1.465">
        <ele>26</ele>
        <time>2019-03-26T15:42:09Z</time>
      </trkpt>
      <trkpt lat="46.44344" lon="-1.465">
        <ele>26</ele>
        <time>2019-03-26T15:42:11Z</time>
      </trkpt>
      <trkpt lat="46.44344" lon="-1.465">
        <ele>26</ele>
        <time>2019-03-26T15:42:14Z</time>
      </trkpt>
      <trkpt lat="46.44344" lon="-1.465">
        <ele>26</ele>
        <time>2019-03-26T15:42:16Z</time>
      </trkpt>
      <trkpt lat="46.44344" lon="-1.465">
        <ele>26</ele>
        <time>2019-03-26T15:42:19Z</time>
      </trkpt>
      <trkpt lat="46.44344" lon="-1.46499">
        <ele>26</ele>
        <time>2019-03-26T15:42:21Z</time>
      </trkpt>
      <trkpt lat="46.44343" lon="-1.46496">
        <ele>26</ele>
        <time>2019-03-26T15:42:24Z</time>
      </trkpt>
      <trkpt lat="46.44343" lon="-1.46494">
        <ele>26</ele>
        <time>2019-03-26T15:42:27Z</time>
      </trkpt>
      <trkpt lat="46.44343" lon="-1.46494">
        <ele>26</ele>
        <time>2019-03-26T15:42:29Z</time>
      </trkpt>
      <trkpt lat="46.44344" lon="-1.46493">
        <ele>26</ele>
        <time>2019-03-26T15:42:32Z</time>
      </trkpt>
      <trkpt lat="46.44344" lon="-1.46493">
        <ele>26</ele>
        <time>2019-03-26T15:42:34Z</time>
      </trkpt>
      <trkpt lat="46.44344" lon="-1.46492">
        <ele>26</ele>
        <time>2019-03-26T15:42:37Z</time>
      </trkpt>
      <trkpt lat="46.44343" lon="-1.46492">
        <ele>26</ele>
        <time>2019-03-26T15:42:40Z</time>
      </trkpt>
      <trkpt lat="46.44343" lon="-1.46492">
        <ele>26</ele>
        <time>2019-03-26T15:42:42Z</time>
      </trkpt>
      <trkpt lat="46.44344" lon="-1.46492">
        <ele>26</ele>
        <time>2019-03-26T15:42:45Z</time>
      </trkpt>
      <trkpt lat="46.44344" lon="-1.46493">
        <ele>26</ele>
        <time>2019-03-26T15:42:47Z</time>
      </trkpt>
      <trkpt lat="46.44345" lon="-1.46495">
        <ele>26</ele>
        <time>2019-03-26T15:42:50Z</time>
      </trkpt>
      <trkpt lat="46.44346" lon="-1.46497">
        <ele>26</ele>
        <time>2019-03-26T15:42:53Z</time>
      </trkpt>
      <trkpt lat="46.44347" lon="-1.46498">
        <ele>26</ele>
        <time>2019-03-26T15:42:55Z</time>
      </trkpt>
      <trkpt lat="46.44349" lon="-1.46502">
        <ele>26</ele>
        <time>2019-03-26T15:42:58Z</time>
      </trkpt>
      <trkpt lat="46.44349" lon="-1.46504">
        <ele>26</ele>
        <time>2019-03-26T15:43:00Z</time>
      </trkpt>
      <trkpt lat="46.4435" lon="-1.46504">
        <ele>26</ele>
        <time>2019-03-26T15:43:03Z</time>
      </trkpt>
      <trkpt lat="46.4435" lon="-1.46501">
        <ele>26</ele>
        <time>2019-03-26T15:43:06Z</time>
      </trkpt>
      <trkpt lat="46.44349" lon="-1.46501">
        <ele>26</ele>
        <time>2019-03-26T15:43:08Z</time>
      </trkpt>
      <trkpt lat="46.44349" lon="-1.46502">
        <ele>26</ele>
        <time>2019-03-26T15:43:11Z</time>
      </trkpt>
      <trkpt lat="46.44349" lon="-1.46503">
        <ele>26</ele>
        <time>2019-03-26T15:43:13Z</time>
      </trkpt>
      <trkpt lat="46.44349" lon="-1.46504">
        <ele>26</ele>
        <time>2019-03-26T15:43:16Z</time>
      </trkpt>
      <trkpt lat="46.44349" lon="-1.46504">
        <ele>26</ele>
        <time>2019-03-26T15:43:19Z</time>
      </trkpt>
      <trkpt lat="46.44349" lon="-1.46504">
        <ele>26</ele>
        <time>2019-03-26T15:43:21Z</time>
      </trkpt>
      <trkpt lat="46.44349" lon="-1.46505">
        <ele>26</ele>
        <time>2019-03-26T15:43:24Z</time>
      </trkpt>
      <trkpt lat="46.44349" lon="-1.46506">
        <ele>26</ele>
        <time>2019-03-26T15:43:26Z</time>
      </trkpt>
      <trkpt lat="46.44349" lon="-1.46507">
        <ele>26</ele>
        <time>2019-03-26T15:43:29Z</time>
      </trkpt>
      <trkpt lat="46.44349" lon="-1.46507">
        <ele>26</ele>
        <time>2019-03-26T15:43:32Z</time>
      </trkpt>
      <trkpt lat="46.4435" lon="-1.46508">
        <ele>26</ele>
        <time>2019-03-26T15:43:34Z</time>
      </trkpt>
      <trkpt lat="46.4435" lon="-1.46508">
        <ele>26</ele>
        <time>2019-03-26T15:43:37Z</time>
      </trkpt>
      <trkpt lat="46.4435" lon="-1.46508">
        <ele>26</ele>
        <time>2019-03-26T15:43:39Z</time>
      </trkpt>
      <trkpt lat="46.4435" lon="-1.46509">
        <ele>26</ele>
        <time>2019-03-26T15:43:42Z</time>
      </trkpt>
      <trkpt lat="46.4435" lon="-1.46509">
        <ele>26</ele>
        <time>2019-03-26T15:43:44Z</time>
      </trkpt>
      <trkpt lat="46.44348" lon="-1.4651">
        <ele>26</ele>
        <time>2019-03-26T15:43:47Z</time>
      </trkpt>
      <trkpt lat="46.44346" lon="-1.4651">
        <ele>26</ele>
        <time>2019-03-26T15:43:50Z</time>
      </trkpt>
      <trkpt lat="46.44345" lon="-1.46511">
        <ele>26</ele>
        <time>2019-03-26T15:43:52Z</time>
      </trkpt>
      <trkpt lat="46.44345" lon="-1.46514">
        <ele>26</ele>
        <time>2019-03-26T15:43:55Z</time>
      </trkpt>
      <trkpt lat="46.44345" lon="-1.46517">
        <ele>26</ele>
        <time>2019-03-26T15:43:57Z</time>
      </trkpt>
      <trkpt lat="46.44345" lon="-1.4652">
        <ele>26</ele>
        <time>2019-03-26T15:44:00Z</time>
      </trkpt>
      <trkpt lat="46.44344" lon="-1.46523">
        <ele>26</ele>
        <time>2019-03-26T15:44:02Z</time>
      </trkpt>
      <trkpt lat="46.44343" lon="-1.46528">
        <ele>26</ele>
        <time>2019-03-26T15:44:05Z</time>
      </trkpt>
      <trkpt lat="46.44342" lon="-1.46531">
        <ele>26</ele>
        <time>2019-03-26T15:44:07Z</time>
      </trkpt>
      <trkpt lat="46.44342" lon="-1.46536">
        <ele>26</ele>
        <time>2019-03-26T15:44:10Z</time>
      </trkpt>
      <trkpt lat="46.44343" lon="-1.46541">
        <ele>26</ele>
        <time>2019-03-26T15:44:13Z</time>
      </trkpt>
      <trkpt lat="46.44343" lon="-1.46544">
        <ele>26</ele>
        <time>2019-03-26T15:44:15Z</time>
      </trkpt>
      <trkpt lat="46.44343" lon="-1.46549">
        <ele>26</ele>
        <time>2019-03-26T15:44:18Z</time>
      </trkpt>
      <trkpt lat="46.44344" lon="-1.46552">
        <ele>26</ele>
        <time>2019-03-26T15:44:20Z</time>
      </trkpt>
      <trkpt lat="46.44344" lon="-1.46557">
        <ele>26</ele>
        <time>2019-03-26T15:44:23Z</time>
      </trkpt>
      <trkpt lat="46.44344" lon="-1.46561">
        <ele>26</ele>
        <time>2019-03-26T15:44:25Z</time>
      </trkpt>
      <trkpt lat="46.44344" lon="-1.46567">
        <ele>26</ele>
        <time>2019-03-26T15:44:28Z</time>
      </trkpt>
      <trkpt lat="46.44344" lon="-1.46572">
        <ele>26</ele>
        <time>2019-03-26T15:44:30Z</time>
      </trkpt>
      <trkpt lat="46.44344" lon="-1.46576">
        <ele>26</ele>
        <time>2019-03-26T15:44:33Z</time>
      </trkpt>
      <trkpt lat="46.44344" lon="-1.46582">
        <ele>26</ele>
        <time>2019-03-26T15:44:36Z</time>
      </trkpt>
      <trkpt lat="46.44345" lon="-1.46586">
        <ele>26</ele>
        <time>2019-03-26T15:44:38Z</time>
      </trkpt>
      <trkpt lat="46.44345" lon="-1.46592">
        <ele>26</ele>
        <time>2019-03-26T15:44:41Z</time>
      </trkpt>
      <trkpt lat="46.44347" lon="-1.46599">
        <ele>26</ele>
        <time>2019-03-26T15:44:43Z</time>
      </trkpt>
      <trkpt lat="46.44348" lon="-1.46603">
        <ele>26</ele>
        <time>2019-03-26T15:44:46Z</time>
      </trkpt>
      <trkpt lat="46.44349" lon="-1.46609">
        <ele>26</ele>
        <time>2019-03-26T15:44:49Z</time>
      </trkpt>
      <trkpt lat="46.44349" lon="-1.46613">
        <ele>26</ele>
        <time>2019-03-26T15:44:51Z</time>
      </trkpt>
      <trkpt lat="46.4435" lon="-1.46619">
        <ele>26</ele>
        <time>2019-03-26T15:44:54Z</time>
      </trkpt>
      <trkpt lat="46.44351" lon="-1.46623">
        <ele>26</ele>
        <time>2019-03-26T15:44:56Z</time>
      </trkpt>
      <trkpt lat="46.44351" lon="-1.46629">
        <ele>26</ele>
        <time>2019-03-26T15:44:59Z</time>
      </trkpt>
      <trkpt lat="46.44351" lon="-1.46635">
        <ele>25</ele>
        <time>2019-03-26T15:45:02Z</time>
      </trkpt>
      <trkpt lat="46.44352" lon="-1.46639">
        <ele>25</ele>
        <time>2019-03-26T15:45:04Z</time>
      </trkpt>
      <trkpt lat="46.44353" lon="-1.46646">
        <ele>25</ele>
        <time>2019-03-26T15:45:07Z</time>
      </trkpt>
      <trkpt lat="46.44353" lon="-1.4665">
        <ele>25</ele>
        <time>2019-03-26T15:45:09Z</time>
      </trkpt>
      <trkpt lat="46.44354" lon="-1.46656">
        <ele>25</ele>
        <time>2019-03-26T15:45:12Z</time>
      </trkpt>
      <trkpt lat="46.44355" lon="-1.4666">
        <ele>25</ele>
        <time>2019-03-26T15:45:14Z</time>
      </trkpt>
      <trkpt lat="46.44357" lon="-1.46666">
        <ele>25</ele>
        <time>2019-03-26T15:45:17Z</time>
      </trkpt>
      <trkpt lat="46.44358" lon="-1.46672">
        <ele>25</ele>
        <time>2019-03-26T15:45:20Z</time>
      </trkpt>
      <trkpt lat="46.4436" lon="-1.46676">
        <ele>25</ele>
        <time>2019-03-26T15:45:22Z</time>
      </trkpt>
      <trkpt lat="46.44361" lon="-1.46682">
        <ele>25</ele>
        <time>2019-03-26T15:45:25Z</time>
      </trkpt>
      <trkpt lat="46.44362" lon="-1.46686">
        <ele>25</ele>
        <time>2019-03-26T15:45:27Z</time>
      </trkpt>
      <trkpt lat="46.44364" lon="-1.46692">
        <ele>25</ele>
        <time>2019-03-26T15:45:30Z</time>
      </trkpt>
      <trkpt lat="46.44365" lon="-1.46697">
        <ele>25</ele>
        <time>2019-03-26T15:45:32Z</time>
      </trkpt>
      <trkpt lat="46.44367" lon="-1.46703">
        <ele>25</ele>
        <time>2019-03-26T15:45:35Z</time>
      </trkpt>
      <trkpt lat="46.44369" lon="-1.46709">
        <ele>25</ele>
        <time>2019-03-26T15:45:38Z</time>
      </trkpt>
      <trkpt lat="46.44369" lon="-1.46713">
        <ele>24</ele>
        <time>2019-03-26T15:45:40Z</time>
      </trkpt>
      <trkpt lat="46.4437" lon="-1.46719">
        <ele>24</ele>
        <time>2019-03-26T15:45:43Z</time>
      </trkpt>
      <trkpt lat="46.44372" lon="-1.46724">
        <ele>24</ele>
        <time>2019-03-26T15:45:45Z</time>
      </trkpt>
      <trkpt lat="46.44373" lon="-1.46728">
        <ele>24</ele>
        <time>2019-03-26T15:45:48Z</time>
      </trkpt>
      <trkpt lat="46.44375" lon="-1.46734">
        <ele>24</ele>
        <time>2019-03-26T15:45:51Z</time>
      </trkpt>
      <trkpt lat="46.44376" lon="-1.46738">
        <ele>24</ele>
        <time>2019-03-26T15:45:53Z</time>
      </trkpt>
      <trkpt lat="46.44379" lon="-1.46743">
        <ele>24</ele>
        <time>2019-03-26T15:45:56Z</time>
      </trkpt>
      <trkpt lat="46.44382" lon="-1.46747">
        <ele>24</ele>
        <time>2019-03-26T15:45:59Z</time>
      </trkpt>
      <trkpt lat="46.44384" lon="-1.46749">
        <ele>24</ele>
        <time>2019-03-26T15:46:01Z</time>
      </trkpt>
      <trkpt lat="46.44387" lon="-1.46751">
        <ele>24</ele>
        <time>2019-03-26T15:46:04Z</time>
      </trkpt>
      <trkpt lat="46.44391" lon="-1.46754">
        <ele>24</ele>
        <time>2019-03-26T15:46:07Z</time>
      </trkpt>
      <trkpt lat="46.44394" lon="-1.46755">
        <ele>24</ele>
        <time>2019-03-26T15:46:09Z</time>
      </trkpt>
      <trkpt lat="46.44398" lon="-1.46758">
        <ele>24</ele>
        <time>2019-03-26T15:46:12Z</time>
      </trkpt>
      <trkpt lat="46.44402" lon="-1.4676">
        <ele>23</ele>
        <time>2019-03-26T15:46:14Z</time>
      </trkpt>
      <trkpt lat="46.44405" lon="-1.46762">
        <ele>23</ele>
        <time>2019-03-26T15:46:17Z</time>
      </trkpt>
      <trkpt lat="46.44408" lon="-1.46764">
        <ele>23</ele>
        <time>2019-03-26T15:46:20Z</time>
      </trkpt>
      <trkpt lat="46.44411" lon="-1.46766">
        <ele>23</ele>
        <time>2019-03-26T15:46:22Z</time>
      </trkpt>
      <trkpt lat="46.44414" lon="-1.46768">
        <ele>23</ele>
        <time>2019-03-26T15:46:25Z</time>
      </trkpt>
      <trkpt lat="46.44418" lon="-1.46771">
        <ele>23</ele>
        <time>2019-03-26T15:46:27Z</time>
      </trkpt>
      <trkpt lat="46.44421" lon="-1.46773">
        <ele>22</ele>
        <time>2019-03-26T15:46:30Z</time>
      </trkpt>
      <trkpt lat="46.44425" lon="-1.46775">
        <ele>22</ele>
        <time>2019-03-26T15:46:33Z</time>
      </trkpt>
      <trkpt lat="46.44428" lon="-1.46777">
        <ele>22</ele>
        <time>2019-03-26T15:46:35Z</time>
      </trkpt>
      <trkpt lat="46.44432" lon="-1.46779">
        <ele>22</ele>
        <time>2019-03-26T15:46:38Z</time>
      </trkpt>
      <trkpt lat="46.44437" lon="-1.46781">
        <ele>21</ele>
        <time>2019-03-26T15:46:40Z</time>
      </trkpt>
      <trkpt lat="46.4444" lon="-1.46782">
        <ele>21</ele>
        <time>2019-03-26T15:46:43Z</time>
      </trkpt>
      <trkpt lat="46.44444" lon="-1.46784">
        <ele>21</ele>
        <time>2019-03-26T15:46:46Z</time>
      </trkpt>
      <trkpt lat="46.44447" lon="-1.46785">
        <ele>21</ele>
        <time>2019-03-26T15:46:48Z</time>
      </trkpt>
      <trkpt lat="46.44451" lon="-1.46787">
        <ele>20</ele>
        <time>2019-03-26T15:46:51Z</time>
      </trkpt>
      <trkpt lat="46.44454" lon="-1.46787">
        <ele>20</ele>
        <time>2019-03-26T15:46:53Z</time>
      </trkpt>
      <trkpt lat="46.44458" lon="-1.46788">
        <ele>20</ele>
        <time>2019-03-26T15:46:56Z</time>
      </trkpt>
      <trkpt lat="46.4446" lon="-1.46788">
        <ele>20</ele>
        <time>2019-03-26T15:46:58Z</time>
      </trkpt>
      <trkpt lat="46.44463" lon="-1.46789">
        <ele>20</ele>
        <time>2019-03-26T15:47:01Z</time>
      </trkpt>
      <trkpt lat="46.44466" lon="-1.4679">
        <ele>19</ele>
        <time>2019-03-26T15:47:04Z</time>
      </trkpt>
      <trkpt lat="46.44469" lon="-1.46791">
        <ele>19</ele>
        <time>2019-03-26T15:47:06Z</time>
      </trkpt>
      <trkpt lat="46.44472" lon="-1.46793">
        <ele>19</ele>
        <time>2019-03-26T15:47:09Z</time>
      </trkpt>
      <trkpt lat="46.44476" lon="-1.46794">
        <ele>19</ele>
        <time>2019-03-26T15:47:11Z</time>
      </trkpt>
      <trkpt lat="46.44479" lon="-1.46793">
        <ele>18</ele>
        <time>2019-03-26T15:47:14Z</time>
      </trkpt>
      <trkpt lat="46.44484" lon="-1.46795">
        <ele>18</ele>
        <time>2019-03-26T15:47:17Z</time>
      </trkpt>
      <trkpt lat="46.44487" lon="-1.46795">
        <ele>18</ele>
        <time>2019-03-26T15:47:19Z</time>
      </trkpt>
      <trkpt lat="46.44489" lon="-1.46795">
        <ele>18</ele>
        <time>2019-03-26T15:47:22Z</time>
      </trkpt>
      <trkpt lat="46.44494" lon="-1.46796">
        <ele>18</ele>
        <time>2019-03-26T15:47:25Z</time>
      </trkpt>
      <trkpt lat="46.44496" lon="-1.46796">
        <ele>17</ele>
        <time>2019-03-26T15:47:27Z</time>
      </trkpt>
      <trkpt lat="46.44501" lon="-1.46797">
        <ele>17</ele>
        <time>2019-03-26T15:47:30Z</time>
      </trkpt>
      <trkpt lat="46.44504" lon="-1.46799">
        <ele>17</ele>
        <time>2019-03-26T15:47:33Z</time>
      </trkpt>
      <trkpt lat="46.44507" lon="-1.468">
        <ele>17</ele>
        <time>2019-03-26T15:47:35Z</time>
      </trkpt>
      <trkpt lat="46.44513" lon="-1.46801">
        <ele>17</ele>
        <time>2019-03-26T15:47:38Z</time>
      </trkpt>
      <trkpt lat="46.44517" lon="-1.46802">
        <ele>16</ele>
        <time>2019-03-26T15:47:40Z</time>
      </trkpt>
      <trkpt lat="46.44521" lon="-1.46803">
        <ele>16</ele>
        <time>2019-03-26T15:47:43Z</time>
      </trkpt>
      <trkpt lat="46.44526" lon="-1.46805">
        <ele>16</ele>
        <time>2019-03-26T15:47:46Z</time>
      </trkpt>
      <trkpt lat="46.4453" lon="-1.46806">
        <ele>16</ele>
        <time>2019-03-26T15:47:49Z</time>
      </trkpt>
      <trkpt lat="46.44534" lon="-1.46806">
        <ele>15</ele>
        <time>2019-03-26T15:47:51Z</time>
      </trkpt>
      <trkpt lat="46.44538" lon="-1.46808">
        <ele>15</ele>
        <time>2019-03-26T15:47:54Z</time>
      </trkpt>
      <trkpt lat="46.44543" lon="-1.46809">
        <ele>14</ele>
        <time>2019-03-26T15:47:56Z</time>
      </trkpt>
      <trkpt lat="46.44546" lon="-1.46809">
        <ele>14</ele>
        <time>2019-03-26T15:47:59Z</time>
      </trkpt>
      <trkpt lat="46.4455" lon="-1.4681">
        <ele>14</ele>
        <time>2019-03-26T15:48:02Z</time>
      </trkpt>
      <trkpt lat="46.44553" lon="-1.4681">
        <ele>14</ele>
        <time>2019-03-26T15:48:04Z</time>
      </trkpt>
      <trkpt lat="46.44557" lon="-1.46809">
        <ele>14</ele>
        <time>2019-03-26T15:48:07Z</time>
      </trkpt>
      <trkpt lat="46.44564" lon="-1.46809">
        <ele>13</ele>
        <time>2019-03-26T15:48:09Z</time>
      </trkpt>
      <trkpt lat="46.44567" lon="-1.46808">
        <ele>13</ele>
        <time>2019-03-26T15:48:12Z</time>
      </trkpt>
      <trkpt lat="46.44572" lon="-1.46806">
        <ele>13</ele>
        <time>2019-03-26T15:48:15Z</time>
      </trkpt>
      <trkpt lat="46.44576" lon="-1.46806">
        <ele>13</ele>
        <time>2019-03-26T15:48:17Z</time>
      </trkpt>
      <trkpt lat="46.44581" lon="-1.46806">
        <ele>13</ele>
        <time>2019-03-26T15:48:20Z</time>
      </trkpt>
      <trkpt lat="46.44585" lon="-1.46805">
        <ele>13</ele>
        <time>2019-03-26T15:48:22Z</time>
      </trkpt>
      <trkpt lat="46.44588" lon="-1.46805">
        <ele>13</ele>
        <time>2019-03-26T15:48:25Z</time>
      </trkpt>
      <trkpt lat="46.44593" lon="-1.46804">
        <ele>13</ele>
        <time>2019-03-26T15:48:28Z</time>
      </trkpt>
      <trkpt lat="46.44596" lon="-1.46803">
        <ele>13</ele>
        <time>2019-03-26T15:48:30Z</time>
      </trkpt>
      <trkpt lat="46.44601" lon="-1.46801">
        <ele>13</ele>
        <time>2019-03-26T15:48:33Z</time>
      </trkpt>
      <trkpt lat="46.44606" lon="-1.46801">
        <ele>12</ele>
        <time>2019-03-26T15:48:35Z</time>
      </trkpt>
      <trkpt lat="46.44609" lon="-1.468">
        <ele>12</ele>
        <time>2019-03-26T15:48:38Z</time>
      </trkpt>
      <trkpt lat="46.44613" lon="-1.46799">
        <ele>12</ele>
        <time>2019-03-26T15:48:41Z</time>
      </trkpt>
      <trkpt lat="46.44616" lon="-1.46797">
        <ele>12</ele>
        <time>2019-03-26T15:48:43Z</time>
      </trkpt>
      <trkpt lat="46.4462" lon="-1.46795">
        <ele>12</ele>
        <time>2019-03-26T15:48:46Z</time>
      </trkpt>
      <trkpt lat="46.44626" lon="-1.46794">
        <ele>12</ele>
        <time>2019-03-26T15:48:48Z</time>
      </trkpt>
      <trkpt lat="46.44629" lon="-1.46793">
        <ele>12</ele>
        <time>2019-03-26T15:48:51Z</time>
      </trkpt>
      <trkpt lat="46.44634" lon="-1.46792">
        <ele>12</ele>
        <time>2019-03-26T15:48:54Z</time>
      </trkpt>
      <trkpt lat="46.44637" lon="-1.46791">
        <ele>12</ele>
        <time>2019-03-26T15:48:56Z</time>
      </trkpt>
      <trkpt lat="46.44641" lon="-1.46791">
        <ele>12</ele>
        <time>2019-03-26T15:48:59Z</time>
      </trkpt>
      <trkpt lat="46.44646" lon="-1.46789">
        <ele>13</ele>
        <time>2019-03-26T15:49:02Z</time>
      </trkpt>
      <trkpt lat="46.44649" lon="-1.46788">
        <ele>13</ele>
        <time>2019-03-26T15:49:04Z</time>
      </trkpt>
      <trkpt lat="46.44654" lon="-1.46786">
        <ele>13</ele>
        <time>2019-03-26T15:49:07Z</time>
      </trkpt>
      <trkpt lat="46.44659" lon="-1.46785">
        <ele>13</ele>
        <time>2019-03-26T15:49:09Z</time>
      </trkpt>
      <trkpt lat="46.44662" lon="-1.46784">
        <ele>13</ele>
        <time>2019-03-26T15:49:12Z</time>
      </trkpt>
      <trkpt lat="46.44666" lon="-1.46783">
        <ele>13</ele>
        <time>2019-03-26T15:49:15Z</time>
      </trkpt>
      <trkpt lat="46.44669" lon="-1.46782">
        <ele>13</ele>
        <time>2019-03-26T15:49:17Z</time>
      </trkpt>
      <trkpt lat="46.44673" lon="-1.46781">
        <ele>13</ele>
        <time>2019-03-26T15:49:20Z</time>
      </trkpt>
      <trkpt lat="46.44677" lon="-1.46779">
        <ele>13</ele>
        <time>2019-03-26T15:49:23Z</time>
      </trkpt>
      <trkpt lat="46.44679" lon="-1.46778">
        <ele>13</ele>
        <time>2019-03-26T15:49:25Z</time>
      </trkpt>
      <trkpt lat="46.44683" lon="-1.46777">
        <ele>13</ele>
        <time>2019-03-26T15:49:28Z</time>
      </trkpt>
      <trkpt lat="46.44686" lon="-1.46777">
        <ele>13</ele>
        <time>2019-03-26T15:49:30Z</time>
      </trkpt>
      <trkpt lat="46.4469" lon="-1.46775">
        <ele>13</ele>
        <time>2019-03-26T15:49:33Z</time>
      </trkpt>
      <trkpt lat="46.44695" lon="-1.46775">
        <ele>13</ele>
        <time>2019-03-26T15:49:35Z</time>
      </trkpt>
      <trkpt lat="46.44698" lon="-1.46775">
        <ele>13</ele>
        <time>2019-03-26T15:49:38Z</time>
      </trkpt>
      <trkpt lat="46.44703" lon="-1.46775">
        <ele>13</ele>
        <time>2019-03-26T15:49:41Z</time>
      </trkpt>
      <trkpt lat="46.44705" lon="-1.46775">
        <ele>13</ele>
        <time>2019-03-26T15:49:43Z</time>
      </trkpt>
      <trkpt lat="46.4471" lon="-1.46775">
        <ele>13</ele>
        <time>2019-03-26T15:49:46Z</time>
      </trkpt>
      <trkpt lat="46.44713" lon="-1.46775">
        <ele>13</ele>
        <time>2019-03-26T15:49:48Z</time>
      </trkpt>
      <trkpt lat="46.44717" lon="-1.46774">
        <ele>14</ele>
        <time>2019-03-26T15:49:51Z</time>
      </trkpt>
      <trkpt lat="46.44722" lon="-1.46774">
        <ele>14</ele>
        <time>2019-03-26T15:49:54Z</time>
      </trkpt>
      <trkpt lat="46.44724" lon="-1.46774">
        <ele>14</ele>
        <time>2019-03-26T15:49:56Z</time>
      </trkpt>
      <trkpt lat="46.44728" lon="-1.46773">
        <ele>14</ele>
        <time>2019-03-26T15:49:59Z</time>
      </trkpt>
      <trkpt lat="46.44732" lon="-1.46773">
        <ele>14</ele>
        <time>2019-03-26T15:50:01Z</time>
      </trkpt>
      <trkpt lat="46.44734" lon="-1.46773">
        <ele>14</ele>
        <time>2019-03-26T15:50:04Z</time>
      </trkpt>
      <trkpt lat="46.44738" lon="-1.46773">
        <ele>14</ele>
        <time>2019-03-26T15:50:07Z</time>
      </trkpt>
      <trkpt lat="46.4474" lon="-1.46773">
        <ele>14</ele>
        <time>2019-03-26T15:50:09Z</time>
      </trkpt>
      <trkpt lat="46.44744" lon="-1.46773">
        <ele>14</ele>
        <time>2019-03-26T15:50:12Z</time>
      </trkpt>
      <trkpt lat="46.44748" lon="-1.46773">
        <ele>14</ele>
        <time>2019-03-26T15:50:15Z</time>
      </trkpt>
      <trkpt lat="46.44751" lon="-1.46773">
        <ele>14</ele>
        <time>2019-03-26T15:50:17Z</time>
      </trkpt>
      <trkpt lat="46.44755" lon="-1.46773">
        <ele>14</ele>
        <time>2019-03-26T15:50:20Z</time>
      </trkpt>
      <trkpt lat="46.44758" lon="-1.46772">
        <ele>14</ele>
        <time>2019-03-26T15:50:22Z</time>
      </trkpt>
      <trkpt lat="46.44763" lon="-1.46772">
        <ele>14</ele>
        <time>2019-03-26T15:50:25Z</time>
      </trkpt>
      <trkpt lat="46.44767" lon="-1.46772">
        <ele>14</ele>
        <time>2019-03-26T15:50:28Z</time>
      </trkpt>
      <trkpt lat="46.4477" lon="-1.46771">
        <ele>15</ele>
        <time>2019-03-26T15:50:30Z</time>
      </trkpt>
      <trkpt lat="46.44775" lon="-1.46771">
        <ele>15</ele>
        <time>2019-03-26T15:50:33Z</time>
      </trkpt>
      <trkpt lat="46.44779" lon="-1.46771">
        <ele>15</ele>
        <time>2019-03-26T15:50:35Z</time>
      </trkpt>
      <trkpt lat="46.44782" lon="-1.46772">
        <ele>15</ele>
        <time>2019-03-26T15:50:38Z</time>
      </trkpt>
      <trkpt lat="46.44786" lon="-1.46774">
        <ele>15</ele>
        <time>2019-03-26T15:50:41Z</time>
      </trkpt>
      <trkpt lat="46.44789" lon="-1.46775">
        <ele>15</ele>
        <time>2019-03-26T15:50:43Z</time>
      </trkpt>
      <trkpt lat="46.44793" lon="-1.46777">
        <ele>15</ele>
        <time>2019-03-26T15:50:46Z</time>
      </trkpt>
      <trkpt lat="46.44796" lon="-1.46779">
        <ele>15</ele>
        <time>2019-03-26T15:50:48Z</time>
      </trkpt>
      <trkpt lat="46.44798" lon="-1.46782">
        <ele>15</ele>
        <time>2019-03-26T15:50:51Z</time>
      </trkpt>
      <trkpt lat="46.44799" lon="-1.46786">
        <ele>15</ele>
        <time>2019-03-26T15:50:54Z</time>
      </trkpt>
      <trkpt lat="46.448" lon="-1.46789">
        <ele>15</ele>
        <time>2019-03-26T15:50:56Z</time>
      </trkpt>
      <trkpt lat="46.44801" lon="-1.46792">
        <ele>15</ele>
        <time>2019-03-26T15:50:59Z</time>
      </trkpt>
      <trkpt lat="46.44802" lon="-1.46795">
        <ele>15</ele>
        <time>2019-03-26T15:51:01Z</time>
      </trkpt>
      <trkpt lat="46.44804" lon="-1.46798">
        <ele>15</ele>
        <time>2019-03-26T15:51:04Z</time>
      </trkpt>
      <trkpt lat="46.44805" lon="-1.46802">
        <ele>15</ele>
        <time>2019-03-26T15:51:06Z</time>
      </trkpt>
      <trkpt lat="46.44806" lon="-1.46805">
        <ele>15</ele>
        <time>2019-03-26T15:51:09Z</time>
      </trkpt>
      <trkpt lat="46.44807" lon="-1.46809">
        <ele>15</ele>
        <time>2019-03-26T15:51:12Z</time>
      </trkpt>
      <trkpt lat="46.44807" lon="-1.46812">
        <ele>15</ele>
        <time>2019-03-26T15:51:14Z</time>
      </trkpt>
      <trkpt lat="46.44808" lon="-1.46816">
        <ele>15</ele>
        <time>2019-03-26T15:51:17Z</time>
      </trkpt>
      <trkpt lat="46.44808" lon="-1.46819">
        <ele>15</ele>
        <time>2019-03-26T15:51:19Z</time>
      </trkpt>
      <trkpt lat="46.4481" lon="-1.46825">
        <ele>15</ele>
        <time>2019-03-26T15:51:22Z</time>
      </trkpt>
      <trkpt lat="46.44811" lon="-1.4683">
        <ele>15</ele>
        <time>2019-03-26T15:51:25Z</time>
      </trkpt>
      <trkpt lat="46.44812" lon="-1.46833">
        <ele>15</ele>
        <time>2019-03-26T15:51:27Z</time>
      </trkpt>
      <trkpt lat="46.44813" lon="-1.46839">
        <ele>15</ele>
        <time>2019-03-26T15:51:30Z</time>
      </trkpt>
      <trkpt lat="46.44813" lon="-1.46842">
        <ele>15</ele>
        <time>2019-03-26T15:51:32Z</time>
      </trkpt>
      <trkpt lat="46.44813" lon="-1.46846">
        <ele>15</ele>
        <time>2019-03-26T15:51:35Z</time>
      </trkpt>
      <trkpt lat="46.44812" lon="-1.46849">
        <ele>15</ele>
        <time>2019-03-26T15:51:37Z</time>
      </trkpt>
      <trkpt lat="46.44813" lon="-1.46855">
        <ele>15</ele>
        <time>2019-03-26T15:51:40Z</time>
      </trkpt>
      <trkpt lat="46.44814" lon="-1.46861">
        <ele>14</ele>
        <time>2019-03-26T15:51:43Z</time>
      </trkpt>
      <trkpt lat="46.44814" lon="-1.46865">
        <ele>14</ele>
        <time>2019-03-26T15:51:45Z</time>
      </trkpt>
      <trkpt lat="46.44815" lon="-1.4687">
        <ele>14</ele>
        <time>2019-03-26T15:51:48Z</time>
      </trkpt>
      <trkpt lat="46.44816" lon="-1.46874">
        <ele>14</ele>
        <time>2019-03-26T15:51:50Z</time>
      </trkpt>
      <trkpt lat="46.44817" lon="-1.46879">
        <ele>14</ele>
        <time>2019-03-26T15:51:53Z</time>
      </trkpt>
      <trkpt lat="46.44817" lon="-1.4688">
        <ele>14</ele>
        <time>2019-03-26T15:51:55Z</time>
      </trkpt>
      <trkpt lat="46.44818" lon="-1.46883">
        <ele>14</ele>
        <time>2019-03-26T15:51:58Z</time>
      </trkpt>
      <trkpt lat="46.44818" lon="-1.46887">
        <ele>14</ele>
        <time>2019-03-26T15:52:00Z</time>
      </trkpt>
      <trkpt lat="46.44819" lon="-1.46888">
        <ele>14</ele>
        <time>2019-03-26T15:52:03Z</time>
      </trkpt>
      <trkpt lat="46.4482" lon="-1.4689">
        <ele>14</ele>
        <time>2019-03-26T15:52:06Z</time>
      </trkpt>
      <trkpt lat="46.44821" lon="-1.46891">
        <ele>14</ele>
        <time>2019-03-26T15:52:08Z</time>
      </trkpt>
      <trkpt lat="46.44822" lon="-1.46892">
        <ele>14</ele>
        <time>2019-03-26T15:52:11Z</time>
      </trkpt>
      <trkpt lat="46.44824" lon="-1.46893">
        <ele>14</ele>
        <time>2019-03-26T15:52:13Z</time>
      </trkpt>
      <trkpt lat="46.44826" lon="-1.46895">
        <ele>14</ele>
        <time>2019-03-26T15:52:16Z</time>
      </trkpt>
      <trkpt lat="46.44828" lon="-1.46897">
        <ele>14</ele>
        <time>2019-03-26T15:52:18Z</time>
      </trkpt>
      <trkpt lat="46.4483" lon="-1.469">
        <ele>14</ele>
        <time>2019-03-26T15:52:21Z</time>
      </trkpt>
      <trkpt lat="46.4483" lon="-1.46903">
        <ele>14</ele>
        <time>2019-03-26T15:52:24Z</time>
      </trkpt>
      <trkpt lat="46.4483" lon="-1.46904">
        <ele>14</ele>
        <time>2019-03-26T15:52:26Z</time>
      </trkpt>
      <trkpt lat="46.44829" lon="-1.46907">
        <ele>14</ele>
        <time>2019-03-26T15:52:29Z</time>
      </trkpt>
      <trkpt lat="46.44827" lon="-1.46907">
        <ele>14</ele>
        <time>2019-03-26T15:52:31Z</time>
      </trkpt>
      <trkpt lat="46.44825" lon="-1.46907">
        <ele>14</ele>
        <time>2019-03-26T15:52:34Z</time>
      </trkpt>
      <trkpt lat="46.44825" lon="-1.46907">
        <ele>14</ele>
        <time>2019-03-26T15:52:36Z</time>
      </trkpt>
      <trkpt lat="46.44823" lon="-1.46904">
        <ele>14</ele>
        <time>2019-03-26T15:52:39Z</time>
      </trkpt>
      <trkpt lat="46.44822" lon="-1.46902">
        <ele>14</ele>
        <time>2019-03-26T15:52:41Z</time>
      </trkpt>
      <trkpt lat="46.44822" lon="-1.46899">
        <ele>14</ele>
        <time>2019-03-26T15:52:44Z</time>
      </trkpt>
      <trkpt lat="46.44821" lon="-1.46896">
        <ele>14</ele>
        <time>2019-03-26T15:52:47Z</time>
      </trkpt>
      <trkpt lat="46.44821" lon="-1.46894">
        <ele>14</ele>
        <time>2019-03-26T15:52:49Z</time>
      </trkpt>
      <trkpt lat="46.44821" lon="-1.46894">
        <ele>14</ele>
        <time>2019-03-26T15:52:52Z</time>
      </trkpt>
      <trkpt lat="46.44822" lon="-1.46893">
        <ele>14</ele>
        <time>2019-03-26T15:52:54Z</time>
      </trkpt>
      <trkpt lat="46.44823" lon="-1.46891">
        <ele>14</ele>
        <time>2019-03-26T15:52:57Z</time>
      </trkpt>
      <trkpt lat="46.44824" lon="-1.4689">
        <ele>14</ele>
        <time>2019-03-26T15:53:00Z</time>
      </trkpt>
      <trkpt lat="46.44823" lon="-1.4689">
        <ele>14</ele>
        <time>2019-03-26T15:53:02Z</time>
      </trkpt>
      <trkpt lat="46.44824" lon="-1.46889">
        <ele>14</ele>
        <time>2019-03-26T15:53:05Z</time>
      </trkpt>
      <trkpt lat="46.44823" lon="-1.46888">
        <ele>14</ele>
        <time>2019-03-26T15:53:07Z</time>
      </trkpt>
      <trkpt lat="46.44823" lon="-1.46887">
        <ele>14</ele>
        <time>2019-03-26T15:53:10Z</time>
      </trkpt>
      <trkpt lat="46.44823" lon="-1.46887">
        <ele>14</ele>
        <time>2019-03-26T15:53:12Z</time>
      </trkpt>
      <trkpt lat="46.44823" lon="-1.46887">
        <ele>14</ele>
        <time>2019-03-26T15:53:15Z</time>
      </trkpt>
      <trkpt lat="46.44823" lon="-1.46887">
        <ele>14</ele>
        <time>2019-03-26T15:53:17Z</time>
      </trkpt>
      <trkpt lat="46.44823" lon="-1.46888">
        <ele>14</ele>
        <time>2019-03-26T15:53:20Z</time>
      </trkpt>
      <trkpt lat="46.44823" lon="-1.46887">
        <ele>14</ele>
        <time>2019-03-26T15:53:23Z</time>
      </trkpt>
      <trkpt lat="46.44823" lon="-1.46887">
        <ele>14</ele>
        <time>2019-03-26T15:53:25Z</time>
      </trkpt>
      <trkpt lat="46.44823" lon="-1.46887">
        <ele>14</ele>
        <time>2019-03-26T15:53:28Z</time>
      </trkpt>
      <trkpt lat="46.44823" lon="-1.46887">
        <ele>14</ele>
        <time>2019-03-26T15:53:30Z</time>
      </trkpt>
      <trkpt lat="46.44823" lon="-1.46887">
        <ele>14</ele>
        <time>2019-03-26T15:53:33Z</time>
      </trkpt>
      <trkpt lat="46.44823" lon="-1.46887">
        <ele>14</ele>
        <time>2019-03-26T15:53:36Z</time>
      </trkpt>
      <trkpt lat="46.44822" lon="-1.46887">
        <ele>14</ele>
        <time>2019-03-26T15:53:38Z</time>
      </trkpt>
      <trkpt lat="46.44823" lon="-1.46888">
        <ele>14</ele>
        <time>2019-03-26T15:53:41Z</time>
      </trkpt>
      <trkpt lat="46.44823" lon="-1.46888">
        <ele>14</ele>
        <time>2019-03-26T15:53:43Z</time>
      </trkpt>
      <trkpt lat="46.44823" lon="-1.46889">
        <ele>14</ele>
        <time>2019-03-26T15:53:46Z</time>
      </trkpt>
      <trkpt lat="46.44823" lon="-1.4689">
        <ele>14</ele>
        <time>2019-03-26T15:53:48Z</time>
      </trkpt>
      <trkpt lat="46.44824" lon="-1.4689">
        <ele>14</ele>
        <time>2019-03-26T15:53:51Z</time>
      </trkpt>
      <trkpt lat="46.44824" lon="-1.4689">
        <ele>14</ele>
        <time>2019-03-26T15:53:54Z</time>
      </trkpt>
      <trkpt lat="46.44823" lon="-1.4689">
        <ele>14</ele>
        <time>2019-03-26T15:53:56Z</time>
      </trkpt>
      <trkpt lat="46.44823" lon="-1.4689">
        <ele>14</ele>
        <time>2019-03-26T15:53:59Z</time>
      </trkpt>
      <trkpt lat="46.44823" lon="-1.46891">
        <ele>14</ele>
        <time>2019-03-26T15:54:01Z</time>
      </trkpt>
      <trkpt lat="46.44824" lon="-1.46892">
        <ele>14</ele>
        <time>2019-03-26T15:54:04Z</time>
      </trkpt>
      <trkpt lat="46.44824" lon="-1.46891">
        <ele>14</ele>
        <time>2019-03-26T15:54:06Z</time>
      </trkpt>
      <trkpt lat="46.44824" lon="-1.46892">
        <ele>14</ele>
        <time>2019-03-26T15:54:09Z</time>
      </trkpt>
      <trkpt lat="46.44824" lon="-1.46892">
        <ele>14</ele>
        <time>2019-03-26T15:54:11Z</time>
      </trkpt>
      <trkpt lat="46.44824" lon="-1.46892">
        <ele>14</ele>
        <time>2019-03-26T15:54:14Z</time>
      </trkpt>
      <trkpt lat="46.44824" lon="-1.46892">
        <ele>14</ele>
        <time>2019-03-26T15:54:16Z</time>
      </trkpt>
      <trkpt lat="46.44824" lon="-1.46893">
        <ele>14</ele>
        <time>2019-03-26T15:54:19Z</time>
      </trkpt>
      <trkpt lat="46.44824" lon="-1.46893">
        <ele>14</ele>
        <time>2019-03-26T15:54:22Z</time>
      </trkpt>
      <trkpt lat="46.44824" lon="-1.46893">
        <ele>14</ele>
        <time>2019-03-26T15:54:24Z</time>
      </trkpt>
      <trkpt lat="46.44825" lon="-1.46894">
        <ele>14</ele>
        <time>2019-03-26T15:54:27Z</time>
      </trkpt>
      <trkpt lat="46.44826" lon="-1.46894">
        <ele>14</ele>
        <time>2019-03-26T15:54:29Z</time>
      </trkpt>
      <trkpt lat="46.44827" lon="-1.46895">
        <ele>14</ele>
        <time>2019-03-26T15:54:32Z</time>
      </trkpt>
      <trkpt lat="46.44827" lon="-1.46895">
        <ele>14</ele>
        <time>2019-03-26T15:54:34Z</time>
      </trkpt>
      <trkpt lat="46.44827" lon="-1.46894">
        <ele>14</ele>
        <time>2019-03-26T15:54:37Z</time>
      </trkpt>
      <trkpt lat="46.44827" lon="-1.46894">
        <ele>14</ele>
        <time>2019-03-26T15:54:39Z</time>
      </trkpt>
      <trkpt lat="46.44827" lon="-1.46894">
        <ele>14</ele>
        <time>2019-03-26T15:54:42Z</time>
      </trkpt>
      <trkpt lat="46.44828" lon="-1.46894">
        <ele>14</ele>
        <time>2019-03-26T15:54:45Z</time>
      </trkpt>
      <trkpt lat="46.44828" lon="-1.46894">
        <ele>14</ele>
        <time>2019-03-26T15:54:47Z</time>
      </trkpt>
      <trkpt lat="46.44828" lon="-1.46894">
        <ele>14</ele>
        <time>2019-03-26T15:54:50Z</time>
      </trkpt>
      <trkpt lat="46.44828" lon="-1.46893">
        <ele>14</ele>
        <time>2019-03-26T15:54:52Z</time>
      </trkpt>
      <trkpt lat="46.44827" lon="-1.46893">
        <ele>14</ele>
        <time>2019-03-26T15:54:55Z</time>
      </trkpt>
      <trkpt lat="46.44827" lon="-1.46893">
        <ele>14</ele>
        <time>2019-03-26T15:54:57Z</time>
      </trkpt>
      <trkpt lat="46.44828" lon="-1.46894">
        <ele>14</ele>
        <time>2019-03-26T15:55:00Z</time>
      </trkpt>
      <trkpt lat="46.44829" lon="-1.46896">
        <ele>14</ele>
        <time>2019-03-26T15:55:03Z</time>
      </trkpt>
      <trkpt lat="46.44829" lon="-1.46896">
        <ele>14</ele>
        <time>2019-03-26T15:55:05Z</time>
      </trkpt>
      <trkpt lat="46.44829" lon="-1.46897">
        <ele>14</ele>
        <time>2019-03-26T15:55:08Z</time>
      </trkpt>
      <trkpt lat="46.44829" lon="-1.46897">
        <ele>14</ele>
        <time>2019-03-26T15:55:10Z</time>
      </trkpt>
      <trkpt lat="46.44829" lon="-1.46897">
        <ele>14</ele>
        <time>2019-03-26T15:55:13Z</time>
      </trkpt>
      <trkpt lat="46.44828" lon="-1.46896">
        <ele>14</ele>
        <time>2019-03-26T15:55:15Z</time>
      </trkpt>
      <trkpt lat="46.44828" lon="-1.46895">
        <ele>14</ele>
        <time>2019-03-26T15:55:18Z</time>
      </trkpt>
      <trkpt lat="46.44827" lon="-1.46894">
        <ele>14</ele>
        <time>2019-03-26T15:55:21Z</time>
      </trkpt>
      <trkpt lat="46.44827" lon="-1.46893">
        <ele>14</ele>
        <time>2019-03-26T15:55:23Z</time>
      </trkpt>
      <trkpt lat="46.44826" lon="-1.46893">
        <ele>14</ele>
        <time>2019-03-26T15:55:26Z</time>
      </trkpt>
      <trkpt lat="46.44826" lon="-1.46893">
        <ele>14</ele>
        <time>2019-03-26T15:55:28Z</time>
      </trkpt>
      <trkpt lat="46.44826" lon="-1.46892">
        <ele>14</ele>
        <time>2019-03-26T15:55:31Z</time>
      </trkpt>
      <trkpt lat="46.44826" lon="-1.46892">
        <ele>14</ele>
        <time>2019-03-26T15:55:33Z</time>
      </trkpt>
      <trkpt lat="46.44825" lon="-1.46891">
        <ele>14</ele>
        <time>2019-03-26T15:55:36Z</time>
      </trkpt>
      <trkpt lat="46.44824" lon="-1.4689">
        <ele>14</ele>
        <time>2019-03-26T15:55:39Z</time>
      </trkpt>
      <trkpt lat="46.44824" lon="-1.46889">
        <ele>14</ele>
        <time>2019-03-26T15:55:41Z</time>
      </trkpt>
      <trkpt lat="46.44823" lon="-1.46887">
        <ele>14</ele>
        <time>2019-03-26T15:55:44Z</time>
      </trkpt>
      <trkpt lat="46.44822" lon="-1.46887">
        <ele>14</ele>
        <time>2019-03-26T15:55:46Z</time>
      </trkpt>
      <trkpt lat="46.44822" lon="-1.46885">
        <ele>14</ele>
        <time>2019-03-26T15:55:49Z</time>
      </trkpt>
      <trkpt lat="46.44822" lon="-1.46885">
        <ele>14</ele>
        <time>2019-03-26T15:55:51Z</time>
      </trkpt>
      <trkpt lat="46.44822" lon="-1.46885">
        <ele>14</ele>
        <time>2019-03-26T15:55:54Z</time>
      </trkpt>
      <trkpt lat="46.44822" lon="-1.46884">
        <ele>14</ele>
        <time>2019-03-26T15:55:57Z</time>
      </trkpt>
      <trkpt lat="46.44822" lon="-1.46884">
        <ele>14</ele>
        <time>2019-03-26T15:55:59Z</time>
      </trkpt>
      <trkpt lat="46.44822" lon="-1.46884">
        <ele>14</ele>
        <time>2019-03-26T15:56:02Z</time>
      </trkpt>
      <trkpt lat="46.44822" lon="-1.46884">
        <ele>14</ele>
        <time>2019-03-26T15:56:04Z</time>
      </trkpt>
      <trkpt lat="46.44822" lon="-1.46884">
        <ele>14</ele>
        <time>2019-03-26T15:56:07Z</time>
      </trkpt>
      <trkpt lat="46.44823" lon="-1.46885">
        <ele>14</ele>
        <time>2019-03-26T15:56:09Z</time>
      </trkpt>
      <trkpt lat="46.44823" lon="-1.46882">
        <ele>14</ele>
        <time>2019-03-26T15:56:12Z</time>
      </trkpt>
      <trkpt lat="46.44822" lon="-1.46879">
        <ele>14</ele>
        <time>2019-03-26T15:56:14Z</time>
      </trkpt>
      <trkpt lat="46.44822" lon="-1.46877">
        <ele>14</ele>
        <time>2019-03-26T15:56:17Z</time>
      </trkpt>
      <trkpt lat="46.44821" lon="-1.46873">
        <ele>14</ele>
        <time>2019-03-26T15:56:20Z</time>
      </trkpt>
      <trkpt lat="46.4482" lon="-1.46871">
        <ele>14</ele>
        <time>2019-03-26T15:56:22Z</time>
      </trkpt>
      <trkpt lat="46.4482" lon="-1.46868">
        <ele>14</ele>
        <time>2019-03-26T15:56:25Z</time>
      </trkpt>
      <trkpt lat="46.44819" lon="-1.46865">
        <ele>14</ele>
        <time>2019-03-26T15:56:27Z</time>
      </trkpt>
      <trkpt lat="46.44818" lon="-1.4686">
        <ele>14</ele>
        <time>2019-03-26T15:56:30Z</time>
      </trkpt>
      <trkpt lat="46.44817" lon="-1.46856">
        <ele>15</ele>
        <time>2019-03-26T15:56:32Z</time>
      </trkpt>
      <trkpt lat="46.44815" lon="-1.46852">
        <ele>15</ele>
        <time>2019-03-26T15:56:35Z</time>
      </trkpt>
      <trkpt lat="46.44814" lon="-1.46848">
        <ele>15</ele>
        <time>2019-03-26T15:56:38Z</time>
      </trkpt>
      <trkpt lat="46.44814" lon="-1.46845">
        <ele>15</ele>
        <time>2019-03-26T15:56:40Z</time>
      </trkpt>
      <trkpt lat="46.44814" lon="-1.46842">
        <ele>15</ele>
        <time>2019-03-26T15:56:43Z</time>
      </trkpt>
      <trkpt lat="46.44814" lon="-1.4684">
        <ele>15</ele>
        <time>2019-03-26T15:56:45Z</time>
      </trkpt>
      <trkpt lat="46.44812" lon="-1.46836">
        <ele>15</ele>
        <time>2019-03-26T15:56:48Z</time>
      </trkpt>
      <trkpt lat="46.4481" lon="-1.46833">
        <ele>15</ele>
        <time>2019-03-26T15:56:50Z</time>
      </trkpt>
      <trkpt lat="46.44809" lon="-1.46829">
        <ele>15</ele>
        <time>2019-03-26T15:56:53Z</time>
      </trkpt>
      <trkpt lat="46.44808" lon="-1.46825">
        <ele>15</ele>
        <time>2019-03-26T15:56:56Z</time>
      </trkpt>
      <trkpt lat="46.44807" lon="-1.46822">
        <ele>15</ele>
        <time>2019-03-26T15:56:58Z</time>
      </trkpt>
      <trkpt lat="46.44805" lon="-1.46816">
        <ele>15</ele>
        <time>2019-03-26T15:57:01Z</time>
      </trkpt>
      <trkpt lat="46.44804" lon="-1.46812">
        <ele>15</ele>
        <time>2019-03-26T15:57:03Z</time>
      </trkpt>
      <trkpt lat="46.44802" lon="-1.46807">
        <ele>15</ele>
        <time>2019-03-26T15:57:06Z</time>
      </trkpt>
      <trkpt lat="46.44801" lon="-1.46804">
        <ele>15</ele>
        <time>2019-03-26T15:57:08Z</time>
      </trkpt>
      <trkpt lat="46.448" lon="-1.46799">
        <ele>15</ele>
        <time>2019-03-26T15:57:11Z</time>
      </trkpt>
      <trkpt lat="46.448" lon="-1.46795">
        <ele>15</ele>
        <time>2019-03-26T15:57:13Z</time>
      </trkpt>
      <trkpt lat="46.44801" lon="-1.46792">
        <ele>15</ele>
        <time>2019-03-26T15:57:16Z</time>
      </trkpt>
      <trkpt lat="46.44803" lon="-1.46787">
        <ele>15</ele>
        <time>2019-03-26T15:57:19Z</time>
      </trkpt>
      <trkpt lat="46.44806" lon="-1.46784">
        <ele>15</ele>
        <time>2019-03-26T15:57:21Z</time>
      </trkpt>
      <trkpt lat="46.4481" lon="-1.4678">
        <ele>15</ele>
        <time>2019-03-26T15:57:24Z</time>
      </trkpt>
      <trkpt lat="46.44811" lon="-1.46778">
        <ele>15</ele>
        <time>2019-03-26T15:57:27Z</time>
      </trkpt>
      <trkpt lat="46.44812" lon="-1.46777">
        <ele>15</ele>
        <time>2019-03-26T15:57:29Z</time>
      </trkpt>
      <trkpt lat="46.44812" lon="-1.46774">
        <ele>15</ele>
        <time>2019-03-26T15:57:32Z</time>
      </trkpt>
      <trkpt lat="46.44811" lon="-1.46774">
        <ele>15</ele>
        <time>2019-03-26T15:57:34Z</time>
      </trkpt>
      <trkpt lat="46.4481" lon="-1.46774">
        <ele>15</ele>
        <time>2019-03-26T15:57:37Z</time>
      </trkpt>
      <trkpt lat="46.4481" lon="-1.46773">
        <ele>15</ele>
        <time>2019-03-26T15:57:39Z</time>
      </trkpt>
      <trkpt lat="46.4481" lon="-1.46773">
        <ele>15</ele>
        <time>2019-03-26T15:57:42Z</time>
      </trkpt>
      <trkpt lat="46.4481" lon="-1.46772">
        <ele>15</ele>
        <time>2019-03-26T15:57:45Z</time>
      </trkpt>
      <trkpt lat="46.44811" lon="-1.46772">
        <ele>15</ele>
        <time>2019-03-26T15:57:47Z</time>
      </trkpt>
      <trkpt lat="46.44812" lon="-1.4677">
        <ele>15</ele>
        <time>2019-03-26T15:57:50Z</time>
      </trkpt>
      <trkpt lat="46.44811" lon="-1.46769">
        <ele>15</ele>
        <time>2019-03-26T15:57:52Z</time>
      </trkpt>
      <trkpt lat="46.4481" lon="-1.46768">
        <ele>15</ele>
        <time>2019-03-26T15:57:55Z</time>
      </trkpt>
      <trkpt lat="46.4481" lon="-1.46768">
        <ele>15</ele>
        <time>2019-03-26T15:57:57Z</time>
      </trkpt>
      <trkpt lat="46.4481" lon="-1.46767">
        <ele>15</ele>
        <time>2019-03-26T15:58:00Z</time>
      </trkpt>
      <trkpt lat="46.4481" lon="-1.46767">
        <ele>15</ele>
        <time>2019-03-26T15:58:03Z</time>
      </trkpt>
      <trkpt lat="46.4481" lon="-1.46767">
        <ele>15</ele>
        <time>2019-03-26T15:58:05Z</time>
      </trkpt>
      <trkpt lat="46.4481" lon="-1.46766">
        <ele>15</ele>
        <time>2019-03-26T15:58:08Z</time>
      </trkpt>
      <trkpt lat="46.4481" lon="-1.46766">
        <ele>15</ele>
        <time>2019-03-26T15:58:10Z</time>
      </trkpt>
      <trkpt lat="46.4481" lon="-1.46766">
        <ele>15</ele>
        <time>2019-03-26T15:58:13Z</time>
      </trkpt>
      <trkpt lat="46.44811" lon="-1.46765">
        <ele>15</ele>
        <time>2019-03-26T15:58:15Z</time>
      </trkpt>
      <trkpt lat="46.44812" lon="-1.46764">
        <ele>15</ele>
        <time>2019-03-26T15:58:18Z</time>
      </trkpt>
      <trkpt lat="46.44814" lon="-1.46764">
        <ele>15</ele>
        <time>2019-03-26T15:58:20Z</time>
      </trkpt>
      <trkpt lat="46.44817" lon="-1.46764">
        <ele>16</ele>
        <time>2019-03-26T15:58:23Z</time>
      </trkpt>
      <trkpt lat="46.4482" lon="-1.46764">
        <ele>16</ele>
        <time>2019-03-26T15:58:26Z</time>
      </trkpt>
      <trkpt lat="46.44823" lon="-1.46764">
        <ele>16</ele>
        <time>2019-03-26T15:58:28Z</time>
      </trkpt>
      <trkpt lat="46.44826" lon="-1.46764">
        <ele>16</ele>
        <time>2019-03-26T15:58:31Z</time>
      </trkpt>
      <trkpt lat="46.4483" lon="-1.46764">
        <ele>16</ele>
        <time>2019-03-26T15:58:33Z</time>
      </trkpt>
      <trkpt lat="46.44832" lon="-1.46763">
        <ele>16</ele>
        <time>2019-03-26T15:58:36Z</time>
      </trkpt>
      <trkpt lat="46.44835" lon="-1.46763">
        <ele>16</ele>
        <time>2019-03-26T15:58:39Z</time>
      </trkpt>
      <trkpt lat="46.44837" lon="-1.46763">
        <ele>16</ele>
        <time>2019-03-26T15:58:41Z</time>
      </trkpt>
      <trkpt lat="46.44841" lon="-1.46764">
        <ele>16</ele>
        <time>2019-03-26T15:58:44Z</time>
      </trkpt>
      <trkpt lat="46.44844" lon="-1.46764">
        <ele>16</ele>
        <time>2019-03-26T15:58:47Z</time>
      </trkpt>
      <trkpt lat="46.44846" lon="-1.46764">
        <ele>16</ele>
        <time>2019-03-26T15:58:49Z</time>
      </trkpt>
      <trkpt lat="46.4485" lon="-1.46764">
        <ele>16</ele>
        <time>2019-03-26T15:58:52Z</time>
      </trkpt>
      <trkpt lat="46.44852" lon="-1.46765">
        <ele>16</ele>
        <time>2019-03-26T15:58:54Z</time>
      </trkpt>
      <trkpt lat="46.44857" lon="-1.46765">
        <ele>16</ele>
        <time>2019-03-26T15:58:57Z</time>
      </trkpt>
      <trkpt lat="46.4486" lon="-1.46765">
        <ele>16</ele>
        <time>2019-03-26T15:58:59Z</time>
      </trkpt>
      <trkpt lat="46.44864" lon="-1.46766">
        <ele>16</ele>
        <time>2019-03-26T15:59:02Z</time>
      </trkpt>
      <trkpt lat="46.44867" lon="-1.46767">
        <ele>16</ele>
        <time>2019-03-26T15:59:05Z</time>
      </trkpt>
      <trkpt lat="46.4487" lon="-1.46767">
        <ele>16</ele>
        <time>2019-03-26T15:59:07Z</time>
      </trkpt>
      <trkpt lat="46.44875" lon="-1.46767">
        <ele>16</ele>
        <time>2019-03-26T15:59:10Z</time>
      </trkpt>
      <trkpt lat="46.44878" lon="-1.46768">
        <ele>16</ele>
        <time>2019-03-26T15:59:12Z</time>
      </trkpt>
      <trkpt lat="46.44883" lon="-1.46767">
        <ele>16</ele>
        <time>2019-03-26T15:59:15Z</time>
      </trkpt>
      <trkpt lat="46.44886" lon="-1.46767">
        <ele>16</ele>
        <time>2019-03-26T15:59:17Z</time>
      </trkpt>
      <trkpt lat="46.44889" lon="-1.46766">
        <ele>16</ele>
        <time>2019-03-26T15:59:20Z</time>
      </trkpt>
      <trkpt lat="46.44892" lon="-1.46766">
        <ele>16</ele>
        <time>2019-03-26T15:59:22Z</time>
      </trkpt>
      <trkpt lat="46.44896" lon="-1.46766">
        <ele>16</ele>
        <time>2019-03-26T15:59:25Z</time>
      </trkpt>
      <trkpt lat="46.44899" lon="-1.46765">
        <ele>16</ele>
        <time>2019-03-26T15:59:27Z</time>
      </trkpt>
      <trkpt lat="46.44903" lon="-1.46765">
        <ele>16</ele>
        <time>2019-03-26T15:59:30Z</time>
      </trkpt>
      <trkpt lat="46.44907" lon="-1.46765">
        <ele>16</ele>
        <time>2019-03-26T15:59:33Z</time>
      </trkpt>
      <trkpt lat="46.44909" lon="-1.46765">
        <ele>16</ele>
        <time>2019-03-26T15:59:35Z</time>
      </trkpt>
      <trkpt lat="46.44913" lon="-1.46765">
        <ele>16</ele>
        <time>2019-03-26T15:59:38Z</time>
      </trkpt>
      <trkpt lat="46.44916" lon="-1.46764">
        <ele>16</ele>
        <time>2019-03-26T15:59:40Z</time>
      </trkpt>
      <trkpt lat="46.44921" lon="-1.46765">
        <ele>16</ele>
        <time>2019-03-26T15:59:43Z</time>
      </trkpt>
      <trkpt lat="46.44924" lon="-1.46765">
        <ele>16</ele>
        <time>2019-03-26T15:59:45Z</time>
      </trkpt>
      <trkpt lat="46.44929" lon="-1.46765">
        <ele>16</ele>
        <time>2019-03-26T15:59:48Z</time>
      </trkpt>
      <trkpt lat="46.44933" lon="-1.46767">
        <ele>16</ele>
        <time>2019-03-26T15:59:51Z</time>
      </trkpt>
      <trkpt lat="46.44936" lon="-1.46768">
        <ele>16</ele>
        <time>2019-03-26T15:59:53Z</time>
      </trkpt>
      <trkpt lat="46.4494" lon="-1.46767">
        <ele>16</ele>
        <time>2019-03-26T15:59:56Z</time>
      </trkpt>
      <trkpt lat="46.44943" lon="-1.46768">
        <ele>16</ele>
        <time>2019-03-26T15:59:58Z</time>
      </trkpt>
      <trkpt lat="46.44947" lon="-1.46768">
        <ele>16</ele>
        <time>2019-03-26T16:00:01Z</time>
      </trkpt>
      <trkpt lat="46.44951" lon="-1.46768">
        <ele>16</ele>
        <time>2019-03-26T16:00:04Z</time>
      </trkpt>
      <trkpt lat="46.44954" lon="-1.46768">
        <ele>16</ele>
        <time>2019-03-26T16:00:06Z</time>
      </trkpt>
      <trkpt lat="46.44958" lon="-1.46768">
        <ele>16</ele>
        <time>2019-03-26T16:00:09Z</time>
      </trkpt>
      <trkpt lat="46.44961" lon="-1.46767">
        <ele>16</ele>
        <time>2019-03-26T16:00:11Z</time>
      </trkpt>
      <trkpt lat="46.44966" lon="-1.46767">
        <ele>16</ele>
        <time>2019-03-26T16:00:14Z</time>
      </trkpt>
      <trkpt lat="46.4497" lon="-1.46766">
        <ele>16</ele>
        <time>2019-03-26T16:00:17Z</time>
      </trkpt>
      <trkpt lat="46.44972" lon="-1.46766">
        <ele>16</ele>
        <time>2019-03-26T16:00:19Z</time>
      </trkpt>
      <trkpt lat="46.44976" lon="-1.46764">
        <ele>16</ele>
        <time>2019-03-26T16:00:22Z</time>
      </trkpt>
      <trkpt lat="46.44978" lon="-1.46763">
        <ele>16</ele>
        <time>2019-03-26T16:00:24Z</time>
      </trkpt>
      <trkpt lat="46.44983" lon="-1.46761">
        <ele>16</ele>
        <time>2019-03-26T16:00:27Z</time>
      </trkpt>
      <trkpt lat="46.44988" lon="-1.46759">
        <ele>16</ele>
        <time>2019-03-26T16:00:30Z</time>
      </trkpt>
      <trkpt lat="46.44991" lon="-1.46758">
        <ele>16</ele>
        <time>2019-03-26T16:00:32Z</time>
      </trkpt>
      <trkpt lat="46.44995" lon="-1.46755">
        <ele>16</ele>
        <time>2019-03-26T16:00:35Z</time>
      </trkpt>
      <trkpt lat="46.44998" lon="-1.46754">
        <ele>16</ele>
        <time>2019-03-26T16:00:37Z</time>
      </trkpt>
      <trkpt lat="46.45002" lon="-1.46751">
        <ele>16</ele>
        <time>2019-03-26T16:00:40Z</time>
      </trkpt>
      <trkpt lat="46.45007" lon="-1.46749">
        <ele>16</ele>
        <time>2019-03-26T16:00:43Z</time>
      </trkpt>
      <trkpt lat="46.45011" lon="-1.46748">
        <ele>16</ele>
        <time>2019-03-26T16:00:45Z</time>
      </trkpt>
      <trkpt lat="46.45016" lon="-1.46745">
        <ele>16</ele>
        <time>2019-03-26T16:00:48Z</time>
      </trkpt>
      <trkpt lat="46.45019" lon="-1.46743">
        <ele>16</ele>
        <time>2019-03-26T16:00:50Z</time>
      </trkpt>
      <trkpt lat="46.45023" lon="-1.46739">
        <ele>16</ele>
        <time>2019-03-26T16:00:53Z</time>
      </trkpt>
      <trkpt lat="46.45028" lon="-1.46737">
        <ele>16</ele>
        <time>2019-03-26T16:00:55Z</time>
      </trkpt>
      <trkpt lat="46.45031" lon="-1.46735">
        <ele>16</ele>
        <time>2019-03-26T16:00:58Z</time>
      </trkpt>
      <trkpt lat="46.45035" lon="-1.46733">
        <ele>17</ele>
        <time>2019-03-26T16:01:01Z</time>
      </trkpt>
      <trkpt lat="46.45038" lon="-1.46731">
        <ele>17</ele>
        <time>2019-03-26T16:01:03Z</time>
      </trkpt>
      <trkpt lat="46.45042" lon="-1.46728">
        <ele>17</ele>
        <time>2019-03-26T16:01:06Z</time>
      </trkpt>
      <trkpt lat="46.45047" lon="-1.46726">
        <ele>17</ele>
        <time>2019-03-26T16:01:09Z</time>
      </trkpt>
      <trkpt lat="46.45049" lon="-1.46724">
        <ele>17</ele>
        <time>2019-03-26T16:01:11Z</time>
      </trkpt>
      <trkpt lat="46.45053" lon="-1.46721">
        <ele>17</ele>
        <time>2019-03-26T16:01:14Z</time>
      </trkpt>
      <trkpt lat="46.45056" lon="-1.46719">
        <ele>17</ele>
        <time>2019-03-26T16:01:16Z</time>
      </trkpt>
      <trkpt lat="46.4506" lon="-1.46716">
        <ele>17</ele>
        <time>2019-03-26T16:01:19Z</time>
      </trkpt>
      <trkpt lat="46.45064" lon="-1.46713">
        <ele>17</ele>
        <time>2019-03-26T16:01:22Z</time>
      </trkpt>
      <trkpt lat="46.45066" lon="-1.46711">
        <ele>17</ele>
        <time>2019-03-26T16:01:24Z</time>
      </trkpt>
      <trkpt lat="46.4507" lon="-1.46708">
        <ele>17</ele>
        <time>2019-03-26T16:01:27Z</time>
      </trkpt>
      <trkpt lat="46.45073" lon="-1.46706">
        <ele>17</ele>
        <time>2019-03-26T16:01:29Z</time>
      </trkpt>
      <trkpt lat="46.45077" lon="-1.46703">
        <ele>17</ele>
        <time>2019-03-26T16:01:32Z</time>
      </trkpt>
      <trkpt lat="46.45081" lon="-1.467">
        <ele>17</ele>
        <time>2019-03-26T16:01:35Z</time>
      </trkpt>
      <trkpt lat="46.45083" lon="-1.46698">
        <ele>17</ele>
        <time>2019-03-26T16:01:37Z</time>
      </trkpt>
      <trkpt lat="46.45087" lon="-1.46695">
        <ele>17</ele>
        <time>2019-03-26T16:01:40Z</time>
      </trkpt>
      <trkpt lat="46.45089" lon="-1.46693">
        <ele>17</ele>
        <time>2019-03-26T16:01:42Z</time>
      </trkpt>
      <trkpt lat="46.45094" lon="-1.4669">
        <ele>17</ele>
        <time>2019-03-26T16:01:45Z</time>
      </trkpt>
      <trkpt lat="46.45097" lon="-1.46687">
        <ele>17</ele>
        <time>2019-03-26T16:01:48Z</time>
      </trkpt>
      <trkpt lat="46.451" lon="-1.46685">
        <ele>17</ele>
        <time>2019-03-26T16:01:50Z</time>
      </trkpt>
      <trkpt lat="46.45104" lon="-1.46682">
        <ele>17</ele>
        <time>2019-03-26T16:01:53Z</time>
      </trkpt>
      <trkpt lat="46.45107" lon="-1.46681">
        <ele>17</ele>
        <time>2019-03-26T16:01:55Z</time>
      </trkpt>
      <trkpt lat="46.45112" lon="-1.46678">
        <ele>17</ele>
        <time>2019-03-26T16:01:58Z</time>
      </trkpt>
      <trkpt lat="46.45114" lon="-1.46676">
        <ele>17</ele>
        <time>2019-03-26T16:02:00Z</time>
      </trkpt>
      <trkpt lat="46.45117" lon="-1.46673">
        <ele>17</ele>
        <time>2019-03-26T16:02:03Z</time>
      </trkpt>
      <trkpt lat="46.45121" lon="-1.46671">
        <ele>17</ele>
        <time>2019-03-26T16:02:06Z</time>
      </trkpt>
      <trkpt lat="46.45123" lon="-1.46669">
        <ele>17</ele>
        <time>2019-03-26T16:02:08Z</time>
      </trkpt>
      <trkpt lat="46.45126" lon="-1.46666">
        <ele>17</ele>
        <time>2019-03-26T16:02:11Z</time>
      </trkpt>
      <trkpt lat="46.45129" lon="-1.46665">
        <ele>17</ele>
        <time>2019-03-26T16:02:13Z</time>
      </trkpt>
      <trkpt lat="46.45133" lon="-1.46663">
        <ele>17</ele>
        <time>2019-03-26T16:02:16Z</time>
      </trkpt>
      <trkpt lat="46.45137" lon="-1.4666">
        <ele>17</ele>
        <time>2019-03-26T16:02:19Z</time>
      </trkpt>
      <trkpt lat="46.45139" lon="-1.46659">
        <ele>17</ele>
        <time>2019-03-26T16:02:21Z</time>
      </trkpt>
      <trkpt lat="46.45143" lon="-1.46656">
        <ele>17</ele>
        <time>2019-03-26T16:02:24Z</time>
      </trkpt>
      <trkpt lat="46.45146" lon="-1.46655">
        <ele>17</ele>
        <time>2019-03-26T16:02:26Z</time>
      </trkpt>
      <trkpt lat="46.4515" lon="-1.46652">
        <ele>18</ele>
        <time>2019-03-26T16:02:29Z</time>
      </trkpt>
      <trkpt lat="46.45154" lon="-1.4665">
        <ele>18</ele>
        <time>2019-03-26T16:02:32Z</time>
      </trkpt>
      <trkpt lat="46.45157" lon="-1.46649">
        <ele>18</ele>
        <time>2019-03-26T16:02:34Z</time>
      </trkpt>
      <trkpt lat="46.45161" lon="-1.46646">
        <ele>18</ele>
        <time>2019-03-26T16:02:37Z</time>
      </trkpt>
      <trkpt lat="46.45163" lon="-1.46644">
        <ele>18</ele>
        <time>2019-03-26T16:02:39Z</time>
      </trkpt>
      <trkpt lat="46.45167" lon="-1.46642">
        <ele>18</ele>
        <time>2019-03-26T16:02:42Z</time>
      </trkpt>
      <trkpt lat="46.45169" lon="-1.4664">
        <ele>18</ele>
        <time>2019-03-26T16:02:44Z</time>
      </trkpt>
      <trkpt lat="46.45173" lon="-1.46637">
        <ele>18</ele>
        <time>2019-03-26T16:02:47Z</time>
      </trkpt>
      <trkpt lat="46.45175" lon="-1.46636">
        <ele>18</ele>
        <time>2019-03-26T16:02:49Z</time>
      </trkpt>
      <trkpt lat="46.45178" lon="-1.46633">
        <ele>19</ele>
        <time>2019-03-26T16:02:52Z</time>
      </trkpt>
      <trkpt lat="46.45181" lon="-1.46631">
        <ele>19</ele>
        <time>2019-03-26T16:02:54Z</time>
      </trkpt>
      <trkpt lat="46.45185" lon="-1.46628">
        <ele>19</ele>
        <time>2019-03-26T16:02:57Z</time>
      </trkpt>
      <trkpt lat="46.45189" lon="-1.46626">
        <ele>19</ele>
        <time>2019-03-26T16:02:59Z</time>
      </trkpt>
      <trkpt lat="46.45191" lon="-1.46625">
        <ele>19</ele>
        <time>2019-03-26T16:03:02Z</time>
      </trkpt>
      <trkpt lat="46.45194" lon="-1.46622">
        <ele>19</ele>
        <time>2019-03-26T16:03:05Z</time>
      </trkpt>
      <trkpt lat="46.45196" lon="-1.46621">
        <ele>19</ele>
        <time>2019-03-26T16:03:07Z</time>
      </trkpt>
      <trkpt lat="46.452" lon="-1.46619">
        <ele>19</ele>
        <time>2019-03-26T16:03:10Z</time>
      </trkpt>
      <trkpt lat="46.45202" lon="-1.46619">
        <ele>19</ele>
        <time>2019-03-26T16:03:12Z</time>
      </trkpt>
      <trkpt lat="46.45206" lon="-1.46617">
        <ele>19</ele>
        <time>2019-03-26T16:03:15Z</time>
      </trkpt>
      <trkpt lat="46.45209" lon="-1.46616">
        <ele>19</ele>
        <time>2019-03-26T16:03:17Z</time>
      </trkpt>
      <trkpt lat="46.45213" lon="-1.46614">
        <ele>19</ele>
        <time>2019-03-26T16:03:20Z</time>
      </trkpt>
      <trkpt lat="46.45215" lon="-1.46612">
        <ele>19</ele>
        <time>2019-03-26T16:03:22Z</time>
      </trkpt>
      <trkpt lat="46.45219" lon="-1.46609">
        <ele>19</ele>
        <time>2019-03-26T16:03:25Z</time>
      </trkpt>
      <trkpt lat="46.45221" lon="-1.46609">
        <ele>19</ele>
        <time>2019-03-26T16:03:27Z</time>
      </trkpt>
      <trkpt lat="46.45224" lon="-1.46609">
        <ele>19</ele>
        <time>2019-03-26T16:03:30Z</time>
      </trkpt>
      <trkpt lat="46.45228" lon="-1.46608">
        <ele>19</ele>
        <time>2019-03-26T16:03:33Z</time>
      </trkpt>
      <trkpt lat="46.45231" lon="-1.46607">
        <ele>20</ele>
        <time>2019-03-26T16:03:35Z</time>
      </trkpt>
      <trkpt lat="46.45235" lon="-1.46606">
        <ele>20</ele>
        <time>2019-03-26T16:03:38Z</time>
      </trkpt>
      <trkpt lat="46.45238" lon="-1.46605">
        <ele>20</ele>
        <time>2019-03-26T16:03:40Z</time>
      </trkpt>
      <trkpt lat="46.45242" lon="-1.46604">
        <ele>20</ele>
        <time>2019-03-26T16:03:43Z</time>
      </trkpt>
      <trkpt lat="46.45244" lon="-1.46602">
        <ele>20</ele>
        <time>2019-03-26T16:03:45Z</time>
      </trkpt>
      <trkpt lat="46.45249" lon="-1.46601">
        <ele>20</ele>
        <time>2019-03-26T16:03:48Z</time>
      </trkpt>
      <trkpt lat="46.45251" lon="-1.466">
        <ele>20</ele>
        <time>2019-03-26T16:03:50Z</time>
      </trkpt>
      <trkpt lat="46.45255" lon="-1.46598">
        <ele>20</ele>
        <time>2019-03-26T16:03:53Z</time>
      </trkpt>
      <trkpt lat="46.45259" lon="-1.46597">
        <ele>20</ele>
        <time>2019-03-26T16:03:55Z</time>
      </trkpt>
      <trkpt lat="46.45264" lon="-1.46596">
        <ele>20</ele>
        <time>2019-03-26T16:03:58Z</time>
      </trkpt>
      <trkpt lat="46.45268" lon="-1.46595">
        <ele>20</ele>
        <time>2019-03-26T16:04:00Z</time>
      </trkpt>
      <trkpt lat="46.4527" lon="-1.46594">
        <ele>20</ele>
        <time>2019-03-26T16:04:03Z</time>
      </trkpt>
      <trkpt lat="46.45273" lon="-1.46593">
        <ele>20</ele>
        <time>2019-03-26T16:04:06Z</time>
      </trkpt>
      <trkpt lat="46.45277" lon="-1.46592">
        <ele>20</ele>
        <time>2019-03-26T16:04:09Z</time>
      </trkpt>
      <trkpt lat="46.4528" lon="-1.46592">
        <ele>20</ele>
        <time>2019-03-26T16:04:11Z</time>
      </trkpt>
      <trkpt lat="46.45284" lon="-1.46591">
        <ele>20</ele>
        <time>2019-03-26T16:04:14Z</time>
      </trkpt>
      <trkpt lat="46.45289" lon="-1.4659">
        <ele>21</ele>
        <time>2019-03-26T16:04:17Z</time>
      </trkpt>
      <trkpt lat="46.45291" lon="-1.4659">
        <ele>21</ele>
        <time>2019-03-26T16:04:19Z</time>
      </trkpt>
      <trkpt lat="46.45295" lon="-1.46592">
        <ele>21</ele>
        <time>2019-03-26T16:04:22Z</time>
      </trkpt>
      <trkpt lat="46.45298" lon="-1.46592">
        <ele>21</ele>
        <time>2019-03-26T16:04:24Z</time>
      </trkpt>
      <trkpt lat="46.45303" lon="-1.46591">
        <ele>21</ele>
        <time>2019-03-26T16:04:27Z</time>
      </trkpt>
      <trkpt lat="46.45307" lon="-1.46592">
        <ele>21</ele>
        <time>2019-03-26T16:04:29Z</time>
      </trkpt>
      <trkpt lat="46.4531" lon="-1.46592">
        <ele>21</ele>
        <time>2019-03-26T16:04:32Z</time>
      </trkpt>
      <trkpt lat="46.45314" lon="-1.46591">
        <ele>21</ele>
        <time>2019-03-26T16:04:35Z</time>
      </trkpt>
      <trkpt lat="46.45316" lon="-1.4659">
        <ele>21</ele>
        <time>2019-03-26T16:04:37Z</time>
      </trkpt>
      <trkpt lat="46.4532" lon="-1.46591">
        <ele>21</ele>
        <time>2019-03-26T16:04:40Z</time>
      </trkpt>
      <trkpt lat="46.45323" lon="-1.46591">
        <ele>21</ele>
        <time>2019-03-26T16:04:42Z</time>
      </trkpt>
      <trkpt lat="46.45327" lon="-1.46591">
        <ele>21</ele>
        <time>2019-03-26T16:04:45Z</time>
      </trkpt>
      <trkpt lat="46.4533" lon="-1.46592">
        <ele>21</ele>
        <time>2019-03-26T16:04:47Z</time>
      </trkpt>
      <trkpt lat="46.45335" lon="-1.46593">
        <ele>21</ele>
        <time>2019-03-26T16:04:50Z</time>
      </trkpt>
      <trkpt lat="46.45339" lon="-1.46595">
        <ele>21</ele>
        <time>2019-03-26T16:04:53Z</time>
      </trkpt>
      <trkpt lat="46.45342" lon="-1.46595">
        <ele>21</ele>
        <time>2019-03-26T16:04:55Z</time>
      </trkpt>
      <trkpt lat="46.45346" lon="-1.46596">
        <ele>21</ele>
        <time>2019-03-26T16:04:58Z</time>
      </trkpt>
      <trkpt lat="46.45349" lon="-1.46596">
        <ele>22</ele>
        <time>2019-03-26T16:05:00Z</time>
      </trkpt>
      <trkpt lat="46.45354" lon="-1.46598">
        <ele>21</ele>
        <time>2019-03-26T16:05:03Z</time>
      </trkpt>
      <trkpt lat="46.45359" lon="-1.46599">
        <ele>21</ele>
        <time>2019-03-26T16:05:05Z</time>
      </trkpt>
      <trkpt lat="46.45362" lon="-1.466">
        <ele>21</ele>
        <time>2019-03-26T16:05:08Z</time>
      </trkpt>
      <trkpt lat="46.45367" lon="-1.46601">
        <ele>22</ele>
        <time>2019-03-26T16:05:11Z</time>
      </trkpt>
      <trkpt lat="46.4537" lon="-1.46602">
        <ele>22</ele>
        <time>2019-03-26T16:05:13Z</time>
      </trkpt>
      <trkpt lat="46.45375" lon="-1.46602">
        <ele>22</ele>
        <time>2019-03-26T16:05:16Z</time>
      </trkpt>
      <trkpt lat="46.45379" lon="-1.46601">
        <ele>22</ele>
        <time>2019-03-26T16:05:18Z</time>
      </trkpt>
      <trkpt lat="46.45381" lon="-1.46602">
        <ele>22</ele>
        <time>2019-03-26T16:05:21Z</time>
      </trkpt>
      <trkpt lat="46.45385" lon="-1.46603">
        <ele>22</ele>
        <time>2019-03-26T16:05:24Z</time>
      </trkpt>
      <trkpt lat="46.45388" lon="-1.46604">
        <ele>22</ele>
        <time>2019-03-26T16:05:26Z</time>
      </trkpt>
      <trkpt lat="46.45392" lon="-1.46605">
        <ele>22</ele>
        <time>2019-03-26T16:05:29Z</time>
      </trkpt>
      <trkpt lat="46.45395" lon="-1.46606">
        <ele>22</ele>
        <time>2019-03-26T16:05:32Z</time>
      </trkpt>
      <trkpt lat="46.454" lon="-1.46606">
        <ele>22</ele>
        <time>2019-03-26T16:05:34Z</time>
      </trkpt>
      <trkpt lat="46.45404" lon="-1.46606">
        <ele>22</ele>
        <time>2019-03-26T16:05:37Z</time>
      </trkpt>
      <trkpt lat="46.45407" lon="-1.46607">
        <ele>22</ele>
        <time>2019-03-26T16:05:39Z</time>
      </trkpt>
      <trkpt lat="46.45411" lon="-1.46607">
        <ele>22</ele>
        <time>2019-03-26T16:05:42Z</time>
      </trkpt>
      <trkpt lat="46.45414" lon="-1.46608">
        <ele>22</ele>
        <time>2019-03-26T16:05:44Z</time>
      </trkpt>
      <trkpt lat="46.45418" lon="-1.46608">
        <ele>23</ele>
        <time>2019-03-26T16:05:47Z</time>
      </trkpt>
      <trkpt lat="46.45421" lon="-1.46609">
        <ele>23</ele>
        <time>2019-03-26T16:05:49Z</time>
      </trkpt>
      <trkpt lat="46.45425" lon="-1.46609">
        <ele>23</ele>
        <time>2019-03-26T16:05:52Z</time>
      </trkpt>
      <trkpt lat="46.45428" lon="-1.46609">
        <ele>23</ele>
        <time>2019-03-26T16:05:54Z</time>
      </trkpt>
      <trkpt lat="46.45432" lon="-1.46609">
        <ele>23</ele>
        <time>2019-03-26T16:05:57Z</time>
      </trkpt>
      <trkpt lat="46.45437" lon="-1.4661">
        <ele>23</ele>
        <time>2019-03-26T16:05:59Z</time>
      </trkpt>
      <trkpt lat="46.45439" lon="-1.4661">
        <ele>23</ele>
        <time>2019-03-26T16:06:02Z</time>
      </trkpt>
      <trkpt lat="46.45444" lon="-1.46611">
        <ele>23</ele>
        <time>2019-03-26T16:06:05Z</time>
      </trkpt>
      <trkpt lat="46.45447" lon="-1.46611">
        <ele>23</ele>
        <time>2019-03-26T16:06:07Z</time>
      </trkpt>
      <trkpt lat="46.45452" lon="-1.46612">
        <ele>23</ele>
        <time>2019-03-26T16:06:10Z</time>
      </trkpt>
      <trkpt lat="46.45455" lon="-1.46611">
        <ele>22</ele>
        <time>2019-03-26T16:06:12Z</time>
      </trkpt>
      <trkpt lat="46.4546" lon="-1.46611">
        <ele>22</ele>
        <time>2019-03-26T16:06:15Z</time>
      </trkpt>
      <trkpt lat="46.45463" lon="-1.46611">
        <ele>22</ele>
        <time>2019-03-26T16:06:17Z</time>
      </trkpt>
      <trkpt lat="46.45467" lon="-1.46612">
        <ele>22</ele>
        <time>2019-03-26T16:06:20Z</time>
      </trkpt>
      <trkpt lat="46.45469" lon="-1.46612">
        <ele>22</ele>
        <time>2019-03-26T16:06:22Z</time>
      </trkpt>
      <trkpt lat="46.45474" lon="-1.46613">
        <ele>22</ele>
        <time>2019-03-26T16:06:25Z</time>
      </trkpt>
      <trkpt lat="46.45478" lon="-1.46613">
        <ele>22</ele>
        <time>2019-03-26T16:06:28Z</time>
      </trkpt>
      <trkpt lat="46.45481" lon="-1.46613">
        <ele>22</ele>
        <time>2019-03-26T16:06:30Z</time>
      </trkpt>
      <trkpt lat="46.45485" lon="-1.46614">
        <ele>22</ele>
        <time>2019-03-26T16:06:33Z</time>
      </trkpt>
      <trkpt lat="46.45488" lon="-1.46614">
        <ele>22</ele>
        <time>2019-03-26T16:06:35Z</time>
      </trkpt>
      <trkpt lat="46.45492" lon="-1.46614">
        <ele>22</ele>
        <time>2019-03-26T16:06:38Z</time>
      </trkpt>
      <trkpt lat="46.45495" lon="-1.46614">
        <ele>22</ele>
        <time>2019-03-26T16:06:40Z</time>
      </trkpt>
      <trkpt lat="46.45499" lon="-1.46615">
        <ele>23</ele>
        <time>2019-03-26T16:06:43Z</time>
      </trkpt>
      <trkpt lat="46.45502" lon="-1.46614">
        <ele>23</ele>
        <time>2019-03-26T16:06:45Z</time>
      </trkpt>
      <trkpt lat="46.45508" lon="-1.46614">
        <ele>23</ele>
        <time>2019-03-26T16:06:48Z</time>
      </trkpt>
      <trkpt lat="46.45513" lon="-1.46614">
        <ele>23</ele>
        <time>2019-03-26T16:06:50Z</time>
      </trkpt>
      <trkpt lat="46.45516" lon="-1.46614">
        <ele>24</ele>
        <time>2019-03-26T16:06:53Z</time>
      </trkpt>
      <trkpt lat="46.4552" lon="-1.46613">
        <ele>24</ele>
        <time>2019-03-26T16:06:56Z</time>
      </trkpt>
      <trkpt lat="46.45524" lon="-1.46613">
        <ele>24</ele>
        <time>2019-03-26T16:06:58Z</time>
      </trkpt>
      <trkpt lat="46.4553" lon="-1.46612">
        <ele>24</ele>
        <time>2019-03-26T16:07:01Z</time>
      </trkpt>
      <trkpt lat="46.45533" lon="-1.46612">
        <ele>25</ele>
        <time>2019-03-26T16:07:03Z</time>
      </trkpt>
      <trkpt lat="46.45537" lon="-1.46611">
        <ele>25</ele>
        <time>2019-03-26T16:07:06Z</time>
      </trkpt>
      <trkpt lat="46.45542" lon="-1.4661">
        <ele>25</ele>
        <time>2019-03-26T16:07:09Z</time>
      </trkpt>
      <trkpt lat="46.45545" lon="-1.4661">
        <ele>25</ele>
        <time>2019-03-26T16:07:11Z</time>
      </trkpt>
      <trkpt lat="46.45549" lon="-1.46609">
        <ele>26</ele>
        <time>2019-03-26T16:07:14Z</time>
      </trkpt>
      <trkpt lat="46.45552" lon="-1.46609">
        <ele>26</ele>
        <time>2019-03-26T16:07:16Z</time>
      </trkpt>
      <trkpt lat="46.45556" lon="-1.46608">
        <ele>26</ele>
        <time>2019-03-26T16:07:19Z</time>
      </trkpt>
      <trkpt lat="46.45559" lon="-1.46608">
        <ele>26</ele>
        <time>2019-03-26T16:07:21Z</time>
      </trkpt>
      <trkpt lat="46.45563" lon="-1.46608">
        <ele>26</ele>
        <time>2019-03-26T16:07:24Z</time>
      </trkpt>
      <trkpt lat="46.45567" lon="-1.46607">
        <ele>27</ele>
        <time>2019-03-26T16:07:27Z</time>
      </trkpt>
      <trkpt lat="46.4557" lon="-1.46607">
        <ele>27</ele>
        <time>2019-03-26T16:07:29Z</time>
      </trkpt>
      <trkpt lat="46.45573" lon="-1.46606">
        <ele>27</ele>
        <time>2019-03-26T16:07:32Z</time>
      </trkpt>
      <trkpt lat="46.45576" lon="-1.46604">
        <ele>27</ele>
        <time>2019-03-26T16:07:34Z</time>
      </trkpt>
      <trkpt lat="46.45578" lon="-1.46602">
        <ele>28</ele>
        <time>2019-03-26T16:07:37Z</time>
      </trkpt>
      <trkpt lat="46.45579" lon="-1.46602">
        <ele>28</ele>
        <time>2019-03-26T16:07:39Z</time>
      </trkpt>
      <trkpt lat="46.45583" lon="-1.46602">
        <ele>28</ele>
        <time>2019-03-26T16:07:42Z</time>
      </trkpt>
      <trkpt lat="46.45587" lon="-1.46602">
        <ele>28</ele>
        <time>2019-03-26T16:07:45Z</time>
      </trkpt>
      <trkpt lat="46.45589" lon="-1.46602">
        <ele>28</ele>
        <time>2019-03-26T16:07:47Z</time>
      </trkpt>
      <trkpt lat="46.45594" lon="-1.46601">
        <ele>28</ele>
        <time>2019-03-26T16:07:50Z</time>
      </trkpt>
      <trkpt lat="46.45596" lon="-1.46601">
        <ele>28</ele>
        <time>2019-03-26T16:07:52Z</time>
      </trkpt>
      <trkpt lat="46.45599" lon="-1.46601">
        <ele>28</ele>
        <time>2019-03-26T16:07:55Z</time>
      </trkpt>
      <trkpt lat="46.45602" lon="-1.466">
        <ele>29</ele>
        <time>2019-03-26T16:07:57Z</time>
      </trkpt>
      <trkpt lat="46.45606" lon="-1.46599">
        <ele>29</ele>
        <time>2019-03-26T16:08:00Z</time>
      </trkpt>
      <trkpt lat="46.45608" lon="-1.46599">
        <ele>29</ele>
        <time>2019-03-26T16:08:02Z</time>
      </trkpt>
      <trkpt lat="46.45611" lon="-1.46599">
        <ele>29</ele>
        <time>2019-03-26T16:08:05Z</time>
      </trkpt>
      <trkpt lat="46.45615" lon="-1.466">
        <ele>29</ele>
        <time>2019-03-26T16:08:08Z</time>
      </trkpt>
      <trkpt lat="46.45617" lon="-1.466">
        <ele>29</ele>
        <time>2019-03-26T16:08:10Z</time>
      </trkpt>
      <trkpt lat="46.4562" lon="-1.466">
        <ele>29</ele>
        <time>2019-03-26T16:08:13Z</time>
      </trkpt>
      <trkpt lat="46.45622" lon="-1.466">
        <ele>29</ele>
        <time>2019-03-26T16:08:15Z</time>
      </trkpt>
      <trkpt lat="46.45625" lon="-1.46599">
        <ele>30</ele>
        <time>2019-03-26T16:08:18Z</time>
      </trkpt>
      <trkpt lat="46.45628" lon="-1.46599">
        <ele>30</ele>
        <time>2019-03-26T16:08:20Z</time>
      </trkpt>
      <trkpt lat="46.45631" lon="-1.46599">
        <ele>30</ele>
        <time>2019-03-26T16:08:23Z</time>
      </trkpt>
      <trkpt lat="46.45633" lon="-1.466">
        <ele>30</ele>
        <time>2019-03-26T16:08:25Z</time>
      </trkpt>
      <trkpt lat="46.45636" lon="-1.46603">
        <ele>30</ele>
        <time>2019-03-26T16:08:28Z</time>
      </trkpt>
      <trkpt lat="46.45638" lon="-1.46602">
        <ele>30</ele>
        <time>2019-03-26T16:08:30Z</time>
      </trkpt>
      <trkpt lat="46.45638" lon="-1.46602">
        <ele>30</ele>
        <time>2019-03-26T16:08:33Z</time>
      </trkpt>
      <trkpt lat="46.45638" lon="-1.46602">
        <ele>30</ele>
        <time>2019-03-26T16:08:35Z</time>
      </trkpt>
      <trkpt lat="46.45639" lon="-1.46602">
        <ele>30</ele>
        <time>2019-03-26T16:08:38Z</time>
      </trkpt>
      <trkpt lat="46.45639" lon="-1.46602">
        <ele>30</ele>
        <time>2019-03-26T16:08:40Z</time>
      </trkpt>
      <trkpt lat="46.45638" lon="-1.466">
        <ele>30</ele>
        <time>2019-03-26T16:08:43Z</time>
      </trkpt>
      <trkpt lat="46.45638" lon="-1.466">
        <ele>30</ele>
        <time>2019-03-26T16:08:45Z</time>
      </trkpt>
      <trkpt lat="46.45637" lon="-1.46598">
        <ele>30</ele>
        <time>2019-03-26T16:08:48Z</time>
      </trkpt>
      <trkpt lat="46.45636" lon="-1.46598">
        <ele>30</ele>
        <time>2019-03-26T16:08:50Z</time>
      </trkpt>
      <trkpt lat="46.45637" lon="-1.46598">
        <ele>30</ele>
        <time>2019-03-26T16:08:53Z</time>
      </trkpt>
      <trkpt lat="46.45637" lon="-1.46598">
        <ele>30</ele>
        <time>2019-03-26T16:08:55Z</time>
      </trkpt>
      <trkpt lat="46.45637" lon="-1.46598">
        <ele>30</ele>
        <time>2019-03-26T16:08:58Z</time>
      </trkpt>
      <trkpt lat="46.45636" lon="-1.46597">
        <ele>30</ele>
        <time>2019-03-26T16:09:00Z</time>
      </trkpt>
      <trkpt lat="46.45636" lon="-1.46596">
        <ele>30</ele>
        <time>2019-03-26T16:09:03Z</time>
      </trkpt>
      <trkpt lat="46.45635" lon="-1.46595">
        <ele>30</ele>
        <time>2019-03-26T16:09:05Z</time>
      </trkpt>
      <trkpt lat="46.45635" lon="-1.46595">
        <ele>30</ele>
        <time>2019-03-26T16:09:08Z</time>
      </trkpt>
      <trkpt lat="46.45634" lon="-1.46595">
        <ele>30</ele>
        <time>2019-03-26T16:09:10Z</time>
      </trkpt>
      <trkpt lat="46.45634" lon="-1.46594">
        <ele>30</ele>
        <time>2019-03-26T16:09:13Z</time>
      </trkpt>
      <trkpt lat="46.45633" lon="-1.46594">
        <ele>30</ele>
        <time>2019-03-26T16:09:15Z</time>
      </trkpt>
      <trkpt lat="46.45632" lon="-1.46595">
        <ele>30</ele>
        <time>2019-03-26T16:09:18Z</time>
      </trkpt>
      <trkpt lat="46.45633" lon="-1.46595">
        <ele>30</ele>
        <time>2019-03-26T16:09:21Z</time>
      </trkpt>
      <trkpt lat="46.45633" lon="-1.46595">
        <ele>30</ele>
        <time>2019-03-26T16:09:23Z</time>
      </trkpt>
      <trkpt lat="46.45633" lon="-1.46596">
        <ele>30</ele>
        <time>2019-03-26T16:09:26Z</time>
      </trkpt>
      <trkpt lat="46.45634" lon="-1.46596">
        <ele>30</ele>
        <time>2019-03-26T16:09:28Z</time>
      </trkpt>
      <trkpt lat="46.45634" lon="-1.46597">
        <ele>30</ele>
        <time>2019-03-26T16:09:31Z</time>
      </trkpt>
      <trkpt lat="46.45634" lon="-1.46597">
        <ele>30</ele>
        <time>2019-03-26T16:09:33Z</time>
      </trkpt>
      <trkpt lat="46.45635" lon="-1.46597">
        <ele>30</ele>
        <time>2019-03-26T16:09:36Z</time>
      </trkpt>
      <trkpt lat="46.45635" lon="-1.46597">
        <ele>30</ele>
        <time>2019-03-26T16:09:38Z</time>
      </trkpt>
      <trkpt lat="46.45634" lon="-1.46597">
        <ele>30</ele>
        <time>2019-03-26T16:09:41Z</time>
      </trkpt>
      <trkpt lat="46.45634" lon="-1.46597">
        <ele>30</ele>
        <time>2019-03-26T16:09:43Z</time>
      </trkpt>
      <trkpt lat="46.45634" lon="-1.46597">
        <ele>30</ele>
        <time>2019-03-26T16:09:46Z</time>
      </trkpt>
      <trkpt lat="46.45634" lon="-1.46597">
        <ele>30</ele>
        <time>2019-03-26T16:09:48Z</time>
      </trkpt>
      <trkpt lat="46.45636" lon="-1.46597">
        <ele>30</ele>
        <time>2019-03-26T16:09:51Z</time>
      </trkpt>
      <trkpt lat="46.45638" lon="-1.46596">
        <ele>30</ele>
        <time>2019-03-26T16:09:53Z</time>
      </trkpt>
      <trkpt lat="46.45642" lon="-1.46595">
        <ele>30</ele>
        <time>2019-03-26T16:09:56Z</time>
      </trkpt>
      <trkpt lat="46.45644" lon="-1.46595">
        <ele>30</ele>
        <time>2019-03-26T16:09:58Z</time>
      </trkpt>
      <trkpt lat="46.45648" lon="-1.46595">
        <ele>30</ele>
        <time>2019-03-26T16:10:01Z</time>
      </trkpt>
      <trkpt lat="46.45651" lon="-1.46594">
        <ele>30</ele>
        <time>2019-03-26T16:10:03Z</time>
      </trkpt>
      <trkpt lat="46.45654" lon="-1.46594">
        <ele>30</ele>
        <time>2019-03-26T16:10:06Z</time>
      </trkpt>
      <trkpt lat="46.45658" lon="-1.46594">
        <ele>30</ele>
        <time>2019-03-26T16:10:08Z</time>
      </trkpt>
      <trkpt lat="46.4566" lon="-1.46594">
        <ele>30</ele>
        <time>2019-03-26T16:10:11Z</time>
      </trkpt>
      <trkpt lat="46.45664" lon="-1.46593">
        <ele>31</ele>
        <time>2019-03-26T16:10:14Z</time>
      </trkpt>
      <trkpt lat="46.45666" lon="-1.46593">
        <ele>31</ele>
        <time>2019-03-26T16:10:16Z</time>
      </trkpt>
      <trkpt lat="46.45671" lon="-1.46594">
        <ele>31</ele>
        <time>2019-03-26T16:10:19Z</time>
      </trkpt>
      <trkpt lat="46.45674" lon="-1.46594">
        <ele>31</ele>
        <time>2019-03-26T16:10:21Z</time>
      </trkpt>
      <trkpt lat="46.45679" lon="-1.46594">
        <ele>31</ele>
        <time>2019-03-26T16:10:24Z</time>
      </trkpt>
      <trkpt lat="46.45681" lon="-1.46594">
        <ele>31</ele>
        <time>2019-03-26T16:10:26Z</time>
      </trkpt>
      <trkpt lat="46.45685" lon="-1.46593">
        <ele>31</ele>
        <time>2019-03-26T16:10:29Z</time>
      </trkpt>
      <trkpt lat="46.45688" lon="-1.46593">
        <ele>31</ele>
        <time>2019-03-26T16:10:32Z</time>
      </trkpt>
      <trkpt lat="46.45693" lon="-1.46592">
        <ele>32</ele>
        <time>2019-03-26T16:10:34Z</time>
      </trkpt>
      <trkpt lat="46.45698" lon="-1.46591">
        <ele>32</ele>
        <time>2019-03-26T16:10:37Z</time>
      </trkpt>
      <trkpt lat="46.45701" lon="-1.4659">
        <ele>32</ele>
        <time>2019-03-26T16:10:39Z</time>
      </trkpt>
      <trkpt lat="46.45707" lon="-1.4659">
        <ele>32</ele>
        <time>2019-03-26T16:10:42Z</time>
      </trkpt>
      <trkpt lat="46.4571" lon="-1.4659">
        <ele>32</ele>
        <time>2019-03-26T16:10:44Z</time>
      </trkpt>
      <trkpt lat="46.45714" lon="-1.4659">
        <ele>32</ele>
        <time>2019-03-26T16:10:47Z</time>
      </trkpt>
      <trkpt lat="46.45717" lon="-1.46589">
        <ele>32</ele>
        <time>2019-03-26T16:10:49Z</time>
      </trkpt>
      <trkpt lat="46.45722" lon="-1.46588">
        <ele>32</ele>
        <time>2019-03-26T16:10:52Z</time>
      </trkpt>
      <trkpt lat="46.45724" lon="-1.46587">
        <ele>32</ele>
        <time>2019-03-26T16:10:54Z</time>
      </trkpt>
      <trkpt lat="46.45728" lon="-1.46585">
        <ele>33</ele>
        <time>2019-03-26T16:10:57Z</time>
      </trkpt>
      <trkpt lat="46.45732" lon="-1.46584">
        <ele>33</ele>
        <time>2019-03-26T16:11:00Z</time>
      </trkpt>
      <trkpt lat="46.45736" lon="-1.46583">
        <ele>33</ele>
        <time>2019-03-26T16:11:02Z</time>
      </trkpt>
      <trkpt lat="46.45741" lon="-1.46582">
        <ele>33</ele>
        <time>2019-03-26T16:11:05Z</time>
      </trkpt>
      <trkpt lat="46.45744" lon="-1.4658">
        <ele>33</ele>
        <time>2019-03-26T16:11:07Z</time>
      </trkpt>
      <trkpt lat="46.45748" lon="-1.46578">
        <ele>33</ele>
        <time>2019-03-26T16:11:10Z</time>
      </trkpt>
      <trkpt lat="46.4575" lon="-1.46577">
        <ele>33</ele>
        <time>2019-03-26T16:11:12Z</time>
      </trkpt>
      <trkpt lat="46.45754" lon="-1.46575">
        <ele>33</ele>
        <time>2019-03-26T16:11:15Z</time>
      </trkpt>
      <trkpt lat="46.45756" lon="-1.46575">
        <ele>33</ele>
        <time>2019-03-26T16:11:17Z</time>
      </trkpt>
      <trkpt lat="46.4576" lon="-1.46573">
        <ele>33</ele>
        <time>2019-03-26T16:11:20Z</time>
      </trkpt>
      <trkpt lat="46.45762" lon="-1.46572">
        <ele>33</ele>
        <time>2019-03-26T16:11:22Z</time>
      </trkpt>
      <trkpt lat="46.45766" lon="-1.4657">
        <ele>33</ele>
        <time>2019-03-26T16:11:25Z</time>
      </trkpt>
      <trkpt lat="46.4577" lon="-1.46568">
        <ele>33</ele>
        <time>2019-03-26T16:11:28Z</time>
      </trkpt>
      <trkpt lat="46.45772" lon="-1.46567">
        <ele>33</ele>
        <time>2019-03-26T16:11:30Z</time>
      </trkpt>
      <trkpt lat="46.45775" lon="-1.46565">
        <ele>33</ele>
        <time>2019-03-26T16:11:33Z</time>
      </trkpt>
      <trkpt lat="46.45777" lon="-1.46564">
        <ele>33</ele>
        <time>2019-03-26T16:11:35Z</time>
      </trkpt>
      <trkpt lat="46.4578" lon="-1.46561">
        <ele>33</ele>
        <time>2019-03-26T16:11:38Z</time>
      </trkpt>
      <trkpt lat="46.45782" lon="-1.4656">
        <ele>33</ele>
        <time>2019-03-26T16:11:40Z</time>
      </trkpt>
      <trkpt lat="46.45787" lon="-1.46558">
        <ele>33</ele>
        <time>2019-03-26T16:11:43Z</time>
      </trkpt>
      <trkpt lat="46.45792" lon="-1.46555">
        <ele>33</ele>
        <time>2019-03-26T16:11:46Z</time>
      </trkpt>
      <trkpt lat="46.45795" lon="-1.46554">
        <ele>33</ele>
        <time>2019-03-26T16:11:48Z</time>
      </trkpt>
      <trkpt lat="46.45799" lon="-1.46552">
        <ele>33</ele>
        <time>2019-03-26T16:11:51Z</time>
      </trkpt>
      <trkpt lat="46.45802" lon="-1.46551">
        <ele>33</ele>
        <time>2019-03-26T16:11:53Z</time>
      </trkpt>
      <trkpt lat="46.45806" lon="-1.46549">
        <ele>33</ele>
        <time>2019-03-26T16:11:56Z</time>
      </trkpt>
      <trkpt lat="46.45811" lon="-1.46546">
        <ele>34</ele>
        <time>2019-03-26T16:11:59Z</time>
      </trkpt>
      <trkpt lat="46.45814" lon="-1.46545">
        <ele>34</ele>
        <time>2019-03-26T16:12:01Z</time>
      </trkpt>
      <trkpt lat="46.45819" lon="-1.46542">
        <ele>34</ele>
        <time>2019-03-26T16:12:04Z</time>
      </trkpt>
      <trkpt lat="46.45822" lon="-1.46541">
        <ele>34</ele>
        <time>2019-03-26T16:12:06Z</time>
      </trkpt>
      <trkpt lat="46.45826" lon="-1.46538">
        <ele>34</ele>
        <time>2019-03-26T16:12:09Z</time>
      </trkpt>
      <trkpt lat="46.45828" lon="-1.46536">
        <ele>34</ele>
        <time>2019-03-26T16:12:11Z</time>
      </trkpt>
      <trkpt lat="46.45832" lon="-1.46533">
        <ele>34</ele>
        <time>2019-03-26T16:12:14Z</time>
      </trkpt>
      <trkpt lat="46.45834" lon="-1.46532">
        <ele>34</ele>
        <time>2019-03-26T16:12:16Z</time>
      </trkpt>
      <trkpt lat="46.45838" lon="-1.4653">
        <ele>34</ele>
        <time>2019-03-26T16:12:19Z</time>
      </trkpt>
      <trkpt lat="46.45842" lon="-1.46526">
        <ele>34</ele>
        <time>2019-03-26T16:12:22Z</time>
      </trkpt>
      <trkpt lat="46.45845" lon="-1.46525">
        <ele>34</ele>
        <time>2019-03-26T16:12:24Z</time>
      </trkpt>
      <trkpt lat="46.45849" lon="-1.46522">
        <ele>34</ele>
        <time>2019-03-26T16:12:27Z</time>
      </trkpt>
      <trkpt lat="46.45851" lon="-1.46521">
        <ele>34</ele>
        <time>2019-03-26T16:12:29Z</time>
      </trkpt>
      <trkpt lat="46.45855" lon="-1.46519">
        <ele>34</ele>
        <time>2019-03-26T16:12:32Z</time>
      </trkpt>
      <trkpt lat="46.45857" lon="-1.46518">
        <ele>34</ele>
        <time>2019-03-26T16:12:34Z</time>
      </trkpt>
      <trkpt lat="46.4586" lon="-1.46515">
        <ele>34</ele>
        <time>2019-03-26T16:12:37Z</time>
      </trkpt>
      <trkpt lat="46.45863" lon="-1.46512">
        <ele>34</ele>
        <time>2019-03-26T16:12:40Z</time>
      </trkpt>
      <trkpt lat="46.45866" lon="-1.4651">
        <ele>34</ele>
        <time>2019-03-26T16:12:42Z</time>
      </trkpt>
      <trkpt lat="46.4587" lon="-1.46507">
        <ele>34</ele>
        <time>2019-03-26T16:12:45Z</time>
      </trkpt>
      <trkpt lat="46.45871" lon="-1.46505">
        <ele>34</ele>
        <time>2019-03-26T16:12:47Z</time>
      </trkpt>
      <trkpt lat="46.45873" lon="-1.46502">
        <ele>34</ele>
        <time>2019-03-26T16:12:50Z</time>
      </trkpt>
      <trkpt lat="46.45874" lon="-1.465">
        <ele>34</ele>
        <time>2019-03-26T16:12:52Z</time>
      </trkpt>
      <trkpt lat="46.45876" lon="-1.46497">
        <ele>34</ele>
        <time>2019-03-26T16:12:55Z</time>
      </trkpt>
      <trkpt lat="46.45877" lon="-1.46494">
        <ele>35</ele>
        <time>2019-03-26T16:12:57Z</time>
      </trkpt>
      <trkpt lat="46.45881" lon="-1.4649">
        <ele>35</ele>
        <time>2019-03-26T16:13:00Z</time>
      </trkpt>
      <trkpt lat="46.45885" lon="-1.46486">
        <ele>35</ele>
        <time>2019-03-26T16:13:03Z</time>
      </trkpt>
      <trkpt lat="46.45887" lon="-1.46484">
        <ele>35</ele>
        <time>2019-03-26T16:13:05Z</time>
      </trkpt>
      <trkpt lat="46.45891" lon="-1.4648">
        <ele>35</ele>
        <time>2019-03-26T16:13:08Z</time>
      </trkpt>
      <trkpt lat="46.45894" lon="-1.46477">
        <ele>35</ele>
        <time>2019-03-26T16:13:10Z</time>
      </trkpt>
      <trkpt lat="46.45897" lon="-1.46473">
        <ele>35</ele>
        <time>2019-03-26T16:13:13Z</time>
      </trkpt>
      <trkpt lat="46.45899" lon="-1.46469">
        <ele>35</ele>
        <time>2019-03-26T16:13:15Z</time>
      </trkpt>
      <trkpt lat="46.45902" lon="-1.46464">
        <ele>35</ele>
        <time>2019-03-26T16:13:18Z</time>
      </trkpt>
      <trkpt lat="46.45905" lon="-1.46461">
        <ele>36</ele>
        <time>2019-03-26T16:13:20Z</time>
      </trkpt>
      <trkpt lat="46.45909" lon="-1.46457">
        <ele>35</ele>
        <time>2019-03-26T16:13:23Z</time>
      </trkpt>
      <trkpt lat="46.4591" lon="-1.46453">
        <ele>35</ele>
        <time>2019-03-26T16:13:25Z</time>
      </trkpt>
      <trkpt lat="46.45913" lon="-1.46448">
        <ele>36</ele>
        <time>2019-03-26T16:13:28Z</time>
      </trkpt>
      <trkpt lat="46.45915" lon="-1.46443">
        <ele>36</ele>
        <time>2019-03-26T16:13:31Z</time>
      </trkpt>
      <trkpt lat="46.45917" lon="-1.4644">
        <ele>36</ele>
        <time>2019-03-26T16:13:33Z</time>
      </trkpt>
      <trkpt lat="46.4592" lon="-1.46436">
        <ele>36</ele>
        <time>2019-03-26T16:13:36Z</time>
      </trkpt>
      <trkpt lat="46.45923" lon="-1.46432">
        <ele>36</ele>
        <time>2019-03-26T16:13:38Z</time>
      </trkpt>
      <trkpt lat="46.45924" lon="-1.46426">
        <ele>36</ele>
        <time>2019-03-26T16:13:41Z</time>
      </trkpt>
      <trkpt lat="46.45925" lon="-1.46422">
        <ele>36</ele>
        <time>2019-03-26T16:13:43Z</time>
      </trkpt>
      <trkpt lat="46.45929" lon="-1.46417">
        <ele>37</ele>
        <time>2019-03-26T16:13:46Z</time>
      </trkpt>
      <trkpt lat="46.45931" lon="-1.46413">
        <ele>37</ele>
        <time>2019-03-26T16:13:48Z</time>
      </trkpt>
      <trkpt lat="46.45934" lon="-1.46408">
        <ele>37</ele>
        <time>2019-03-26T16:13:51Z</time>
      </trkpt>
      <trkpt lat="46.45935" lon="-1.46405">
        <ele>37</ele>
        <time>2019-03-26T16:13:53Z</time>
      </trkpt>
      <trkpt lat="46.45936" lon="-1.464">
        <ele>37</ele>
        <time>2019-03-26T16:13:56Z</time>
      </trkpt>
      <trkpt lat="46.45938" lon="-1.46397">
        <ele>37</ele>
        <time>2019-03-26T16:13:59Z</time>
      </trkpt>
      <trkpt lat="46.4594" lon="-1.46394">
        <ele>37</ele>
        <time>2019-03-26T16:14:01Z</time>
      </trkpt>
      <trkpt lat="46.45942" lon="-1.46389">
        <ele>37</ele>
        <time>2019-03-26T16:14:04Z</time>
      </trkpt>
      <trkpt lat="46.45945" lon="-1.46385">
        <ele>37</ele>
        <time>2019-03-26T16:14:06Z</time>
      </trkpt>
      <trkpt lat="46.45949" lon="-1.4638">
        <ele>38</ele>
        <time>2019-03-26T16:14:09Z</time>
      </trkpt>
      <trkpt lat="46.45951" lon="-1.46375">
        <ele>38</ele>
        <time>2019-03-26T16:14:12Z</time>
      </trkpt>
      <trkpt lat="46.45953" lon="-1.46372">
        <ele>38</ele>
        <time>2019-03-26T16:14:14Z</time>
      </trkpt>
      <trkpt lat="46.45955" lon="-1.46367">
        <ele>38</ele>
        <time>2019-03-26T16:14:17Z</time>
      </trkpt>
      <trkpt lat="46.45957" lon="-1.46363">
        <ele>38</ele>
        <time>2019-03-26T16:14:19Z</time>
      </trkpt>
      <trkpt lat="46.45959" lon="-1.46357">
        <ele>39</ele>
        <time>2019-03-26T16:14:22Z</time>
      </trkpt>
      <trkpt lat="46.45961" lon="-1.46354">
        <ele>39</ele>
        <time>2019-03-26T16:14:24Z</time>
      </trkpt>
      <trkpt lat="46.45963" lon="-1.46348">
        <ele>39</ele>
        <time>2019-03-26T16:14:27Z</time>
      </trkpt>
      <trkpt lat="46.45965" lon="-1.46345">
        <ele>39</ele>
        <time>2019-03-26T16:14:29Z</time>
      </trkpt>
      <trkpt lat="46.4597" lon="-1.46342">
        <ele>39</ele>
        <time>2019-03-26T16:14:32Z</time>
      </trkpt>
      <trkpt lat="46.45971" lon="-1.46339">
        <ele>40</ele>
        <time>2019-03-26T16:14:34Z</time>
      </trkpt>
      <trkpt lat="46.45974" lon="-1.46336">
        <ele>40</ele>
        <time>2019-03-26T16:14:37Z</time>
      </trkpt>
      <trkpt lat="46.45977" lon="-1.46332">
        <ele>40</ele>
        <time>2019-03-26T16:14:40Z</time>
      </trkpt>
      <trkpt lat="46.45979" lon="-1.4633">
        <ele>40</ele>
        <time>2019-03-26T16:14:42Z</time>
      </trkpt>
      <trkpt lat="46.45984" lon="-1.46327">
        <ele>40</ele>
        <time>2019-03-26T16:14:45Z</time>
      </trkpt>
      <trkpt lat="46.45985" lon="-1.46324">
        <ele>41</ele>
        <time>2019-03-26T16:14:47Z</time>
      </trkpt>
      <trkpt lat="46.45987" lon="-1.4632">
        <ele>41</ele>
        <time>2019-03-26T16:14:50Z</time>
      </trkpt>
      <trkpt lat="46.45987" lon="-1.46318">
        <ele>41</ele>
        <time>2019-03-26T16:14:52Z</time>
      </trkpt>
      <trkpt lat="46.4599" lon="-1.46316">
        <ele>41</ele>
        <time>2019-03-26T16:14:55Z</time>
      </trkpt>
      <trkpt lat="46.45993" lon="-1.46315">
        <ele>41</ele>
        <time>2019-03-26T16:14:57Z</time>
      </trkpt>
      <trkpt lat="46.45997" lon="-1.46314">
        <ele>41</ele>
        <time>2019-03-26T16:15:00Z</time>
      </trkpt>
      <trkpt lat="46.46" lon="-1.46313">
        <ele>41</ele>
        <time>2019-03-26T16:15:02Z</time>
      </trkpt>
      <trkpt lat="46.46001" lon="-1.46311">
        <ele>41</ele>
        <time>2019-03-26T16:15:05Z</time>
      </trkpt>
      <trkpt lat="46.46004" lon="-1.4631">
        <ele>41</ele>
        <time>2019-03-26T16:15:07Z</time>
      </trkpt>
      <trkpt lat="46.46008" lon="-1.46307">
        <ele>41</ele>
        <time>2019-03-26T16:15:10Z</time>
      </trkpt>
      <trkpt lat="46.4601" lon="-1.46305">
        <ele>41</ele>
        <time>2019-03-26T16:15:12Z</time>
      </trkpt>
      <trkpt lat="46.46012" lon="-1.46303">
        <ele>41</ele>
        <time>2019-03-26T16:15:15Z</time>
      </trkpt>
      <trkpt lat="46.46014" lon="-1.463">
        <ele>41</ele>
        <time>2019-03-26T16:15:17Z</time>
      </trkpt>
      <trkpt lat="46.46018" lon="-1.46297">
        <ele>41</ele>
        <time>2019-03-26T16:15:20Z</time>
      </trkpt>
      <trkpt lat="46.4602" lon="-1.46296">
        <ele>41</ele>
        <time>2019-03-26T16:15:22Z</time>
      </trkpt>
      <trkpt lat="46.46023" lon="-1.46294">
        <ele>41</ele>
        <time>2019-03-26T16:15:25Z</time>
      </trkpt>
      <trkpt lat="46.46025" lon="-1.46292">
        <ele>41</ele>
        <time>2019-03-26T16:15:27Z</time>
      </trkpt>
      <trkpt lat="46.46027" lon="-1.46289">
        <ele>41</ele>
        <time>2019-03-26T16:15:30Z</time>
      </trkpt>
      <trkpt lat="46.46029" lon="-1.46286">
        <ele>41</ele>
        <time>2019-03-26T16:15:32Z</time>
      </trkpt>
      <trkpt lat="46.46033" lon="-1.46282">
        <ele>41</ele>
        <time>2019-03-26T16:15:35Z</time>
      </trkpt>
      <trkpt lat="46.46035" lon="-1.4628">
        <ele>41</ele>
        <time>2019-03-26T16:15:37Z</time>
      </trkpt>
      <trkpt lat="46.46038" lon="-1.46276">
        <ele>41</ele>
        <time>2019-03-26T16:15:40Z</time>
      </trkpt>
      <trkpt lat="46.46039" lon="-1.46273">
        <ele>41</ele>
        <time>2019-03-26T16:15:42Z</time>
      </trkpt>
      <trkpt lat="46.46042" lon="-1.46268">
        <ele>41</ele>
        <time>2019-03-26T16:15:45Z</time>
      </trkpt>
      <trkpt lat="46.46044" lon="-1.46265">
        <ele>41</ele>
        <time>2019-03-26T16:15:47Z</time>
      </trkpt>
      <trkpt lat="46.46046" lon="-1.46262">
        <ele>41</ele>
        <time>2019-03-26T16:15:50Z</time>
      </trkpt>
      <trkpt lat="46.46048" lon="-1.46259">
        <ele>41</ele>
        <time>2019-03-26T16:15:52Z</time>
      </trkpt>
      <trkpt lat="46.46052" lon="-1.46255">
        <ele>41</ele>
        <time>2019-03-26T16:15:55Z</time>
      </trkpt>
      <trkpt lat="46.46054" lon="-1.46253">
        <ele>41</ele>
        <time>2019-03-26T16:15:57Z</time>
      </trkpt>
      <trkpt lat="46.46057" lon="-1.46248">
        <ele>40</ele>
        <time>2019-03-26T16:16:00Z</time>
      </trkpt>
      <trkpt lat="46.46061" lon="-1.46244">
        <ele>41</ele>
        <time>2019-03-26T16:16:03Z</time>
      </trkpt>
      <trkpt lat="46.46063" lon="-1.46242">
        <ele>40</ele>
        <time>2019-03-26T16:16:05Z</time>
      </trkpt>
      <trkpt lat="46.46067" lon="-1.46238">
        <ele>41</ele>
        <time>2019-03-26T16:16:08Z</time>
      </trkpt>
      <trkpt lat="46.4607" lon="-1.46236">
        <ele>40</ele>
        <time>2019-03-26T16:16:10Z</time>
      </trkpt>
      <trkpt lat="46.46074" lon="-1.46232">
        <ele>40</ele>
        <time>2019-03-26T16:16:13Z</time>
      </trkpt>
      <trkpt lat="46.46076" lon="-1.4623">
        <ele>40</ele>
        <time>2019-03-26T16:16:15Z</time>
      </trkpt>
      <trkpt lat="46.46079" lon="-1.46226">
        <ele>40</ele>
        <time>2019-03-26T16:16:18Z</time>
      </trkpt>
      <trkpt lat="46.46081" lon="-1.46223">
        <ele>40</ele>
        <time>2019-03-26T16:16:20Z</time>
      </trkpt>
      <trkpt lat="46.46085" lon="-1.46221">
        <ele>41</ele>
        <time>2019-03-26T16:16:23Z</time>
      </trkpt>
      <trkpt lat="46.46087" lon="-1.46218">
        <ele>40</ele>
        <time>2019-03-26T16:16:25Z</time>
      </trkpt>
      <trkpt lat="46.46092" lon="-1.46215">
        <ele>40</ele>
        <time>2019-03-26T16:16:28Z</time>
      </trkpt>
      <trkpt lat="46.46097" lon="-1.46212">
        <ele>41</ele>
        <time>2019-03-26T16:16:31Z</time>
      </trkpt>
      <trkpt lat="46.461" lon="-1.4621">
        <ele>41</ele>
        <time>2019-03-26T16:16:33Z</time>
      </trkpt>
      <trkpt lat="46.46104" lon="-1.46208">
        <ele>41</ele>
        <time>2019-03-26T16:16:36Z</time>
      </trkpt>
      <trkpt lat="46.46107" lon="-1.46206">
        <ele>41</ele>
        <time>2019-03-26T16:16:38Z</time>
      </trkpt>
      <trkpt lat="46.46111" lon="-1.46204">
        <ele>40</ele>
        <time>2019-03-26T16:16:41Z</time>
      </trkpt>
      <trkpt lat="46.46114" lon="-1.46199">
        <ele>40</ele>
        <time>2019-03-26T16:16:44Z</time>
      </trkpt>
      <trkpt lat="46.46117" lon="-1.46198">
        <ele>40</ele>
        <time>2019-03-26T16:16:46Z</time>
      </trkpt>
      <trkpt lat="46.46121" lon="-1.46195">
        <ele>40</ele>
        <time>2019-03-26T16:16:49Z</time>
      </trkpt>
      <trkpt lat="46.46124" lon="-1.46192">
        <ele>40</ele>
        <time>2019-03-26T16:16:51Z</time>
      </trkpt>
      <trkpt lat="46.46129" lon="-1.46187">
        <ele>39</ele>
        <time>2019-03-26T16:16:54Z</time>
      </trkpt>
      <trkpt lat="46.46132" lon="-1.46186">
        <ele>39</ele>
        <time>2019-03-26T16:16:56Z</time>
      </trkpt>
      <trkpt lat="46.46136" lon="-1.46182">
        <ele>39</ele>
        <time>2019-03-26T16:16:59Z</time>
      </trkpt>
      <trkpt lat="46.46141" lon="-1.46178">
        <ele>38</ele>
        <time>2019-03-26T16:17:02Z</time>
      </trkpt>
      <trkpt lat="46.46143" lon="-1.46175">
        <ele>38</ele>
        <time>2019-03-26T16:17:04Z</time>
      </trkpt>
      <trkpt lat="46.46148" lon="-1.46172">
        <ele>38</ele>
        <time>2019-03-26T16:17:07Z</time>
      </trkpt>
      <trkpt lat="46.46153" lon="-1.46171">
        <ele>38</ele>
        <time>2019-03-26T16:17:09Z</time>
      </trkpt>
      <trkpt lat="46.46158" lon="-1.46168">
        <ele>37</ele>
        <time>2019-03-26T16:17:12Z</time>
      </trkpt>
      <trkpt lat="46.46161" lon="-1.46166">
        <ele>37</ele>
        <time>2019-03-26T16:17:14Z</time>
      </trkpt>
      <trkpt lat="46.46164" lon="-1.46162">
        <ele>37</ele>
        <time>2019-03-26T16:17:17Z</time>
      </trkpt>
      <trkpt lat="46.46166" lon="-1.46159">
        <ele>37</ele>
        <time>2019-03-26T16:17:19Z</time>
      </trkpt>
      <trkpt lat="46.46169" lon="-1.46157">
        <ele>37</ele>
        <time>2019-03-26T16:17:22Z</time>
      </trkpt>
      <trkpt lat="46.4617" lon="-1.46155">
        <ele>37</ele>
        <time>2019-03-26T16:17:24Z</time>
      </trkpt>
      <trkpt lat="46.46173" lon="-1.46151">
        <ele>37</ele>
        <time>2019-03-26T16:17:27Z</time>
      </trkpt>
      <trkpt lat="46.46174" lon="-1.4615">
        <ele>37</ele>
        <time>2019-03-26T16:17:30Z</time>
      </trkpt>
      <trkpt lat="46.46175" lon="-1.46148">
        <ele>37</ele>
        <time>2019-03-26T16:17:32Z</time>
      </trkpt>
      <trkpt lat="46.4618" lon="-1.46147">
        <ele>37</ele>
        <time>2019-03-26T16:17:35Z</time>
      </trkpt>
      <trkpt lat="46.46184" lon="-1.46145">
        <ele>37</ele>
        <time>2019-03-26T16:17:37Z</time>
      </trkpt>
      <trkpt lat="46.46188" lon="-1.46144">
        <ele>37</ele>
        <time>2019-03-26T16:17:40Z</time>
      </trkpt>
      <trkpt lat="46.46191" lon="-1.46142">
        <ele>37</ele>
        <time>2019-03-26T16:17:42Z</time>
      </trkpt>
      <trkpt lat="46.46193" lon="-1.46141">
        <ele>37</ele>
        <time>2019-03-26T16:17:45Z</time>
      </trkpt>
      <trkpt lat="46.46196" lon="-1.46139">
        <ele>37</ele>
        <time>2019-03-26T16:17:47Z</time>
      </trkpt>
      <trkpt lat="46.46201" lon="-1.46136">
        <ele>37</ele>
        <time>2019-03-26T16:17:50Z</time>
      </trkpt>
      <trkpt lat="46.46204" lon="-1.46135">
        <ele>37</ele>
        <time>2019-03-26T16:17:52Z</time>
      </trkpt>
      <trkpt lat="46.46209" lon="-1.46135">
        <ele>37</ele>
        <time>2019-03-26T16:17:55Z</time>
      </trkpt>
      <trkpt lat="46.46211" lon="-1.46134">
        <ele>37</ele>
        <time>2019-03-26T16:17:57Z</time>
      </trkpt>
      <trkpt lat="46.46216" lon="-1.46131">
        <ele>37</ele>
        <time>2019-03-26T16:18:00Z</time>
      </trkpt>
      <trkpt lat="46.46219" lon="-1.46129">
        <ele>37</ele>
        <time>2019-03-26T16:18:03Z</time>
      </trkpt>
      <trkpt lat="46.46219" lon="-1.46127">
        <ele>37</ele>
        <time>2019-03-26T16:18:05Z</time>
      </trkpt>
      <trkpt lat="46.46222" lon="-1.46125">
        <ele>37</ele>
        <time>2019-03-26T16:18:08Z</time>
      </trkpt>
      <trkpt lat="46.46225" lon="-1.46124">
        <ele>37</ele>
        <time>2019-03-26T16:18:10Z</time>
      </trkpt>
      <trkpt lat="46.46229" lon="-1.46123">
        <ele>38</ele>
        <time>2019-03-26T16:18:13Z</time>
      </trkpt>
      <trkpt lat="46.46231" lon="-1.46121">
        <ele>38</ele>
        <time>2019-03-26T16:18:15Z</time>
      </trkpt>
      <trkpt lat="46.46235" lon="-1.46121">
        <ele>38</ele>
        <time>2019-03-26T16:18:18Z</time>
      </trkpt>
      <trkpt lat="46.46238" lon="-1.46121">
        <ele>38</ele>
        <time>2019-03-26T16:18:20Z</time>
      </trkpt>
      <trkpt lat="46.46243" lon="-1.46121">
        <ele>38</ele>
        <time>2019-03-26T16:18:23Z</time>
      </trkpt>
      <trkpt lat="46.46248" lon="-1.4612">
        <ele>38</ele>
        <time>2019-03-26T16:18:26Z</time>
      </trkpt>
      <trkpt lat="46.46251" lon="-1.46121">
        <ele>38</ele>
        <time>2019-03-26T16:18:28Z</time>
      </trkpt>
      <trkpt lat="46.46255" lon="-1.46122">
        <ele>38</ele>
        <time>2019-03-26T16:18:31Z</time>
      </trkpt>
      <trkpt lat="46.46258" lon="-1.46122">
        <ele>38</ele>
        <time>2019-03-26T16:18:33Z</time>
      </trkpt>
      <trkpt lat="46.46261" lon="-1.46123">
        <ele>38</ele>
        <time>2019-03-26T16:18:36Z</time>
      </trkpt>
      <trkpt lat="46.46264" lon="-1.46123">
        <ele>38</ele>
        <time>2019-03-26T16:18:38Z</time>
      </trkpt>
      <trkpt lat="46.4627" lon="-1.46123">
        <ele>38</ele>
        <time>2019-03-26T16:18:41Z</time>
      </trkpt>
      <trkpt lat="46.46274" lon="-1.46123">
        <ele>38</ele>
        <time>2019-03-26T16:18:44Z</time>
      </trkpt>
      <trkpt lat="46.46277" lon="-1.46123">
        <ele>39</ele>
        <time>2019-03-26T16:18:46Z</time>
      </trkpt>
      <trkpt lat="46.46283" lon="-1.46123">
        <ele>39</ele>
        <time>2019-03-26T16:18:49Z</time>
      </trkpt>
      <trkpt lat="46.46285" lon="-1.46123">
        <ele>39</ele>
        <time>2019-03-26T16:18:51Z</time>
      </trkpt>
      <trkpt lat="46.46288" lon="-1.46123">
        <ele>39</ele>
        <time>2019-03-26T16:18:54Z</time>
      </trkpt>
      <trkpt lat="46.46291" lon="-1.46123">
        <ele>39</ele>
        <time>2019-03-26T16:18:57Z</time>
      </trkpt>
      <trkpt lat="46.46292" lon="-1.46122">
        <ele>39</ele>
        <time>2019-03-26T16:18:59Z</time>
      </trkpt>
      <trkpt lat="46.46296" lon="-1.46121">
        <ele>39</ele>
        <time>2019-03-26T16:19:02Z</time>
      </trkpt>
      <trkpt lat="46.46298" lon="-1.4612">
        <ele>39</ele>
        <time>2019-03-26T16:19:04Z</time>
      </trkpt>
      <trkpt lat="46.46301" lon="-1.46118">
        <ele>39</ele>
        <time>2019-03-26T16:19:07Z</time>
      </trkpt>
      <trkpt lat="46.46304" lon="-1.46117">
        <ele>40</ele>
        <time>2019-03-26T16:19:09Z</time>
      </trkpt>
      <trkpt lat="46.46308" lon="-1.46117">
        <ele>40</ele>
        <time>2019-03-26T16:19:12Z</time>
      </trkpt>
      <trkpt lat="46.4631" lon="-1.46116">
        <ele>40</ele>
        <time>2019-03-26T16:19:14Z</time>
      </trkpt>
      <trkpt lat="46.46314" lon="-1.46115">
        <ele>40</ele>
        <time>2019-03-26T16:19:17Z</time>
      </trkpt>
      <trkpt lat="46.4632" lon="-1.46115">
        <ele>40</ele>
        <time>2019-03-26T16:19:20Z</time>
      </trkpt>
      <trkpt lat="46.46323" lon="-1.46116">
        <ele>40</ele>
        <time>2019-03-26T16:19:22Z</time>
      </trkpt>
      <trkpt lat="46.46326" lon="-1.46116">
        <ele>40</ele>
        <time>2019-03-26T16:19:25Z</time>
      </trkpt>
      <trkpt lat="46.46328" lon="-1.46116">
        <ele>40</ele>
        <time>2019-03-26T16:19:27Z</time>
      </trkpt>
      <trkpt lat="46.46331" lon="-1.46115">
        <ele>40</ele>
        <time>2019-03-26T16:19:30Z</time>
      </trkpt>
      <trkpt lat="46.46333" lon="-1.46114">
        <ele>40</ele>
        <time>2019-03-26T16:19:32Z</time>
      </trkpt>
      <trkpt lat="46.46334" lon="-1.46113">
        <ele>40</ele>
        <time>2019-03-26T16:19:35Z</time>
      </trkpt>
      <trkpt lat="46.46335" lon="-1.46113">
        <ele>40</ele>
        <time>2019-03-26T16:19:38Z</time>
      </trkpt>
      <trkpt lat="46.46335" lon="-1.46112">
        <ele>40</ele>
        <time>2019-03-26T16:19:40Z</time>
      </trkpt>
      <trkpt lat="46.46335" lon="-1.46112">
        <ele>40</ele>
        <time>2019-03-26T16:19:43Z</time>
      </trkpt>
      <trkpt lat="46.46336" lon="-1.46112">
        <ele>40</ele>
        <time>2019-03-26T16:19:45Z</time>
      </trkpt>
      <trkpt lat="46.46335" lon="-1.46111">
        <ele>40</ele>
        <time>2019-03-26T16:19:48Z</time>
      </trkpt>
      <trkpt lat="46.46335" lon="-1.4611">
        <ele>40</ele>
        <time>2019-03-26T16:19:50Z</time>
      </trkpt>
      <trkpt lat="46.46334" lon="-1.4611">
        <ele>40</ele>
        <time>2019-03-26T16:19:53Z</time>
      </trkpt>
      <trkpt lat="46.46334" lon="-1.4611">
        <ele>40</ele>
        <time>2019-03-26T16:19:56Z</time>
      </trkpt>
      <trkpt lat="46.46335" lon="-1.4611">
        <ele>40</ele>
        <time>2019-03-26T16:19:58Z</time>
      </trkpt>
      <trkpt lat="46.46335" lon="-1.46109">
        <ele>40</ele>
        <time>2019-03-26T16:20:01Z</time>
      </trkpt>
      <trkpt lat="46.46335" lon="-1.46109">
        <ele>40</ele>
        <time>2019-03-26T16:20:03Z</time>
      </trkpt>
      <trkpt lat="46.46335" lon="-1.46108">
        <ele>40</ele>
        <time>2019-03-26T16:20:06Z</time>
      </trkpt>
      <trkpt lat="46.46335" lon="-1.46108">
        <ele>40</ele>
        <time>2019-03-26T16:20:09Z</time>
      </trkpt>
      <trkpt lat="46.46335" lon="-1.46108">
        <ele>40</ele>
        <time>2019-03-26T16:20:11Z</time>
      </trkpt>
      <trkpt lat="46.46336" lon="-1.46108">
        <ele>40</ele>
        <time>2019-03-26T16:20:14Z</time>
      </trkpt>
      <trkpt lat="46.46336" lon="-1.46108">
        <ele>40</ele>
        <time>2019-03-26T16:20:16Z</time>
      </trkpt>
      <trkpt lat="46.46336" lon="-1.46108">
        <ele>40</ele>
        <time>2019-03-26T16:20:19Z</time>
      </trkpt>
      <trkpt lat="46.46336" lon="-1.46108">
        <ele>40</ele>
        <time>2019-03-26T16:20:21Z</time>
      </trkpt>
      <trkpt lat="46.46336" lon="-1.46107">
        <ele>40</ele>
        <time>2019-03-26T16:20:24Z</time>
      </trkpt>
      <trkpt lat="46.46335" lon="-1.46107">
        <ele>40</ele>
        <time>2019-03-26T16:20:26Z</time>
      </trkpt>
      <trkpt lat="46.46335" lon="-1.46107">
        <ele>40</ele>
        <time>2019-03-26T16:20:29Z</time>
      </trkpt>
      <trkpt lat="46.46334" lon="-1.46107">
        <ele>40</ele>
        <time>2019-03-26T16:20:32Z</time>
      </trkpt>
      <trkpt lat="46.46333" lon="-1.46106">
        <ele>40</ele>
        <time>2019-03-26T16:20:34Z</time>
      </trkpt>
      <trkpt lat="46.46332" lon="-1.46106">
        <ele>40</ele>
        <time>2019-03-26T16:20:37Z</time>
      </trkpt>
      <trkpt lat="46.46331" lon="-1.46106">
        <ele>40</ele>
        <time>2019-03-26T16:20:39Z</time>
      </trkpt>
      <trkpt lat="46.46331" lon="-1.46105">
        <ele>40</ele>
        <time>2019-03-26T16:20:42Z</time>
      </trkpt>
      <trkpt lat="46.46331" lon="-1.46106">
        <ele>40</ele>
        <time>2019-03-26T16:20:44Z</time>
      </trkpt>
      <trkpt lat="46.46331" lon="-1.46106">
        <ele>40</ele>
        <time>2019-03-26T16:20:47Z</time>
      </trkpt>
      <trkpt lat="46.46331" lon="-1.46107">
        <ele>40</ele>
        <time>2019-03-26T16:20:49Z</time>
      </trkpt>
      <trkpt lat="46.46331" lon="-1.46107">
        <ele>40</ele>
        <time>2019-03-26T16:20:52Z</time>
      </trkpt>
      <trkpt lat="46.4633" lon="-1.46107">
        <ele>40</ele>
        <time>2019-03-26T16:20:54Z</time>
      </trkpt>
      <trkpt lat="46.46331" lon="-1.46108">
        <ele>40</ele>
        <time>2019-03-26T16:20:57Z</time>
      </trkpt>
      <trkpt lat="46.46331" lon="-1.46107">
        <ele>40</ele>
        <time>2019-03-26T16:20:59Z</time>
      </trkpt>
      <trkpt lat="46.46331" lon="-1.46107">
        <ele>40</ele>
        <time>2019-03-26T16:21:02Z</time>
      </trkpt>
      <trkpt lat="46.46331" lon="-1.46107">
        <ele>40</ele>
        <time>2019-03-26T16:21:04Z</time>
      </trkpt>
      <trkpt lat="46.46332" lon="-1.46107">
        <ele>40</ele>
        <time>2019-03-26T16:21:07Z</time>
      </trkpt>
      <trkpt lat="46.46332" lon="-1.46107">
        <ele>40</ele>
        <time>2019-03-26T16:21:09Z</time>
      </trkpt>
      <trkpt lat="46.46332" lon="-1.46106">
        <ele>40</ele>
        <time>2019-03-26T16:21:12Z</time>
      </trkpt>
      <trkpt lat="46.46332" lon="-1.46106">
        <ele>40</ele>
        <time>2019-03-26T16:21:15Z</time>
      </trkpt>
      <trkpt lat="46.46332" lon="-1.46106">
        <ele>40</ele>
        <time>2019-03-26T16:21:17Z</time>
      </trkpt>
      <trkpt lat="46.46334" lon="-1.46104">
        <ele>40</ele>
        <time>2019-03-26T16:21:20Z</time>
      </trkpt>
      <trkpt lat="46.46334" lon="-1.46104">
        <ele>40</ele>
        <time>2019-03-26T16:21:22Z</time>
      </trkpt>
      <trkpt lat="46.46334" lon="-1.46104">
        <ele>40</ele>
        <time>2019-03-26T16:21:25Z</time>
      </trkpt>
      <trkpt lat="46.46334" lon="-1.46105">
        <ele>40</ele>
        <time>2019-03-26T16:21:27Z</time>
      </trkpt>
      <trkpt lat="46.46334" lon="-1.46104">
        <ele>40</ele>
        <time>2019-03-26T16:21:30Z</time>
      </trkpt>
      <trkpt lat="46.46334" lon="-1.46105">
        <ele>40</ele>
        <time>2019-03-26T16:21:32Z</time>
      </trkpt>
      <trkpt lat="46.46334" lon="-1.46104">
        <ele>40</ele>
        <time>2019-03-26T16:21:35Z</time>
      </trkpt>
      <trkpt lat="46.46334" lon="-1.46104">
        <ele>40</ele>
        <time>2019-03-26T16:21:38Z</time>
      </trkpt>
      <trkpt lat="46.46335" lon="-1.46104">
        <ele>40</ele>
        <time>2019-03-26T16:21:40Z</time>
      </trkpt>
      <trkpt lat="46.46335" lon="-1.46103">
        <ele>40</ele>
        <time>2019-03-26T16:21:43Z</time>
      </trkpt>
      <trkpt lat="46.46336" lon="-1.46104">
        <ele>40</ele>
        <time>2019-03-26T16:21:45Z</time>
      </trkpt>
      <trkpt lat="46.46336" lon="-1.46103">
        <ele>40</ele>
        <time>2019-03-26T16:21:48Z</time>
      </trkpt>
      <trkpt lat="46.46336" lon="-1.46102">
        <ele>40</ele>
        <time>2019-03-26T16:21:50Z</time>
      </trkpt>
      <trkpt lat="46.46337" lon="-1.46102">
        <ele>40</ele>
        <time>2019-03-26T16:21:53Z</time>
      </trkpt>
      <trkpt lat="46.46337" lon="-1.46103">
        <ele>40</ele>
        <time>2019-03-26T16:21:55Z</time>
      </trkpt>
      <trkpt lat="46.46337" lon="-1.46103">
        <ele>40</ele>
        <time>2019-03-26T16:21:58Z</time>
      </trkpt>
      <trkpt lat="46.46337" lon="-1.46104">
        <ele>40</ele>
        <time>2019-03-26T16:22:00Z</time>
      </trkpt>
      <trkpt lat="46.46338" lon="-1.46104">
        <ele>40</ele>
        <time>2019-03-26T16:22:03Z</time>
      </trkpt>
      <trkpt lat="46.46337" lon="-1.46105">
        <ele>40</ele>
        <time>2019-03-26T16:22:06Z</time>
      </trkpt>
      <trkpt lat="46.46339" lon="-1.46105">
        <ele>40</ele>
        <time>2019-03-26T16:22:08Z</time>
      </trkpt>
      <trkpt lat="46.46339" lon="-1.46106">
        <ele>40</ele>
        <time>2019-03-26T16:22:11Z</time>
      </trkpt>
      <trkpt lat="46.46339" lon="-1.46106">
        <ele>40</ele>
        <time>2019-03-26T16:22:13Z</time>
      </trkpt>
      <trkpt lat="46.46341" lon="-1.46106">
        <ele>40</ele>
        <time>2019-03-26T16:22:16Z</time>
      </trkpt>
      <trkpt lat="46.46341" lon="-1.46106">
        <ele>40</ele>
        <time>2019-03-26T16:22:18Z</time>
      </trkpt>
      <trkpt lat="46.46342" lon="-1.46106">
        <ele>40</ele>
        <time>2019-03-26T16:22:21Z</time>
      </trkpt>
      <trkpt lat="46.46342" lon="-1.46107">
        <ele>40</ele>
        <time>2019-03-26T16:22:23Z</time>
      </trkpt>
      <trkpt lat="46.46343" lon="-1.46107">
        <ele>40</ele>
        <time>2019-03-26T16:22:26Z</time>
      </trkpt>
      <trkpt lat="46.46343" lon="-1.46107">
        <ele>40</ele>
        <time>2019-03-26T16:22:28Z</time>
      </trkpt>
      <trkpt lat="46.46345" lon="-1.46105">
        <ele>40</ele>
        <time>2019-03-26T16:22:31Z</time>
      </trkpt>
      <trkpt lat="46.46345" lon="-1.46105">
        <ele>40</ele>
        <time>2019-03-26T16:22:33Z</time>
      </trkpt>
      <trkpt lat="46.46348" lon="-1.46106">
        <ele>40</ele>
        <time>2019-03-26T16:22:36Z</time>
      </trkpt>
      <trkpt lat="46.46349" lon="-1.46106">
        <ele>40</ele>
        <time>2019-03-26T16:22:38Z</time>
      </trkpt>
      <trkpt lat="46.46351" lon="-1.46105">
        <ele>40</ele>
        <time>2019-03-26T16:22:41Z</time>
      </trkpt>
      <trkpt lat="46.46353" lon="-1.46105">
        <ele>40</ele>
        <time>2019-03-26T16:22:43Z</time>
      </trkpt>
      <trkpt lat="46.46357" lon="-1.46104">
        <ele>40</ele>
        <time>2019-03-26T16:22:46Z</time>
      </trkpt>
      <trkpt lat="46.46358" lon="-1.46102">
        <ele>40</ele>
        <time>2019-03-26T16:22:49Z</time>
      </trkpt>
      <trkpt lat="46.4636" lon="-1.46102">
        <ele>40</ele>
        <time>2019-03-26T16:22:51Z</time>
      </trkpt>
      <trkpt lat="46.46361" lon="-1.461">
        <ele>40</ele>
        <time>2019-03-26T16:22:54Z</time>
      </trkpt>
      <trkpt lat="46.46362" lon="-1.46099">
        <ele>40</ele>
        <time>2019-03-26T16:22:56Z</time>
      </trkpt>
      <trkpt lat="46.46364" lon="-1.46097">
        <ele>40</ele>
        <time>2019-03-26T16:22:59Z</time>
      </trkpt>
      <trkpt lat="46.46365" lon="-1.46096">
        <ele>40</ele>
        <time>2019-03-26T16:23:01Z</time>
      </trkpt>
      <trkpt lat="46.46366" lon="-1.46093">
        <ele>40</ele>
        <time>2019-03-26T16:23:04Z</time>
      </trkpt>
      <trkpt lat="46.46368" lon="-1.46092">
        <ele>40</ele>
        <time>2019-03-26T16:23:06Z</time>
      </trkpt>
      <trkpt lat="46.46371" lon="-1.4609">
        <ele>40</ele>
        <time>2019-03-26T16:23:09Z</time>
      </trkpt>
      <trkpt lat="46.46372" lon="-1.46087">
        <ele>40</ele>
        <time>2019-03-26T16:23:11Z</time>
      </trkpt>
      <trkpt lat="46.46375" lon="-1.46084">
        <ele>40</ele>
        <time>2019-03-26T16:23:14Z</time>
      </trkpt>
      <trkpt lat="46.46377" lon="-1.46082">
        <ele>40</ele>
        <time>2019-03-26T16:23:16Z</time>
      </trkpt>
      <trkpt lat="46.46378" lon="-1.46079">
        <ele>40</ele>
        <time>2019-03-26T16:23:19Z</time>
      </trkpt>
      <trkpt lat="46.4638" lon="-1.46076">
        <ele>40</ele>
        <time>2019-03-26T16:23:21Z</time>
      </trkpt>
      <trkpt lat="46.46382" lon="-1.46071">
        <ele>40</ele>
        <time>2019-03-26T16:23:24Z</time>
      </trkpt>
      <trkpt lat="46.46385" lon="-1.46067">
        <ele>40</ele>
        <time>2019-03-26T16:23:27Z</time>
      </trkpt>
      <trkpt lat="46.46387" lon="-1.46063">
        <ele>40</ele>
        <time>2019-03-26T16:23:29Z</time>
      </trkpt>
      <trkpt lat="46.46391" lon="-1.46059">
        <ele>39</ele>
        <time>2019-03-26T16:23:32Z</time>
      </trkpt>
      <trkpt lat="46.46394" lon="-1.46057">
        <ele>39</ele>
        <time>2019-03-26T16:23:34Z</time>
      </trkpt>
      <trkpt lat="46.46398" lon="-1.46052">
        <ele>39</ele>
        <time>2019-03-26T16:23:37Z</time>
      </trkpt>
      <trkpt lat="46.46401" lon="-1.4605">
        <ele>39</ele>
        <time>2019-03-26T16:23:39Z</time>
      </trkpt>
      <trkpt lat="46.46405" lon="-1.46045">
        <ele>39</ele>
        <time>2019-03-26T16:23:42Z</time>
      </trkpt>
      <trkpt lat="46.46407" lon="-1.46042">
        <ele>39</ele>
        <time>2019-03-26T16:23:44Z</time>
      </trkpt>
      <trkpt lat="46.46409" lon="-1.46036">
        <ele>39</ele>
        <time>2019-03-26T16:23:47Z</time>
      </trkpt>
      <trkpt lat="46.46411" lon="-1.46032">
        <ele>39</ele>
        <time>2019-03-26T16:23:50Z</time>
      </trkpt>
      <trkpt lat="46.46412" lon="-1.46028">
        <ele>39</ele>
        <time>2019-03-26T16:23:52Z</time>
      </trkpt>
      <trkpt lat="46.46414" lon="-1.46023">
        <ele>39</ele>
        <time>2019-03-26T16:23:55Z</time>
      </trkpt>
      <trkpt lat="46.46417" lon="-1.46022">
        <ele>39</ele>
        <time>2019-03-26T16:23:57Z</time>
      </trkpt>
      <trkpt lat="46.46422" lon="-1.46018">
        <ele>39</ele>
        <time>2019-03-26T16:24:00Z</time>
      </trkpt>
      <trkpt lat="46.46424" lon="-1.46015">
        <ele>39</ele>
        <time>2019-03-26T16:24:02Z</time>
      </trkpt>
      <trkpt lat="46.46426" lon="-1.46012">
        <ele>39</ele>
        <time>2019-03-26T16:24:05Z</time>
      </trkpt>
      <trkpt lat="46.46427" lon="-1.46009">
        <ele>39</ele>
        <time>2019-03-26T16:24:07Z</time>
      </trkpt>
      <trkpt lat="46.46428" lon="-1.46006">
        <ele>39</ele>
        <time>2019-03-26T16:24:10Z</time>
      </trkpt>
      <trkpt lat="46.46433" lon="-1.46003">
        <ele>39</ele>
        <time>2019-03-26T16:24:13Z</time>
      </trkpt>
      <trkpt lat="46.46435" lon="-1.46">
        <ele>38</ele>
        <time>2019-03-26T16:24:15Z</time>
      </trkpt>
      <trkpt lat="46.46439" lon="-1.45995">
        <ele>39</ele>
        <time>2019-03-26T16:24:18Z</time>
      </trkpt>
      <trkpt lat="46.46441" lon="-1.45993">
        <ele>38</ele>
        <time>2019-03-26T16:24:20Z</time>
      </trkpt>
      <trkpt lat="46.46444" lon="-1.4599">
        <ele>38</ele>
        <time>2019-03-26T16:24:23Z</time>
      </trkpt>
      <trkpt lat="46.46447" lon="-1.45988">
        <ele>39</ele>
        <time>2019-03-26T16:24:26Z</time>
      </trkpt>
      <trkpt lat="46.46449" lon="-1.45985">
        <ele>38</ele>
        <time>2019-03-26T16:24:28Z</time>
      </trkpt>
      <trkpt lat="46.46452" lon="-1.45981">
        <ele>38</ele>
        <time>2019-03-26T16:24:31Z</time>
      </trkpt>
      <trkpt lat="46.46453" lon="-1.45979">
        <ele>38</ele>
        <time>2019-03-26T16:24:33Z</time>
      </trkpt>
      <trkpt lat="46.46456" lon="-1.45976">
        <ele>38</ele>
        <time>2019-03-26T16:24:36Z</time>
      </trkpt>
      <trkpt lat="46.46461" lon="-1.45972">
        <ele>38</ele>
        <time>2019-03-26T16:24:39Z</time>
      </trkpt>
      <trkpt lat="46.46464" lon="-1.4597">
        <ele>38</ele>
        <time>2019-03-26T16:24:41Z</time>
      </trkpt>
      <trkpt lat="46.46469" lon="-1.45968">
        <ele>38</ele>
        <time>2019-03-26T16:24:44Z</time>
      </trkpt>
      <trkpt lat="46.46471" lon="-1.45966">
        <ele>38</ele>
        <time>2019-03-26T16:24:46Z</time>
      </trkpt>
      <trkpt lat="46.46474" lon="-1.45964">
        <ele>38</ele>
        <time>2019-03-26T16:24:49Z</time>
      </trkpt>
      <trkpt lat="46.46475" lon="-1.45961">
        <ele>38</ele>
        <time>2019-03-26T16:24:51Z</time>
      </trkpt>
      <trkpt lat="46.46478" lon="-1.4596">
        <ele>38</ele>
        <time>2019-03-26T16:24:54Z</time>
      </trkpt>
      <trkpt lat="46.4648" lon="-1.45958">
        <ele>38</ele>
        <time>2019-03-26T16:24:56Z</time>
      </trkpt>
      <trkpt lat="46.46483" lon="-1.45955">
        <ele>38</ele>
        <time>2019-03-26T16:24:59Z</time>
      </trkpt>
      <trkpt lat="46.46487" lon="-1.45952">
        <ele>38</ele>
        <time>2019-03-26T16:25:02Z</time>
      </trkpt>
      <trkpt lat="46.46489" lon="-1.45948">
        <ele>38</ele>
        <time>2019-03-26T16:25:04Z</time>
      </trkpt>
      <trkpt lat="46.46491" lon="-1.45943">
        <ele>38</ele>
        <time>2019-03-26T16:25:07Z</time>
      </trkpt>
      <trkpt lat="46.46494" lon="-1.45939">
        <ele>38</ele>
        <time>2019-03-26T16:25:09Z</time>
      </trkpt>
      <trkpt lat="46.46498" lon="-1.45935">
        <ele>39</ele>
        <time>2019-03-26T16:25:12Z</time>
      </trkpt>
      <trkpt lat="46.465" lon="-1.4593">
        <ele>38</ele>
        <time>2019-03-26T16:25:15Z</time>
      </trkpt>
      <trkpt lat="46.46502" lon="-1.45927">
        <ele>39</ele>
        <time>2019-03-26T16:25:17Z</time>
      </trkpt>
      <trkpt lat="46.46506" lon="-1.45922">
        <ele>39</ele>
        <time>2019-03-26T16:25:20Z</time>
      </trkpt>
      <trkpt lat="46.4651" lon="-1.4592">
        <ele>39</ele>
        <time>2019-03-26T16:25:22Z</time>
      </trkpt>
      <trkpt lat="46.46513" lon="-1.45917">
        <ele>39</ele>
        <time>2019-03-26T16:25:25Z</time>
      </trkpt>
      <trkpt lat="46.46516" lon="-1.45915">
        <ele>39</ele>
        <time>2019-03-26T16:25:27Z</time>
      </trkpt>
      <trkpt lat="46.4652" lon="-1.45912">
        <ele>39</ele>
        <time>2019-03-26T16:25:30Z</time>
      </trkpt>
      <trkpt lat="46.46525" lon="-1.45909">
        <ele>39</ele>
        <time>2019-03-26T16:25:33Z</time>
      </trkpt>
      <trkpt lat="46.46528" lon="-1.45907">
        <ele>39</ele>
        <time>2019-03-26T16:25:35Z</time>
      </trkpt>
      <trkpt lat="46.46532" lon="-1.45905">
        <ele>39</ele>
        <time>2019-03-26T16:25:38Z</time>
      </trkpt>
      <trkpt lat="46.46534" lon="-1.45904">
        <ele>39</ele>
        <time>2019-03-26T16:25:40Z</time>
      </trkpt>
      <trkpt lat="46.46537" lon="-1.45903">
        <ele>39</ele>
        <time>2019-03-26T16:25:43Z</time>
      </trkpt>
      <trkpt lat="46.46538" lon="-1.45902">
        <ele>39</ele>
        <time>2019-03-26T16:25:45Z</time>
      </trkpt>
      <trkpt lat="46.46542" lon="-1.45901">
        <ele>39</ele>
        <time>2019-03-26T16:25:48Z</time>
      </trkpt>
      <trkpt lat="46.46544" lon="-1.45901">
        <ele>39</ele>
        <time>2019-03-26T16:25:50Z</time>
      </trkpt>
      <trkpt lat="46.46546" lon="-1.45901">
        <ele>39</ele>
        <time>2019-03-26T16:25:53Z</time>
      </trkpt>
      <trkpt lat="46.46549" lon="-1.45902">
        <ele>38</ele>
        <time>2019-03-26T16:25:55Z</time>
      </trkpt>
      <trkpt lat="46.46553" lon="-1.45904">
        <ele>38</ele>
        <time>2019-03-26T16:25:58Z</time>
      </trkpt>
      <trkpt lat="46.46554" lon="-1.45905">
        <ele>38</ele>
        <time>2019-03-26T16:26:00Z</time>
      </trkpt>
      <trkpt lat="46.46557" lon="-1.45906">
        <ele>38</ele>
        <time>2019-03-26T16:26:03Z</time>
      </trkpt>
      <trkpt lat="46.46558" lon="-1.45906">
        <ele>38</ele>
        <time>2019-03-26T16:26:05Z</time>
      </trkpt>
      <trkpt lat="46.46559" lon="-1.45905">
        <ele>38</ele>
        <time>2019-03-26T16:26:08Z</time>
      </trkpt>
      <trkpt lat="46.46558" lon="-1.45905">
        <ele>38</ele>
        <time>2019-03-26T16:26:11Z</time>
      </trkpt>
      <trkpt lat="46.46558" lon="-1.45903">
        <ele>38</ele>
        <time>2019-03-26T16:26:13Z</time>
      </trkpt>
      <trkpt lat="46.46557" lon="-1.459">
        <ele>38</ele>
        <time>2019-03-26T16:26:16Z</time>
      </trkpt>
      <trkpt lat="46.46555" lon="-1.45898">
        <ele>38</ele>
        <time>2019-03-26T16:26:18Z</time>
      </trkpt>
      <trkpt lat="46.46555" lon="-1.45896">
        <ele>38</ele>
        <time>2019-03-26T16:26:21Z</time>
      </trkpt>
      <trkpt lat="46.46555" lon="-1.45895">
        <ele>39</ele>
        <time>2019-03-26T16:26:23Z</time>
      </trkpt>
      <trkpt lat="46.46556" lon="-1.45894">
        <ele>39</ele>
        <time>2019-03-26T16:26:26Z</time>
      </trkpt>
      <trkpt lat="46.46556" lon="-1.45893">
        <ele>39</ele>
        <time>2019-03-26T16:26:28Z</time>
      </trkpt>
      <trkpt lat="46.46556" lon="-1.45895">
        <ele>39</ele>
        <time>2019-03-26T16:26:31Z</time>
      </trkpt>
      <trkpt lat="46.46557" lon="-1.45896">
        <ele>38</ele>
        <time>2019-03-26T16:26:33Z</time>
      </trkpt>
      <trkpt lat="46.46559" lon="-1.45899">
        <ele>38</ele>
        <time>2019-03-26T16:26:36Z</time>
      </trkpt>
      <trkpt lat="46.46561" lon="-1.459">
        <ele>38</ele>
        <time>2019-03-26T16:26:38Z</time>
      </trkpt>
      <trkpt lat="46.46563" lon="-1.45901">
        <ele>38</ele>
        <time>2019-03-26T16:26:41Z</time>
      </trkpt>
      <trkpt lat="46.46563" lon="-1.45902">
        <ele>38</ele>
        <time>2019-03-26T16:26:43Z</time>
      </trkpt>
      <trkpt lat="46.46564" lon="-1.45903">
        <ele>38</ele>
        <time>2019-03-26T16:26:46Z</time>
      </trkpt>
      <trkpt lat="46.46565" lon="-1.45905">
        <ele>38</ele>
        <time>2019-03-26T16:26:48Z</time>
      </trkpt>
      <trkpt lat="46.46566" lon="-1.45909">
        <ele>38</ele>
        <time>2019-03-26T16:26:51Z</time>
      </trkpt>
      <trkpt lat="46.46567" lon="-1.45911">
        <ele>38</ele>
        <time>2019-03-26T16:26:54Z</time>
      </trkpt>
      <trkpt lat="46.46567" lon="-1.45913">
        <ele>38</ele>
        <time>2019-03-26T16:26:56Z</time>
      </trkpt>
      <trkpt lat="46.46568" lon="-1.45915">
        <ele>38</ele>
        <time>2019-03-26T16:26:59Z</time>
      </trkpt>
      <trkpt lat="46.46569" lon="-1.45916">
        <ele>38</ele>
        <time>2019-03-26T16:27:01Z</time>
      </trkpt>
      <trkpt lat="46.4657" lon="-1.45919">
        <ele>38</ele>
        <time>2019-03-26T16:27:04Z</time>
      </trkpt>
      <trkpt lat="46.46571" lon="-1.45921">
        <ele>38</ele>
        <time>2019-03-26T16:27:06Z</time>
      </trkpt>
      <trkpt lat="46.46571" lon="-1.45921">
        <ele>38</ele>
        <time>2019-03-26T16:27:09Z</time>
      </trkpt>
      <trkpt lat="46.46571" lon="-1.4592">
        <ele>38</ele>
        <time>2019-03-26T16:27:11Z</time>
      </trkpt>
      <trkpt lat="46.46569" lon="-1.45918">
        <ele>38</ele>
        <time>2019-03-26T16:27:14Z</time>
      </trkpt>
      <trkpt lat="46.46568" lon="-1.45917">
        <ele>38</ele>
        <time>2019-03-26T16:27:17Z</time>
      </trkpt>
      <trkpt lat="46.46568" lon="-1.45917">
        <ele>38</ele>
        <time>2019-03-26T16:27:19Z</time>
      </trkpt>
      <trkpt lat="46.46568" lon="-1.45916">
        <ele>38</ele>
        <time>2019-03-26T16:27:22Z</time>
      </trkpt>
      <trkpt lat="46.46568" lon="-1.45914">
        <ele>38</ele>
        <time>2019-03-26T16:27:24Z</time>
      </trkpt>
      <trkpt lat="46.46567" lon="-1.45912">
        <ele>38</ele>
        <time>2019-03-26T16:27:27Z</time>
      </trkpt>
      <trkpt lat="46.46567" lon="-1.45911">
        <ele>38</ele>
        <time>2019-03-26T16:27:29Z</time>
      </trkpt>
      <trkpt lat="46.46567" lon="-1.4591">
        <ele>38</ele>
        <time>2019-03-26T16:27:32Z</time>
      </trkpt>
      <trkpt lat="46.46567" lon="-1.45908">
        <ele>38</ele>
        <time>2019-03-26T16:27:35Z</time>
      </trkpt>
      <trkpt lat="46.46567" lon="-1.45907">
        <ele>38</ele>
        <time>2019-03-26T16:27:37Z</time>
      </trkpt>
      <trkpt lat="46.46566" lon="-1.45905">
        <ele>38</ele>
        <time>2019-03-26T16:27:40Z</time>
      </trkpt>
      <trkpt lat="46.46566" lon="-1.45904">
        <ele>38</ele>
        <time>2019-03-26T16:27:42Z</time>
      </trkpt>
      <trkpt lat="46.46565" lon="-1.45904">
        <ele>38</ele>
        <time>2019-03-26T16:27:45Z</time>
      </trkpt>
      <trkpt lat="46.46566" lon="-1.45904">
        <ele>38</ele>
        <time>2019-03-26T16:27:48Z</time>
      </trkpt>
      <trkpt lat="46.46566" lon="-1.45903">
        <ele>38</ele>
        <time>2019-03-26T16:27:50Z</time>
      </trkpt>
      <trkpt lat="46.46567" lon="-1.45903">
        <ele>38</ele>
        <time>2019-03-26T16:27:53Z</time>
      </trkpt>
      <trkpt lat="46.46567" lon="-1.45903">
        <ele>38</ele>
        <time>2019-03-26T16:27:55Z</time>
      </trkpt>
      <trkpt lat="46.46567" lon="-1.45903">
        <ele>38</ele>
        <time>2019-03-26T16:27:58Z</time>
      </trkpt>
      <trkpt lat="46.46567" lon="-1.45903">
        <ele>38</ele>
        <time>2019-03-26T16:28:00Z</time>
      </trkpt>
      <trkpt lat="46.46566" lon="-1.45903">
        <ele>38</ele>
        <time>2019-03-26T16:28:03Z</time>
      </trkpt>
      <trkpt lat="46.46566" lon="-1.45903">
        <ele>38</ele>
        <time>2019-03-26T16:28:05Z</time>
      </trkpt>
      <trkpt lat="46.46567" lon="-1.45901">
        <ele>38</ele>
        <time>2019-03-26T16:28:08Z</time>
      </trkpt>
      <trkpt lat="46.46566" lon="-1.45901">
        <ele>38</ele>
        <time>2019-03-26T16:28:11Z</time>
      </trkpt>
      <trkpt lat="46.46566" lon="-1.45903">
        <ele>38</ele>
        <time>2019-03-26T16:28:13Z</time>
      </trkpt>
      <trkpt lat="46.46567" lon="-1.45903">
        <ele>38</ele>
        <time>2019-03-26T16:28:16Z</time>
      </trkpt>
      <trkpt lat="46.46567" lon="-1.45903">
        <ele>38</ele>
        <time>2019-03-26T16:28:18Z</time>
      </trkpt>
      <trkpt lat="46.4657" lon="-1.45903">
        <ele>38</ele>
        <time>2019-03-26T16:28:21Z</time>
      </trkpt>
      <trkpt lat="46.46572" lon="-1.45904">
        <ele>38</ele>
        <time>2019-03-26T16:28:23Z</time>
      </trkpt>
      <trkpt lat="46.46572" lon="-1.45905">
        <ele>38</ele>
        <time>2019-03-26T16:28:26Z</time>
      </trkpt>
      <trkpt lat="46.46573" lon="-1.45905">
        <ele>38</ele>
        <time>2019-03-26T16:28:28Z</time>
      </trkpt>
      <trkpt lat="46.46574" lon="-1.45906">
        <ele>38</ele>
        <time>2019-03-26T16:28:31Z</time>
      </trkpt>
      <trkpt lat="46.46574" lon="-1.45907">
        <ele>38</ele>
        <time>2019-03-26T16:28:33Z</time>
      </trkpt>
      <trkpt lat="46.46574" lon="-1.45908">
        <ele>38</ele>
        <time>2019-03-26T16:28:36Z</time>
      </trkpt>
      <trkpt lat="46.46573" lon="-1.45908">
        <ele>38</ele>
        <time>2019-03-26T16:28:38Z</time>
      </trkpt>
      <trkpt lat="46.46572" lon="-1.45908">
        <ele>38</ele>
        <time>2019-03-26T16:28:41Z</time>
      </trkpt>
      <trkpt lat="46.46573" lon="-1.45909">
        <ele>38</ele>
        <time>2019-03-26T16:28:43Z</time>
      </trkpt>
      <trkpt lat="46.46574" lon="-1.45909">
        <ele>38</ele>
        <time>2019-03-26T16:28:46Z</time>
      </trkpt>
      <trkpt lat="46.46573" lon="-1.45909">
        <ele>38</ele>
        <time>2019-03-26T16:28:49Z</time>
      </trkpt>
      <trkpt lat="46.46573" lon="-1.4591">
        <ele>38</ele>
        <time>2019-03-26T16:28:51Z</time>
      </trkpt>
      <trkpt lat="46.46573" lon="-1.4591">
        <ele>38</ele>
        <time>2019-03-26T16:28:54Z</time>
      </trkpt>
      <trkpt lat="46.46573" lon="-1.4591">
        <ele>38</ele>
        <time>2019-03-26T16:28:56Z</time>
      </trkpt>
      <trkpt lat="46.46574" lon="-1.4591">
        <ele>38</ele>
        <time>2019-03-26T16:28:59Z</time>
      </trkpt>
      <trkpt lat="46.46575" lon="-1.45911">
        <ele>38</ele>
        <time>2019-03-26T16:29:01Z</time>
      </trkpt>
      <trkpt lat="46.46578" lon="-1.45912">
        <ele>38</ele>
        <time>2019-03-26T16:29:04Z</time>
      </trkpt>
      <trkpt lat="46.46578" lon="-1.45913">
        <ele>38</ele>
        <time>2019-03-26T16:29:06Z</time>
      </trkpt>
      <trkpt lat="46.46578" lon="-1.45913">
        <ele>38</ele>
        <time>2019-03-26T16:29:09Z</time>
      </trkpt>
      <trkpt lat="46.46577" lon="-1.45913">
        <ele>38</ele>
        <time>2019-03-26T16:29:11Z</time>
      </trkpt>
      <trkpt lat="46.46576" lon="-1.45912">
        <ele>38</ele>
        <time>2019-03-26T16:29:14Z</time>
      </trkpt>
      <trkpt lat="46.46576" lon="-1.45913">
        <ele>38</ele>
        <time>2019-03-26T16:29:16Z</time>
      </trkpt>
      <trkpt lat="46.46576" lon="-1.45912">
        <ele>38</ele>
        <time>2019-03-26T16:29:19Z</time>
      </trkpt>
      <trkpt lat="46.46576" lon="-1.45911">
        <ele>38</ele>
        <time>2019-03-26T16:29:22Z</time>
      </trkpt>
      <trkpt lat="46.46576" lon="-1.45911">
        <ele>38</ele>
        <time>2019-03-26T16:29:24Z</time>
      </trkpt>
      <trkpt lat="46.46578" lon="-1.45911">
        <ele>38</ele>
        <time>2019-03-26T16:29:27Z</time>
      </trkpt>
      <trkpt lat="46.46578" lon="-1.45912">
        <ele>38</ele>
        <time>2019-03-26T16:29:29Z</time>
      </trkpt>
      <trkpt lat="46.4658" lon="-1.45914">
        <ele>38</ele>
        <time>2019-03-26T16:29:32Z</time>
      </trkpt>
      <trkpt lat="46.4658" lon="-1.45915">
        <ele>38</ele>
        <time>2019-03-26T16:29:34Z</time>
      </trkpt>
      <trkpt lat="46.4658" lon="-1.45915">
        <ele>38</ele>
        <time>2019-03-26T16:29:37Z</time>
      </trkpt>
      <trkpt lat="46.4658" lon="-1.45915">
        <ele>38</ele>
        <time>2019-03-26T16:29:39Z</time>
      </trkpt>
      <trkpt lat="46.46579" lon="-1.45915">
        <ele>38</ele>
        <time>2019-03-26T16:29:42Z</time>
      </trkpt>
      <trkpt lat="46.46578" lon="-1.45915">
        <ele>38</ele>
        <time>2019-03-26T16:29:45Z</time>
      </trkpt>
      <trkpt lat="46.46578" lon="-1.45915">
        <ele>38</ele>
        <time>2019-03-26T16:29:47Z</time>
      </trkpt>
      <trkpt lat="46.46578" lon="-1.45914">
        <ele>38</ele>
        <time>2019-03-26T16:29:50Z</time>
      </trkpt>
      <trkpt lat="46.46578" lon="-1.45914">
        <ele>38</ele>
        <time>2019-03-26T16:29:52Z</time>
      </trkpt>
      <trkpt lat="46.46578" lon="-1.45915">
        <ele>38</ele>
        <time>2019-03-26T16:29:55Z</time>
      </trkpt>
      <trkpt lat="46.46578" lon="-1.45915">
        <ele>38</ele>
        <time>2019-03-26T16:29:57Z</time>
      </trkpt>
      <trkpt lat="46.46578" lon="-1.45916">
        <ele>38</ele>
        <time>2019-03-26T16:30:00Z</time>
      </trkpt>
      <trkpt lat="46.46578" lon="-1.45917">
        <ele>38</ele>
        <time>2019-03-26T16:30:02Z</time>
      </trkpt>
      <trkpt lat="46.46579" lon="-1.45918">
        <ele>38</ele>
        <time>2019-03-26T16:30:05Z</time>
      </trkpt>
      <trkpt lat="46.4658" lon="-1.4592">
        <ele>38</ele>
        <time>2019-03-26T16:30:08Z</time>
      </trkpt>
      <trkpt lat="46.46582" lon="-1.45921">
        <ele>38</ele>
        <time>2019-03-26T16:30:10Z</time>
      </trkpt>
      <trkpt lat="46.46584" lon="-1.45922">
        <ele>38</ele>
        <time>2019-03-26T16:30:13Z</time>
      </trkpt>
      <trkpt lat="46.46586" lon="-1.45924">
        <ele>38</ele>
        <time>2019-03-26T16:30:15Z</time>
      </trkpt>
      <trkpt lat="46.46589" lon="-1.45926">
        <ele>38</ele>
        <time>2019-03-26T16:30:18Z</time>
      </trkpt>
      <trkpt lat="46.4659" lon="-1.45926">
        <ele>38</ele>
        <time>2019-03-26T16:30:20Z</time>
      </trkpt>
      <trkpt lat="46.46594" lon="-1.45927">
        <ele>38</ele>
        <time>2019-03-26T16:30:23Z</time>
      </trkpt>
      <trkpt lat="46.46596" lon="-1.45928">
        <ele>38</ele>
        <time>2019-03-26T16:30:25Z</time>
      </trkpt>
      <trkpt lat="46.46599" lon="-1.4593">
        <ele>38</ele>
        <time>2019-03-26T16:30:28Z</time>
      </trkpt>
      <trkpt lat="46.46601" lon="-1.45931">
        <ele>38</ele>
        <time>2019-03-26T16:30:30Z</time>
      </trkpt>
      <trkpt lat="46.46605" lon="-1.45931">
        <ele>38</ele>
        <time>2019-03-26T16:30:33Z</time>
      </trkpt>
      <trkpt lat="46.46608" lon="-1.45933">
        <ele>38</ele>
        <time>2019-03-26T16:30:36Z</time>
      </trkpt>
      <trkpt lat="46.4661" lon="-1.45934">
        <ele>38</ele>
        <time>2019-03-26T16:30:38Z</time>
      </trkpt>
      <trkpt lat="46.46613" lon="-1.45935">
        <ele>38</ele>
        <time>2019-03-26T16:30:41Z</time>
      </trkpt>
      <trkpt lat="46.46616" lon="-1.45936">
        <ele>38</ele>
        <time>2019-03-26T16:30:43Z</time>
      </trkpt>
      <trkpt lat="46.46619" lon="-1.45937">
        <ele>39</ele>
        <time>2019-03-26T16:30:46Z</time>
      </trkpt>
      <trkpt lat="46.46622" lon="-1.45939">
        <ele>39</ele>
        <time>2019-03-26T16:30:49Z</time>
      </trkpt>
      <trkpt lat="46.46624" lon="-1.4594">
        <ele>39</ele>
        <time>2019-03-26T16:30:51Z</time>
      </trkpt>
      <trkpt lat="46.46627" lon="-1.45942">
        <ele>39</ele>
        <time>2019-03-26T16:30:54Z</time>
      </trkpt>
      <trkpt lat="46.46628" lon="-1.45943">
        <ele>39</ele>
        <time>2019-03-26T16:30:56Z</time>
      </trkpt>
      <trkpt lat="46.4663" lon="-1.45943">
        <ele>39</ele>
        <time>2019-03-26T16:30:59Z</time>
      </trkpt>
      <trkpt lat="46.46632" lon="-1.45945">
        <ele>39</ele>
        <time>2019-03-26T16:31:01Z</time>
      </trkpt>
      <trkpt lat="46.46634" lon="-1.45946">
        <ele>39</ele>
        <time>2019-03-26T16:31:04Z</time>
      </trkpt>
      <trkpt lat="46.46636" lon="-1.45948">
        <ele>39</ele>
        <time>2019-03-26T16:31:07Z</time>
      </trkpt>
      <trkpt lat="46.46638" lon="-1.45949">
        <ele>39</ele>
        <time>2019-03-26T16:31:09Z</time>
      </trkpt>
      <trkpt lat="46.46641" lon="-1.45953">
        <ele>39</ele>
        <time>2019-03-26T16:31:12Z</time>
      </trkpt>
      <trkpt lat="46.46643" lon="-1.45955">
        <ele>39</ele>
        <time>2019-03-26T16:31:14Z</time>
      </trkpt>
      <trkpt lat="46.46646" lon="-1.45958">
        <ele>39</ele>
        <time>2019-03-26T16:31:17Z</time>
      </trkpt>
      <trkpt lat="46.46647" lon="-1.45959">
        <ele>39</ele>
        <time>2019-03-26T16:31:19Z</time>
      </trkpt>
      <trkpt lat="46.4665" lon="-1.45962">
        <ele>40</ele>
        <time>2019-03-26T16:31:22Z</time>
      </trkpt>
      <trkpt lat="46.46654" lon="-1.45965">
        <ele>40</ele>
        <time>2019-03-26T16:31:25Z</time>
      </trkpt>
      <trkpt lat="46.46656" lon="-1.45966">
        <ele>40</ele>
        <time>2019-03-26T16:31:27Z</time>
      </trkpt>
      <trkpt lat="46.4666" lon="-1.4597">
        <ele>40</ele>
        <time>2019-03-26T16:31:30Z</time>
      </trkpt>
      <trkpt lat="46.46662" lon="-1.45972">
        <ele>40</ele>
        <time>2019-03-26T16:31:32Z</time>
      </trkpt>
      <trkpt lat="46.46666" lon="-1.45976">
        <ele>40</ele>
        <time>2019-03-26T16:31:35Z</time>
      </trkpt>
      <trkpt lat="46.46667" lon="-1.4598">
        <ele>40</ele>
        <time>2019-03-26T16:31:37Z</time>
      </trkpt>
      <trkpt lat="46.46669" lon="-1.45985">
        <ele>40</ele>
        <time>2019-03-26T16:31:40Z</time>
      </trkpt>
      <trkpt lat="46.46671" lon="-1.4599">
        <ele>40</ele>
        <time>2019-03-26T16:31:43Z</time>
      </trkpt>
      <trkpt lat="46.46672" lon="-1.45993">
        <ele>41</ele>
        <time>2019-03-26T16:31:45Z</time>
      </trkpt>
      <trkpt lat="46.46675" lon="-1.45999">
        <ele>41</ele>
        <time>2019-03-26T16:31:48Z</time>
      </trkpt>
      <trkpt lat="46.46675" lon="-1.46002">
        <ele>41</ele>
        <time>2019-03-26T16:31:50Z</time>
      </trkpt>
      <trkpt lat="46.46677" lon="-1.46006">
        <ele>41</ele>
        <time>2019-03-26T16:31:53Z</time>
      </trkpt>
      <trkpt lat="46.46677" lon="-1.4601">
        <ele>41</ele>
        <time>2019-03-26T16:31:55Z</time>
      </trkpt>
      <trkpt lat="46.46679" lon="-1.46014">
        <ele>41</ele>
        <time>2019-03-26T16:31:58Z</time>
      </trkpt>
      <trkpt lat="46.46679" lon="-1.46016">
        <ele>41</ele>
        <time>2019-03-26T16:32:00Z</time>
      </trkpt>
      <trkpt lat="46.46682" lon="-1.46021">
        <ele>41</ele>
        <time>2019-03-26T16:32:03Z</time>
      </trkpt>
      <trkpt lat="46.46684" lon="-1.46023">
        <ele>41</ele>
        <time>2019-03-26T16:32:06Z</time>
      </trkpt>
      <trkpt lat="46.46686" lon="-1.46024">
        <ele>41</ele>
        <time>2019-03-26T16:32:08Z</time>
      </trkpt>
      <trkpt lat="46.46687" lon="-1.46026">
        <ele>41</ele>
        <time>2019-03-26T16:32:11Z</time>
      </trkpt>
      <trkpt lat="46.46686" lon="-1.46027">
        <ele>41</ele>
        <time>2019-03-26T16:32:13Z</time>
      </trkpt>
      <trkpt lat="46.46685" lon="-1.46029">
        <ele>41</ele>
        <time>2019-03-26T16:32:16Z</time>
      </trkpt>
      <trkpt lat="46.46683" lon="-1.4603">
        <ele>41</ele>
        <time>2019-03-26T16:32:18Z</time>
      </trkpt>
      <trkpt lat="46.46681" lon="-1.46033">
        <ele>41</ele>
        <time>2019-03-26T16:32:21Z</time>
      </trkpt>
      <trkpt lat="46.46681" lon="-1.46038">
        <ele>41</ele>
        <time>2019-03-26T16:32:23Z</time>
      </trkpt>
      <trkpt lat="46.46681" lon="-1.46041">
        <ele>41</ele>
        <time>2019-03-26T16:32:26Z</time>
      </trkpt>
      <trkpt lat="46.46678" lon="-1.46044">
        <ele>41</ele>
        <time>2019-03-26T16:32:29Z</time>
      </trkpt>
      <trkpt lat="46.46677" lon="-1.46046">
        <ele>41</ele>
        <time>2019-03-26T16:32:31Z</time>
      </trkpt>
      <trkpt lat="46.46675" lon="-1.4605">
        <ele>41</ele>
        <time>2019-03-26T16:32:34Z</time>
      </trkpt>
      <trkpt lat="46.46675" lon="-1.46051">
        <ele>41</ele>
        <time>2019-03-26T16:32:36Z</time>
      </trkpt>
      <trkpt lat="46.46672" lon="-1.46054">
        <ele>41</ele>
        <time>2019-03-26T16:32:39Z</time>
      </trkpt>
      <trkpt lat="46.46669" lon="-1.46056">
        <ele>41</ele>
        <time>2019-03-26T16:32:41Z</time>
      </trkpt>
      <trkpt lat="46.46665" lon="-1.46059">
        <ele>40</ele>
        <time>2019-03-26T16:32:44Z</time>
      </trkpt>
      <trkpt lat="46.46661" lon="-1.46061">
        <ele>40</ele>
        <time>2019-03-26T16:32:47Z</time>
      </trkpt>
      <trkpt lat="46.46659" lon="-1.46063">
        <ele>40</ele>
        <time>2019-03-26T16:32:49Z</time>
      </trkpt>
      <trkpt lat="46.46656" lon="-1.46066">
        <ele>40</ele>
        <time>2019-03-26T16:32:52Z</time>
      </trkpt>
      <trkpt lat="46.46655" lon="-1.46067">
        <ele>40</ele>
        <time>2019-03-26T16:32:54Z</time>
      </trkpt>
      <trkpt lat="46.46652" lon="-1.46071">
        <ele>40</ele>
        <time>2019-03-26T16:32:57Z</time>
      </trkpt>
      <trkpt lat="46.4665" lon="-1.46073">
        <ele>40</ele>
        <time>2019-03-26T16:32:59Z</time>
      </trkpt>
      <trkpt lat="46.46647" lon="-1.46076">
        <ele>40</ele>
        <time>2019-03-26T16:33:02Z</time>
      </trkpt>
      <trkpt lat="46.46645" lon="-1.4608">
        <ele>40</ele>
        <time>2019-03-26T16:33:05Z</time>
      </trkpt>
      <trkpt lat="46.46642" lon="-1.46082">
        <ele>40</ele>
        <time>2019-03-26T16:33:07Z</time>
      </trkpt>
      <trkpt lat="46.46639" lon="-1.46086">
        <ele>40</ele>
        <time>2019-03-26T16:33:10Z</time>
      </trkpt>
      <trkpt lat="46.46637" lon="-1.46089">
        <ele>40</ele>
        <time>2019-03-26T16:33:12Z</time>
      </trkpt>
      <trkpt lat="46.46634" lon="-1.46093">
        <ele>39</ele>
        <time>2019-03-26T16:33:15Z</time>
      </trkpt>
      <trkpt lat="46.46631" lon="-1.46095">
        <ele>39</ele>
        <time>2019-03-26T16:33:17Z</time>
      </trkpt>
      <trkpt lat="46.46628" lon="-1.461">
        <ele>39</ele>
        <time>2019-03-26T16:33:20Z</time>
      </trkpt>
      <trkpt lat="46.46626" lon="-1.46103">
        <ele>39</ele>
        <time>2019-03-26T16:33:22Z</time>
      </trkpt>
      <trkpt lat="46.46623" lon="-1.46107">
        <ele>39</ele>
        <time>2019-03-26T16:33:25Z</time>
      </trkpt>
      <trkpt lat="46.46621" lon="-1.46109">
        <ele>39</ele>
        <time>2019-03-26T16:33:27Z</time>
      </trkpt>
      <trkpt lat="46.46617" lon="-1.46113">
        <ele>38</ele>
        <time>2019-03-26T16:33:30Z</time>
      </trkpt>
      <trkpt lat="46.46614" lon="-1.46117">
        <ele>38</ele>
        <time>2019-03-26T16:33:33Z</time>
      </trkpt>
      <trkpt lat="46.46612" lon="-1.4612">
        <ele>38</ele>
        <time>2019-03-26T16:33:35Z</time>
      </trkpt>
      <trkpt lat="46.46609" lon="-1.46123">
        <ele>38</ele>
        <time>2019-03-26T16:33:38Z</time>
      </trkpt>
      <trkpt lat="46.46607" lon="-1.46126">
        <ele>38</ele>
        <time>2019-03-26T16:33:40Z</time>
      </trkpt>
      <trkpt lat="46.46603" lon="-1.46129">
        <ele>37</ele>
        <time>2019-03-26T16:33:43Z</time>
      </trkpt>
      <trkpt lat="46.46601" lon="-1.46132">
        <ele>37</ele>
        <time>2019-03-26T16:33:45Z</time>
      </trkpt>
      <trkpt lat="46.46598" lon="-1.46135">
        <ele>37</ele>
        <time>2019-03-26T16:33:48Z</time>
      </trkpt>
      <trkpt lat="46.46595" lon="-1.46136">
        <ele>37</ele>
        <time>2019-03-26T16:33:50Z</time>
      </trkpt>
      <trkpt lat="46.46591" lon="-1.46138">
        <ele>37</ele>
        <time>2019-03-26T16:33:53Z</time>
      </trkpt>
      <trkpt lat="46.46587" lon="-1.46141">
        <ele>36</ele>
        <time>2019-03-26T16:33:56Z</time>
      </trkpt>
      <trkpt lat="46.46585" lon="-1.46143">
        <ele>36</ele>
        <time>2019-03-26T16:33:58Z</time>
      </trkpt>
      <trkpt lat="46.46582" lon="-1.46144">
        <ele>36</ele>
        <time>2019-03-26T16:34:01Z</time>
      </trkpt>
      <trkpt lat="46.4658" lon="-1.46145">
        <ele>36</ele>
        <time>2019-03-26T16:34:03Z</time>
      </trkpt>
      <trkpt lat="46.46577" lon="-1.46147">
        <ele>36</ele>
        <time>2019-03-26T16:34:06Z</time>
      </trkpt>
      <trkpt lat="46.46575" lon="-1.46148">
        <ele>36</ele>
        <time>2019-03-26T16:34:08Z</time>
      </trkpt>
      <trkpt lat="46.46572" lon="-1.4615">
        <ele>36</ele>
        <time>2019-03-26T16:34:11Z</time>
      </trkpt>
      <trkpt lat="46.46569" lon="-1.46151">
        <ele>36</ele>
        <time>2019-03-26T16:34:13Z</time>
      </trkpt>
      <trkpt lat="46.46565" lon="-1.46154">
        <ele>35</ele>
        <time>2019-03-26T16:34:16Z</time>
      </trkpt>
      <trkpt lat="46.46561" lon="-1.46155">
        <ele>35</ele>
        <time>2019-03-26T16:34:19Z</time>
      </trkpt>
      <trkpt lat="46.4656" lon="-1.46157">
        <ele>35</ele>
        <time>2019-03-26T16:34:21Z</time>
      </trkpt>
      <trkpt lat="46.46558" lon="-1.4616">
        <ele>35</ele>
        <time>2019-03-26T16:34:24Z</time>
      </trkpt>
      <trkpt lat="46.46554" lon="-1.46161">
        <ele>35</ele>
        <time>2019-03-26T16:34:26Z</time>
      </trkpt>
      <trkpt lat="46.46551" lon="-1.46163">
        <ele>35</ele>
        <time>2019-03-26T16:34:29Z</time>
      </trkpt>
      <trkpt lat="46.4655" lon="-1.46165">
        <ele>35</ele>
        <time>2019-03-26T16:34:32Z</time>
      </trkpt>
      <trkpt lat="46.46547" lon="-1.46168">
        <ele>35</ele>
        <time>2019-03-26T16:34:34Z</time>
      </trkpt>
      <trkpt lat="46.46543" lon="-1.46171">
        <ele>35</ele>
        <time>2019-03-26T16:34:37Z</time>
      </trkpt>
      <trkpt lat="46.4654" lon="-1.46174">
        <ele>35</ele>
        <time>2019-03-26T16:34:39Z</time>
      </trkpt>
      <trkpt lat="46.46536" lon="-1.46178">
        <ele>35</ele>
        <time>2019-03-26T16:34:42Z</time>
      </trkpt>
      <trkpt lat="46.46533" lon="-1.4618">
        <ele>35</ele>
        <time>2019-03-26T16:34:44Z</time>
      </trkpt>
      <trkpt lat="46.46528" lon="-1.46182">
        <ele>35</ele>
        <time>2019-03-26T16:34:47Z</time>
      </trkpt>
      <trkpt lat="46.46523" lon="-1.46185">
        <ele>35</ele>
        <time>2019-03-26T16:34:50Z</time>
      </trkpt>
      <trkpt lat="46.4652" lon="-1.46187">
        <ele>35</ele>
        <time>2019-03-26T16:34:52Z</time>
      </trkpt>
      <trkpt lat="46.46516" lon="-1.46189">
        <ele>35</ele>
        <time>2019-03-26T16:34:55Z</time>
      </trkpt>
      <trkpt lat="46.46513" lon="-1.46191">
        <ele>35</ele>
        <time>2019-03-26T16:34:58Z</time>
      </trkpt>
      <trkpt lat="46.4651" lon="-1.46192">
        <ele>35</ele>
        <time>2019-03-26T16:35:00Z</time>
      </trkpt>
      <trkpt lat="46.46505" lon="-1.46193">
        <ele>35</ele>
        <time>2019-03-26T16:35:03Z</time>
      </trkpt>
      <trkpt lat="46.46504" lon="-1.46195">
        <ele>35</ele>
        <time>2019-03-26T16:35:05Z</time>
      </trkpt>
      <trkpt lat="46.46499" lon="-1.46198">
        <ele>35</ele>
        <time>2019-03-26T16:35:08Z</time>
      </trkpt>
      <trkpt lat="46.46496" lon="-1.46199">
        <ele>35</ele>
        <time>2019-03-26T16:35:10Z</time>
      </trkpt>
      <trkpt lat="46.46492" lon="-1.462">
        <ele>35</ele>
        <time>2019-03-26T16:35:13Z</time>
      </trkpt>
      <trkpt lat="46.46489" lon="-1.46202">
        <ele>35</ele>
        <time>2019-03-26T16:35:16Z</time>
      </trkpt>
      <trkpt lat="46.46486" lon="-1.46202">
        <ele>36</ele>
        <time>2019-03-26T16:35:18Z</time>
      </trkpt>
      <trkpt lat="46.46482" lon="-1.46203">
        <ele>36</ele>
        <time>2019-03-26T16:35:21Z</time>
      </trkpt>
      <trkpt lat="46.4648" lon="-1.46203">
        <ele>36</ele>
        <time>2019-03-26T16:35:23Z</time>
      </trkpt>
      <trkpt lat="46.46476" lon="-1.46204">
        <ele>36</ele>
        <time>2019-03-26T16:35:26Z</time>
      </trkpt>
      <trkpt lat="46.46472" lon="-1.46205">
        <ele>36</ele>
        <time>2019-03-26T16:35:28Z</time>
      </trkpt>
      <trkpt lat="46.46469" lon="-1.46207">
        <ele>36</ele>
        <time>2019-03-26T16:35:31Z</time>
      </trkpt>
      <trkpt lat="46.46466" lon="-1.46208">
        <ele>36</ele>
        <time>2019-03-26T16:35:33Z</time>
      </trkpt>
      <trkpt lat="46.46463" lon="-1.4621">
        <ele>36</ele>
        <time>2019-03-26T16:35:36Z</time>
      </trkpt>
      <trkpt lat="46.4646" lon="-1.46213">
        <ele>36</ele>
        <time>2019-03-26T16:35:39Z</time>
      </trkpt>
      <trkpt lat="46.4646" lon="-1.46217">
        <ele>36</ele>
        <time>2019-03-26T16:35:41Z</time>
      </trkpt>
      <trkpt lat="46.46459" lon="-1.46221">
        <ele>36</ele>
        <time>2019-03-26T16:35:44Z</time>
      </trkpt>
      <trkpt lat="46.46459" lon="-1.46223">
        <ele>36</ele>
        <time>2019-03-26T16:35:46Z</time>
      </trkpt>
      <trkpt lat="46.46461" lon="-1.46229">
        <ele>36</ele>
        <time>2019-03-26T16:35:49Z</time>
      </trkpt>
      <trkpt lat="46.46462" lon="-1.46234">
        <ele>36</ele>
        <time>2019-03-26T16:35:52Z</time>
      </trkpt>
      <trkpt lat="46.46463" lon="-1.46237">
        <ele>36</ele>
        <time>2019-03-26T16:35:54Z</time>
      </trkpt>
      <trkpt lat="46.46465" lon="-1.46242">
        <ele>36</ele>
        <time>2019-03-26T16:35:57Z</time>
      </trkpt>
      <trkpt lat="46.46467" lon="-1.46246">
        <ele>36</ele>
        <time>2019-03-26T16:35:59Z</time>
      </trkpt>
      <trkpt lat="46.46469" lon="-1.46251">
        <ele>36</ele>
        <time>2019-03-26T16:36:02Z</time>
      </trkpt>
      <trkpt lat="46.4647" lon="-1.46255">
        <ele>36</ele>
        <time>2019-03-26T16:36:04Z</time>
      </trkpt>
      <trkpt lat="46.46472" lon="-1.46259">
        <ele>36</ele>
        <time>2019-03-26T16:36:07Z</time>
      </trkpt>
      <trkpt lat="46.46473" lon="-1.46262">
        <ele>36</ele>
        <time>2019-03-26T16:36:09Z</time>
      </trkpt>
      <trkpt lat="46.46475" lon="-1.46267">
        <ele>36</ele>
        <time>2019-03-26T16:36:12Z</time>
      </trkpt>
      <trkpt lat="46.46476" lon="-1.46272">
        <ele>36</ele>
        <time>2019-03-26T16:36:14Z</time>
      </trkpt>
      <trkpt lat="46.46478" lon="-1.46278">
        <ele>36</ele>
        <time>2019-03-26T16:36:17Z</time>
      </trkpt>
      <trkpt lat="46.4648" lon="-1.46281">
        <ele>36</ele>
        <time>2019-03-26T16:36:19Z</time>
      </trkpt>
      <trkpt lat="46.46482" lon="-1.46287">
        <ele>36</ele>
        <time>2019-03-26T16:36:22Z</time>
      </trkpt>
      <trkpt lat="46.46483" lon="-1.4629">
        <ele>36</ele>
        <time>2019-03-26T16:36:24Z</time>
      </trkpt>
      <trkpt lat="46.46486" lon="-1.46294">
        <ele>36</ele>
        <time>2019-03-26T16:36:27Z</time>
      </trkpt>
      <trkpt lat="46.46487" lon="-1.46297">
        <ele>36</ele>
        <time>2019-03-26T16:36:30Z</time>
      </trkpt>
      <trkpt lat="46.46489" lon="-1.46302">
        <ele>36</ele>
        <time>2019-03-26T16:36:32Z</time>
      </trkpt>
      <trkpt lat="46.4649" lon="-1.46306">
        <ele>36</ele>
        <time>2019-03-26T16:36:35Z</time>
      </trkpt>
      <trkpt lat="46.46491" lon="-1.4631">
        <ele>37</ele>
        <time>2019-03-26T16:36:37Z</time>
      </trkpt>
      <trkpt lat="46.46494" lon="-1.46316">
        <ele>37</ele>
        <time>2019-03-26T16:36:40Z</time>
      </trkpt>
      <trkpt lat="46.46495" lon="-1.46319">
        <ele>37</ele>
        <time>2019-03-26T16:36:42Z</time>
      </trkpt>
      <trkpt lat="46.46498" lon="-1.46323">
        <ele>37</ele>
        <time>2019-03-26T16:36:45Z</time>
      </trkpt>
      <trkpt lat="46.46499" lon="-1.46326">
        <ele>37</ele>
        <time>2019-03-26T16:36:47Z</time>
      </trkpt>
      <trkpt lat="46.46501" lon="-1.46331">
        <ele>37</ele>
        <time>2019-03-26T16:36:50Z</time>
      </trkpt>
      <trkpt lat="46.46503" lon="-1.46334">
        <ele>37</ele>
        <time>2019-03-26T16:36:52Z</time>
      </trkpt>
      <trkpt lat="46.46504" lon="-1.46338">
        <ele>37</ele>
        <time>2019-03-26T16:36:55Z</time>
      </trkpt>
      <trkpt lat="46.46506" lon="-1.46342">
        <ele>37</ele>
        <time>2019-03-26T16:36:57Z</time>
      </trkpt>
      <trkpt lat="46.46508" lon="-1.46347">
        <ele>37</ele>
        <time>2019-03-26T16:37:00Z</time>
      </trkpt>
      <trkpt lat="46.46509" lon="-1.4635">
        <ele>37</ele>
        <time>2019-03-26T16:37:02Z</time>
      </trkpt>
      <trkpt lat="46.46511" lon="-1.46355">
        <ele>38</ele>
        <time>2019-03-26T16:37:05Z</time>
      </trkpt>
      <trkpt lat="46.46513" lon="-1.46358">
        <ele>38</ele>
        <time>2019-03-26T16:37:07Z</time>
      </trkpt>
      <trkpt lat="46.46515" lon="-1.46362">
        <ele>38</ele>
        <time>2019-03-26T16:37:10Z</time>
      </trkpt>
      <trkpt lat="46.46516" lon="-1.46366">
        <ele>38</ele>
        <time>2019-03-26T16:37:12Z</time>
      </trkpt>
      <trkpt lat="46.4652" lon="-1.46371">
        <ele>38</ele>
        <time>2019-03-26T16:37:15Z</time>
      </trkpt>
      <trkpt lat="46.46523" lon="-1.46376">
        <ele>38</ele>
        <time>2019-03-26T16:37:18Z</time>
      </trkpt>
      <trkpt lat="46.46525" lon="-1.46378">
        <ele>38</ele>
        <time>2019-03-26T16:37:20Z</time>
      </trkpt>
      <trkpt lat="46.46529" lon="-1.46382">
        <ele>38</ele>
        <time>2019-03-26T16:37:23Z</time>
      </trkpt>
      <trkpt lat="46.46531" lon="-1.46385">
        <ele>39</ele>
        <time>2019-03-26T16:37:25Z</time>
      </trkpt>
      <trkpt lat="46.46534" lon="-1.46389">
        <ele>39</ele>
        <time>2019-03-26T16:37:28Z</time>
      </trkpt>
      <trkpt lat="46.46536" lon="-1.46392">
        <ele>39</ele>
        <time>2019-03-26T16:37:30Z</time>
      </trkpt>
      <trkpt lat="46.46539" lon="-1.46398">
        <ele>39</ele>
        <time>2019-03-26T16:37:33Z</time>
      </trkpt>
      <trkpt lat="46.46542" lon="-1.46403">
        <ele>39</ele>
        <time>2019-03-26T16:37:36Z</time>
      </trkpt>
      <trkpt lat="46.46544" lon="-1.46407">
        <ele>39</ele>
        <time>2019-03-26T16:37:38Z</time>
      </trkpt>
      <trkpt lat="46.46548" lon="-1.46412">
        <ele>39</ele>
        <time>2019-03-26T16:37:41Z</time>
      </trkpt>
      <trkpt lat="46.46551" lon="-1.46416">
        <ele>39</ele>
        <time>2019-03-26T16:37:43Z</time>
      </trkpt>
      <trkpt lat="46.46554" lon="-1.46421">
        <ele>39</ele>
        <time>2019-03-26T16:37:46Z</time>
      </trkpt>
      <trkpt lat="46.46558" lon="-1.46425">
        <ele>39</ele>
        <time>2019-03-26T16:37:49Z</time>
      </trkpt>
      <trkpt lat="46.46559" lon="-1.46429">
        <ele>39</ele>
        <time>2019-03-26T16:37:51Z</time>
      </trkpt>
      <trkpt lat="46.46563" lon="-1.46434">
        <ele>39</ele>
        <time>2019-03-26T16:37:54Z</time>
      </trkpt>
      <trkpt lat="46.46565" lon="-1.46437">
        <ele>39</ele>
        <time>2019-03-26T16:37:56Z</time>
      </trkpt>
      <trkpt lat="46.46568" lon="-1.46443">
        <ele>39</ele>
        <time>2019-03-26T16:37:59Z</time>
      </trkpt>
      <trkpt lat="46.46572" lon="-1.46447">
        <ele>39</ele>
        <time>2019-03-26T16:38:02Z</time>
      </trkpt>
      <trkpt lat="46.46574" lon="-1.4645">
        <ele>39</ele>
        <time>2019-03-26T16:38:04Z</time>
      </trkpt>
      <trkpt lat="46.46576" lon="-1.46454">
        <ele>39</ele>
        <time>2019-03-26T16:38:07Z</time>
      </trkpt>
      <trkpt lat="46.46578" lon="-1.46456">
        <ele>39</ele>
        <time>2019-03-26T16:38:09Z</time>
      </trkpt>
      <trkpt lat="46.46581" lon="-1.4646">
        <ele>39</ele>
        <time>2019-03-26T16:38:12Z</time>
      </trkpt>
      <trkpt lat="46.46584" lon="-1.46463">
        <ele>39</ele>
        <time>2019-03-26T16:38:14Z</time>
      </trkpt>
      <trkpt lat="46.46586" lon="-1.46467">
        <ele>39</ele>
        <time>2019-03-26T16:38:17Z</time>
      </trkpt>
      <trkpt lat="46.46588" lon="-1.46469">
        <ele>39</ele>
        <time>2019-03-26T16:38:20Z</time>
      </trkpt>
      <trkpt lat="46.46591" lon="-1.46472">
        <ele>39</ele>
        <time>2019-03-26T16:38:22Z</time>
      </trkpt>
      <trkpt lat="46.46594" lon="-1.46476">
        <ele>39</ele>
        <time>2019-03-26T16:38:25Z</time>
      </trkpt>
      <trkpt lat="46.46596" lon="-1.46479">
        <ele>39</ele>
        <time>2019-03-26T16:38:27Z</time>
      </trkpt>
      <trkpt lat="46.466" lon="-1.46483">
        <ele>39</ele>
        <time>2019-03-26T16:38:30Z</time>
      </trkpt>
      <trkpt lat="46.46602" lon="-1.46486">
        <ele>40</ele>
        <time>2019-03-26T16:38:32Z</time>
      </trkpt>
      <trkpt lat="46.46605" lon="-1.46491">
        <ele>40</ele>
        <time>2019-03-26T16:38:35Z</time>
      </trkpt>
      <trkpt lat="46.46607" lon="-1.46495">
        <ele>40</ele>
        <time>2019-03-26T16:38:37Z</time>
      </trkpt>
      <trkpt lat="46.4661" lon="-1.465">
        <ele>40</ele>
        <time>2019-03-26T16:38:40Z</time>
      </trkpt>
      <trkpt lat="46.46612" lon="-1.46503">
        <ele>40</ele>
        <time>2019-03-26T16:38:43Z</time>
      </trkpt>
      <trkpt lat="46.46615" lon="-1.46509">
        <ele>40</ele>
        <time>2019-03-26T16:38:45Z</time>
      </trkpt>
      <trkpt lat="46.46617" lon="-1.46513">
        <ele>40</ele>
        <time>2019-03-26T16:38:48Z</time>
      </trkpt>
      <trkpt lat="46.46619" lon="-1.46516">
        <ele>40</ele>
        <time>2019-03-26T16:38:50Z</time>
      </trkpt>
      <trkpt lat="46.46621" lon="-1.46521">
        <ele>40</ele>
        <time>2019-03-26T16:38:53Z</time>
      </trkpt>
      <trkpt lat="46.46624" lon="-1.46525">
        <ele>40</ele>
        <time>2019-03-26T16:38:55Z</time>
      </trkpt>
      <trkpt lat="46.46625" lon="-1.46528">
        <ele>41</ele>
        <time>2019-03-26T16:38:58Z</time>
      </trkpt>
      <trkpt lat="46.46628" lon="-1.46533">
        <ele>41</ele>
        <time>2019-03-26T16:39:01Z</time>
      </trkpt>
      <trkpt lat="46.4663" lon="-1.46535">
        <ele>41</ele>
        <time>2019-03-26T16:39:03Z</time>
      </trkpt>
      <trkpt lat="46.46631" lon="-1.4654">
        <ele>41</ele>
        <time>2019-03-26T16:39:06Z</time>
      </trkpt>
      <trkpt lat="46.46632" lon="-1.46542">
        <ele>41</ele>
        <time>2019-03-26T16:39:08Z</time>
      </trkpt>
      <trkpt lat="46.46633" lon="-1.46547">
        <ele>41</ele>
        <time>2019-03-26T16:39:11Z</time>
      </trkpt>
      <trkpt lat="46.46634" lon="-1.46551">
        <ele>41</ele>
        <time>2019-03-26T16:39:13Z</time>
      </trkpt>
      <trkpt lat="46.46636" lon="-1.46555">
        <ele>41</ele>
        <time>2019-03-26T16:39:16Z</time>
      </trkpt>
      <trkpt lat="46.46638" lon="-1.46561">
        <ele>42</ele>
        <time>2019-03-26T16:39:19Z</time>
      </trkpt>
      <trkpt lat="46.46639" lon="-1.46565">
        <ele>42</ele>
        <time>2019-03-26T16:39:21Z</time>
      </trkpt>
      <trkpt lat="46.46641" lon="-1.4657">
        <ele>42</ele>
        <time>2019-03-26T16:39:24Z</time>
      </trkpt>
      <trkpt lat="46.46643" lon="-1.46575">
        <ele>42</ele>
        <time>2019-03-26T16:39:26Z</time>
      </trkpt>
      <trkpt lat="46.46645" lon="-1.46579">
        <ele>42</ele>
        <time>2019-03-26T16:39:29Z</time>
      </trkpt>
      <trkpt lat="46.46646" lon="-1.46584">
        <ele>42</ele>
        <time>2019-03-26T16:39:32Z</time>
      </trkpt>
      <trkpt lat="46.46648" lon="-1.46588">
        <ele>42</ele>
        <time>2019-03-26T16:39:34Z</time>
      </trkpt>
      <trkpt lat="46.46651" lon="-1.46594">
        <ele>42</ele>
        <time>2019-03-26T16:39:37Z</time>
      </trkpt>
      <trkpt lat="46.46651" lon="-1.46597">
        <ele>42</ele>
        <time>2019-03-26T16:39:39Z</time>
      </trkpt>
      <trkpt lat="46.46653" lon="-1.46602">
        <ele>43</ele>
        <time>2019-03-26T16:39:42Z</time>
      </trkpt>
      <trkpt lat="46.46654" lon="-1.46606">
        <ele>43</ele>
        <time>2019-03-26T16:39:44Z</time>
      </trkpt>
      <trkpt lat="46.46656" lon="-1.46611">
        <ele>43</ele>
        <time>2019-03-26T16:39:47Z</time>
      </trkpt>
      <trkpt lat="46.46657" lon="-1.46616">
        <ele>43</ele>
        <time>2019-03-26T16:39:50Z</time>
      </trkpt>
      <trkpt lat="46.46657" lon="-1.46621">
        <ele>43</ele>
        <time>2019-03-26T16:39:52Z</time>
      </trkpt>
      <trkpt lat="46.4666" lon="-1.46627">
        <ele>43</ele>
        <time>2019-03-26T16:39:55Z</time>
      </trkpt>
      <trkpt lat="46.46661" lon="-1.46631">
        <ele>43</ele>
        <time>2019-03-26T16:39:57Z</time>
      </trkpt>
      <trkpt lat="46.46663" lon="-1.46638">
        <ele>43</ele>
        <time>2019-03-26T16:40:00Z</time>
      </trkpt>
      <trkpt lat="46.46664" lon="-1.46642">
        <ele>43</ele>
        <time>2019-03-26T16:40:02Z</time>
      </trkpt>
      <trkpt lat="46.46665" lon="-1.46649">
        <ele>43</ele>
        <time>2019-03-26T16:40:05Z</time>
      </trkpt>
      <trkpt lat="46.46666" lon="-1.46653">
        <ele>43</ele>
        <time>2019-03-26T16:40:07Z</time>
      </trkpt>
      <trkpt lat="46.46668" lon="-1.46658">
        <ele>43</ele>
        <time>2019-03-26T16:40:10Z</time>
      </trkpt>
      <trkpt lat="46.46667" lon="-1.46662">
        <ele>43</ele>
        <time>2019-03-26T16:40:12Z</time>
      </trkpt>
      <trkpt lat="46.46668" lon="-1.46667">
        <ele>43</ele>
        <time>2019-03-26T16:40:15Z</time>
      </trkpt>
      <trkpt lat="46.46669" lon="-1.46667">
        <ele>43</ele>
        <time>2019-03-26T16:40:18Z</time>
      </trkpt>
      <trkpt lat="46.46669" lon="-1.46667">
        <ele>43</ele>
        <time>2019-03-26T16:40:20Z</time>
      </trkpt>
      <trkpt lat="46.46668" lon="-1.46672">
        <ele>43</ele>
        <time>2019-03-26T16:40:23Z</time>
      </trkpt>
      <trkpt lat="46.46669" lon="-1.46676">
        <ele>43</ele>
        <time>2019-03-26T16:40:25Z</time>
      </trkpt>
      <trkpt lat="46.4667" lon="-1.46681">
        <ele>43</ele>
        <time>2019-03-26T16:40:28Z</time>
      </trkpt>
      <trkpt lat="46.46671" lon="-1.46685">
        <ele>43</ele>
        <time>2019-03-26T16:40:30Z</time>
      </trkpt>
      <trkpt lat="46.46671" lon="-1.46691">
        <ele>43</ele>
        <time>2019-03-26T16:40:33Z</time>
      </trkpt>
      <trkpt lat="46.46672" lon="-1.46696">
        <ele>42</ele>
        <time>2019-03-26T16:40:35Z</time>
      </trkpt>
      <trkpt lat="46.46673" lon="-1.46703">
        <ele>42</ele>
        <time>2019-03-26T16:40:38Z</time>
      </trkpt>
      <trkpt lat="46.46674" lon="-1.46707">
        <ele>42</ele>
        <time>2019-03-26T16:40:40Z</time>
      </trkpt>
      <trkpt lat="46.46675" lon="-1.46713">
        <ele>42</ele>
        <time>2019-03-26T16:40:43Z</time>
      </trkpt>
      <trkpt lat="46.46676" lon="-1.46717">
        <ele>42</ele>
        <time>2019-03-26T16:40:45Z</time>
      </trkpt>
      <trkpt lat="46.46677" lon="-1.46723">
        <ele>42</ele>
        <time>2019-03-26T16:40:48Z</time>
      </trkpt>
      <trkpt lat="46.46678" lon="-1.46729">
        <ele>42</ele>
        <time>2019-03-26T16:40:51Z</time>
      </trkpt>
      <trkpt lat="46.46678" lon="-1.46733">
        <ele>42</ele>
        <time>2019-03-26T16:40:53Z</time>
      </trkpt>
      <trkpt lat="46.46679" lon="-1.46739">
        <ele>42</ele>
        <time>2019-03-26T16:40:56Z</time>
      </trkpt>
      <trkpt lat="46.46679" lon="-1.46743">
        <ele>42</ele>
        <time>2019-03-26T16:40:58Z</time>
      </trkpt>
      <trkpt lat="46.46679" lon="-1.46748">
        <ele>42</ele>
        <time>2019-03-26T16:41:01Z</time>
      </trkpt>
      <trkpt lat="46.46679" lon="-1.46754">
        <ele>41</ele>
        <time>2019-03-26T16:41:04Z</time>
      </trkpt>
      <trkpt lat="46.4668" lon="-1.46758">
        <ele>41</ele>
        <time>2019-03-26T16:41:06Z</time>
      </trkpt>
      <trkpt lat="46.4668" lon="-1.46764">
        <ele>41</ele>
        <time>2019-03-26T16:41:09Z</time>
      </trkpt>
      <trkpt lat="46.4668" lon="-1.46768">
        <ele>41</ele>
        <time>2019-03-26T16:41:11Z</time>
      </trkpt>
      <trkpt lat="46.46681" lon="-1.46775">
        <ele>41</ele>
        <time>2019-03-26T16:41:14Z</time>
      </trkpt>
      <trkpt lat="46.46681" lon="-1.46782">
        <ele>41</ele>
        <time>2019-03-26T16:41:17Z</time>
      </trkpt>
      <trkpt lat="46.46681" lon="-1.46785">
        <ele>41</ele>
        <time>2019-03-26T16:41:19Z</time>
      </trkpt>
      <trkpt lat="46.46682" lon="-1.46792">
        <ele>41</ele>
        <time>2019-03-26T16:41:22Z</time>
      </trkpt>
      <trkpt lat="46.46683" lon="-1.46796">
        <ele>41</ele>
        <time>2019-03-26T16:41:24Z</time>
      </trkpt>
      <trkpt lat="46.46684" lon="-1.46802">
        <ele>41</ele>
        <time>2019-03-26T16:41:27Z</time>
      </trkpt>
      <trkpt lat="46.46685" lon="-1.46809">
        <ele>41</ele>
        <time>2019-03-26T16:41:30Z</time>
      </trkpt>
      <trkpt lat="46.46685" lon="-1.46813">
        <ele>41</ele>
        <time>2019-03-26T16:41:32Z</time>
      </trkpt>
      <trkpt lat="46.46685" lon="-1.46819">
        <ele>41</ele>
        <time>2019-03-26T16:41:35Z</time>
      </trkpt>
      <trkpt lat="46.46684" lon="-1.46822">
        <ele>41</ele>
        <time>2019-03-26T16:41:37Z</time>
      </trkpt>
      <trkpt lat="46.46683" lon="-1.46829">
        <ele>41</ele>
        <time>2019-03-26T16:41:40Z</time>
      </trkpt>
      <trkpt lat="46.46682" lon="-1.46832">
        <ele>41</ele>
        <time>2019-03-26T16:41:42Z</time>
      </trkpt>
      <trkpt lat="46.46681" lon="-1.46838">
        <ele>41</ele>
        <time>2019-03-26T16:41:45Z</time>
      </trkpt>
      <trkpt lat="46.46679" lon="-1.46844">
        <ele>41</ele>
        <time>2019-03-26T16:41:48Z</time>
      </trkpt>
      <trkpt lat="46.46679" lon="-1.46847">
        <ele>41</ele>
        <time>2019-03-26T16:41:50Z</time>
      </trkpt>
      <trkpt lat="46.46679" lon="-1.46853">
        <ele>41</ele>
        <time>2019-03-26T16:41:53Z</time>
      </trkpt>
      <trkpt lat="46.46679" lon="-1.46857">
        <ele>41</ele>
        <time>2019-03-26T16:41:55Z</time>
      </trkpt>
      <trkpt lat="46.46679" lon="-1.46863">
        <ele>41</ele>
        <time>2019-03-26T16:41:58Z</time>
      </trkpt>
      <trkpt lat="46.46679" lon="-1.46867">
        <ele>41</ele>
        <time>2019-03-26T16:42:01Z</time>
      </trkpt>
      <trkpt lat="46.46677" lon="-1.46873">
        <ele>41</ele>
        <time>2019-03-26T16:42:03Z</time>
      </trkpt>
      <trkpt lat="46.46677" lon="-1.46879">
        <ele>41</ele>
        <time>2019-03-26T16:42:06Z</time>
      </trkpt>
      <trkpt lat="46.46677" lon="-1.46883">
        <ele>41</ele>
        <time>2019-03-26T16:42:08Z</time>
      </trkpt>
      <trkpt lat="46.46678" lon="-1.46887">
        <ele>41</ele>
        <time>2019-03-26T16:42:11Z</time>
      </trkpt>
      <trkpt lat="46.46678" lon="-1.46888">
        <ele>41</ele>
        <time>2019-03-26T16:42:13Z</time>
      </trkpt>
      <trkpt lat="46.46678" lon="-1.46889">
        <ele>41</ele>
        <time>2019-03-26T16:42:16Z</time>
      </trkpt>
      <trkpt lat="46.46678" lon="-1.4689">
        <ele>41</ele>
        <time>2019-03-26T16:42:18Z</time>
      </trkpt>
      <trkpt lat="46.46678" lon="-1.4689">
        <ele>41</ele>
        <time>2019-03-26T16:42:21Z</time>
      </trkpt>
      <trkpt lat="46.46678" lon="-1.4689">
        <ele>41</ele>
        <time>2019-03-26T16:42:23Z</time>
      </trkpt>
      <trkpt lat="46.46678" lon="-1.46891">
        <ele>41</ele>
        <time>2019-03-26T16:42:26Z</time>
      </trkpt>
      <trkpt lat="46.46678" lon="-1.46891">
        <ele>41</ele>
        <time>2019-03-26T16:42:29Z</time>
      </trkpt>
      <trkpt lat="46.46678" lon="-1.46892">
        <ele>41</ele>
        <time>2019-03-26T16:42:31Z</time>
      </trkpt>
      <trkpt lat="46.46679" lon="-1.46893">
        <ele>41</ele>
        <time>2019-03-26T16:42:34Z</time>
      </trkpt>
      <trkpt lat="46.46679" lon="-1.46894">
        <ele>41</ele>
        <time>2019-03-26T16:42:36Z</time>
      </trkpt>
      <trkpt lat="46.46679" lon="-1.46895">
        <ele>41</ele>
        <time>2019-03-26T16:42:39Z</time>
      </trkpt>
      <trkpt lat="46.4668" lon="-1.46897">
        <ele>41</ele>
        <time>2019-03-26T16:42:41Z</time>
      </trkpt>
      <trkpt lat="46.46681" lon="-1.46902">
        <ele>41</ele>
        <time>2019-03-26T16:42:44Z</time>
      </trkpt>
      <trkpt lat="46.46682" lon="-1.46905">
        <ele>41</ele>
        <time>2019-03-26T16:42:46Z</time>
      </trkpt>
      <trkpt lat="46.46682" lon="-1.4691">
        <ele>41</ele>
        <time>2019-03-26T16:42:49Z</time>
      </trkpt>
      <trkpt lat="46.46683" lon="-1.46915">
        <ele>41</ele>
        <time>2019-03-26T16:42:52Z</time>
      </trkpt>
      <trkpt lat="46.46683" lon="-1.46919">
        <ele>41</ele>
        <time>2019-03-26T16:42:54Z</time>
      </trkpt>
      <trkpt lat="46.46684" lon="-1.46924">
        <ele>41</ele>
        <time>2019-03-26T16:42:57Z</time>
      </trkpt>
      <trkpt lat="46.46684" lon="-1.46928">
        <ele>41</ele>
        <time>2019-03-26T16:42:59Z</time>
      </trkpt>
      <trkpt lat="46.46684" lon="-1.46932">
        <ele>41</ele>
        <time>2019-03-26T16:43:02Z</time>
      </trkpt>
      <trkpt lat="46.46684" lon="-1.46938">
        <ele>41</ele>
        <time>2019-03-26T16:43:05Z</time>
      </trkpt>
      <trkpt lat="46.46684" lon="-1.46941">
        <ele>41</ele>
        <time>2019-03-26T16:43:07Z</time>
      </trkpt>
      <trkpt lat="46.46685" lon="-1.46947">
        <ele>41</ele>
        <time>2019-03-26T16:43:10Z</time>
      </trkpt>
      <trkpt lat="46.46685" lon="-1.46951">
        <ele>41</ele>
        <time>2019-03-26T16:43:12Z</time>
      </trkpt>
      <trkpt lat="46.46686" lon="-1.46957">
        <ele>41</ele>
        <time>2019-03-26T16:43:15Z</time>
      </trkpt>
      <trkpt lat="46.46686" lon="-1.46964">
        <ele>41</ele>
        <time>2019-03-26T16:43:18Z</time>
      </trkpt>
      <trkpt lat="46.46686" lon="-1.46967">
        <ele>41</ele>
        <time>2019-03-26T16:43:20Z</time>
      </trkpt>
      <trkpt lat="46.46687" lon="-1.46972">
        <ele>41</ele>
        <time>2019-03-26T16:43:23Z</time>
      </trkpt>
      <trkpt lat="46.46687" lon="-1.46975">
        <ele>41</ele>
        <time>2019-03-26T16:43:25Z</time>
      </trkpt>
      <trkpt lat="46.46688" lon="-1.46982">
        <ele>40</ele>
        <time>2019-03-26T16:43:28Z</time>
      </trkpt>
      <trkpt lat="46.4669" lon="-1.46988">
        <ele>40</ele>
        <time>2019-03-26T16:43:31Z</time>
      </trkpt>
      <trkpt lat="46.4669" lon="-1.46992">
        <ele>40</ele>
        <time>2019-03-26T16:43:33Z</time>
      </trkpt>
      <trkpt lat="46.46691" lon="-1.46998">
        <ele>40</ele>
        <time>2019-03-26T16:43:36Z</time>
      </trkpt>
      <trkpt lat="46.46691" lon="-1.47001">
        <ele>40</ele>
        <time>2019-03-26T16:43:38Z</time>
      </trkpt>
      <trkpt lat="46.46692" lon="-1.47007">
        <ele>40</ele>
        <time>2019-03-26T16:43:41Z</time>
      </trkpt>
      <trkpt lat="46.46694" lon="-1.47013">
        <ele>40</ele>
        <time>2019-03-26T16:43:44Z</time>
      </trkpt>
      <trkpt lat="46.46694" lon="-1.47016">
        <ele>40</ele>
        <time>2019-03-26T16:43:46Z</time>
      </trkpt>
      <trkpt lat="46.46695" lon="-1.47023">
        <ele>40</ele>
        <time>2019-03-26T16:43:49Z</time>
      </trkpt>
      <trkpt lat="46.46695" lon="-1.47027">
        <ele>40</ele>
        <time>2019-03-26T16:43:51Z</time>
      </trkpt>
      <trkpt lat="46.46697" lon="-1.47034">
        <ele>39</ele>
        <time>2019-03-26T16:43:54Z</time>
      </trkpt>
      <trkpt lat="46.46698" lon="-1.4704">
        <ele>39</ele>
        <time>2019-03-26T16:43:57Z</time>
      </trkpt>
      <trkpt lat="46.46699" lon="-1.47045">
        <ele>39</ele>
        <time>2019-03-26T16:43:59Z</time>
      </trkpt>
      <trkpt lat="46.46699" lon="-1.47051">
        <ele>39</ele>
        <time>2019-03-26T16:44:02Z</time>
      </trkpt>
      <trkpt lat="46.467" lon="-1.47056">
        <ele>39</ele>
        <time>2019-03-26T16:44:04Z</time>
      </trkpt>
      <trkpt lat="46.46701" lon="-1.47061">
        <ele>39</ele>
        <time>2019-03-26T16:44:07Z</time>
      </trkpt>
      <trkpt lat="46.46702" lon="-1.47067">
        <ele>39</ele>
        <time>2019-03-26T16:44:10Z</time>
      </trkpt>
      <trkpt lat="46.46701" lon="-1.47071">
        <ele>39</ele>
        <time>2019-03-26T16:44:12Z</time>
      </trkpt>
      <trkpt lat="46.46701" lon="-1.47077">
        <ele>39</ele>
        <time>2019-03-26T16:44:15Z</time>
      </trkpt>
      <trkpt lat="46.46701" lon="-1.47082">
        <ele>39</ele>
        <time>2019-03-26T16:44:17Z</time>
      </trkpt>
      <trkpt lat="46.46701" lon="-1.47085">
        <ele>38</ele>
        <time>2019-03-26T16:44:20Z</time>
      </trkpt>
      <trkpt lat="46.46701" lon="-1.4709">
        <ele>38</ele>
        <time>2019-03-26T16:44:23Z</time>
      </trkpt>
      <trkpt lat="46.46702" lon="-1.47093">
        <ele>38</ele>
        <time>2019-03-26T16:44:25Z</time>
      </trkpt>
      <trkpt lat="46.46704" lon="-1.47099">
        <ele>38</ele>
        <time>2019-03-26T16:44:28Z</time>
      </trkpt>
      <trkpt lat="46.46704" lon="-1.47102">
        <ele>38</ele>
        <time>2019-03-26T16:44:30Z</time>
      </trkpt>
      <trkpt lat="46.46705" lon="-1.47108">
        <ele>38</ele>
        <time>2019-03-26T16:44:33Z</time>
      </trkpt>
      <trkpt lat="46.46706" lon="-1.47113">
        <ele>38</ele>
        <time>2019-03-26T16:44:36Z</time>
      </trkpt>
      <trkpt lat="46.46707" lon="-1.47117">
        <ele>38</ele>
        <time>2019-03-26T16:44:38Z</time>
      </trkpt>
      <trkpt lat="46.46708" lon="-1.47121">
        <ele>38</ele>
        <time>2019-03-26T16:44:41Z</time>
      </trkpt>
      <trkpt lat="46.46709" lon="-1.47124">
        <ele>38</ele>
        <time>2019-03-26T16:44:43Z</time>
      </trkpt>
      <trkpt lat="46.4671" lon="-1.47129">
        <ele>38</ele>
        <time>2019-03-26T16:44:46Z</time>
      </trkpt>
      <trkpt lat="46.4671" lon="-1.47132">
        <ele>38</ele>
        <time>2019-03-26T16:44:48Z</time>
      </trkpt>
      <trkpt lat="46.46712" lon="-1.47137">
        <ele>38</ele>
        <time>2019-03-26T16:44:51Z</time>
      </trkpt>
      <trkpt lat="46.46713" lon="-1.47144">
        <ele>38</ele>
        <time>2019-03-26T16:44:54Z</time>
      </trkpt>
      <trkpt lat="46.46713" lon="-1.47147">
        <ele>38</ele>
        <time>2019-03-26T16:44:56Z</time>
      </trkpt>
      <trkpt lat="46.46715" lon="-1.47153">
        <ele>38</ele>
        <time>2019-03-26T16:44:59Z</time>
      </trkpt>
      <trkpt lat="46.46715" lon="-1.47157">
        <ele>38</ele>
        <time>2019-03-26T16:45:01Z</time>
      </trkpt>
      <trkpt lat="46.46716" lon="-1.47163">
        <ele>38</ele>
        <time>2019-03-26T16:45:04Z</time>
      </trkpt>
      <trkpt lat="46.46717" lon="-1.47167">
        <ele>38</ele>
        <time>2019-03-26T16:45:06Z</time>
      </trkpt>
      <trkpt lat="46.46719" lon="-1.47171">
        <ele>38</ele>
        <time>2019-03-26T16:45:09Z</time>
      </trkpt>
      <trkpt lat="46.4672" lon="-1.47174">
        <ele>38</ele>
        <time>2019-03-26T16:45:11Z</time>
      </trkpt>
      <trkpt lat="46.46723" lon="-1.47179">
        <ele>38</ele>
        <time>2019-03-26T16:45:14Z</time>
      </trkpt>
      <trkpt lat="46.46725" lon="-1.47184">
        <ele>38</ele>
        <time>2019-03-26T16:45:17Z</time>
      </trkpt>
      <trkpt lat="46.46727" lon="-1.47187">
        <ele>38</ele>
        <time>2019-03-26T16:45:19Z</time>
      </trkpt>
      <trkpt lat="46.46729" lon="-1.47192">
        <ele>38</ele>
        <time>2019-03-26T16:45:22Z</time>
      </trkpt>
      <trkpt lat="46.4673" lon="-1.47196">
        <ele>38</ele>
        <time>2019-03-26T16:45:24Z</time>
      </trkpt>
      <trkpt lat="46.46731" lon="-1.47201">
        <ele>38</ele>
        <time>2019-03-26T16:45:27Z</time>
      </trkpt>
      <trkpt lat="46.46733" lon="-1.47204">
        <ele>38</ele>
        <time>2019-03-26T16:45:29Z</time>
      </trkpt>
      <trkpt lat="46.46734" lon="-1.47208">
        <ele>38</ele>
        <time>2019-03-26T16:45:32Z</time>
      </trkpt>
      <trkpt lat="46.46735" lon="-1.47212">
        <ele>38</ele>
        <time>2019-03-26T16:45:34Z</time>
      </trkpt>
      <trkpt lat="46.46736" lon="-1.47216">
        <ele>38</ele>
        <time>2019-03-26T16:45:37Z</time>
      </trkpt>
      <trkpt lat="46.46737" lon="-1.4722">
        <ele>38</ele>
        <time>2019-03-26T16:45:39Z</time>
      </trkpt>
      <trkpt lat="46.46738" lon="-1.47225">
        <ele>38</ele>
        <time>2019-03-26T16:45:42Z</time>
      </trkpt>
      <trkpt lat="46.4674" lon="-1.47229">
        <ele>38</ele>
        <time>2019-03-26T16:45:44Z</time>
      </trkpt>
      <trkpt lat="46.46742" lon="-1.47235">
        <ele>38</ele>
        <time>2019-03-26T16:45:47Z</time>
      </trkpt>
      <trkpt lat="46.46743" lon="-1.47239">
        <ele>39</ele>
        <time>2019-03-26T16:45:49Z</time>
      </trkpt>
      <trkpt lat="46.46745" lon="-1.47245">
        <ele>39</ele>
        <time>2019-03-26T16:45:52Z</time>
      </trkpt>
      <trkpt lat="46.46747" lon="-1.47251">
        <ele>39</ele>
        <time>2019-03-26T16:45:55Z</time>
      </trkpt>
      <trkpt lat="46.46749" lon="-1.47255">
        <ele>39</ele>
        <time>2019-03-26T16:45:57Z</time>
      </trkpt>
      <trkpt lat="46.46751" lon="-1.4726">
        <ele>39</ele>
        <time>2019-03-26T16:46:00Z</time>
      </trkpt>
      <trkpt lat="46.46753" lon="-1.47264">
        <ele>39</ele>
        <time>2019-03-26T16:46:02Z</time>
      </trkpt>
      <trkpt lat="46.46755" lon="-1.4727">
        <ele>39</ele>
        <time>2019-03-26T16:46:05Z</time>
      </trkpt>
      <trkpt lat="46.46756" lon="-1.47274">
        <ele>39</ele>
        <time>2019-03-26T16:46:07Z</time>
      </trkpt>
      <trkpt lat="46.46759" lon="-1.4728">
        <ele>39</ele>
        <time>2019-03-26T16:46:10Z</time>
      </trkpt>
      <trkpt lat="46.4676" lon="-1.47284">
        <ele>39</ele>
        <time>2019-03-26T16:46:12Z</time>
      </trkpt>
      <trkpt lat="46.46761" lon="-1.47289">
        <ele>39</ele>
        <time>2019-03-26T16:46:15Z</time>
      </trkpt>
      <trkpt lat="46.46762" lon="-1.47292">
        <ele>39</ele>
        <time>2019-03-26T16:46:17Z</time>
      </trkpt>
      <trkpt lat="46.46763" lon="-1.47296">
        <ele>40</ele>
        <time>2019-03-26T16:46:20Z</time>
      </trkpt>
      <trkpt lat="46.46765" lon="-1.47302">
        <ele>40</ele>
        <time>2019-03-26T16:46:23Z</time>
      </trkpt>
      <trkpt lat="46.46766" lon="-1.47306">
        <ele>40</ele>
        <time>2019-03-26T16:46:25Z</time>
      </trkpt>
      <trkpt lat="46.46769" lon="-1.47312">
        <ele>40</ele>
        <time>2019-03-26T16:46:28Z</time>
      </trkpt>
      <trkpt lat="46.46771" lon="-1.47316">
        <ele>40</ele>
        <time>2019-03-26T16:46:30Z</time>
      </trkpt>
      <trkpt lat="46.46772" lon="-1.47321">
        <ele>40</ele>
        <time>2019-03-26T16:46:33Z</time>
      </trkpt>
      <trkpt lat="46.46773" lon="-1.47325">
        <ele>40</ele>
        <time>2019-03-26T16:46:35Z</time>
      </trkpt>
      <trkpt lat="46.46775" lon="-1.4733">
        <ele>40</ele>
        <time>2019-03-26T16:46:38Z</time>
      </trkpt>
      <trkpt lat="46.46775" lon="-1.47333">
        <ele>40</ele>
        <time>2019-03-26T16:46:40Z</time>
      </trkpt>
      <trkpt lat="46.46777" lon="-1.47338">
        <ele>40</ele>
        <time>2019-03-26T16:46:43Z</time>
      </trkpt>
      <trkpt lat="46.46778" lon="-1.47342">
        <ele>40</ele>
        <time>2019-03-26T16:46:45Z</time>
      </trkpt>
      <trkpt lat="46.46779" lon="-1.47347">
        <ele>40</ele>
        <time>2019-03-26T16:46:48Z</time>
      </trkpt>
      <trkpt lat="46.46781" lon="-1.47352">
        <ele>40</ele>
        <time>2019-03-26T16:46:51Z</time>
      </trkpt>
      <trkpt lat="46.46781" lon="-1.47356">
        <ele>40</ele>
        <time>2019-03-26T16:46:53Z</time>
      </trkpt>
      <trkpt lat="46.46783" lon="-1.47361">
        <ele>40</ele>
        <time>2019-03-26T16:46:56Z</time>
      </trkpt>
      <trkpt lat="46.46784" lon="-1.47364">
        <ele>40</ele>
        <time>2019-03-26T16:46:58Z</time>
      </trkpt>
      <trkpt lat="46.46785" lon="-1.47368">
        <ele>40</ele>
        <time>2019-03-26T16:47:01Z</time>
      </trkpt>
      <trkpt lat="46.46786" lon="-1.47371">
        <ele>41</ele>
        <time>2019-03-26T16:47:03Z</time>
      </trkpt>
      <trkpt lat="46.46787" lon="-1.47376">
        <ele>41</ele>
        <time>2019-03-26T16:47:06Z</time>
      </trkpt>
      <trkpt lat="46.46788" lon="-1.47381">
        <ele>41</ele>
        <time>2019-03-26T16:47:09Z</time>
      </trkpt>
      <trkpt lat="46.46789" lon="-1.47385">
        <ele>41</ele>
        <time>2019-03-26T16:47:11Z</time>
      </trkpt>
      <trkpt lat="46.4679" lon="-1.4739">
        <ele>41</ele>
        <time>2019-03-26T16:47:14Z</time>
      </trkpt>
      <trkpt lat="46.46791" lon="-1.47394">
        <ele>41</ele>
        <time>2019-03-26T16:47:16Z</time>
      </trkpt>
      <trkpt lat="46.46793" lon="-1.47398">
        <ele>41</ele>
        <time>2019-03-26T16:47:19Z</time>
      </trkpt>
      <trkpt lat="46.46795" lon="-1.47402">
        <ele>41</ele>
        <time>2019-03-26T16:47:21Z</time>
      </trkpt>
      <trkpt lat="46.46797" lon="-1.47407">
        <ele>41</ele>
        <time>2019-03-26T16:47:24Z</time>
      </trkpt>
      <trkpt lat="46.46799" lon="-1.47412">
        <ele>41</ele>
        <time>2019-03-26T16:47:27Z</time>
      </trkpt>
      <trkpt lat="46.46799" lon="-1.47416">
        <ele>42</ele>
        <time>2019-03-26T16:47:29Z</time>
      </trkpt>
      <trkpt lat="46.468" lon="-1.47419">
        <ele>42</ele>
        <time>2019-03-26T16:47:32Z</time>
      </trkpt>
      <trkpt lat="46.46801" lon="-1.47422">
        <ele>42</ele>
        <time>2019-03-26T16:47:34Z</time>
      </trkpt>
      <trkpt lat="46.46803" lon="-1.47427">
        <ele>42</ele>
        <time>2019-03-26T16:47:37Z</time>
      </trkpt>
      <trkpt lat="46.46803" lon="-1.4743">
        <ele>42</ele>
        <time>2019-03-26T16:47:39Z</time>
      </trkpt>
      <trkpt lat="46.46804" lon="-1.47436">
        <ele>42</ele>
        <time>2019-03-26T16:47:42Z</time>
      </trkpt>
      <trkpt lat="46.46805" lon="-1.47441">
        <ele>42</ele>
        <time>2019-03-26T16:47:45Z</time>
      </trkpt>
      <trkpt lat="46.46806" lon="-1.47445">
        <ele>42</ele>
        <time>2019-03-26T16:47:47Z</time>
      </trkpt>
      <trkpt lat="46.46807" lon="-1.4745">
        <ele>42</ele>
        <time>2019-03-26T16:47:50Z</time>
      </trkpt>
      <trkpt lat="46.46809" lon="-1.47454">
        <ele>42</ele>
        <time>2019-03-26T16:47:52Z</time>
      </trkpt>
      <trkpt lat="46.4681" lon="-1.4746">
        <ele>42</ele>
        <time>2019-03-26T16:47:55Z</time>
      </trkpt>
      <trkpt lat="46.46811" lon="-1.47465">
        <ele>42</ele>
        <time>2019-03-26T16:47:58Z</time>
      </trkpt>
      <trkpt lat="46.46812" lon="-1.47469">
        <ele>42</ele>
        <time>2019-03-26T16:48:00Z</time>
      </trkpt>
      <trkpt lat="46.46813" lon="-1.47475">
        <ele>43</ele>
        <time>2019-03-26T16:48:03Z</time>
      </trkpt>
      <trkpt lat="46.46814" lon="-1.4748">
        <ele>43</ele>
        <time>2019-03-26T16:48:06Z</time>
      </trkpt>
      <trkpt lat="46.46814" lon="-1.47483">
        <ele>43</ele>
        <time>2019-03-26T16:48:08Z</time>
      </trkpt>
      <trkpt lat="46.46816" lon="-1.47488">
        <ele>43</ele>
        <time>2019-03-26T16:48:11Z</time>
      </trkpt>
      <trkpt lat="46.46816" lon="-1.47492">
        <ele>43</ele>
        <time>2019-03-26T16:48:13Z</time>
      </trkpt>
      <trkpt lat="46.46818" lon="-1.47498">
        <ele>43</ele>
        <time>2019-03-26T16:48:16Z</time>
      </trkpt>
      <trkpt lat="46.4682" lon="-1.47503">
        <ele>43</ele>
        <time>2019-03-26T16:48:19Z</time>
      </trkpt>
      <trkpt lat="46.46821" lon="-1.47507">
        <ele>43</ele>
        <time>2019-03-26T16:48:21Z</time>
      </trkpt>
      <trkpt lat="46.46822" lon="-1.47513">
        <ele>43</ele>
        <time>2019-03-26T16:48:24Z</time>
      </trkpt>
      <trkpt lat="46.46824" lon="-1.47518">
        <ele>43</ele>
        <time>2019-03-26T16:48:27Z</time>
      </trkpt>
      <trkpt lat="46.46825" lon="-1.47521">
        <ele>44</ele>
        <time>2019-03-26T16:48:29Z</time>
      </trkpt>
      <trkpt lat="46.46825" lon="-1.47526">
        <ele>44</ele>
        <time>2019-03-26T16:48:32Z</time>
      </trkpt>
      <trkpt lat="46.46822" lon="-1.47529">
        <ele>44</ele>
        <time>2019-03-26T16:48:35Z</time>
      </trkpt>
      <trkpt lat="46.4682" lon="-1.47531">
        <ele>44</ele>
        <time>2019-03-26T16:48:37Z</time>
      </trkpt>
      <trkpt lat="46.46817" lon="-1.47534">
        <ele>44</ele>
        <time>2019-03-26T16:48:40Z</time>
      </trkpt>
      <trkpt lat="46.46815" lon="-1.47536">
        <ele>44</ele>
        <time>2019-03-26T16:48:42Z</time>
      </trkpt>
      <trkpt lat="46.46812" lon="-1.47539">
        <ele>44</ele>
        <time>2019-03-26T16:48:45Z</time>
      </trkpt>
      <trkpt lat="46.46809" lon="-1.47541">
        <ele>44</ele>
        <time>2019-03-26T16:48:48Z</time>
      </trkpt>
      <trkpt lat="46.46807" lon="-1.47543">
        <ele>43</ele>
        <time>2019-03-26T16:48:50Z</time>
      </trkpt>
      <trkpt lat="46.46804" lon="-1.47546">
        <ele>43</ele>
        <time>2019-03-26T16:48:53Z</time>
      </trkpt>
      <trkpt lat="46.46803" lon="-1.47547">
        <ele>43</ele>
        <time>2019-03-26T16:48:55Z</time>
      </trkpt>
      <trkpt lat="46.468" lon="-1.4755">
        <ele>43</ele>
        <time>2019-03-26T16:48:58Z</time>
      </trkpt>
      <trkpt lat="46.46796" lon="-1.47553">
        <ele>43</ele>
        <time>2019-03-26T16:49:01Z</time>
      </trkpt>
      <trkpt lat="46.46794" lon="-1.47555">
        <ele>43</ele>
        <time>2019-03-26T16:49:03Z</time>
      </trkpt>
      <trkpt lat="46.46791" lon="-1.47558">
        <ele>43</ele>
        <time>2019-03-26T16:49:06Z</time>
      </trkpt>
      <trkpt lat="46.46789" lon="-1.47559">
        <ele>43</ele>
        <time>2019-03-26T16:49:09Z</time>
      </trkpt>
      <trkpt lat="46.46787" lon="-1.47561">
        <ele>43</ele>
        <time>2019-03-26T16:49:11Z</time>
      </trkpt>
      <trkpt lat="46.46783" lon="-1.47563">
        <ele>43</ele>
        <time>2019-03-26T16:49:14Z</time>
      </trkpt>
      <trkpt lat="46.46781" lon="-1.47565">
        <ele>43</ele>
        <time>2019-03-26T16:49:16Z</time>
      </trkpt>
      <trkpt lat="46.46778" lon="-1.47567">
        <ele>43</ele>
        <time>2019-03-26T16:49:19Z</time>
      </trkpt>
      <trkpt lat="46.46774" lon="-1.47569">
        <ele>43</ele>
        <time>2019-03-26T16:49:22Z</time>
      </trkpt>
      <trkpt lat="46.46771" lon="-1.4757">
        <ele>43</ele>
        <time>2019-03-26T16:49:24Z</time>
      </trkpt>
      <trkpt lat="46.46768" lon="-1.47571">
        <ele>43</ele>
        <time>2019-03-26T16:49:27Z</time>
      </trkpt>
      <trkpt lat="46.46766" lon="-1.47573">
        <ele>42</ele>
        <time>2019-03-26T16:49:29Z</time>
      </trkpt>
      <trkpt lat="46.46763" lon="-1.47576">
        <ele>42</ele>
        <time>2019-03-26T16:49:32Z</time>
      </trkpt>
      <trkpt lat="46.46761" lon="-1.47577">
        <ele>42</ele>
        <time>2019-03-26T16:49:34Z</time>
      </trkpt>
      <trkpt lat="46.46758" lon="-1.47578">
        <ele>42</ele>
        <time>2019-03-26T16:49:37Z</time>
      </trkpt>
      <trkpt lat="46.46755" lon="-1.4758">
        <ele>42</ele>
        <time>2019-03-26T16:49:40Z</time>
      </trkpt>
      <trkpt lat="46.46753" lon="-1.47582">
        <ele>42</ele>
        <time>2019-03-26T16:49:42Z</time>
      </trkpt>
      <trkpt lat="46.46749" lon="-1.47585">
        <ele>42</ele>
        <time>2019-03-26T16:49:45Z</time>
      </trkpt>
      <trkpt lat="46.46747" lon="-1.47587">
        <ele>42</ele>
        <time>2019-03-26T16:49:47Z</time>
      </trkpt>
      <trkpt lat="46.46743" lon="-1.47589">
        <ele>42</ele>
        <time>2019-03-26T16:49:50Z</time>
      </trkpt>
      <trkpt lat="46.46741" lon="-1.47591">
        <ele>42</ele>
        <time>2019-03-26T16:49:52Z</time>
      </trkpt>
      <trkpt lat="46.46738" lon="-1.47594">
        <ele>42</ele>
        <time>2019-03-26T16:49:55Z</time>
      </trkpt>
      <trkpt lat="46.46736" lon="-1.47596">
        <ele>42</ele>
        <time>2019-03-26T16:49:57Z</time>
      </trkpt>
      <trkpt lat="46.46733" lon="-1.47599">
        <ele>42</ele>
        <time>2019-03-26T16:50:00Z</time>
      </trkpt>
      <trkpt lat="46.4673" lon="-1.47601">
        <ele>41</ele>
        <time>2019-03-26T16:50:02Z</time>
      </trkpt>
      <trkpt lat="46.46725" lon="-1.47605">
        <ele>41</ele>
        <time>2019-03-26T16:50:05Z</time>
      </trkpt>
      <trkpt lat="46.46721" lon="-1.47606">
        <ele>41</ele>
        <time>2019-03-26T16:50:07Z</time>
      </trkpt>
      <trkpt lat="46.46717" lon="-1.47609">
        <ele>41</ele>
        <time>2019-03-26T16:50:10Z</time>
      </trkpt>
      <trkpt lat="46.46714" lon="-1.4761">
        <ele>41</ele>
        <time>2019-03-26T16:50:12Z</time>
      </trkpt>
      <trkpt lat="46.4671" lon="-1.47614">
        <ele>41</ele>
        <time>2019-03-26T16:50:15Z</time>
      </trkpt>
      <trkpt lat="46.46708" lon="-1.47616">
        <ele>41</ele>
        <time>2019-03-26T16:50:17Z</time>
      </trkpt>
      <trkpt lat="46.46704" lon="-1.47619">
        <ele>41</ele>
        <time>2019-03-26T16:50:20Z</time>
      </trkpt>
      <trkpt lat="46.46701" lon="-1.4762">
        <ele>41</ele>
        <time>2019-03-26T16:50:22Z</time>
      </trkpt>
      <trkpt lat="46.46697" lon="-1.47622">
        <ele>41</ele>
        <time>2019-03-26T16:50:25Z</time>
      </trkpt>
      <trkpt lat="46.46695" lon="-1.47623">
        <ele>41</ele>
        <time>2019-03-26T16:50:27Z</time>
      </trkpt>
      <trkpt lat="46.46693" lon="-1.47623">
        <ele>40</ele>
        <time>2019-03-26T16:50:30Z</time>
      </trkpt>
      <trkpt lat="46.46692" lon="-1.47624">
        <ele>40</ele>
        <time>2019-03-26T16:50:32Z</time>
      </trkpt>
      <trkpt lat="46.46691" lon="-1.47624">
        <ele>40</ele>
        <time>2019-03-26T16:50:35Z</time>
      </trkpt>
      <trkpt lat="46.46691" lon="-1.47625">
        <ele>40</ele>
        <time>2019-03-26T16:50:37Z</time>
      </trkpt>
      <trkpt lat="46.46691" lon="-1.47625">
        <ele>40</ele>
        <time>2019-03-26T16:50:40Z</time>
      </trkpt>
      <trkpt lat="46.46692" lon="-1.47625">
        <ele>40</ele>
        <time>2019-03-26T16:50:42Z</time>
      </trkpt>
      <trkpt lat="46.46691" lon="-1.47626">
        <ele>40</ele>
        <time>2019-03-26T16:50:45Z</time>
      </trkpt>
      <trkpt lat="46.46691" lon="-1.47626">
        <ele>40</ele>
        <time>2019-03-26T16:50:47Z</time>
      </trkpt>
      <trkpt lat="46.46691" lon="-1.47626">
        <ele>40</ele>
        <time>2019-03-26T16:50:50Z</time>
      </trkpt>
      <trkpt lat="46.4669" lon="-1.47627">
        <ele>40</ele>
        <time>2019-03-26T16:50:52Z</time>
      </trkpt>
      <trkpt lat="46.46689" lon="-1.47628">
        <ele>40</ele>
        <time>2019-03-26T16:50:55Z</time>
      </trkpt>
      <trkpt lat="46.46688" lon="-1.47629">
        <ele>40</ele>
        <time>2019-03-26T16:50:57Z</time>
      </trkpt>
      <trkpt lat="46.46688" lon="-1.47629">
        <ele>40</ele>
        <time>2019-03-26T16:51:00Z</time>
      </trkpt>
      <trkpt lat="46.46688" lon="-1.47629">
        <ele>40</ele>
        <time>2019-03-26T16:51:03Z</time>
      </trkpt>
      <trkpt lat="46.46688" lon="-1.4763">
        <ele>40</ele>
        <time>2019-03-26T16:51:05Z</time>
      </trkpt>
      <trkpt lat="46.46687" lon="-1.47632">
        <ele>40</ele>
        <time>2019-03-26T16:51:08Z</time>
      </trkpt>
      <trkpt lat="46.46686" lon="-1.47632">
        <ele>40</ele>
        <time>2019-03-26T16:51:10Z</time>
      </trkpt>
      <trkpt lat="46.46686" lon="-1.47633">
        <ele>40</ele>
        <time>2019-03-26T16:51:13Z</time>
      </trkpt>
      <trkpt lat="46.46686" lon="-1.47633">
        <ele>40</ele>
        <time>2019-03-26T16:51:15Z</time>
      </trkpt>
      <trkpt lat="46.46686" lon="-1.47632">
        <ele>40</ele>
        <time>2019-03-26T16:51:18Z</time>
      </trkpt>
      <trkpt lat="46.46686" lon="-1.47633">
        <ele>40</ele>
        <time>2019-03-26T16:51:20Z</time>
      </trkpt>
      <trkpt lat="46.46686" lon="-1.47634">
        <ele>40</ele>
        <time>2019-03-26T16:51:23Z</time>
      </trkpt>
      <trkpt lat="46.46686" lon="-1.47635">
        <ele>40</ele>
        <time>2019-03-26T16:51:25Z</time>
      </trkpt>
      <trkpt lat="46.46686" lon="-1.47635">
        <ele>40</ele>
        <time>2019-03-26T16:51:28Z</time>
      </trkpt>
      <trkpt lat="46.46686" lon="-1.47636">
        <ele>40</ele>
        <time>2019-03-26T16:51:31Z</time>
      </trkpt>
      <trkpt lat="46.46686" lon="-1.47636">
        <ele>40</ele>
        <time>2019-03-26T16:51:33Z</time>
      </trkpt>
      <trkpt lat="46.46686" lon="-1.47635">
        <ele>40</ele>
        <time>2019-03-26T16:51:36Z</time>
      </trkpt>
      <trkpt lat="46.46686" lon="-1.47635">
        <ele>40</ele>
        <time>2019-03-26T16:51:38Z</time>
      </trkpt>
      <trkpt lat="46.46685" lon="-1.47635">
        <ele>40</ele>
        <time>2019-03-26T16:51:41Z</time>
      </trkpt>
      <trkpt lat="46.46685" lon="-1.47635">
        <ele>40</ele>
        <time>2019-03-26T16:51:43Z</time>
      </trkpt>
      <trkpt lat="46.46683" lon="-1.47639">
        <ele>40</ele>
        <time>2019-03-26T16:51:46Z</time>
      </trkpt>
      <trkpt lat="46.46681" lon="-1.47641">
        <ele>40</ele>
        <time>2019-03-26T16:51:49Z</time>
      </trkpt>
      <trkpt lat="46.46681" lon="-1.4764">
        <ele>40</ele>
        <time>2019-03-26T16:51:51Z</time>
      </trkpt>
      <trkpt lat="46.46679" lon="-1.47639">
        <ele>40</ele>
        <time>2019-03-26T16:51:54Z</time>
      </trkpt>
      <trkpt lat="46.46677" lon="-1.47639">
        <ele>40</ele>
        <time>2019-03-26T16:51:56Z</time>
      </trkpt>
      <trkpt lat="46.46673" lon="-1.47639">
        <ele>40</ele>
        <time>2019-03-26T16:51:59Z</time>
      </trkpt>
      <trkpt lat="46.46671" lon="-1.4764">
        <ele>40</ele>
        <time>2019-03-26T16:52:02Z</time>
      </trkpt>
      <trkpt lat="46.46668" lon="-1.47642">
        <ele>40</ele>
        <time>2019-03-26T16:52:04Z</time>
      </trkpt>
      <trkpt lat="46.46664" lon="-1.47643">
        <ele>40</ele>
        <time>2019-03-26T16:52:07Z</time>
      </trkpt>
      <trkpt lat="46.46663" lon="-1.47644">
        <ele>40</ele>
        <time>2019-03-26T16:52:09Z</time>
      </trkpt>
      <trkpt lat="46.4666" lon="-1.47646">
        <ele>40</ele>
        <time>2019-03-26T16:52:12Z</time>
      </trkpt>
      <trkpt lat="46.46658" lon="-1.47647">
        <ele>40</ele>
        <time>2019-03-26T16:52:14Z</time>
      </trkpt>
      <trkpt lat="46.46655" lon="-1.47649">
        <ele>40</ele>
        <time>2019-03-26T16:52:17Z</time>
      </trkpt>
      <trkpt lat="46.46651" lon="-1.47651">
        <ele>40</ele>
        <time>2019-03-26T16:52:20Z</time>
      </trkpt>
      <trkpt lat="46.46648" lon="-1.47652">
        <ele>40</ele>
        <time>2019-03-26T16:52:22Z</time>
      </trkpt>
      <trkpt lat="46.46645" lon="-1.47654">
        <ele>40</ele>
        <time>2019-03-26T16:52:25Z</time>
      </trkpt>
      <trkpt lat="46.46643" lon="-1.47655">
        <ele>40</ele>
        <time>2019-03-26T16:52:27Z</time>
      </trkpt>
      <trkpt lat="46.46639" lon="-1.47658">
        <ele>40</ele>
        <time>2019-03-26T16:52:30Z</time>
      </trkpt>
      <trkpt lat="46.46637" lon="-1.4766">
        <ele>40</ele>
        <time>2019-03-26T16:52:33Z</time>
      </trkpt>
      <trkpt lat="46.46632" lon="-1.47662">
        <ele>40</ele>
        <time>2019-03-26T16:52:35Z</time>
      </trkpt>
      <trkpt lat="46.46628" lon="-1.47664">
        <ele>40</ele>
        <time>2019-03-26T16:52:38Z</time>
      </trkpt>
      <trkpt lat="46.46625" lon="-1.47666">
        <ele>40</ele>
        <time>2019-03-26T16:52:40Z</time>
      </trkpt>
      <trkpt lat="46.46621" lon="-1.47669">
        <ele>40</ele>
        <time>2019-03-26T16:52:43Z</time>
      </trkpt>
      <trkpt lat="46.46618" lon="-1.4767">
        <ele>39</ele>
        <time>2019-03-26T16:52:45Z</time>
      </trkpt>
      <trkpt lat="46.46615" lon="-1.47672">
        <ele>40</ele>
        <time>2019-03-26T16:52:48Z</time>
      </trkpt>
      <trkpt lat="46.46612" lon="-1.47675">
        <ele>40</ele>
        <time>2019-03-26T16:52:51Z</time>
      </trkpt>
      <trkpt lat="46.4661" lon="-1.47677">
        <ele>40</ele>
        <time>2019-03-26T16:52:53Z</time>
      </trkpt>
      <trkpt lat="46.46607" lon="-1.4768">
        <ele>40</ele>
        <time>2019-03-26T16:52:56Z</time>
      </trkpt>
      <trkpt lat="46.46605" lon="-1.47681">
        <ele>40</ele>
        <time>2019-03-26T16:52:58Z</time>
      </trkpt>
      <trkpt lat="46.46601" lon="-1.47685">
        <ele>40</ele>
        <time>2019-03-26T16:53:01Z</time>
      </trkpt>
      <trkpt lat="46.46599" lon="-1.47689">
        <ele>40</ele>
        <time>2019-03-26T16:53:04Z</time>
      </trkpt>
      <trkpt lat="46.46597" lon="-1.4769">
        <ele>40</ele>
        <time>2019-03-26T16:53:06Z</time>
      </trkpt>
      <trkpt lat="46.46594" lon="-1.47693">
        <ele>40</ele>
        <time>2019-03-26T16:53:09Z</time>
      </trkpt>
      <trkpt lat="46.46592" lon="-1.47696">
        <ele>40</ele>
        <time>2019-03-26T16:53:11Z</time>
      </trkpt>
      <trkpt lat="46.46588" lon="-1.477">
        <ele>40</ele>
        <time>2019-03-26T16:53:14Z</time>
      </trkpt>
      <trkpt lat="46.46585" lon="-1.47702">
        <ele>40</ele>
        <time>2019-03-26T16:53:17Z</time>
      </trkpt>
      <trkpt lat="46.46582" lon="-1.47704">
        <ele>40</ele>
        <time>2019-03-26T16:53:19Z</time>
      </trkpt>
      <trkpt lat="46.46578" lon="-1.47707">
        <ele>40</ele>
        <time>2019-03-26T16:53:22Z</time>
      </trkpt>
      <trkpt lat="46.46575" lon="-1.47709">
        <ele>40</ele>
        <time>2019-03-26T16:53:24Z</time>
      </trkpt>
      <trkpt lat="46.4657" lon="-1.47711">
        <ele>40</ele>
        <time>2019-03-26T16:53:27Z</time>
      </trkpt>
      <trkpt lat="46.46565" lon="-1.47714">
        <ele>40</ele>
        <time>2019-03-26T16:53:30Z</time>
      </trkpt>
      <trkpt lat="46.46562" lon="-1.47715">
        <ele>40</ele>
        <time>2019-03-26T16:53:32Z</time>
      </trkpt>
      <trkpt lat="46.46558" lon="-1.47717">
        <ele>40</ele>
        <time>2019-03-26T16:53:35Z</time>
      </trkpt>
      <trkpt lat="46.46554" lon="-1.4772">
        <ele>40</ele>
        <time>2019-03-26T16:53:38Z</time>
      </trkpt>
      <trkpt lat="46.46552" lon="-1.47721">
        <ele>40</ele>
        <time>2019-03-26T16:53:40Z</time>
      </trkpt>
      <trkpt lat="46.46548" lon="-1.47723">
        <ele>40</ele>
        <time>2019-03-26T16:53:43Z</time>
      </trkpt>
      <trkpt lat="46.46546" lon="-1.47724">
        <ele>40</ele>
        <time>2019-03-26T16:53:45Z</time>
      </trkpt>
      <trkpt lat="46.46542" lon="-1.47726">
        <ele>40</ele>
        <time>2019-03-26T16:53:48Z</time>
      </trkpt>
      <trkpt lat="46.46538" lon="-1.47727">
        <ele>40</ele>
        <time>2019-03-26T16:53:51Z</time>
      </trkpt>
      <trkpt lat="46.46534" lon="-1.47729">
        <ele>40</ele>
        <time>2019-03-26T16:53:53Z</time>
      </trkpt>
      <trkpt lat="46.46532" lon="-1.47731">
        <ele>40</ele>
        <time>2019-03-26T16:53:56Z</time>
      </trkpt>
      <trkpt lat="46.46529" lon="-1.47733">
        <ele>40</ele>
        <time>2019-03-26T16:53:59Z</time>
      </trkpt>
      <trkpt lat="46.46528" lon="-1.47734">
        <ele>40</ele>
        <time>2019-03-26T16:54:01Z</time>
      </trkpt>
      <trkpt lat="46.46528" lon="-1.47734">
        <ele>40</ele>
        <time>2019-03-26T16:54:04Z</time>
      </trkpt>
      <trkpt lat="46.46526" lon="-1.47736">
        <ele>40</ele>
        <time>2019-03-26T16:54:07Z</time>
      </trkpt>
      <trkpt lat="46.46523" lon="-1.47738">
        <ele>40</ele>
        <time>2019-03-26T16:54:10Z</time>
      </trkpt>
      <trkpt lat="46.4652" lon="-1.47739">
        <ele>40</ele>
        <time>2019-03-26T16:54:12Z</time>
      </trkpt>
      <trkpt lat="46.46517" lon="-1.47741">
        <ele>40</ele>
        <time>2019-03-26T16:54:15Z</time>
      </trkpt>
      <trkpt lat="46.46515" lon="-1.47743">
        <ele>40</ele>
        <time>2019-03-26T16:54:17Z</time>
      </trkpt>
      <trkpt lat="46.46512" lon="-1.47745">
        <ele>40</ele>
        <time>2019-03-26T16:54:20Z</time>
      </trkpt>
      <trkpt lat="46.46508" lon="-1.47747">
        <ele>40</ele>
        <time>2019-03-26T16:54:23Z</time>
      </trkpt>
      <trkpt lat="46.46505" lon="-1.47749">
        <ele>40</ele>
        <time>2019-03-26T16:54:25Z</time>
      </trkpt>
      <trkpt lat="46.46501" lon="-1.4775">
        <ele>40</ele>
        <time>2019-03-26T16:54:28Z</time>
      </trkpt>
      <trkpt lat="46.46498" lon="-1.47753">
        <ele>40</ele>
        <time>2019-03-26T16:54:30Z</time>
      </trkpt>
      <trkpt lat="46.46495" lon="-1.47754">
        <ele>40</ele>
        <time>2019-03-26T16:54:33Z</time>
      </trkpt>
      <trkpt lat="46.46492" lon="-1.47755">
        <ele>40</ele>
        <time>2019-03-26T16:54:35Z</time>
      </trkpt>
      <trkpt lat="46.46488" lon="-1.47758">
        <ele>40</ele>
        <time>2019-03-26T16:54:38Z</time>
      </trkpt>
      <trkpt lat="46.46485" lon="-1.4776">
        <ele>40</ele>
        <time>2019-03-26T16:54:41Z</time>
      </trkpt>
      <trkpt lat="46.46483" lon="-1.47761">
        <ele>40</ele>
        <time>2019-03-26T16:54:43Z</time>
      </trkpt>
      <trkpt lat="46.46481" lon="-1.47762">
        <ele>40</ele>
        <time>2019-03-26T16:54:46Z</time>
      </trkpt>
      <trkpt lat="46.46479" lon="-1.47764">
        <ele>40</ele>
        <time>2019-03-26T16:54:48Z</time>
      </trkpt>
      <trkpt lat="46.46478" lon="-1.47765">
        <ele>40</ele>
        <time>2019-03-26T16:54:51Z</time>
      </trkpt>
      <trkpt lat="46.46477" lon="-1.47765">
        <ele>40</ele>
        <time>2019-03-26T16:54:53Z</time>
      </trkpt>
      <trkpt lat="46.46475" lon="-1.47767">
        <ele>40</ele>
        <time>2019-03-26T16:54:56Z</time>
      </trkpt>
      <trkpt lat="46.46473" lon="-1.47768">
        <ele>40</ele>
        <time>2019-03-26T16:54:58Z</time>
      </trkpt>
      <trkpt lat="46.46471" lon="-1.47771">
        <ele>40</ele>
        <time>2019-03-26T16:55:01Z</time>
      </trkpt>
      <trkpt lat="46.46468" lon="-1.47772">
        <ele>40</ele>
        <time>2019-03-26T16:55:04Z</time>
      </trkpt>
      <trkpt lat="46.46465" lon="-1.47773">
        <ele>40</ele>
        <time>2019-03-26T16:55:06Z</time>
      </trkpt>
      <trkpt lat="46.46462" lon="-1.47775">
        <ele>40</ele>
        <time>2019-03-26T16:55:09Z</time>
      </trkpt>
      <trkpt lat="46.4646" lon="-1.47776">
        <ele>40</ele>
        <time>2019-03-26T16:55:11Z</time>
      </trkpt>
      <trkpt lat="46.46456" lon="-1.47778">
        <ele>39</ele>
        <time>2019-03-26T16:55:14Z</time>
      </trkpt>
      <trkpt lat="46.46453" lon="-1.4778">
        <ele>39</ele>
        <time>2019-03-26T16:55:16Z</time>
      </trkpt>
      <trkpt lat="46.46449" lon="-1.47782">
        <ele>39</ele>
        <time>2019-03-26T16:55:19Z</time>
      </trkpt>
      <trkpt lat="46.46447" lon="-1.47784">
        <ele>39</ele>
        <time>2019-03-26T16:55:21Z</time>
      </trkpt>
      <trkpt lat="46.46443" lon="-1.47787">
        <ele>39</ele>
        <time>2019-03-26T16:55:24Z</time>
      </trkpt>
      <trkpt lat="46.46441" lon="-1.47789">
        <ele>39</ele>
        <time>2019-03-26T16:55:26Z</time>
      </trkpt>
      <trkpt lat="46.46437" lon="-1.47792">
        <ele>39</ele>
        <time>2019-03-26T16:55:29Z</time>
      </trkpt>
      <trkpt lat="46.46435" lon="-1.47792">
        <ele>39</ele>
        <time>2019-03-26T16:55:31Z</time>
      </trkpt>
      <trkpt lat="46.46432" lon="-1.47795">
        <ele>39</ele>
        <time>2019-03-26T16:55:34Z</time>
      </trkpt>
      <trkpt lat="46.46429" lon="-1.47798">
        <ele>39</ele>
        <time>2019-03-26T16:55:37Z</time>
      </trkpt>
      <trkpt lat="46.46427" lon="-1.47799">
        <ele>39</ele>
        <time>2019-03-26T16:55:39Z</time>
      </trkpt>
      <trkpt lat="46.46424" lon="-1.47801">
        <ele>39</ele>
        <time>2019-03-26T16:55:42Z</time>
      </trkpt>
      <trkpt lat="46.46422" lon="-1.47802">
        <ele>39</ele>
        <time>2019-03-26T16:55:44Z</time>
      </trkpt>
      <trkpt lat="46.46419" lon="-1.47803">
        <ele>39</ele>
        <time>2019-03-26T16:55:47Z</time>
      </trkpt>
      <trkpt lat="46.46417" lon="-1.47805">
        <ele>39</ele>
        <time>2019-03-26T16:55:49Z</time>
      </trkpt>
      <trkpt lat="46.46413" lon="-1.47808">
        <ele>39</ele>
        <time>2019-03-26T16:55:52Z</time>
      </trkpt>
      <trkpt lat="46.46411" lon="-1.4781">
        <ele>39</ele>
        <time>2019-03-26T16:55:54Z</time>
      </trkpt>
      <trkpt lat="46.46407" lon="-1.47812">
        <ele>39</ele>
        <time>2019-03-26T16:55:57Z</time>
      </trkpt>
      <trkpt lat="46.46404" lon="-1.47813">
        <ele>38</ele>
        <time>2019-03-26T16:56:00Z</time>
      </trkpt>
      <trkpt lat="46.46402" lon="-1.47815">
        <ele>38</ele>
        <time>2019-03-26T16:56:02Z</time>
      </trkpt>
      <trkpt lat="46.46398" lon="-1.47817">
        <ele>38</ele>
        <time>2019-03-26T16:56:05Z</time>
      </trkpt>
      <trkpt lat="46.46397" lon="-1.47819">
        <ele>38</ele>
        <time>2019-03-26T16:56:07Z</time>
      </trkpt>
      <trkpt lat="46.46394" lon="-1.47821">
        <ele>38</ele>
        <time>2019-03-26T16:56:10Z</time>
      </trkpt>
      <trkpt lat="46.46389" lon="-1.47824">
        <ele>38</ele>
        <time>2019-03-26T16:56:13Z</time>
      </trkpt>
      <trkpt lat="46.46385" lon="-1.47826">
        <ele>38</ele>
        <time>2019-03-26T16:56:15Z</time>
      </trkpt>
      <trkpt lat="46.46381" lon="-1.4783">
        <ele>38</ele>
        <time>2019-03-26T16:56:18Z</time>
      </trkpt>
      <trkpt lat="46.46377" lon="-1.47832">
        <ele>38</ele>
        <time>2019-03-26T16:56:20Z</time>
      </trkpt>
      <trkpt lat="46.46373" lon="-1.47836">
        <ele>38</ele>
        <time>2019-03-26T16:56:23Z</time>
      </trkpt>
      <trkpt lat="46.46371" lon="-1.47838">
        <ele>38</ele>
        <time>2019-03-26T16:56:25Z</time>
      </trkpt>
      <trkpt lat="46.46367" lon="-1.47842">
        <ele>37</ele>
        <time>2019-03-26T16:56:28Z</time>
      </trkpt>
      <trkpt lat="46.46363" lon="-1.47845">
        <ele>37</ele>
        <time>2019-03-26T16:56:31Z</time>
      </trkpt>
      <trkpt lat="46.46361" lon="-1.47846">
        <ele>37</ele>
        <time>2019-03-26T16:56:33Z</time>
      </trkpt>
      <trkpt lat="46.46358" lon="-1.47849">
        <ele>37</ele>
        <time>2019-03-26T16:56:36Z</time>
      </trkpt>
      <trkpt lat="46.46355" lon="-1.47851">
        <ele>37</ele>
        <time>2019-03-26T16:56:38Z</time>
      </trkpt>
      <trkpt lat="46.46351" lon="-1.47855">
        <ele>37</ele>
        <time>2019-03-26T16:56:41Z</time>
      </trkpt>
      <trkpt lat="46.46348" lon="-1.47857">
        <ele>37</ele>
        <time>2019-03-26T16:56:43Z</time>
      </trkpt>
      <trkpt lat="46.46344" lon="-1.4786">
        <ele>37</ele>
        <time>2019-03-26T16:56:46Z</time>
      </trkpt>
      <trkpt lat="46.4634" lon="-1.47862">
        <ele>37</ele>
        <time>2019-03-26T16:56:49Z</time>
      </trkpt>
      <trkpt lat="46.46335" lon="-1.47865">
        <ele>37</ele>
        <time>2019-03-26T16:56:51Z</time>
      </trkpt>
      <trkpt lat="46.46331" lon="-1.47868">
        <ele>37</ele>
        <time>2019-03-26T16:56:54Z</time>
      </trkpt>
      <trkpt lat="46.46329" lon="-1.4787">
        <ele>37</ele>
        <time>2019-03-26T16:56:56Z</time>
      </trkpt>
      <trkpt lat="46.46327" lon="-1.47874">
        <ele>37</ele>
        <time>2019-03-26T16:56:59Z</time>
      </trkpt>
      <trkpt lat="46.46325" lon="-1.47877">
        <ele>37</ele>
        <time>2019-03-26T16:57:01Z</time>
      </trkpt>
      <trkpt lat="46.46322" lon="-1.4788">
        <ele>37</ele>
        <time>2019-03-26T16:57:04Z</time>
      </trkpt>
      <trkpt lat="46.46319" lon="-1.47883">
        <ele>37</ele>
        <time>2019-03-26T16:57:06Z</time>
      </trkpt>
      <trkpt lat="46.46316" lon="-1.47888">
        <ele>37</ele>
        <time>2019-03-26T16:57:09Z</time>
      </trkpt>
      <trkpt lat="46.46314" lon="-1.4789">
        <ele>37</ele>
        <time>2019-03-26T16:57:11Z</time>
      </trkpt>
      <trkpt lat="46.46312" lon="-1.47895">
        <ele>37</ele>
        <time>2019-03-26T16:57:14Z</time>
      </trkpt>
      <trkpt lat="46.46308" lon="-1.479">
        <ele>37</ele>
        <time>2019-03-26T16:57:17Z</time>
      </trkpt>
      <trkpt lat="46.46306" lon="-1.47903">
        <ele>37</ele>
        <time>2019-03-26T16:57:19Z</time>
      </trkpt>
      <trkpt lat="46.46303" lon="-1.47907">
        <ele>37</ele>
        <time>2019-03-26T16:57:22Z</time>
      </trkpt>
      <trkpt lat="46.46301" lon="-1.4791">
        <ele>37</ele>
        <time>2019-03-26T16:57:24Z</time>
      </trkpt>
      <trkpt lat="46.46298" lon="-1.47914">
        <ele>37</ele>
        <time>2019-03-26T16:57:27Z</time>
      </trkpt>
      <trkpt lat="46.46295" lon="-1.47919">
        <ele>37</ele>
        <time>2019-03-26T16:57:30Z</time>
      </trkpt>
      <trkpt lat="46.46294" lon="-1.47923">
        <ele>37</ele>
        <time>2019-03-26T16:57:32Z</time>
      </trkpt>
      <trkpt lat="46.46292" lon="-1.47927">
        <ele>37</ele>
        <time>2019-03-26T16:57:35Z</time>
      </trkpt>
      <trkpt lat="46.46289" lon="-1.4793">
        <ele>37</ele>
        <time>2019-03-26T16:57:38Z</time>
      </trkpt>
      <trkpt lat="46.46287" lon="-1.47932">
        <ele>37</ele>
        <time>2019-03-26T16:57:40Z</time>
      </trkpt>
      <trkpt lat="46.46284" lon="-1.47936">
        <ele>36</ele>
        <time>2019-03-26T16:57:43Z</time>
      </trkpt>
      <trkpt lat="46.46282" lon="-1.47938">
        <ele>37</ele>
        <time>2019-03-26T16:57:45Z</time>
      </trkpt>
      <trkpt lat="46.46278" lon="-1.47943">
        <ele>36</ele>
        <time>2019-03-26T16:57:48Z</time>
      </trkpt>
      <trkpt lat="46.46274" lon="-1.47948">
        <ele>36</ele>
        <time>2019-03-26T16:57:51Z</time>
      </trkpt>
      <trkpt lat="46.46272" lon="-1.47951">
        <ele>36</ele>
        <time>2019-03-26T16:57:53Z</time>
      </trkpt>
      <trkpt lat="46.46268" lon="-1.47956">
        <ele>36</ele>
        <time>2019-03-26T16:57:56Z</time>
      </trkpt>
      <trkpt lat="46.46264" lon="-1.47961">
        <ele>36</ele>
        <time>2019-03-26T16:57:59Z</time>
      </trkpt>
      <trkpt lat="46.46261" lon="-1.47964">
        <ele>36</ele>
        <time>2019-03-26T16:58:01Z</time>
      </trkpt>
      <trkpt lat="46.46259" lon="-1.47968">
        <ele>36</ele>
        <time>2019-03-26T16:58:04Z</time>
      </trkpt>
      <trkpt lat="46.46257" lon="-1.47972">
        <ele>36</ele>
        <time>2019-03-26T16:58:06Z</time>
      </trkpt>
      <trkpt lat="46.46254" lon="-1.47976">
        <ele>36</ele>
        <time>2019-03-26T16:58:09Z</time>
      </trkpt>
      <trkpt lat="46.4625" lon="-1.47981">
        <ele>35</ele>
        <time>2019-03-26T16:58:12Z</time>
      </trkpt>
      <trkpt lat="46.46247" lon="-1.47983">
        <ele>35</ele>
        <time>2019-03-26T16:58:14Z</time>
      </trkpt>
      <trkpt lat="46.46243" lon="-1.47986">
        <ele>35</ele>
        <time>2019-03-26T16:58:17Z</time>
      </trkpt>
      <trkpt lat="46.46241" lon="-1.47988">
        <ele>35</ele>
        <time>2019-03-26T16:58:19Z</time>
      </trkpt>
      <trkpt lat="46.46239" lon="-1.47993">
        <ele>35</ele>
        <time>2019-03-26T16:58:22Z</time>
      </trkpt>
      <trkpt lat="46.46238" lon="-1.47996">
        <ele>35</ele>
        <time>2019-03-26T16:58:25Z</time>
      </trkpt>
      <trkpt lat="46.46235" lon="-1.48001">
        <ele>35</ele>
        <time>2019-03-26T16:58:27Z</time>
      </trkpt>
      <trkpt lat="46.46232" lon="-1.48006">
        <ele>34</ele>
        <time>2019-03-26T16:58:30Z</time>
      </trkpt>
      <trkpt lat="46.4623" lon="-1.48009">
        <ele>34</ele>
        <time>2019-03-26T16:58:32Z</time>
      </trkpt>
      <trkpt lat="46.46226" lon="-1.48013">
        <ele>34</ele>
        <time>2019-03-26T16:58:35Z</time>
      </trkpt>
      <trkpt lat="46.46225" lon="-1.48016">
        <ele>34</ele>
        <time>2019-03-26T16:58:37Z</time>
      </trkpt>
      <trkpt lat="46.46222" lon="-1.48021">
        <ele>34</ele>
        <time>2019-03-26T16:58:40Z</time>
      </trkpt>
      <trkpt lat="46.4622" lon="-1.48025">
        <ele>33</ele>
        <time>2019-03-26T16:58:42Z</time>
      </trkpt>
      <trkpt lat="46.46217" lon="-1.48029">
        <ele>33</ele>
        <time>2019-03-26T16:58:45Z</time>
      </trkpt>
      <trkpt lat="46.46215" lon="-1.48032">
        <ele>33</ele>
        <time>2019-03-26T16:58:47Z</time>
      </trkpt>
      <trkpt lat="46.46213" lon="-1.48039">
        <ele>33</ele>
        <time>2019-03-26T16:58:50Z</time>
      </trkpt>
      <trkpt lat="46.46211" lon="-1.48042">
        <ele>33</ele>
        <time>2019-03-26T16:58:52Z</time>
      </trkpt>
      <trkpt lat="46.4621" lon="-1.48049">
        <ele>33</ele>
        <time>2019-03-26T16:58:55Z</time>
      </trkpt>
      <trkpt lat="46.46209" lon="-1.48051">
        <ele>33</ele>
        <time>2019-03-26T16:58:57Z</time>
      </trkpt>
      <trkpt lat="46.46208" lon="-1.48056">
        <ele>33</ele>
        <time>2019-03-26T16:59:00Z</time>
      </trkpt>
      <trkpt lat="46.46206" lon="-1.4806">
        <ele>33</ele>
        <time>2019-03-26T16:59:02Z</time>
      </trkpt>
      <trkpt lat="46.46203" lon="-1.48065">
        <ele>32</ele>
        <time>2019-03-26T16:59:05Z</time>
      </trkpt>
      <trkpt lat="46.46202" lon="-1.48069">
        <ele>32</ele>
        <time>2019-03-26T16:59:07Z</time>
      </trkpt>
      <trkpt lat="46.46199" lon="-1.48074">
        <ele>32</ele>
        <time>2019-03-26T16:59:10Z</time>
      </trkpt>
      <trkpt lat="46.46196" lon="-1.48079">
        <ele>32</ele>
        <time>2019-03-26T16:59:13Z</time>
      </trkpt>
      <trkpt lat="46.46193" lon="-1.48084">
        <ele>32</ele>
        <time>2019-03-26T16:59:15Z</time>
      </trkpt>
      <trkpt lat="46.46191" lon="-1.48088">
        <ele>32</ele>
        <time>2019-03-26T16:59:18Z</time>
      </trkpt>
      <trkpt lat="46.46187" lon="-1.48093">
        <ele>32</ele>
        <time>2019-03-26T16:59:20Z</time>
      </trkpt>
      <trkpt lat="46.46185" lon="-1.48097">
        <ele>32</ele>
        <time>2019-03-26T16:59:23Z</time>
      </trkpt>
      <trkpt lat="46.46182" lon="-1.48103">
        <ele>32</ele>
        <time>2019-03-26T16:59:25Z</time>
      </trkpt>
      <trkpt lat="46.46179" lon="-1.48107">
        <ele>32</ele>
        <time>2019-03-26T16:59:28Z</time>
      </trkpt>
      <trkpt lat="46.46178" lon="-1.4811">
        <ele>32</ele>
        <time>2019-03-26T16:59:30Z</time>
      </trkpt>
      <trkpt lat="46.46176" lon="-1.48115">
        <ele>32</ele>
        <time>2019-03-26T16:59:33Z</time>
      </trkpt>
      <trkpt lat="46.46174" lon="-1.48118">
        <ele>32</ele>
        <time>2019-03-26T16:59:35Z</time>
      </trkpt>
      <trkpt lat="46.46171" lon="-1.48123">
        <ele>32</ele>
        <time>2019-03-26T16:59:38Z</time>
      </trkpt>
      <trkpt lat="46.46169" lon="-1.48126">
        <ele>32</ele>
        <time>2019-03-26T16:59:40Z</time>
      </trkpt>
      <trkpt lat="46.46166" lon="-1.48131">
        <ele>31</ele>
        <time>2019-03-26T16:59:43Z</time>
      </trkpt>
      <trkpt lat="46.46164" lon="-1.48135">
        <ele>31</ele>
        <time>2019-03-26T16:59:45Z</time>
      </trkpt>
      <trkpt lat="46.4616" lon="-1.4814">
        <ele>31</ele>
        <time>2019-03-26T16:59:48Z</time>
      </trkpt>
      <trkpt lat="46.46158" lon="-1.48143">
        <ele>31</ele>
        <time>2019-03-26T16:59:50Z</time>
      </trkpt>
      <trkpt lat="46.46155" lon="-1.48148">
        <ele>31</ele>
        <time>2019-03-26T16:59:53Z</time>
      </trkpt>
      <trkpt lat="46.46152" lon="-1.48153">
        <ele>31</ele>
        <time>2019-03-26T16:59:56Z</time>
      </trkpt>
      <trkpt lat="46.46149" lon="-1.48156">
        <ele>31</ele>
        <time>2019-03-26T16:59:58Z</time>
      </trkpt>
      <trkpt lat="46.46146" lon="-1.48162">
        <ele>31</ele>
        <time>2019-03-26T17:00:01Z</time>
      </trkpt>
      <trkpt lat="46.46144" lon="-1.48166">
        <ele>31</ele>
        <time>2019-03-26T17:00:03Z</time>
      </trkpt>
      <trkpt lat="46.4614" lon="-1.4817">
        <ele>31</ele>
        <time>2019-03-26T17:00:06Z</time>
      </trkpt>
      <trkpt lat="46.46137" lon="-1.48173">
        <ele>30</ele>
        <time>2019-03-26T17:00:08Z</time>
      </trkpt>
      <trkpt lat="46.46133" lon="-1.48178">
        <ele>30</ele>
        <time>2019-03-26T17:00:11Z</time>
      </trkpt>
      <trkpt lat="46.46129" lon="-1.48181">
        <ele>30</ele>
        <time>2019-03-26T17:00:13Z</time>
      </trkpt>
      <trkpt lat="46.46125" lon="-1.48185">
        <ele>30</ele>
        <time>2019-03-26T17:00:16Z</time>
      </trkpt>
      <trkpt lat="46.46122" lon="-1.48189">
        <ele>30</ele>
        <time>2019-03-26T17:00:18Z</time>
      </trkpt>
      <trkpt lat="46.46118" lon="-1.48194">
        <ele>30</ele>
        <time>2019-03-26T17:00:21Z</time>
      </trkpt>
      <trkpt lat="46.46116" lon="-1.48196">
        <ele>30</ele>
        <time>2019-03-26T17:00:23Z</time>
      </trkpt>
      <trkpt lat="46.46111" lon="-1.48201">
        <ele>30</ele>
        <time>2019-03-26T17:00:26Z</time>
      </trkpt>
      <trkpt lat="46.46107" lon="-1.48206">
        <ele>29</ele>
        <time>2019-03-26T17:00:29Z</time>
      </trkpt>
      <trkpt lat="46.46104" lon="-1.4821">
        <ele>29</ele>
        <time>2019-03-26T17:00:31Z</time>
      </trkpt>
      <trkpt lat="46.46101" lon="-1.48215">
        <ele>29</ele>
        <time>2019-03-26T17:00:34Z</time>
      </trkpt>
      <trkpt lat="46.46098" lon="-1.48217">
        <ele>29</ele>
        <time>2019-03-26T17:00:36Z</time>
      </trkpt>
      <trkpt lat="46.46094" lon="-1.48221">
        <ele>29</ele>
        <time>2019-03-26T17:00:39Z</time>
      </trkpt>
      <trkpt lat="46.46091" lon="-1.48224">
        <ele>29</ele>
        <time>2019-03-26T17:00:41Z</time>
      </trkpt>
      <trkpt lat="46.46088" lon="-1.48228">
        <ele>29</ele>
        <time>2019-03-26T17:00:44Z</time>
      </trkpt>
      <trkpt lat="46.46085" lon="-1.48229">
        <ele>29</ele>
        <time>2019-03-26T17:00:46Z</time>
      </trkpt>
      <trkpt lat="46.46082" lon="-1.48233">
        <ele>29</ele>
        <time>2019-03-26T17:00:49Z</time>
      </trkpt>
      <trkpt lat="46.4608" lon="-1.48235">
        <ele>29</ele>
        <time>2019-03-26T17:00:52Z</time>
      </trkpt>
      <trkpt lat="46.46076" lon="-1.48238">
        <ele>29</ele>
        <time>2019-03-26T17:00:54Z</time>
      </trkpt>
      <trkpt lat="46.46072" lon="-1.48242">
        <ele>28</ele>
        <time>2019-03-26T17:00:57Z</time>
      </trkpt>
      <trkpt lat="46.46069" lon="-1.48244">
        <ele>28</ele>
        <time>2019-03-26T17:00:59Z</time>
      </trkpt>
      <trkpt lat="46.46064" lon="-1.48248">
        <ele>28</ele>
        <time>2019-03-26T17:01:02Z</time>
      </trkpt>
      <trkpt lat="46.46062" lon="-1.4825">
        <ele>28</ele>
        <time>2019-03-26T17:01:04Z</time>
      </trkpt>
      <trkpt lat="46.46058" lon="-1.48254">
        <ele>28</ele>
        <time>2019-03-26T17:01:07Z</time>
      </trkpt>
      <trkpt lat="46.46055" lon="-1.48257">
        <ele>28</ele>
        <time>2019-03-26T17:01:09Z</time>
      </trkpt>
      <trkpt lat="46.46052" lon="-1.4826">
        <ele>28</ele>
        <time>2019-03-26T17:01:12Z</time>
      </trkpt>
      <trkpt lat="46.4605" lon="-1.48263">
        <ele>27</ele>
        <time>2019-03-26T17:01:15Z</time>
      </trkpt>
      <trkpt lat="46.46046" lon="-1.48268">
        <ele>27</ele>
        <time>2019-03-26T17:01:17Z</time>
      </trkpt>
      <trkpt lat="46.46043" lon="-1.48271">
        <ele>27</ele>
        <time>2019-03-26T17:01:20Z</time>
      </trkpt>
      <trkpt lat="46.4604" lon="-1.48273">
        <ele>27</ele>
        <time>2019-03-26T17:01:22Z</time>
      </trkpt>
      <trkpt lat="46.46037" lon="-1.48277">
        <ele>27</ele>
        <time>2019-03-26T17:01:25Z</time>
      </trkpt>
      <trkpt lat="46.46035" lon="-1.4828">
        <ele>27</ele>
        <time>2019-03-26T17:01:27Z</time>
      </trkpt>
      <trkpt lat="46.46035" lon="-1.48285">
        <ele>26</ele>
        <time>2019-03-26T17:01:30Z</time>
      </trkpt>
      <trkpt lat="46.46038" lon="-1.4829">
        <ele>26</ele>
        <time>2019-03-26T17:01:33Z</time>
      </trkpt>
      <trkpt lat="46.46037" lon="-1.48291">
        <ele>26</ele>
        <time>2019-03-26T17:01:35Z</time>
      </trkpt>
      <trkpt lat="46.46037" lon="-1.48292">
        <ele>26</ele>
        <time>2019-03-26T17:01:38Z</time>
      </trkpt>
      <trkpt lat="46.46037" lon="-1.48293">
        <ele>26</ele>
        <time>2019-03-26T17:01:40Z</time>
      </trkpt>
      <trkpt lat="46.46037" lon="-1.48294">
        <ele>26</ele>
        <time>2019-03-26T17:01:43Z</time>
      </trkpt>
      <trkpt lat="46.46037" lon="-1.48295">
        <ele>26</ele>
        <time>2019-03-26T17:01:45Z</time>
      </trkpt>
      <trkpt lat="46.46037" lon="-1.48296">
        <ele>26</ele>
        <time>2019-03-26T17:01:48Z</time>
      </trkpt>
      <trkpt lat="46.46036" lon="-1.48297">
        <ele>26</ele>
        <time>2019-03-26T17:01:51Z</time>
      </trkpt>
      <trkpt lat="46.46036" lon="-1.48298">
        <ele>26</ele>
        <time>2019-03-26T17:01:53Z</time>
      </trkpt>
      <trkpt lat="46.46036" lon="-1.48298">
        <ele>26</ele>
        <time>2019-03-26T17:01:56Z</time>
      </trkpt>
      <trkpt lat="46.46036" lon="-1.48298">
        <ele>26</ele>
        <time>2019-03-26T17:01:58Z</time>
      </trkpt>
      <trkpt lat="46.46038" lon="-1.48301">
        <ele>26</ele>
        <time>2019-03-26T17:02:01Z</time>
      </trkpt>
      <trkpt lat="46.46039" lon="-1.48304">
        <ele>26</ele>
        <time>2019-03-26T17:02:03Z</time>
      </trkpt>
      <trkpt lat="46.4604" lon="-1.48308">
        <ele>26</ele>
        <time>2019-03-26T17:02:06Z</time>
      </trkpt>
      <trkpt lat="46.46041" lon="-1.48311">
        <ele>26</ele>
        <time>2019-03-26T17:02:09Z</time>
      </trkpt>
      <trkpt lat="46.46042" lon="-1.48316">
        <ele>26</ele>
        <time>2019-03-26T17:02:11Z</time>
      </trkpt>
      <trkpt lat="46.46043" lon="-1.48319">
        <ele>26</ele>
        <time>2019-03-26T17:02:14Z</time>
      </trkpt>
      <trkpt lat="46.46044" lon="-1.48325">
        <ele>26</ele>
        <time>2019-03-26T17:02:16Z</time>
      </trkpt>
      <trkpt lat="46.46045" lon="-1.48328">
        <ele>26</ele>
        <time>2019-03-26T17:02:19Z</time>
      </trkpt>
      <trkpt lat="46.46046" lon="-1.48332">
        <ele>26</ele>
        <time>2019-03-26T17:02:21Z</time>
      </trkpt>
      <trkpt lat="46.46048" lon="-1.48337">
        <ele>26</ele>
        <time>2019-03-26T17:02:24Z</time>
      </trkpt>
      <trkpt lat="46.4605" lon="-1.4834">
        <ele>26</ele>
        <time>2019-03-26T17:02:26Z</time>
      </trkpt>
      <trkpt lat="46.46053" lon="-1.48344">
        <ele>26</ele>
        <time>2019-03-26T17:02:29Z</time>
      </trkpt>
      <trkpt lat="46.46054" lon="-1.48348">
        <ele>26</ele>
        <time>2019-03-26T17:02:31Z</time>
      </trkpt>
      <trkpt lat="46.46056" lon="-1.48352">
        <ele>26</ele>
        <time>2019-03-26T17:02:34Z</time>
      </trkpt>
      <trkpt lat="46.46058" lon="-1.48354">
        <ele>26</ele>
        <time>2019-03-26T17:02:36Z</time>
      </trkpt>
      <trkpt lat="46.46061" lon="-1.48358">
        <ele>26</ele>
        <time>2019-03-26T17:02:39Z</time>
      </trkpt>
      <trkpt lat="46.46063" lon="-1.48362">
        <ele>27</ele>
        <time>2019-03-26T17:02:41Z</time>
      </trkpt>
      <trkpt lat="46.46064" lon="-1.48367">
        <ele>27</ele>
        <time>2019-03-26T17:02:44Z</time>
      </trkpt>
      <trkpt lat="46.46066" lon="-1.48371">
        <ele>27</ele>
        <time>2019-03-26T17:02:46Z</time>
      </trkpt>
      <trkpt lat="46.4607" lon="-1.48377">
        <ele>27</ele>
        <time>2019-03-26T17:02:49Z</time>
      </trkpt>
      <trkpt lat="46.46072" lon="-1.48381">
        <ele>27</ele>
        <time>2019-03-26T17:02:51Z</time>
      </trkpt>
      <trkpt lat="46.46075" lon="-1.48385">
        <ele>27</ele>
        <time>2019-03-26T17:02:54Z</time>
      </trkpt>
      <trkpt lat="46.46077" lon="-1.48389">
        <ele>27</ele>
        <time>2019-03-26T17:02:56Z</time>
      </trkpt>
      <trkpt lat="46.46079" lon="-1.48393">
        <ele>27</ele>
        <time>2019-03-26T17:02:59Z</time>
      </trkpt>
      <trkpt lat="46.46081" lon="-1.48396">
        <ele>27</ele>
        <time>2019-03-26T17:03:01Z</time>
      </trkpt>
      <trkpt lat="46.46084" lon="-1.48402">
        <ele>27</ele>
        <time>2019-03-26T17:03:04Z</time>
      </trkpt>
      <trkpt lat="46.46086" lon="-1.48405">
        <ele>27</ele>
        <time>2019-03-26T17:03:06Z</time>
      </trkpt>
      <trkpt lat="46.46088" lon="-1.48409">
        <ele>28</ele>
        <time>2019-03-26T17:03:09Z</time>
      </trkpt>
      <trkpt lat="46.46089" lon="-1.48413">
        <ele>28</ele>
        <time>2019-03-26T17:03:11Z</time>
      </trkpt>
      <trkpt lat="46.46091" lon="-1.48416">
        <ele>28</ele>
        <time>2019-03-26T17:03:14Z</time>
      </trkpt>
      <trkpt lat="46.46092" lon="-1.48416">
        <ele>28</ele>
        <time>2019-03-26T17:03:17Z</time>
      </trkpt>
      <trkpt lat="46.46093" lon="-1.48418">
        <ele>28</ele>
        <time>2019-03-26T17:03:19Z</time>
      </trkpt>
      <trkpt lat="46.46095" lon="-1.48422">
        <ele>28</ele>
        <time>2019-03-26T17:03:22Z</time>
      </trkpt>
      <trkpt lat="46.46099" lon="-1.48425">
        <ele>28</ele>
        <time>2019-03-26T17:03:24Z</time>
      </trkpt>
      <trkpt lat="46.46102" lon="-1.48429">
        <ele>28</ele>
        <time>2019-03-26T17:03:27Z</time>
      </trkpt>
      <trkpt lat="46.46105" lon="-1.48431">
        <ele>28</ele>
        <time>2019-03-26T17:03:29Z</time>
      </trkpt>
      <trkpt lat="46.46108" lon="-1.48435">
        <ele>28</ele>
        <time>2019-03-26T17:03:32Z</time>
      </trkpt>
      <trkpt lat="46.46111" lon="-1.48437">
        <ele>28</ele>
        <time>2019-03-26T17:03:34Z</time>
      </trkpt>
      <trkpt lat="46.46115" lon="-1.48441">
        <ele>28</ele>
        <time>2019-03-26T17:03:37Z</time>
      </trkpt>
      <trkpt lat="46.46117" lon="-1.48443">
        <ele>29</ele>
        <time>2019-03-26T17:03:39Z</time>
      </trkpt>
      <trkpt lat="46.46122" lon="-1.48448">
        <ele>29</ele>
        <time>2019-03-26T17:03:42Z</time>
      </trkpt>
      <trkpt lat="46.46124" lon="-1.4845">
        <ele>29</ele>
        <time>2019-03-26T17:03:44Z</time>
      </trkpt>
      <trkpt lat="46.46128" lon="-1.48453">
        <ele>29</ele>
        <time>2019-03-26T17:03:47Z</time>
      </trkpt>
      <trkpt lat="46.46131" lon="-1.48454">
        <ele>29</ele>
        <time>2019-03-26T17:03:49Z</time>
      </trkpt>
      <trkpt lat="46.46135" lon="-1.48457">
        <ele>29</ele>
        <time>2019-03-26T17:03:52Z</time>
      </trkpt>
      <trkpt lat="46.46138" lon="-1.48459">
        <ele>29</ele>
        <time>2019-03-26T17:03:55Z</time>
      </trkpt>
      <trkpt lat="46.46143" lon="-1.48463">
        <ele>29</ele>
        <time>2019-03-26T17:03:57Z</time>
      </trkpt>
      <trkpt lat="46.46146" lon="-1.48466">
        <ele>29</ele>
        <time>2019-03-26T17:04:00Z</time>
      </trkpt>
      <trkpt lat="46.46149" lon="-1.48469">
        <ele>29</ele>
        <time>2019-03-26T17:04:02Z</time>
      </trkpt>
      <trkpt lat="46.46152" lon="-1.48472">
        <ele>30</ele>
        <time>2019-03-26T17:04:05Z</time>
      </trkpt>
      <trkpt lat="46.46155" lon="-1.48473">
        <ele>30</ele>
        <time>2019-03-26T17:04:07Z</time>
      </trkpt>
      <trkpt lat="46.4616" lon="-1.48477">
        <ele>30</ele>
        <time>2019-03-26T17:04:10Z</time>
      </trkpt>
      <trkpt lat="46.46162" lon="-1.48479">
        <ele>30</ele>
        <time>2019-03-26T17:04:12Z</time>
      </trkpt>
      <trkpt lat="46.46165" lon="-1.48481">
        <ele>30</ele>
        <time>2019-03-26T17:04:15Z</time>
      </trkpt>
      <trkpt lat="46.46168" lon="-1.48483">
        <ele>30</ele>
        <time>2019-03-26T17:04:17Z</time>
      </trkpt>
      <trkpt lat="46.46172" lon="-1.48486">
        <ele>30</ele>
        <time>2019-03-26T17:04:20Z</time>
      </trkpt>
      <trkpt lat="46.46175" lon="-1.48489">
        <ele>30</ele>
        <time>2019-03-26T17:04:23Z</time>
      </trkpt>
      <trkpt lat="46.46178" lon="-1.48491">
        <ele>30</ele>
        <time>2019-03-26T17:04:25Z</time>
      </trkpt>
      <trkpt lat="46.46182" lon="-1.48494">
        <ele>30</ele>
        <time>2019-03-26T17:04:28Z</time>
      </trkpt>
      <trkpt lat="46.46184" lon="-1.48497">
        <ele>30</ele>
        <time>2019-03-26T17:04:30Z</time>
      </trkpt>
      <trkpt lat="46.46188" lon="-1.48501">
        <ele>31</ele>
        <time>2019-03-26T17:04:33Z</time>
      </trkpt>
      <trkpt lat="46.46191" lon="-1.48504">
        <ele>31</ele>
        <time>2019-03-26T17:04:35Z</time>
      </trkpt>
      <trkpt lat="46.46195" lon="-1.48508">
        <ele>31</ele>
        <time>2019-03-26T17:04:38Z</time>
      </trkpt>
      <trkpt lat="46.46197" lon="-1.48511">
        <ele>31</ele>
        <time>2019-03-26T17:04:41Z</time>
      </trkpt>
      <trkpt lat="46.46199" lon="-1.48516">
        <ele>31</ele>
        <time>2019-03-26T17:04:43Z</time>
      </trkpt>
      <trkpt lat="46.46203" lon="-1.48519">
        <ele>31</ele>
        <time>2019-03-26T17:04:46Z</time>
      </trkpt>
      <trkpt lat="46.46206" lon="-1.48521">
        <ele>31</ele>
        <time>2019-03-26T17:04:48Z</time>
      </trkpt>
      <trkpt lat="46.46209" lon="-1.48525">
        <ele>31</ele>
        <time>2019-03-26T17:04:51Z</time>
      </trkpt>
      <trkpt lat="46.46212" lon="-1.48528">
        <ele>31</ele>
        <time>2019-03-26T17:04:53Z</time>
      </trkpt>
      <trkpt lat="46.46214" lon="-1.48534">
        <ele>31</ele>
        <time>2019-03-26T17:04:56Z</time>
      </trkpt>
      <trkpt lat="46.46218" lon="-1.48538">
        <ele>31</ele>
        <time>2019-03-26T17:04:59Z</time>
      </trkpt>
      <trkpt lat="46.4622" lon="-1.48541">
        <ele>31</ele>
        <time>2019-03-26T17:05:01Z</time>
      </trkpt>
      <trkpt lat="46.46223" lon="-1.48546">
        <ele>31</ele>
        <time>2019-03-26T17:05:04Z</time>
      </trkpt>
      <trkpt lat="46.46224" lon="-1.48548">
        <ele>31</ele>
        <time>2019-03-26T17:05:06Z</time>
      </trkpt>
      <trkpt lat="46.46227" lon="-1.48552">
        <ele>31</ele>
        <time>2019-03-26T17:05:09Z</time>
      </trkpt>
      <trkpt lat="46.4623" lon="-1.48555">
        <ele>32</ele>
        <time>2019-03-26T17:05:11Z</time>
      </trkpt>
      <trkpt lat="46.46233" lon="-1.48559">
        <ele>32</ele>
        <time>2019-03-26T17:05:14Z</time>
      </trkpt>
      <trkpt lat="46.46236" lon="-1.48563">
        <ele>32</ele>
        <time>2019-03-26T17:05:17Z</time>
      </trkpt>
      <trkpt lat="46.4624" lon="-1.48568">
        <ele>32</ele>
        <time>2019-03-26T17:05:19Z</time>
      </trkpt>
      <trkpt lat="46.46242" lon="-1.48571">
        <ele>32</ele>
        <time>2019-03-26T17:05:22Z</time>
      </trkpt>
      <trkpt lat="46.46245" lon="-1.48576">
        <ele>32</ele>
        <time>2019-03-26T17:05:24Z</time>
      </trkpt>
      <trkpt lat="46.46249" lon="-1.48581">
        <ele>32</ele>
        <time>2019-03-26T17:05:27Z</time>
      </trkpt>
      <trkpt lat="46.46252" lon="-1.48584">
        <ele>33</ele>
        <time>2019-03-26T17:05:29Z</time>
      </trkpt>
      <trkpt lat="46.46255" lon="-1.48589">
        <ele>33</ele>
        <time>2019-03-26T17:05:32Z</time>
      </trkpt>
      <trkpt lat="46.46257" lon="-1.48592">
        <ele>33</ele>
        <time>2019-03-26T17:05:34Z</time>
      </trkpt>
      <trkpt lat="46.46262" lon="-1.48598">
        <ele>33</ele>
        <time>2019-03-26T17:05:37Z</time>
      </trkpt>
      <trkpt lat="46.46263" lon="-1.48601">
        <ele>33</ele>
        <time>2019-03-26T17:05:39Z</time>
      </trkpt>
      <trkpt lat="46.46266" lon="-1.48605">
        <ele>33</ele>
        <time>2019-03-26T17:05:42Z</time>
      </trkpt>
      <trkpt lat="46.46268" lon="-1.48608">
        <ele>33</ele>
        <time>2019-03-26T17:05:44Z</time>
      </trkpt>
      <trkpt lat="46.46274" lon="-1.48614">
        <ele>34</ele>
        <time>2019-03-26T17:05:47Z</time>
      </trkpt>
      <trkpt lat="46.46276" lon="-1.48619">
        <ele>34</ele>
        <time>2019-03-26T17:05:49Z</time>
      </trkpt>
      <trkpt lat="46.4628" lon="-1.48625">
        <ele>34</ele>
        <time>2019-03-26T17:05:52Z</time>
      </trkpt>
      <trkpt lat="46.46282" lon="-1.48627">
        <ele>34</ele>
        <time>2019-03-26T17:05:54Z</time>
      </trkpt>
      <trkpt lat="46.46284" lon="-1.48632">
        <ele>34</ele>
        <time>2019-03-26T17:05:57Z</time>
      </trkpt>
      <trkpt lat="46.46286" lon="-1.48635">
        <ele>34</ele>
        <time>2019-03-26T17:05:59Z</time>
      </trkpt>
      <trkpt lat="46.46289" lon="-1.48642">
        <ele>35</ele>
        <time>2019-03-26T17:06:02Z</time>
      </trkpt>
      <trkpt lat="46.4629" lon="-1.48646">
        <ele>35</ele>
        <time>2019-03-26T17:06:05Z</time>
      </trkpt>
      <trkpt lat="46.46293" lon="-1.48651">
        <ele>35</ele>
        <time>2019-03-26T17:06:07Z</time>
      </trkpt>
      <trkpt lat="46.46295" lon="-1.48656">
        <ele>35</ele>
        <time>2019-03-26T17:06:10Z</time>
      </trkpt>
      <trkpt lat="46.46296" lon="-1.4866">
        <ele>35</ele>
        <time>2019-03-26T17:06:12Z</time>
      </trkpt>
      <trkpt lat="46.46298" lon="-1.48667">
        <ele>35</ele>
        <time>2019-03-26T17:06:15Z</time>
      </trkpt>
      <trkpt lat="46.46298" lon="-1.48672">
        <ele>35</ele>
        <time>2019-03-26T17:06:17Z</time>
      </trkpt>
      <trkpt lat="46.46298" lon="-1.48681">
        <ele>35</ele>
        <time>2019-03-26T17:06:20Z</time>
      </trkpt>
      <trkpt lat="46.46297" lon="-1.48685">
        <ele>35</ele>
        <time>2019-03-26T17:06:22Z</time>
      </trkpt>
      <trkpt lat="46.46296" lon="-1.48691">
        <ele>35</ele>
        <time>2019-03-26T17:06:25Z</time>
      </trkpt>
      <trkpt lat="46.46296" lon="-1.48695">
        <ele>35</ele>
        <time>2019-03-26T17:06:27Z</time>
      </trkpt>
      <trkpt lat="46.46295" lon="-1.487">
        <ele>35</ele>
        <time>2019-03-26T17:06:30Z</time>
      </trkpt>
      <trkpt lat="46.46294" lon="-1.48704">
        <ele>35</ele>
        <time>2019-03-26T17:06:32Z</time>
      </trkpt>
      <trkpt lat="46.46292" lon="-1.4871">
        <ele>35</ele>
        <time>2019-03-26T17:06:35Z</time>
      </trkpt>
      <trkpt lat="46.46292" lon="-1.48715">
        <ele>35</ele>
        <time>2019-03-26T17:06:38Z</time>
      </trkpt>
      <trkpt lat="46.4629" lon="-1.48722">
        <ele>35</ele>
        <time>2019-03-26T17:06:40Z</time>
      </trkpt>
      <trkpt lat="46.46288" lon="-1.48727">
        <ele>35</ele>
        <time>2019-03-26T17:06:43Z</time>
      </trkpt>
      <trkpt lat="46.46287" lon="-1.4873">
        <ele>35</ele>
        <time>2019-03-26T17:06:45Z</time>
      </trkpt>
      <trkpt lat="46.46286" lon="-1.48735">
        <ele>35</ele>
        <time>2019-03-26T17:06:48Z</time>
      </trkpt>
      <trkpt lat="46.46288" lon="-1.4874">
        <ele>35</ele>
        <time>2019-03-26T17:06:50Z</time>
      </trkpt>
      <trkpt lat="46.4629" lon="-1.48745">
        <ele>35</ele>
        <time>2019-03-26T17:06:53Z</time>
      </trkpt>
      <trkpt lat="46.4629" lon="-1.4875">
        <ele>35</ele>
        <time>2019-03-26T17:06:55Z</time>
      </trkpt>
      <trkpt lat="46.46292" lon="-1.48754">
        <ele>35</ele>
        <time>2019-03-26T17:06:58Z</time>
      </trkpt>
      <trkpt lat="46.46294" lon="-1.48759">
        <ele>35</ele>
        <time>2019-03-26T17:07:01Z</time>
      </trkpt>
      <trkpt lat="46.46296" lon="-1.48761">
        <ele>35</ele>
        <time>2019-03-26T17:07:03Z</time>
      </trkpt>
      <trkpt lat="46.46298" lon="-1.48765">
        <ele>35</ele>
        <time>2019-03-26T17:07:06Z</time>
      </trkpt>
      <trkpt lat="46.46299" lon="-1.48768">
        <ele>35</ele>
        <time>2019-03-26T17:07:08Z</time>
      </trkpt>
      <trkpt lat="46.463" lon="-1.4877">
        <ele>35</ele>
        <time>2019-03-26T17:07:11Z</time>
      </trkpt>
      <trkpt lat="46.46303" lon="-1.48774">
        <ele>35</ele>
        <time>2019-03-26T17:07:14Z</time>
      </trkpt>
      <trkpt lat="46.46304" lon="-1.48778">
        <ele>35</ele>
        <time>2019-03-26T17:07:16Z</time>
      </trkpt>
      <trkpt lat="46.46305" lon="-1.48781">
        <ele>36</ele>
        <time>2019-03-26T17:07:19Z</time>
      </trkpt>
      <trkpt lat="46.46307" lon="-1.48784">
        <ele>36</ele>
        <time>2019-03-26T17:07:21Z</time>
      </trkpt>
      <trkpt lat="46.4631" lon="-1.48788">
        <ele>36</ele>
        <time>2019-03-26T17:07:24Z</time>
      </trkpt>
      <trkpt lat="46.46312" lon="-1.48792">
        <ele>36</ele>
        <time>2019-03-26T17:07:27Z</time>
      </trkpt>
      <trkpt lat="46.46313" lon="-1.48795">
        <ele>36</ele>
        <time>2019-03-26T17:07:29Z</time>
      </trkpt>
      <trkpt lat="46.46316" lon="-1.48799">
        <ele>36</ele>
        <time>2019-03-26T17:07:32Z</time>
      </trkpt>
      <trkpt lat="46.46317" lon="-1.48802">
        <ele>36</ele>
        <time>2019-03-26T17:07:34Z</time>
      </trkpt>
      <trkpt lat="46.4632" lon="-1.48806">
        <ele>36</ele>
        <time>2019-03-26T17:07:37Z</time>
      </trkpt>
      <trkpt lat="46.46322" lon="-1.48809">
        <ele>36</ele>
        <time>2019-03-26T17:07:39Z</time>
      </trkpt>
      <trkpt lat="46.46324" lon="-1.48812">
        <ele>36</ele>
        <time>2019-03-26T17:07:42Z</time>
      </trkpt>
      <trkpt lat="46.46326" lon="-1.48815">
        <ele>36</ele>
        <time>2019-03-26T17:07:44Z</time>
      </trkpt>
      <trkpt lat="46.4633" lon="-1.48821">
        <ele>37</ele>
        <time>2019-03-26T17:07:47Z</time>
      </trkpt>
      <trkpt lat="46.46332" lon="-1.48823">
        <ele>36</ele>
        <time>2019-03-26T17:07:49Z</time>
      </trkpt>
      <trkpt lat="46.46337" lon="-1.48827">
        <ele>37</ele>
        <time>2019-03-26T17:07:52Z</time>
      </trkpt>
      <trkpt lat="46.46339" lon="-1.48831">
        <ele>37</ele>
        <time>2019-03-26T17:07:54Z</time>
      </trkpt>
      <trkpt lat="46.46341" lon="-1.48836">
        <ele>37</ele>
        <time>2019-03-26T17:07:57Z</time>
      </trkpt>
      <trkpt lat="46.46343" lon="-1.48839">
        <ele>37</ele>
        <time>2019-03-26T17:07:59Z</time>
      </trkpt>
      <trkpt lat="46.46347" lon="-1.48842">
        <ele>36</ele>
        <time>2019-03-26T17:08:02Z</time>
      </trkpt>
      <trkpt lat="46.46349" lon="-1.48845">
        <ele>36</ele>
        <time>2019-03-26T17:08:04Z</time>
      </trkpt>
      <trkpt lat="46.46354" lon="-1.48848">
        <ele>36</ele>
        <time>2019-03-26T17:08:07Z</time>
      </trkpt>
      <trkpt lat="46.46357" lon="-1.48851">
        <ele>36</ele>
        <time>2019-03-26T17:08:09Z</time>
      </trkpt>
      <trkpt lat="46.4636" lon="-1.48856">
        <ele>36</ele>
        <time>2019-03-26T17:08:12Z</time>
      </trkpt>
      <trkpt lat="46.46362" lon="-1.48859">
        <ele>36</ele>
        <time>2019-03-26T17:08:14Z</time>
      </trkpt>
      <trkpt lat="46.46364" lon="-1.48864">
        <ele>36</ele>
        <time>2019-03-26T17:08:17Z</time>
      </trkpt>
      <trkpt lat="46.46365" lon="-1.48867">
        <ele>36</ele>
        <time>2019-03-26T17:08:19Z</time>
      </trkpt>
      <trkpt lat="46.46368" lon="-1.48873">
        <ele>36</ele>
        <time>2019-03-26T17:08:22Z</time>
      </trkpt>
      <trkpt lat="46.4637" lon="-1.48876">
        <ele>35</ele>
        <time>2019-03-26T17:08:24Z</time>
      </trkpt>
      <trkpt lat="46.46374" lon="-1.4888">
        <ele>35</ele>
        <time>2019-03-26T17:08:27Z</time>
      </trkpt>
      <trkpt lat="46.46378" lon="-1.48883">
        <ele>35</ele>
        <time>2019-03-26T17:08:30Z</time>
      </trkpt>
      <trkpt lat="46.46381" lon="-1.48886">
        <ele>35</ele>
        <time>2019-03-26T17:08:32Z</time>
      </trkpt>
      <trkpt lat="46.46384" lon="-1.48889">
        <ele>35</ele>
        <time>2019-03-26T17:08:35Z</time>
      </trkpt>
      <trkpt lat="46.46387" lon="-1.48892">
        <ele>35</ele>
        <time>2019-03-26T17:08:37Z</time>
      </trkpt>
      <trkpt lat="46.46392" lon="-1.48896">
        <ele>35</ele>
        <time>2019-03-26T17:08:40Z</time>
      </trkpt>
      <trkpt lat="46.46395" lon="-1.48898">
        <ele>35</ele>
        <time>2019-03-26T17:08:42Z</time>
      </trkpt>
      <trkpt lat="46.46399" lon="-1.48901">
        <ele>35</ele>
        <time>2019-03-26T17:08:45Z</time>
      </trkpt>
      <trkpt lat="46.46402" lon="-1.48902">
        <ele>35</ele>
        <time>2019-03-26T17:08:47Z</time>
      </trkpt>
      <trkpt lat="46.46406" lon="-1.48905">
        <ele>35</ele>
        <time>2019-03-26T17:08:50Z</time>
      </trkpt>
      <trkpt lat="46.46409" lon="-1.48907">
        <ele>35</ele>
        <time>2019-03-26T17:08:52Z</time>
      </trkpt>
      <trkpt lat="46.46413" lon="-1.4891">
        <ele>35</ele>
        <time>2019-03-26T17:08:55Z</time>
      </trkpt>
      <trkpt lat="46.46417" lon="-1.48913">
        <ele>35</ele>
        <time>2019-03-26T17:08:58Z</time>
      </trkpt>
      <trkpt lat="46.46419" lon="-1.48914">
        <ele>34</ele>
        <time>2019-03-26T17:09:00Z</time>
      </trkpt>
      <trkpt lat="46.46422" lon="-1.48916">
        <ele>34</ele>
        <time>2019-03-26T17:09:03Z</time>
      </trkpt>
      <trkpt lat="46.46425" lon="-1.48918">
        <ele>34</ele>
        <time>2019-03-26T17:09:05Z</time>
      </trkpt>
      <trkpt lat="46.46429" lon="-1.48921">
        <ele>34</ele>
        <time>2019-03-26T17:09:08Z</time>
      </trkpt>
      <trkpt lat="46.46433" lon="-1.48923">
        <ele>34</ele>
        <time>2019-03-26T17:09:10Z</time>
      </trkpt>
      <trkpt lat="46.46437" lon="-1.48926">
        <ele>34</ele>
        <time>2019-03-26T17:09:13Z</time>
      </trkpt>
      <trkpt lat="46.4644" lon="-1.48929">
        <ele>34</ele>
        <time>2019-03-26T17:09:16Z</time>
      </trkpt>
      <trkpt lat="46.46444" lon="-1.48931">
        <ele>34</ele>
        <time>2019-03-26T17:09:18Z</time>
      </trkpt>
      <trkpt lat="46.46449" lon="-1.48933">
        <ele>34</ele>
        <time>2019-03-26T17:09:21Z</time>
      </trkpt>
      <trkpt lat="46.46452" lon="-1.48934">
        <ele>33</ele>
        <time>2019-03-26T17:09:23Z</time>
      </trkpt>
      <trkpt lat="46.46457" lon="-1.48937">
        <ele>33</ele>
        <time>2019-03-26T17:09:26Z</time>
      </trkpt>
      <trkpt lat="46.46462" lon="-1.48939">
        <ele>33</ele>
        <time>2019-03-26T17:09:29Z</time>
      </trkpt>
      <trkpt lat="46.46464" lon="-1.4894">
        <ele>33</ele>
        <time>2019-03-26T17:09:31Z</time>
      </trkpt>
      <trkpt lat="46.46469" lon="-1.48941">
        <ele>33</ele>
        <time>2019-03-26T17:09:34Z</time>
      </trkpt>
      <trkpt lat="46.46472" lon="-1.48942">
        <ele>33</ele>
        <time>2019-03-26T17:09:36Z</time>
      </trkpt>
      <trkpt lat="46.46476" lon="-1.48945">
        <ele>33</ele>
        <time>2019-03-26T17:09:39Z</time>
      </trkpt>
      <trkpt lat="46.4648" lon="-1.48948">
        <ele>32</ele>
        <time>2019-03-26T17:09:41Z</time>
      </trkpt>
      <trkpt lat="46.46482" lon="-1.48949">
        <ele>32</ele>
        <time>2019-03-26T17:09:44Z</time>
      </trkpt>
      <trkpt lat="46.46486" lon="-1.48952">
        <ele>32</ele>
        <time>2019-03-26T17:09:47Z</time>
      </trkpt>
      <trkpt lat="46.46489" lon="-1.48954">
        <ele>32</ele>
        <time>2019-03-26T17:09:49Z</time>
      </trkpt>
      <trkpt lat="46.46493" lon="-1.48956">
        <ele>32</ele>
        <time>2019-03-26T17:09:52Z</time>
      </trkpt>
      <trkpt lat="46.46495" lon="-1.48958">
        <ele>32</ele>
        <time>2019-03-26T17:09:54Z</time>
      </trkpt>
      <trkpt lat="46.46498" lon="-1.48961">
        <ele>32</ele>
        <time>2019-03-26T17:09:57Z</time>
      </trkpt>
      <trkpt lat="46.46501" lon="-1.48963">
        <ele>32</ele>
        <time>2019-03-26T17:10:00Z</time>
      </trkpt>
      <trkpt lat="46.46506" lon="-1.48965">
        <ele>32</ele>
        <time>2019-03-26T17:10:02Z</time>
      </trkpt>
      <trkpt lat="46.4651" lon="-1.48969">
        <ele>32</ele>
        <time>2019-03-26T17:10:05Z</time>
      </trkpt>
      <trkpt lat="46.46513" lon="-1.4897">
        <ele>32</ele>
        <time>2019-03-26T17:10:07Z</time>
      </trkpt>
      <trkpt lat="46.46518" lon="-1.48972">
        <ele>32</ele>
        <time>2019-03-26T17:10:10Z</time>
      </trkpt>
      <trkpt lat="46.4652" lon="-1.48974">
        <ele>32</ele>
        <time>2019-03-26T17:10:12Z</time>
      </trkpt>
      <trkpt lat="46.46525" lon="-1.48977">
        <ele>32</ele>
        <time>2019-03-26T17:10:15Z</time>
      </trkpt>
      <trkpt lat="46.46529" lon="-1.48978">
        <ele>32</ele>
        <time>2019-03-26T17:10:17Z</time>
      </trkpt>
      <trkpt lat="46.46533" lon="-1.48981">
        <ele>32</ele>
        <time>2019-03-26T17:10:20Z</time>
      </trkpt>
      <trkpt lat="46.46536" lon="-1.48982">
        <ele>32</ele>
        <time>2019-03-26T17:10:22Z</time>
      </trkpt>
      <trkpt lat="46.46542" lon="-1.48985">
        <ele>32</ele>
        <time>2019-03-26T17:10:25Z</time>
      </trkpt>
      <trkpt lat="46.46545" lon="-1.48987">
        <ele>32</ele>
        <time>2019-03-26T17:10:28Z</time>
      </trkpt>
      <trkpt lat="46.46549" lon="-1.4899">
        <ele>32</ele>
        <time>2019-03-26T17:10:30Z</time>
      </trkpt>
      <trkpt lat="46.46552" lon="-1.48992">
        <ele>32</ele>
        <time>2019-03-26T17:10:33Z</time>
      </trkpt>
      <trkpt lat="46.46557" lon="-1.48995">
        <ele>32</ele>
        <time>2019-03-26T17:10:35Z</time>
      </trkpt>
      <trkpt lat="46.46561" lon="-1.48998">
        <ele>32</ele>
        <time>2019-03-26T17:10:38Z</time>
      </trkpt>
      <trkpt lat="46.46564" lon="-1.48999">
        <ele>32</ele>
        <time>2019-03-26T17:10:40Z</time>
      </trkpt>
      <trkpt lat="46.4657" lon="-1.49002">
        <ele>32</ele>
        <time>2019-03-26T17:10:43Z</time>
      </trkpt>
      <trkpt lat="46.46572" lon="-1.49002">
        <ele>32</ele>
        <time>2019-03-26T17:10:45Z</time>
      </trkpt>
      <trkpt lat="46.46577" lon="-1.49004">
        <ele>32</ele>
        <time>2019-03-26T17:10:48Z</time>
      </trkpt>
      <trkpt lat="46.46581" lon="-1.49006">
        <ele>32</ele>
        <time>2019-03-26T17:10:51Z</time>
      </trkpt>
      <trkpt lat="46.46584" lon="-1.49007">
        <ele>33</ele>
        <time>2019-03-26T17:10:53Z</time>
      </trkpt>
      <trkpt lat="46.46588" lon="-1.49009">
        <ele>33</ele>
        <time>2019-03-26T17:10:56Z</time>
      </trkpt>
      <trkpt lat="46.46592" lon="-1.49011">
        <ele>33</ele>
        <time>2019-03-26T17:10:58Z</time>
      </trkpt>
      <trkpt lat="46.46597" lon="-1.49013">
        <ele>33</ele>
        <time>2019-03-26T17:11:01Z</time>
      </trkpt>
      <trkpt lat="46.466" lon="-1.49015">
        <ele>33</ele>
        <time>2019-03-26T17:11:03Z</time>
      </trkpt>
      <trkpt lat="46.46604" lon="-1.49018">
        <ele>33</ele>
        <time>2019-03-26T17:11:06Z</time>
      </trkpt>
      <trkpt lat="46.46608" lon="-1.4902">
        <ele>33</ele>
        <time>2019-03-26T17:11:09Z</time>
      </trkpt>
      <trkpt lat="46.46611" lon="-1.49021">
        <ele>33</ele>
        <time>2019-03-26T17:11:11Z</time>
      </trkpt>
      <trkpt lat="46.46616" lon="-1.49023">
        <ele>33</ele>
        <time>2019-03-26T17:11:14Z</time>
      </trkpt>
      <trkpt lat="46.46619" lon="-1.49025">
        <ele>34</ele>
        <time>2019-03-26T17:11:16Z</time>
      </trkpt>
      <trkpt lat="46.46623" lon="-1.49027">
        <ele>34</ele>
        <time>2019-03-26T17:11:19Z</time>
      </trkpt>
      <trkpt lat="46.46626" lon="-1.49029">
        <ele>34</ele>
        <time>2019-03-26T17:11:21Z</time>
      </trkpt>
      <trkpt lat="46.4663" lon="-1.49031">
        <ele>34</ele>
        <time>2019-03-26T17:11:24Z</time>
      </trkpt>
      <trkpt lat="46.46633" lon="-1.49033">
        <ele>34</ele>
        <time>2019-03-26T17:11:27Z</time>
      </trkpt>
      <trkpt lat="46.46636" lon="-1.49035">
        <ele>34</ele>
        <time>2019-03-26T17:11:29Z</time>
      </trkpt>
      <trkpt lat="46.46641" lon="-1.49038">
        <ele>34</ele>
        <time>2019-03-26T17:11:32Z</time>
      </trkpt>
      <trkpt lat="46.46644" lon="-1.4904">
        <ele>34</ele>
        <time>2019-03-26T17:11:34Z</time>
      </trkpt>
      <trkpt lat="46.46648" lon="-1.49043">
        <ele>34</ele>
        <time>2019-03-26T17:11:37Z</time>
      </trkpt>
      <trkpt lat="46.46651" lon="-1.49044">
        <ele>34</ele>
        <time>2019-03-26T17:11:39Z</time>
      </trkpt>
      <trkpt lat="46.46655" lon="-1.49046">
        <ele>35</ele>
        <time>2019-03-26T17:11:42Z</time>
      </trkpt>
      <trkpt lat="46.46657" lon="-1.49048">
        <ele>35</ele>
        <time>2019-03-26T17:11:45Z</time>
      </trkpt>
      <trkpt lat="46.46661" lon="-1.49053">
        <ele>35</ele>
        <time>2019-03-26T17:11:47Z</time>
      </trkpt>
      <trkpt lat="46.46666" lon="-1.49056">
        <ele>35</ele>
        <time>2019-03-26T17:11:50Z</time>
      </trkpt>
      <trkpt lat="46.46668" lon="-1.49059">
        <ele>35</ele>
        <time>2019-03-26T17:11:52Z</time>
      </trkpt>
      <trkpt lat="46.46672" lon="-1.49063">
        <ele>35</ele>
        <time>2019-03-26T17:11:55Z</time>
      </trkpt>
      <trkpt lat="46.46673" lon="-1.49065">
        <ele>35</ele>
        <time>2019-03-26T17:11:57Z</time>
      </trkpt>
      <trkpt lat="46.46677" lon="-1.49068">
        <ele>35</ele>
        <time>2019-03-26T17:12:00Z</time>
      </trkpt>
      <trkpt lat="46.46679" lon="-1.49071">
        <ele>36</ele>
        <time>2019-03-26T17:12:02Z</time>
      </trkpt>
      <trkpt lat="46.46684" lon="-1.49074">
        <ele>36</ele>
        <time>2019-03-26T17:12:05Z</time>
      </trkpt>
      <trkpt lat="46.46686" lon="-1.49077">
        <ele>36</ele>
        <time>2019-03-26T17:12:08Z</time>
      </trkpt>
      <trkpt lat="46.46689" lon="-1.4908">
        <ele>36</ele>
        <time>2019-03-26T17:12:10Z</time>
      </trkpt>
      <trkpt lat="46.46693" lon="-1.49084">
        <ele>36</ele>
        <time>2019-03-26T17:12:13Z</time>
      </trkpt>
      <trkpt lat="46.46695" lon="-1.49087">
        <ele>36</ele>
        <time>2019-03-26T17:12:15Z</time>
      </trkpt>
      <trkpt lat="46.46699" lon="-1.49091">
        <ele>37</ele>
        <time>2019-03-26T17:12:18Z</time>
      </trkpt>
      <trkpt lat="46.46702" lon="-1.49093">
        <ele>37</ele>
        <time>2019-03-26T17:12:20Z</time>
      </trkpt>
      <trkpt lat="46.46706" lon="-1.49097">
        <ele>37</ele>
        <time>2019-03-26T17:12:23Z</time>
      </trkpt>
      <trkpt lat="46.46709" lon="-1.491">
        <ele>37</ele>
        <time>2019-03-26T17:12:25Z</time>
      </trkpt>
      <trkpt lat="46.46713" lon="-1.49104">
        <ele>37</ele>
        <time>2019-03-26T17:12:28Z</time>
      </trkpt>
      <trkpt lat="46.46716" lon="-1.49106">
        <ele>37</ele>
        <time>2019-03-26T17:12:31Z</time>
      </trkpt>
      <trkpt lat="46.4672" lon="-1.49108">
        <ele>37</ele>
        <time>2019-03-26T17:12:33Z</time>
      </trkpt>
      <trkpt lat="46.46724" lon="-1.49112">
        <ele>37</ele>
        <time>2019-03-26T17:12:36Z</time>
      </trkpt>
      <trkpt lat="46.46726" lon="-1.49115">
        <ele>38</ele>
        <time>2019-03-26T17:12:38Z</time>
      </trkpt>
      <trkpt lat="46.46732" lon="-1.49117">
        <ele>38</ele>
        <time>2019-03-26T17:12:41Z</time>
      </trkpt>
      <trkpt lat="46.46735" lon="-1.4912">
        <ele>38</ele>
        <time>2019-03-26T17:12:43Z</time>
      </trkpt>
      <trkpt lat="46.46739" lon="-1.49124">
        <ele>38</ele>
        <time>2019-03-26T17:12:46Z</time>
      </trkpt>
      <trkpt lat="46.46742" lon="-1.49125">
        <ele>38</ele>
        <time>2019-03-26T17:12:48Z</time>
      </trkpt>
      <trkpt lat="46.46747" lon="-1.49127">
        <ele>38</ele>
        <time>2019-03-26T17:12:51Z</time>
      </trkpt>
      <trkpt lat="46.4675" lon="-1.49127">
        <ele>38</ele>
        <time>2019-03-26T17:12:53Z</time>
      </trkpt>
      <trkpt lat="46.46753" lon="-1.49129">
        <ele>38</ele>
        <time>2019-03-26T17:12:56Z</time>
      </trkpt>
      <trkpt lat="46.46755" lon="-1.49131">
        <ele>38</ele>
        <time>2019-03-26T17:12:58Z</time>
      </trkpt>
      <trkpt lat="46.46758" lon="-1.49133">
        <ele>38</ele>
        <time>2019-03-26T17:13:01Z</time>
      </trkpt>
      <trkpt lat="46.46763" lon="-1.49134">
        <ele>38</ele>
        <time>2019-03-26T17:13:04Z</time>
      </trkpt>
      <trkpt lat="46.46766" lon="-1.49135">
        <ele>39</ele>
        <time>2019-03-26T17:13:06Z</time>
      </trkpt>
      <trkpt lat="46.46771" lon="-1.49136">
        <ele>39</ele>
        <time>2019-03-26T17:13:09Z</time>
      </trkpt>
      <trkpt lat="46.46774" lon="-1.49135">
        <ele>39</ele>
        <time>2019-03-26T17:13:11Z</time>
      </trkpt>
      <trkpt lat="46.46779" lon="-1.49135">
        <ele>39</ele>
        <time>2019-03-26T17:13:14Z</time>
      </trkpt>
      <trkpt lat="46.46783" lon="-1.49135">
        <ele>39</ele>
        <time>2019-03-26T17:13:16Z</time>
      </trkpt>
      <trkpt lat="46.46787" lon="-1.49136">
        <ele>39</ele>
        <time>2019-03-26T17:13:19Z</time>
      </trkpt>
      <trkpt lat="46.4679" lon="-1.49136">
        <ele>39</ele>
        <time>2019-03-26T17:13:21Z</time>
      </trkpt>
      <trkpt lat="46.46795" lon="-1.49137">
        <ele>39</ele>
        <time>2019-03-26T17:13:24Z</time>
      </trkpt>
      <trkpt lat="46.46798" lon="-1.49138">
        <ele>39</ele>
        <time>2019-03-26T17:13:26Z</time>
      </trkpt>
      <trkpt lat="46.46802" lon="-1.49139">
        <ele>39</ele>
        <time>2019-03-26T17:13:29Z</time>
      </trkpt>
      <trkpt lat="46.46805" lon="-1.4914">
        <ele>39</ele>
        <time>2019-03-26T17:13:31Z</time>
      </trkpt>
      <trkpt lat="46.4681" lon="-1.49141">
        <ele>40</ele>
        <time>2019-03-26T17:13:34Z</time>
      </trkpt>
      <trkpt lat="46.46812" lon="-1.49141">
        <ele>40</ele>
        <time>2019-03-26T17:13:36Z</time>
      </trkpt>
      <trkpt lat="46.46817" lon="-1.49142">
        <ele>40</ele>
        <time>2019-03-26T17:13:39Z</time>
      </trkpt>
      <trkpt lat="46.4682" lon="-1.49142">
        <ele>40</ele>
        <time>2019-03-26T17:13:41Z</time>
      </trkpt>
      <trkpt lat="46.46823" lon="-1.49142">
        <ele>40</ele>
        <time>2019-03-26T17:13:44Z</time>
      </trkpt>
      <trkpt lat="46.46826" lon="-1.49143">
        <ele>40</ele>
        <time>2019-03-26T17:13:46Z</time>
      </trkpt>
      <trkpt lat="46.4683" lon="-1.49144">
        <ele>40</ele>
        <time>2019-03-26T17:13:49Z</time>
      </trkpt>
      <trkpt lat="46.46833" lon="-1.49148">
        <ele>40</ele>
        <time>2019-03-26T17:13:51Z</time>
      </trkpt>
      <trkpt lat="46.46838" lon="-1.49151">
        <ele>40</ele>
        <time>2019-03-26T17:13:54Z</time>
      </trkpt>
      <trkpt lat="46.4684" lon="-1.49153">
        <ele>40</ele>
        <time>2019-03-26T17:13:56Z</time>
      </trkpt>
      <trkpt lat="46.46845" lon="-1.49154">
        <ele>41</ele>
        <time>2019-03-26T17:13:59Z</time>
      </trkpt>
      <trkpt lat="46.46848" lon="-1.49154">
        <ele>41</ele>
        <time>2019-03-26T17:14:01Z</time>
      </trkpt>
      <trkpt lat="46.46853" lon="-1.49156">
        <ele>41</ele>
        <time>2019-03-26T17:14:04Z</time>
      </trkpt>
      <trkpt lat="46.46856" lon="-1.49157">
        <ele>41</ele>
        <time>2019-03-26T17:14:06Z</time>
      </trkpt>
      <trkpt lat="46.4686" lon="-1.4916">
        <ele>41</ele>
        <time>2019-03-26T17:14:09Z</time>
      </trkpt>
      <trkpt lat="46.46862" lon="-1.49161">
        <ele>41</ele>
        <time>2019-03-26T17:14:11Z</time>
      </trkpt>
      <trkpt lat="46.46866" lon="-1.49163">
        <ele>41</ele>
        <time>2019-03-26T17:14:14Z</time>
      </trkpt>
      <trkpt lat="46.46868" lon="-1.49164">
        <ele>41</ele>
        <time>2019-03-26T17:14:16Z</time>
      </trkpt>
      <trkpt lat="46.46872" lon="-1.49165">
        <ele>41</ele>
        <time>2019-03-26T17:14:19Z</time>
      </trkpt>
      <trkpt lat="46.46876" lon="-1.49168">
        <ele>41</ele>
        <time>2019-03-26T17:14:22Z</time>
      </trkpt>
      <trkpt lat="46.46879" lon="-1.49169">
        <ele>41</ele>
        <time>2019-03-26T17:14:24Z</time>
      </trkpt>
      <trkpt lat="46.46883" lon="-1.49171">
        <ele>41</ele>
        <time>2019-03-26T17:14:27Z</time>
      </trkpt>
      <trkpt lat="46.46886" lon="-1.49171">
        <ele>41</ele>
        <time>2019-03-26T17:14:29Z</time>
      </trkpt>
      <trkpt lat="46.46891" lon="-1.49174">
        <ele>41</ele>
        <time>2019-03-26T17:14:32Z</time>
      </trkpt>
      <trkpt lat="46.46894" lon="-1.49175">
        <ele>41</ele>
        <time>2019-03-26T17:14:34Z</time>
      </trkpt>
      <trkpt lat="46.46898" lon="-1.49176">
        <ele>41</ele>
        <time>2019-03-26T17:14:37Z</time>
      </trkpt>
      <trkpt lat="46.46902" lon="-1.49179">
        <ele>41</ele>
        <time>2019-03-26T17:14:40Z</time>
      </trkpt>
      <trkpt lat="46.46905" lon="-1.49181">
        <ele>41</ele>
        <time>2019-03-26T17:14:42Z</time>
      </trkpt>
      <trkpt lat="46.46909" lon="-1.49183">
        <ele>41</ele>
        <time>2019-03-26T17:14:45Z</time>
      </trkpt>
      <trkpt lat="46.46912" lon="-1.49186">
        <ele>41</ele>
        <time>2019-03-26T17:14:47Z</time>
      </trkpt>
      <trkpt lat="46.46916" lon="-1.49189">
        <ele>41</ele>
        <time>2019-03-26T17:14:50Z</time>
      </trkpt>
      <trkpt lat="46.46919" lon="-1.49191">
        <ele>41</ele>
        <time>2019-03-26T17:14:52Z</time>
      </trkpt>
      <trkpt lat="46.46923" lon="-1.49195">
        <ele>42</ele>
        <time>2019-03-26T17:14:55Z</time>
      </trkpt>
      <trkpt lat="46.46926" lon="-1.49198">
        <ele>42</ele>
        <time>2019-03-26T17:14:57Z</time>
      </trkpt>
      <trkpt lat="46.46931" lon="-1.49202">
        <ele>42</ele>
        <time>2019-03-26T17:15:00Z</time>
      </trkpt>
      <trkpt lat="46.46934" lon="-1.49204">
        <ele>42</ele>
        <time>2019-03-26T17:15:02Z</time>
      </trkpt>
      <trkpt lat="46.46938" lon="-1.49206">
        <ele>42</ele>
        <time>2019-03-26T17:15:05Z</time>
      </trkpt>
      <trkpt lat="46.4694" lon="-1.49208">
        <ele>42</ele>
        <time>2019-03-26T17:15:07Z</time>
      </trkpt>
      <trkpt lat="46.46945" lon="-1.49211">
        <ele>42</ele>
        <time>2019-03-26T17:15:10Z</time>
      </trkpt>
      <trkpt lat="46.46948" lon="-1.49213">
        <ele>42</ele>
        <time>2019-03-26T17:15:12Z</time>
      </trkpt>
      <trkpt lat="46.46952" lon="-1.49216">
        <ele>42</ele>
        <time>2019-03-26T17:15:15Z</time>
      </trkpt>
      <trkpt lat="46.46954" lon="-1.4922">
        <ele>43</ele>
        <time>2019-03-26T17:15:18Z</time>
      </trkpt>
      <trkpt lat="46.46957" lon="-1.49224">
        <ele>43</ele>
        <time>2019-03-26T17:15:20Z</time>
      </trkpt>
      <trkpt lat="46.46962" lon="-1.49227">
        <ele>43</ele>
        <time>2019-03-26T17:15:23Z</time>
      </trkpt>
      <trkpt lat="46.46964" lon="-1.4923">
        <ele>43</ele>
        <time>2019-03-26T17:15:25Z</time>
      </trkpt>
      <trkpt lat="46.46968" lon="-1.49234">
        <ele>43</ele>
        <time>2019-03-26T17:15:28Z</time>
      </trkpt>
      <trkpt lat="46.4697" lon="-1.49237">
        <ele>43</ele>
        <time>2019-03-26T17:15:30Z</time>
      </trkpt>
      <trkpt lat="46.46973" lon="-1.49242">
        <ele>43</ele>
        <time>2019-03-26T17:15:33Z</time>
      </trkpt>
      <trkpt lat="46.46975" lon="-1.49244">
        <ele>43</ele>
        <time>2019-03-26T17:15:35Z</time>
      </trkpt>
      <trkpt lat="46.46979" lon="-1.49246">
        <ele>43</ele>
        <time>2019-03-26T17:15:38Z</time>
      </trkpt>
      <trkpt lat="46.46981" lon="-1.49248">
        <ele>44</ele>
        <time>2019-03-26T17:15:41Z</time>
      </trkpt>
      <trkpt lat="46.46985" lon="-1.49252">
        <ele>44</ele>
        <time>2019-03-26T17:15:43Z</time>
      </trkpt>
      <trkpt lat="46.46988" lon="-1.49255">
        <ele>44</ele>
        <time>2019-03-26T17:15:46Z</time>
      </trkpt>
      <trkpt lat="46.4699" lon="-1.49258">
        <ele>44</ele>
        <time>2019-03-26T17:15:48Z</time>
      </trkpt>
      <trkpt lat="46.46994" lon="-1.49262">
        <ele>44</ele>
        <time>2019-03-26T17:15:51Z</time>
      </trkpt>
      <trkpt lat="46.46996" lon="-1.49265">
        <ele>44</ele>
        <time>2019-03-26T17:15:53Z</time>
      </trkpt>
      <trkpt lat="46.47" lon="-1.4927">
        <ele>44</ele>
        <time>2019-03-26T17:15:56Z</time>
      </trkpt>
      <trkpt lat="46.47002" lon="-1.49274">
        <ele>44</ele>
        <time>2019-03-26T17:15:58Z</time>
      </trkpt>
      <trkpt lat="46.47006" lon="-1.49279">
        <ele>45</ele>
        <time>2019-03-26T17:16:01Z</time>
      </trkpt>
      <trkpt lat="46.47008" lon="-1.49282">
        <ele>45</ele>
        <time>2019-03-26T17:16:03Z</time>
      </trkpt>
      <trkpt lat="46.4701" lon="-1.49286">
        <ele>45</ele>
        <time>2019-03-26T17:16:06Z</time>
      </trkpt>
      <trkpt lat="46.47011" lon="-1.49288">
        <ele>45</ele>
        <time>2019-03-26T17:16:08Z</time>
      </trkpt>
      <trkpt lat="46.47013" lon="-1.4929">
        <ele>45</ele>
        <time>2019-03-26T17:16:11Z</time>
      </trkpt>
      <trkpt lat="46.47015" lon="-1.49294">
        <ele>45</ele>
        <time>2019-03-26T17:16:13Z</time>
      </trkpt>
      <trkpt lat="46.47018" lon="-1.49299">
        <ele>45</ele>
        <time>2019-03-26T17:16:16Z</time>
      </trkpt>
      <trkpt lat="46.4702" lon="-1.49301">
        <ele>45</ele>
        <time>2019-03-26T17:16:18Z</time>
      </trkpt>
      <trkpt lat="46.47023" lon="-1.49304">
        <ele>46</ele>
        <time>2019-03-26T17:16:21Z</time>
      </trkpt>
      <trkpt lat="46.47026" lon="-1.49306">
        <ele>46</ele>
        <time>2019-03-26T17:16:23Z</time>
      </trkpt>
      <trkpt lat="46.4703" lon="-1.49308">
        <ele>46</ele>
        <time>2019-03-26T17:16:26Z</time>
      </trkpt>
      <trkpt lat="46.47031" lon="-1.4931">
        <ele>46</ele>
        <time>2019-03-26T17:16:28Z</time>
      </trkpt>
      <trkpt lat="46.47035" lon="-1.49313">
        <ele>46</ele>
        <time>2019-03-26T17:16:31Z</time>
      </trkpt>
      <trkpt lat="46.47037" lon="-1.49314">
        <ele>46</ele>
        <time>2019-03-26T17:16:33Z</time>
      </trkpt>
      <trkpt lat="46.47041" lon="-1.49317">
        <ele>46</ele>
        <time>2019-03-26T17:16:36Z</time>
      </trkpt>
      <trkpt lat="46.47044" lon="-1.4932">
        <ele>47</ele>
        <time>2019-03-26T17:16:38Z</time>
      </trkpt>
      <trkpt lat="46.47047" lon="-1.49324">
        <ele>47</ele>
        <time>2019-03-26T17:16:41Z</time>
      </trkpt>
      <trkpt lat="46.47048" lon="-1.49327">
        <ele>47</ele>
        <time>2019-03-26T17:16:43Z</time>
      </trkpt>
      <trkpt lat="46.47051" lon="-1.4933">
        <ele>47</ele>
        <time>2019-03-26T17:16:46Z</time>
      </trkpt>
      <trkpt lat="46.47055" lon="-1.49335">
        <ele>47</ele>
        <time>2019-03-26T17:16:48Z</time>
      </trkpt>
      <trkpt lat="46.47057" lon="-1.49337">
        <ele>47</ele>
        <time>2019-03-26T17:16:51Z</time>
      </trkpt>
      <trkpt lat="46.4706" lon="-1.49341">
        <ele>47</ele>
        <time>2019-03-26T17:16:53Z</time>
      </trkpt>
      <trkpt lat="46.47061" lon="-1.49344">
        <ele>47</ele>
        <time>2019-03-26T17:16:55Z</time>
      </trkpt>
      <trkpt lat="46.4706" lon="-1.49349">
        <ele>47</ele>
        <time>2019-03-26T17:16:58Z</time>
      </trkpt>
      <trkpt lat="46.47058" lon="-1.4935">
        <ele>47</ele>
        <time>2019-03-26T17:17:00Z</time>
      </trkpt>
      <trkpt lat="46.47055" lon="-1.49354">
        <ele>47</ele>
        <time>2019-03-26T17:17:03Z</time>
      </trkpt>
      <trkpt lat="46.47053" lon="-1.49358">
        <ele>47</ele>
        <time>2019-03-26T17:17:06Z</time>
      </trkpt>
      <trkpt lat="46.47049" lon="-1.49361">
        <ele>47</ele>
        <time>2019-03-26T17:17:08Z</time>
      </trkpt>
      <trkpt lat="46.47047" lon="-1.49365">
        <ele>47</ele>
        <time>2019-03-26T17:17:11Z</time>
      </trkpt>
      <trkpt lat="46.47044" lon="-1.49368">
        <ele>47</ele>
        <time>2019-03-26T17:17:13Z</time>
      </trkpt>
      <trkpt lat="46.47042" lon="-1.49371">
        <ele>48</ele>
        <time>2019-03-26T17:17:16Z</time>
      </trkpt>
      <trkpt lat="46.4704" lon="-1.49376">
        <ele>48</ele>
        <time>2019-03-26T17:17:18Z</time>
      </trkpt>
      <trkpt lat="46.47039" lon="-1.49379">
        <ele>48</ele>
        <time>2019-03-26T17:17:21Z</time>
      </trkpt>
      <trkpt lat="46.47036" lon="-1.49378">
        <ele>48</ele>
        <time>2019-03-26T17:17:23Z</time>
      </trkpt>
      <trkpt lat="46.47034" lon="-1.49376">
        <ele>48</ele>
        <time>2019-03-26T17:17:26Z</time>
      </trkpt>
      <trkpt lat="46.47033" lon="-1.49373">
        <ele>48</ele>
        <time>2019-03-26T17:17:28Z</time>
      </trkpt>
      <trkpt lat="46.47031" lon="-1.4937">
        <ele>48</ele>
        <time>2019-03-26T17:17:31Z</time>
      </trkpt>
      <trkpt lat="46.47029" lon="-1.49368">
        <ele>48</ele>
        <time>2019-03-26T17:17:33Z</time>
      </trkpt>
      <trkpt lat="46.47027" lon="-1.49365">
        <ele>48</ele>
        <time>2019-03-26T17:17:36Z</time>
      </trkpt>
      <trkpt lat="46.47026" lon="-1.49362">
        <ele>47</ele>
        <time>2019-03-26T17:17:38Z</time>
      </trkpt>
      <trkpt lat="46.47023" lon="-1.49358">
        <ele>47</ele>
        <time>2019-03-26T17:17:41Z</time>
      </trkpt>
      <trkpt lat="46.47021" lon="-1.49356">
        <ele>47</ele>
        <time>2019-03-26T17:17:43Z</time>
      </trkpt>
      <trkpt lat="46.47017" lon="-1.49356">
        <ele>47</ele>
        <time>2019-03-26T17:17:46Z</time>
      </trkpt>
      <trkpt lat="46.47015" lon="-1.49355">
        <ele>47</ele>
        <time>2019-03-26T17:17:48Z</time>
      </trkpt>
      <trkpt lat="46.47011" lon="-1.49357">
        <ele>47</ele>
        <time>2019-03-26T17:17:51Z</time>
      </trkpt>
      <trkpt lat="46.47009" lon="-1.4936">
        <ele>47</ele>
        <time>2019-03-26T17:17:53Z</time>
      </trkpt>
      <trkpt lat="46.47007" lon="-1.4936">
        <ele>47</ele>
        <time>2019-03-26T17:17:56Z</time>
      </trkpt>
      <trkpt lat="46.47012" lon="-1.49349">
        <ele>47</ele>
        <time>2019-03-26T17:18:09Z</time>
      </trkpt>
      <trkpt lat="46.47011" lon="-1.4935">
        <ele>47</ele>
        <time>2019-03-26T17:18:11Z</time>
      </trkpt>
      <trkpt lat="46.47009" lon="-1.49352">
        <ele>47</ele>
        <time>2019-03-26T17:18:14Z</time>
      </trkpt>
      <trkpt lat="46.47003" lon="-1.49378">
        <ele>48</ele>
        <time>2019-03-26T17:18:34Z</time>
      </trkpt>
      <trkpt lat="46.47008" lon="-1.49376">
        <ele>48</ele>
        <time>2019-03-26T17:18:36Z</time>
      </trkpt>
      <trkpt lat="46.47014" lon="-1.49376">
        <ele>48</ele>
        <time>2019-03-26T17:18:39Z</time>
      </trkpt>
      <trkpt lat="46.47017" lon="-1.49377">
        <ele>48</ele>
        <time>2019-03-26T17:18:41Z</time>
      </trkpt>
      <trkpt lat="46.47019" lon="-1.49379">
        <ele>48</ele>
        <time>2019-03-26T17:18:44Z</time>
      </trkpt>
      <trkpt lat="46.47017" lon="-1.49381">
        <ele>48</ele>
        <time>2019-03-26T17:18:47Z</time>
      </trkpt>
      <trkpt lat="46.47016" lon="-1.49383">
        <ele>48</ele>
        <time>2019-03-26T17:18:49Z</time>
      </trkpt>
      <trkpt lat="46.47016" lon="-1.49385">
        <ele>48</ele>
        <time>2019-03-26T17:18:52Z</time>
      </trkpt>
      <trkpt lat="46.47014" lon="-1.49388">
        <ele>48</ele>
        <time>2019-03-26T17:18:54Z</time>
      </trkpt>
      <trkpt lat="46.47012" lon="-1.49392">
        <ele>48</ele>
        <time>2019-03-26T17:18:57Z</time>
      </trkpt>
      <trkpt lat="46.47011" lon="-1.49394">
        <ele>48</ele>
        <time>2019-03-26T17:18:59Z</time>
      </trkpt>
      <trkpt lat="46.4701" lon="-1.49397">
        <ele>48</ele>
        <time>2019-03-26T17:19:02Z</time>
      </trkpt>
      <trkpt lat="46.47009" lon="-1.49399">
        <ele>48</ele>
        <time>2019-03-26T17:19:04Z</time>
      </trkpt>
      <trkpt lat="46.47009" lon="-1.494">
        <ele>48</ele>
        <time>2019-03-26T17:19:07Z</time>
      </trkpt>
      <trkpt lat="46.47008" lon="-1.494">
        <ele>48</ele>
        <time>2019-03-26T17:19:09Z</time>
      </trkpt>
      <trkpt lat="46.47008" lon="-1.49399">
        <ele>48</ele>
        <time>2019-03-26T17:19:12Z</time>
      </trkpt>
      <trkpt lat="46.47008" lon="-1.494">
        <ele>48</ele>
        <time>2019-03-26T17:19:14Z</time>
      </trkpt>
      <trkpt lat="46.47008" lon="-1.49401">
        <ele>48</ele>
        <time>2019-03-26T17:19:17Z</time>
      </trkpt>
      <trkpt lat="46.47009" lon="-1.49401">
        <ele>48</ele>
        <time>2019-03-26T17:19:19Z</time>
      </trkpt>
      <trkpt lat="46.47008" lon="-1.49399">
        <ele>48</ele>
        <time>2019-03-26T17:19:22Z</time>
      </trkpt>
      <trkpt lat="46.4701" lon="-1.49399">
        <ele>48</ele>
        <time>2019-03-26T17:19:24Z</time>
      </trkpt>
      <trkpt lat="46.47011" lon="-1.49399">
        <ele>48</ele>
        <time>2019-03-26T17:19:27Z</time>
      </trkpt>
      <trkpt lat="46.47011" lon="-1.494">
        <ele>48</ele>
        <time>2019-03-26T17:19:29Z</time>
      </trkpt>
      <trkpt lat="46.47011" lon="-1.494">
        <ele>48</ele>
        <time>2019-03-26T17:19:32Z</time>
      </trkpt>
      <trkpt lat="46.47011" lon="-1.494">
        <ele>48</ele>
        <time>2019-03-26T17:19:34Z</time>
      </trkpt>
      <trkpt lat="46.4701" lon="-1.49401">
        <ele>48</ele>
        <time>2019-03-26T17:19:37Z</time>
      </trkpt>
      <trkpt lat="46.4701" lon="-1.49401">
        <ele>48</ele>
        <time>2019-03-26T17:19:39Z</time>
      </trkpt>
    </trkseg>
  </trk>
</gpx>